<?xml version="1.0" encoding="UTF-8" standalone="no" ?>
<gpx xmlns="http://www.topografix.com/GPX/1/1" xmlns:xsi="http://www.w3.org/2001/XMLSchema-instance" xsi:schemaLocation="http://www.topografix.com/GPX/1/1 http://www.topografix.com/GPX/1/1/gpx.xsd" version="1.1" creator="VisuGPX - https://www.visugpx.com">
  <metadata>
    <name>Champagnat Cyclisme sur route</name>
  </metadata>
  <trk>
    <name><![CDATA[Champagnat Cyclisme sur route_1]]></name>
    <trkseg>
      <trkpt lat="46.4827" lon="5.36836">
        <ele>269.4</ele>
        <time>2021-12-03T12:06:22Z</time>
      </trkpt>
      <trkpt lat="46.48254" lon="5.36817">
        <ele>267.4</ele>
        <time>2021-12-03T12:06:24Z</time>
      </trkpt>
      <trkpt lat="46.48235" lon="5.368">
        <ele>265.8</ele>
        <time>2021-12-03T12:06:26Z</time>
      </trkpt>
      <trkpt lat="46.48215" lon="5.36784">
        <ele>264</ele>
        <time>2021-12-03T12:06:28Z</time>
      </trkpt>
      <trkpt lat="46.48205" lon="5.36777">
        <ele>262.6</ele>
        <time>2021-12-03T12:06:29Z</time>
      </trkpt>
      <trkpt lat="46.48186" lon="5.36761">
        <ele>261.4</ele>
        <time>2021-12-03T12:06:31Z</time>
      </trkpt>
      <trkpt lat="46.48159" lon="5.36738">
        <ele>259.8</ele>
        <time>2021-12-03T12:06:34Z</time>
      </trkpt>
      <trkpt lat="46.4815" lon="5.36731">
        <ele>258.8</ele>
        <time>2021-12-03T12:06:35Z</time>
      </trkpt>
      <trkpt lat="46.48141" lon="5.36724">
        <ele>258.2</ele>
        <time>2021-12-03T12:06:36Z</time>
      </trkpt>
      <trkpt lat="46.48132" lon="5.36717">
        <ele>257.4</ele>
        <time>2021-12-03T12:06:37Z</time>
      </trkpt>
      <trkpt lat="46.48112" lon="5.36699">
        <ele>256</ele>
        <time>2021-12-03T12:06:40Z</time>
      </trkpt>
      <trkpt lat="46.4811" lon="5.36684">
        <ele>255.2</ele>
        <time>2021-12-03T12:06:42Z</time>
      </trkpt>
      <trkpt lat="46.48113" lon="5.36677">
        <ele>255</ele>
        <time>2021-12-03T12:06:43Z</time>
      </trkpt>
      <trkpt lat="46.48122" lon="5.36664">
        <ele>254.2</ele>
        <time>2021-12-03T12:06:45Z</time>
      </trkpt>
      <trkpt lat="46.48136" lon="5.36651">
        <ele>253.6</ele>
        <time>2021-12-03T12:06:47Z</time>
      </trkpt>
      <trkpt lat="46.48148" lon="5.36638">
        <ele>253</ele>
        <time>2021-12-03T12:06:49Z</time>
      </trkpt>
      <trkpt lat="46.48163" lon="5.36624">
        <ele>252.4</ele>
        <time>2021-12-03T12:06:51Z</time>
      </trkpt>
      <trkpt lat="46.48176" lon="5.36612">
        <ele>251.8</ele>
        <time>2021-12-03T12:06:53Z</time>
      </trkpt>
      <trkpt lat="46.48184" lon="5.36608">
        <ele>251.6</ele>
        <time>2021-12-03T12:06:54Z</time>
      </trkpt>
      <trkpt lat="46.48191" lon="5.36605">
        <ele>251.4</ele>
        <time>2021-12-03T12:06:55Z</time>
      </trkpt>
      <trkpt lat="46.482" lon="5.36603">
        <ele>251.2</ele>
        <time>2021-12-03T12:06:56Z</time>
      </trkpt>
      <trkpt lat="46.48207" lon="5.366">
        <ele>251.2</ele>
        <time>2021-12-03T12:06:57Z</time>
      </trkpt>
      <trkpt lat="46.48213" lon="5.36594">
        <ele>251.2</ele>
        <time>2021-12-03T12:06:58Z</time>
      </trkpt>
      <trkpt lat="46.48218" lon="5.36584">
        <ele>251.2</ele>
        <time>2021-12-03T12:06:59Z</time>
      </trkpt>
      <trkpt lat="46.48225" lon="5.36565">
        <ele>251</ele>
        <time>2021-12-03T12:07:01Z</time>
      </trkpt>
      <trkpt lat="46.48236" lon="5.36548">
        <ele>251</ele>
        <time>2021-12-03T12:07:03Z</time>
      </trkpt>
      <trkpt lat="46.48243" lon="5.36542">
        <ele>250.8</ele>
        <time>2021-12-03T12:07:04Z</time>
      </trkpt>
      <trkpt lat="46.48276" lon="5.36505">
        <ele>250.2</ele>
        <time>2021-12-03T12:07:09Z</time>
      </trkpt>
      <trkpt lat="46.48289" lon="5.36491">
        <ele>249.8</ele>
        <time>2021-12-03T12:07:11Z</time>
      </trkpt>
      <trkpt lat="46.48303" lon="5.36476">
        <ele>249.2</ele>
        <time>2021-12-03T12:07:13Z</time>
      </trkpt>
      <trkpt lat="46.48331" lon="5.36446">
        <ele>247.8</ele>
        <time>2021-12-03T12:07:17Z</time>
      </trkpt>
      <trkpt lat="46.48359" lon="5.36415">
        <ele>247.2</ele>
        <time>2021-12-03T12:07:21Z</time>
      </trkpt>
      <trkpt lat="46.48374" lon="5.36399">
        <ele>246.6</ele>
        <time>2021-12-03T12:07:23Z</time>
      </trkpt>
      <trkpt lat="46.48394" lon="5.36377">
        <ele>245.4</ele>
        <time>2021-12-03T12:07:26Z</time>
      </trkpt>
      <trkpt lat="46.48416" lon="5.3636">
        <ele>244.6</ele>
        <time>2021-12-03T12:07:29Z</time>
      </trkpt>
      <trkpt lat="46.48423" lon="5.36356">
        <ele>244.4</ele>
        <time>2021-12-03T12:07:30Z</time>
      </trkpt>
      <trkpt lat="46.48439" lon="5.3635">
        <ele>244.2</ele>
        <time>2021-12-03T12:07:32Z</time>
      </trkpt>
      <trkpt lat="46.48446" lon="5.36348">
        <ele>244</ele>
        <time>2021-12-03T12:07:33Z</time>
      </trkpt>
      <trkpt lat="46.48498" lon="5.3634">
        <ele>243.6</ele>
        <time>2021-12-03T12:07:40Z</time>
      </trkpt>
      <trkpt lat="46.48549" lon="5.36331">
        <ele>243.4</ele>
        <time>2021-12-03T12:07:47Z</time>
      </trkpt>
      <trkpt lat="46.48602" lon="5.36323">
        <ele>242.6</ele>
        <time>2021-12-03T12:07:54Z</time>
      </trkpt>
      <trkpt lat="46.4861" lon="5.36321">
        <ele>242.4</ele>
        <time>2021-12-03T12:07:55Z</time>
      </trkpt>
      <trkpt lat="46.48619" lon="5.36316">
        <ele>242.4</ele>
        <time>2021-12-03T12:07:56Z</time>
      </trkpt>
      <trkpt lat="46.48626" lon="5.36308">
        <ele>242</ele>
        <time>2021-12-03T12:07:57Z</time>
      </trkpt>
      <trkpt lat="46.48633" lon="5.36287">
        <ele>241.2</ele>
        <time>2021-12-03T12:07:59Z</time>
      </trkpt>
      <trkpt lat="46.48636" lon="5.36272">
        <ele>241</ele>
        <time>2021-12-03T12:08:00Z</time>
      </trkpt>
      <trkpt lat="46.48639" lon="5.36246">
        <ele>239.8</ele>
        <time>2021-12-03T12:08:02Z</time>
      </trkpt>
      <trkpt lat="46.48642" lon="5.36223">
        <ele>238.6</ele>
        <time>2021-12-03T12:08:04Z</time>
      </trkpt>
      <trkpt lat="46.48643" lon="5.36207">
        <ele>238.4</ele>
        <time>2021-12-03T12:08:05Z</time>
      </trkpt>
      <trkpt lat="46.48644" lon="5.36194">
        <ele>237.6</ele>
        <time>2021-12-03T12:08:06Z</time>
      </trkpt>
      <trkpt lat="46.48647" lon="5.36158">
        <ele>236.6</ele>
        <time>2021-12-03T12:08:09Z</time>
      </trkpt>
      <trkpt lat="46.48651" lon="5.36125">
        <ele>236</ele>
        <time>2021-12-03T12:08:12Z</time>
      </trkpt>
      <trkpt lat="46.48657" lon="5.361">
        <ele>235.8</ele>
        <time>2021-12-03T12:08:14Z</time>
      </trkpt>
      <trkpt lat="46.48666" lon="5.36057">
        <ele>235.4</ele>
        <time>2021-12-03T12:08:18Z</time>
      </trkpt>
      <trkpt lat="46.48673" lon="5.36019">
        <ele>235.6</ele>
        <time>2021-12-03T12:08:22Z</time>
      </trkpt>
      <trkpt lat="46.48676" lon="5.35999">
        <ele>236</ele>
        <time>2021-12-03T12:08:24Z</time>
      </trkpt>
      <trkpt lat="46.48681" lon="5.35973">
        <ele>237</ele>
        <time>2021-12-03T12:08:27Z</time>
      </trkpt>
      <trkpt lat="46.48685" lon="5.35956">
        <ele>237.8</ele>
        <time>2021-12-03T12:08:29Z</time>
      </trkpt>
      <trkpt lat="46.48686" lon="5.35948">
        <ele>237.8</ele>
        <time>2021-12-03T12:08:30Z</time>
      </trkpt>
      <trkpt lat="46.48689" lon="5.35926">
        <ele>238</ele>
        <time>2021-12-03T12:08:32Z</time>
      </trkpt>
      <trkpt lat="46.48696" lon="5.35899">
        <ele>238</ele>
        <time>2021-12-03T12:08:35Z</time>
      </trkpt>
      <trkpt lat="46.48718" lon="5.35844">
        <ele>237.2</ele>
        <time>2021-12-03T12:08:41Z</time>
      </trkpt>
      <trkpt lat="46.48742" lon="5.35788">
        <ele>236</ele>
        <time>2021-12-03T12:08:47Z</time>
      </trkpt>
      <trkpt lat="46.48745" lon="5.35781">
        <ele>235.6</ele>
        <time>2021-12-03T12:08:48Z</time>
      </trkpt>
      <trkpt lat="46.48778" lon="5.35708">
        <ele>234.8</ele>
        <time>2021-12-03T12:08:56Z</time>
      </trkpt>
      <trkpt lat="46.48782" lon="5.35699">
        <ele>234.6</ele>
        <time>2021-12-03T12:08:57Z</time>
      </trkpt>
      <trkpt lat="46.48811" lon="5.35632">
        <ele>235</ele>
        <time>2021-12-03T12:09:05Z</time>
      </trkpt>
      <trkpt lat="46.48813" lon="5.35625">
        <ele>235</ele>
        <time>2021-12-03T12:09:06Z</time>
      </trkpt>
      <trkpt lat="46.48829" lon="5.35592">
        <ele>235.2</ele>
        <time>2021-12-03T12:09:10Z</time>
      </trkpt>
      <trkpt lat="46.48836" lon="5.35576">
        <ele>235</ele>
        <time>2021-12-03T12:09:12Z</time>
      </trkpt>
      <trkpt lat="46.48841" lon="5.35571">
        <ele>235</ele>
        <time>2021-12-03T12:09:13Z</time>
      </trkpt>
      <trkpt lat="46.48846" lon="5.35566">
        <ele>235</ele>
        <time>2021-12-03T12:09:14Z</time>
      </trkpt>
      <trkpt lat="46.48858" lon="5.35562">
        <ele>234.8</ele>
        <time>2021-12-03T12:09:16Z</time>
      </trkpt>
      <trkpt lat="46.48905" lon="5.3556">
        <ele>234.4</ele>
        <time>2021-12-03T12:09:22Z</time>
      </trkpt>
      <trkpt lat="46.48945" lon="5.35558">
        <ele>233.6</ele>
        <time>2021-12-03T12:09:27Z</time>
      </trkpt>
      <trkpt lat="46.48954" lon="5.35557">
        <ele>233.4</ele>
        <time>2021-12-03T12:09:28Z</time>
      </trkpt>
      <trkpt lat="46.48996" lon="5.35555">
        <ele>232.2</ele>
        <time>2021-12-03T12:09:33Z</time>
      </trkpt>
      <trkpt lat="46.49019" lon="5.35554">
        <ele>231.8</ele>
        <time>2021-12-03T12:09:36Z</time>
      </trkpt>
      <trkpt lat="46.49069" lon="5.35552">
        <ele>231.8</ele>
        <time>2021-12-03T12:09:43Z</time>
      </trkpt>
      <trkpt lat="46.4908" lon="5.3555">
        <ele>232</ele>
        <time>2021-12-03T12:09:45Z</time>
      </trkpt>
      <trkpt lat="46.49093" lon="5.35549">
        <ele>232.6</ele>
        <time>2021-12-03T12:09:47Z</time>
      </trkpt>
      <trkpt lat="46.49116" lon="5.35548">
        <ele>233.2</ele>
        <time>2021-12-03T12:09:51Z</time>
      </trkpt>
      <trkpt lat="46.4913" lon="5.35547">
        <ele>233.4</ele>
        <time>2021-12-03T12:09:53Z</time>
      </trkpt>
      <trkpt lat="46.49136" lon="5.35547">
        <ele>233.6</ele>
        <time>2021-12-03T12:09:54Z</time>
      </trkpt>
      <trkpt lat="46.49161" lon="5.35547">
        <ele>234</ele>
        <time>2021-12-03T12:09:58Z</time>
      </trkpt>
      <trkpt lat="46.49172" lon="5.35547">
        <ele>234.4</ele>
        <time>2021-12-03T12:10:00Z</time>
      </trkpt>
      <trkpt lat="46.49189" lon="5.35546">
        <ele>235</ele>
        <time>2021-12-03T12:10:03Z</time>
      </trkpt>
      <trkpt lat="46.49194" lon="5.35545">
        <ele>235.2</ele>
        <time>2021-12-03T12:10:04Z</time>
      </trkpt>
      <trkpt lat="46.49204" lon="5.35544">
        <ele>235.4</ele>
        <time>2021-12-03T12:10:06Z</time>
      </trkpt>
      <trkpt lat="46.49227" lon="5.35544">
        <ele>236</ele>
        <time>2021-12-03T12:10:10Z</time>
      </trkpt>
      <trkpt lat="46.49262" lon="5.3554">
        <ele>236.2</ele>
        <time>2021-12-03T12:10:15Z</time>
      </trkpt>
      <trkpt lat="46.49301" lon="5.35537">
        <ele>236.4</ele>
        <time>2021-12-03T12:10:21Z</time>
      </trkpt>
      <trkpt lat="46.49341" lon="5.35535">
        <ele>236.2</ele>
        <time>2021-12-03T12:10:27Z</time>
      </trkpt>
      <trkpt lat="46.49375" lon="5.35536">
        <ele>235.6</ele>
        <time>2021-12-03T12:10:31Z</time>
      </trkpt>
      <trkpt lat="46.49426" lon="5.3555">
        <ele>234.4</ele>
        <time>2021-12-03T12:10:37Z</time>
      </trkpt>
      <trkpt lat="46.49451" lon="5.3556">
        <ele>234.2</ele>
        <time>2021-12-03T12:10:40Z</time>
      </trkpt>
      <trkpt lat="46.49481" lon="5.35572">
        <ele>233.8</ele>
        <time>2021-12-03T12:10:44Z</time>
      </trkpt>
      <trkpt lat="46.49528" lon="5.35591">
        <ele>233.4</ele>
        <time>2021-12-03T12:10:51Z</time>
      </trkpt>
      <trkpt lat="46.49536" lon="5.35594">
        <ele>233.4</ele>
        <time>2021-12-03T12:10:52Z</time>
      </trkpt>
      <trkpt lat="46.49557" lon="5.35603">
        <ele>233</ele>
        <time>2021-12-03T12:10:55Z</time>
      </trkpt>
      <trkpt lat="46.49594" lon="5.35615">
        <ele>232.4</ele>
        <time>2021-12-03T12:11:00Z</time>
      </trkpt>
      <trkpt lat="46.49623" lon="5.35624">
        <ele>232</ele>
        <time>2021-12-03T12:11:04Z</time>
      </trkpt>
      <trkpt lat="46.49674" lon="5.3564">
        <ele>230.8</ele>
        <time>2021-12-03T12:11:11Z</time>
      </trkpt>
      <trkpt lat="46.49695" lon="5.35646">
        <ele>230</ele>
        <time>2021-12-03T12:11:15Z</time>
      </trkpt>
      <trkpt lat="46.49703" lon="5.35638">
        <ele>229.6</ele>
        <time>2021-12-03T12:11:18Z</time>
      </trkpt>
      <trkpt lat="46.49705" lon="5.35633">
        <ele>229.6</ele>
        <time>2021-12-03T12:11:19Z</time>
      </trkpt>
      <trkpt lat="46.49709" lon="5.35617">
        <ele>229.4</ele>
        <time>2021-12-03T12:11:21Z</time>
      </trkpt>
      <trkpt lat="46.49715" lon="5.35563">
        <ele>228.8</ele>
        <time>2021-12-03T12:11:27Z</time>
      </trkpt>
      <trkpt lat="46.49716" lon="5.35555">
        <ele>228.6</ele>
        <time>2021-12-03T12:11:28Z</time>
      </trkpt>
      <trkpt lat="46.49725" lon="5.35476">
        <ele>228</ele>
        <time>2021-12-03T12:11:36Z</time>
      </trkpt>
      <trkpt lat="46.49726" lon="5.35466">
        <ele>228</ele>
        <time>2021-12-03T12:11:37Z</time>
      </trkpt>
      <trkpt lat="46.49732" lon="5.35414">
        <ele>227.6</ele>
        <time>2021-12-03T12:11:42Z</time>
      </trkpt>
      <trkpt lat="46.49735" lon="5.35395">
        <ele>227.2</ele>
        <time>2021-12-03T12:11:44Z</time>
      </trkpt>
      <trkpt lat="46.49737" lon="5.35362">
        <ele>226.4</ele>
        <time>2021-12-03T12:11:47Z</time>
      </trkpt>
      <trkpt lat="46.49736" lon="5.35328">
        <ele>226.2</ele>
        <time>2021-12-03T12:11:50Z</time>
      </trkpt>
      <trkpt lat="46.49728" lon="5.35283">
        <ele>226.2</ele>
        <time>2021-12-03T12:11:55Z</time>
      </trkpt>
      <trkpt lat="46.49715" lon="5.35225">
        <ele>227</ele>
        <time>2021-12-03T12:12:02Z</time>
      </trkpt>
      <trkpt lat="46.49705" lon="5.35173">
        <ele>227.4</ele>
        <time>2021-12-03T12:12:08Z</time>
      </trkpt>
      <trkpt lat="46.49695" lon="5.35126">
        <ele>227.4</ele>
        <time>2021-12-03T12:12:13Z</time>
      </trkpt>
      <trkpt lat="46.49679" lon="5.35047">
        <ele>226.8</ele>
        <time>2021-12-03T12:12:22Z</time>
      </trkpt>
      <trkpt lat="46.49667" lon="5.34986">
        <ele>227.6</ele>
        <time>2021-12-03T12:12:30Z</time>
      </trkpt>
      <trkpt lat="46.4966" lon="5.3495">
        <ele>228.2</ele>
        <time>2021-12-03T12:12:35Z</time>
      </trkpt>
      <trkpt lat="46.49659" lon="5.34942">
        <ele>228.4</ele>
        <time>2021-12-03T12:12:36Z</time>
      </trkpt>
      <trkpt lat="46.49656" lon="5.34927">
        <ele>229</ele>
        <time>2021-12-03T12:12:38Z</time>
      </trkpt>
      <trkpt lat="46.49647" lon="5.34881">
        <ele>229.2</ele>
        <time>2021-12-03T12:12:44Z</time>
      </trkpt>
      <trkpt lat="46.4964" lon="5.34849">
        <ele>229.4</ele>
        <time>2021-12-03T12:12:48Z</time>
      </trkpt>
      <trkpt lat="46.4963" lon="5.34788">
        <ele>229.2</ele>
        <time>2021-12-03T12:12:55Z</time>
      </trkpt>
      <trkpt lat="46.49628" lon="5.34764">
        <ele>228.8</ele>
        <time>2021-12-03T12:12:57Z</time>
      </trkpt>
      <trkpt lat="46.49629" lon="5.34732">
        <ele>228.4</ele>
        <time>2021-12-03T12:13:00Z</time>
      </trkpt>
      <trkpt lat="46.49629" lon="5.34723">
        <ele>228</ele>
        <time>2021-12-03T12:13:01Z</time>
      </trkpt>
      <trkpt lat="46.49632" lon="5.34686">
        <ele>226.6</ele>
        <time>2021-12-03T12:13:04Z</time>
      </trkpt>
      <trkpt lat="46.49636" lon="5.3465">
        <ele>226</ele>
        <time>2021-12-03T12:13:07Z</time>
      </trkpt>
      <trkpt lat="46.49637" lon="5.34638">
        <ele>225.4</ele>
        <time>2021-12-03T12:13:08Z</time>
      </trkpt>
      <trkpt lat="46.49641" lon="5.34599">
        <ele>224.2</ele>
        <time>2021-12-03T12:13:11Z</time>
      </trkpt>
      <trkpt lat="46.49647" lon="5.34562">
        <ele>223.2</ele>
        <time>2021-12-03T12:13:14Z</time>
      </trkpt>
      <trkpt lat="46.49652" lon="5.34538">
        <ele>222.2</ele>
        <time>2021-12-03T12:13:16Z</time>
      </trkpt>
      <trkpt lat="46.49662" lon="5.34496">
        <ele>221.2</ele>
        <time>2021-12-03T12:13:20Z</time>
      </trkpt>
      <trkpt lat="46.49678" lon="5.34443">
        <ele>221.8</ele>
        <time>2021-12-03T12:13:26Z</time>
      </trkpt>
      <trkpt lat="46.49691" lon="5.34403">
        <ele>223.2</ele>
        <time>2021-12-03T12:13:31Z</time>
      </trkpt>
      <trkpt lat="46.49693" lon="5.34396">
        <ele>223.4</ele>
        <time>2021-12-03T12:13:32Z</time>
      </trkpt>
      <trkpt lat="46.497" lon="5.34375">
        <ele>224</ele>
        <time>2021-12-03T12:13:35Z</time>
      </trkpt>
      <trkpt lat="46.49702" lon="5.34368">
        <ele>224.4</ele>
        <time>2021-12-03T12:13:36Z</time>
      </trkpt>
      <trkpt lat="46.49707" lon="5.34348">
        <ele>224.8</ele>
        <time>2021-12-03T12:13:39Z</time>
      </trkpt>
      <trkpt lat="46.49712" lon="5.34335">
        <ele>225.2</ele>
        <time>2021-12-03T12:13:41Z</time>
      </trkpt>
      <trkpt lat="46.49714" lon="5.34329">
        <ele>225.4</ele>
        <time>2021-12-03T12:13:42Z</time>
      </trkpt>
      <trkpt lat="46.49719" lon="5.34317">
        <ele>226.2</ele>
        <time>2021-12-03T12:13:44Z</time>
      </trkpt>
      <trkpt lat="46.49723" lon="5.3431">
        <ele>226.6</ele>
        <time>2021-12-03T12:13:45Z</time>
      </trkpt>
      <trkpt lat="46.49731" lon="5.34294">
        <ele>226.8</ele>
        <time>2021-12-03T12:13:47Z</time>
      </trkpt>
      <trkpt lat="46.49756" lon="5.34247">
        <ele>227</ele>
        <time>2021-12-03T12:13:53Z</time>
      </trkpt>
      <trkpt lat="46.49791" lon="5.34185">
        <ele>227.2</ele>
        <time>2021-12-03T12:14:01Z</time>
      </trkpt>
      <trkpt lat="46.49819" lon="5.34136">
        <ele>227.6</ele>
        <time>2021-12-03T12:14:08Z</time>
      </trkpt>
      <trkpt lat="46.49827" lon="5.34122">
        <ele>227.6</ele>
        <time>2021-12-03T12:14:10Z</time>
      </trkpt>
      <trkpt lat="46.4987" lon="5.34058">
        <ele>227.6</ele>
        <time>2021-12-03T12:14:19Z</time>
      </trkpt>
      <trkpt lat="46.49908" lon="5.34017">
        <ele>227.2</ele>
        <time>2021-12-03T12:14:26Z</time>
      </trkpt>
      <trkpt lat="46.49937" lon="5.33987">
        <ele>227.6</ele>
        <time>2021-12-03T12:14:32Z</time>
      </trkpt>
      <trkpt lat="46.4995" lon="5.33974">
        <ele>228.4</ele>
        <time>2021-12-03T12:14:35Z</time>
      </trkpt>
      <trkpt lat="46.49965" lon="5.33963">
        <ele>229</ele>
        <time>2021-12-03T12:14:38Z</time>
      </trkpt>
      <trkpt lat="46.49978" lon="5.33949">
        <ele>229.6</ele>
        <time>2021-12-03T12:14:41Z</time>
      </trkpt>
      <trkpt lat="46.49988" lon="5.33939">
        <ele>229.8</ele>
        <time>2021-12-03T12:14:43Z</time>
      </trkpt>
      <trkpt lat="46.49992" lon="5.33935">
        <ele>230</ele>
        <time>2021-12-03T12:14:44Z</time>
      </trkpt>
      <trkpt lat="46.50002" lon="5.33924">
        <ele>230.2</ele>
        <time>2021-12-03T12:14:46Z</time>
      </trkpt>
      <trkpt lat="46.50016" lon="5.33906">
        <ele>230.4</ele>
        <time>2021-12-03T12:14:49Z</time>
      </trkpt>
      <trkpt lat="46.50052" lon="5.33863">
        <ele>230.2</ele>
        <time>2021-12-03T12:14:56Z</time>
      </trkpt>
      <trkpt lat="46.501" lon="5.3381">
        <ele>228.8</ele>
        <time>2021-12-03T12:15:04Z</time>
      </trkpt>
      <trkpt lat="46.5011" lon="5.33799">
        <ele>228.4</ele>
        <time>2021-12-03T12:15:06Z</time>
      </trkpt>
      <trkpt lat="46.50139" lon="5.33769">
        <ele>227.6</ele>
        <time>2021-12-03T12:15:11Z</time>
      </trkpt>
      <trkpt lat="46.5015" lon="5.33757">
        <ele>227.4</ele>
        <time>2021-12-03T12:15:13Z</time>
      </trkpt>
      <trkpt lat="46.50156" lon="5.33752">
        <ele>227.4</ele>
        <time>2021-12-03T12:15:14Z</time>
      </trkpt>
      <trkpt lat="46.50165" lon="5.33743">
        <ele>227.4</ele>
        <time>2021-12-03T12:15:16Z</time>
      </trkpt>
      <trkpt lat="46.50202" lon="5.33705">
        <ele>227.8</ele>
        <time>2021-12-03T12:15:23Z</time>
      </trkpt>
      <trkpt lat="46.50228" lon="5.33674">
        <ele>228.4</ele>
        <time>2021-12-03T12:15:28Z</time>
      </trkpt>
      <trkpt lat="46.50271" lon="5.33623">
        <ele>228</ele>
        <time>2021-12-03T12:15:36Z</time>
      </trkpt>
      <trkpt lat="46.50277" lon="5.33617">
        <ele>227.8</ele>
        <time>2021-12-03T12:15:37Z</time>
      </trkpt>
      <trkpt lat="46.50314" lon="5.33575">
        <ele>227</ele>
        <time>2021-12-03T12:15:44Z</time>
      </trkpt>
      <trkpt lat="46.50341" lon="5.33547">
        <ele>227</ele>
        <time>2021-12-03T12:15:49Z</time>
      </trkpt>
      <trkpt lat="46.50347" lon="5.33541">
        <ele>226.8</ele>
        <time>2021-12-03T12:15:50Z</time>
      </trkpt>
      <trkpt lat="46.50395" lon="5.33488">
        <ele>226.2</ele>
        <time>2021-12-03T12:15:59Z</time>
      </trkpt>
      <trkpt lat="46.504" lon="5.33482">
        <ele>226</ele>
        <time>2021-12-03T12:16:00Z</time>
      </trkpt>
      <trkpt lat="46.50423" lon="5.3346">
        <ele>225.8</ele>
        <time>2021-12-03T12:16:04Z</time>
      </trkpt>
      <trkpt lat="46.50433" lon="5.33447">
        <ele>225.4</ele>
        <time>2021-12-03T12:16:06Z</time>
      </trkpt>
      <trkpt lat="46.50447" lon="5.33426">
        <ele>225</ele>
        <time>2021-12-03T12:16:09Z</time>
      </trkpt>
      <trkpt lat="46.50456" lon="5.33407">
        <ele>224.6</ele>
        <time>2021-12-03T12:16:11Z</time>
      </trkpt>
      <trkpt lat="46.50458" lon="5.33399">
        <ele>224.4</ele>
        <time>2021-12-03T12:16:12Z</time>
      </trkpt>
      <trkpt lat="46.50465" lon="5.33369">
        <ele>224</ele>
        <time>2021-12-03T12:16:15Z</time>
      </trkpt>
      <trkpt lat="46.50467" lon="5.33347">
        <ele>223.8</ele>
        <time>2021-12-03T12:16:17Z</time>
      </trkpt>
      <trkpt lat="46.50469" lon="5.33309">
        <ele>223.6</ele>
        <time>2021-12-03T12:16:21Z</time>
      </trkpt>
      <trkpt lat="46.5047" lon="5.33291">
        <ele>223.4</ele>
        <time>2021-12-03T12:16:23Z</time>
      </trkpt>
      <trkpt lat="46.5047" lon="5.33265">
        <ele>223.6</ele>
        <time>2021-12-03T12:16:26Z</time>
      </trkpt>
      <trkpt lat="46.50471" lon="5.33238">
        <ele>223.8</ele>
        <time>2021-12-03T12:16:29Z</time>
      </trkpt>
      <trkpt lat="46.5047" lon="5.33222">
        <ele>224</ele>
        <time>2021-12-03T12:16:31Z</time>
      </trkpt>
      <trkpt lat="46.50471" lon="5.33153">
        <ele>224.2</ele>
        <time>2021-12-03T12:16:38Z</time>
      </trkpt>
      <trkpt lat="46.50471" lon="5.33094">
        <ele>223.8</ele>
        <time>2021-12-03T12:16:43Z</time>
      </trkpt>
      <trkpt lat="46.50471" lon="5.33041">
        <ele>222.8</ele>
        <time>2021-12-03T12:16:47Z</time>
      </trkpt>
      <trkpt lat="46.50472" lon="5.33014">
        <ele>222</ele>
        <time>2021-12-03T12:16:49Z</time>
      </trkpt>
      <trkpt lat="46.50472" lon="5.33003">
        <ele>221.6</ele>
        <time>2021-12-03T12:16:50Z</time>
      </trkpt>
      <trkpt lat="46.50472" lon="5.32975">
        <ele>220.4</ele>
        <time>2021-12-03T12:16:52Z</time>
      </trkpt>
      <trkpt lat="46.50473" lon="5.32948">
        <ele>219.4</ele>
        <time>2021-12-03T12:16:54Z</time>
      </trkpt>
      <trkpt lat="46.50473" lon="5.32919">
        <ele>218.2</ele>
        <time>2021-12-03T12:16:56Z</time>
      </trkpt>
      <trkpt lat="46.50474" lon="5.32905">
        <ele>217.4</ele>
        <time>2021-12-03T12:16:57Z</time>
      </trkpt>
      <trkpt lat="46.50474" lon="5.32891">
        <ele>216.8</ele>
        <time>2021-12-03T12:16:58Z</time>
      </trkpt>
      <trkpt lat="46.50475" lon="5.32863">
        <ele>215.8</ele>
        <time>2021-12-03T12:17:00Z</time>
      </trkpt>
      <trkpt lat="46.50475" lon="5.32831">
        <ele>214.8</ele>
        <time>2021-12-03T12:17:02Z</time>
      </trkpt>
      <trkpt lat="46.50476" lon="5.32807">
        <ele>213.2</ele>
        <time>2021-12-03T12:17:04Z</time>
      </trkpt>
      <trkpt lat="46.50476" lon="5.32778">
        <ele>211.8</ele>
        <time>2021-12-03T12:17:06Z</time>
      </trkpt>
      <trkpt lat="46.50478" lon="5.32692">
        <ele>211</ele>
        <time>2021-12-03T12:17:13Z</time>
      </trkpt>
      <trkpt lat="46.50479" lon="5.32633">
        <ele>210.8</ele>
        <time>2021-12-03T12:17:18Z</time>
      </trkpt>
      <trkpt lat="46.50478" lon="5.326">
        <ele>210.6</ele>
        <time>2021-12-03T12:17:21Z</time>
      </trkpt>
      <trkpt lat="46.50474" lon="5.32519">
        <ele>209.6</ele>
        <time>2021-12-03T12:17:28Z</time>
      </trkpt>
      <trkpt lat="46.50471" lon="5.32473">
        <ele>209.2</ele>
        <time>2021-12-03T12:17:32Z</time>
      </trkpt>
      <trkpt lat="46.50465" lon="5.32428">
        <ele>208.6</ele>
        <time>2021-12-03T12:17:36Z</time>
      </trkpt>
      <trkpt lat="46.50459" lon="5.32395">
        <ele>208.4</ele>
        <time>2021-12-03T12:17:39Z</time>
      </trkpt>
      <trkpt lat="46.50443" lon="5.32323">
        <ele>208</ele>
        <time>2021-12-03T12:17:46Z</time>
      </trkpt>
      <trkpt lat="46.50439" lon="5.32305">
        <ele>208</ele>
        <time>2021-12-03T12:17:48Z</time>
      </trkpt>
      <trkpt lat="46.50432" lon="5.32246">
        <ele>207.8</ele>
        <time>2021-12-03T12:17:54Z</time>
      </trkpt>
      <trkpt lat="46.50432" lon="5.32219">
        <ele>207.6</ele>
        <time>2021-12-03T12:17:57Z</time>
      </trkpt>
      <trkpt lat="46.50433" lon="5.32208">
        <ele>207.4</ele>
        <time>2021-12-03T12:17:58Z</time>
      </trkpt>
      <trkpt lat="46.50436" lon="5.32199">
        <ele>207.4</ele>
        <time>2021-12-03T12:17:59Z</time>
      </trkpt>
      <trkpt lat="46.5044" lon="5.32192">
        <ele>207.4</ele>
        <time>2021-12-03T12:18:00Z</time>
      </trkpt>
      <trkpt lat="46.50451" lon="5.32184">
        <ele>207.4</ele>
        <time>2021-12-03T12:18:02Z</time>
      </trkpt>
      <trkpt lat="46.50461" lon="5.3217">
        <ele>207.2</ele>
        <time>2021-12-03T12:18:04Z</time>
      </trkpt>
      <trkpt lat="46.50465" lon="5.32162">
        <ele>207.2</ele>
        <time>2021-12-03T12:18:05Z</time>
      </trkpt>
      <trkpt lat="46.50467" lon="5.32155">
        <ele>207.2</ele>
        <time>2021-12-03T12:18:06Z</time>
      </trkpt>
      <trkpt lat="46.50479" lon="5.32119">
        <ele>207.2</ele>
        <time>2021-12-03T12:18:10Z</time>
      </trkpt>
      <trkpt lat="46.50499" lon="5.32072">
        <ele>207.4</ele>
        <time>2021-12-03T12:18:16Z</time>
      </trkpt>
      <trkpt lat="46.50531" lon="5.3202">
        <ele>207.6</ele>
        <time>2021-12-03T12:18:23Z</time>
      </trkpt>
      <trkpt lat="46.50551" lon="5.31989">
        <ele>207.8</ele>
        <time>2021-12-03T12:18:28Z</time>
      </trkpt>
      <trkpt lat="46.50554" lon="5.31983">
        <ele>207.8</ele>
        <time>2021-12-03T12:18:29Z</time>
      </trkpt>
      <trkpt lat="46.50566" lon="5.31952">
        <ele>209</ele>
        <time>2021-12-03T12:18:34Z</time>
      </trkpt>
      <trkpt lat="46.50573" lon="5.31933">
        <ele>210</ele>
        <time>2021-12-03T12:18:37Z</time>
      </trkpt>
      <trkpt lat="46.50577" lon="5.31922">
        <ele>210.6</ele>
        <time>2021-12-03T12:18:39Z</time>
      </trkpt>
      <trkpt lat="46.50582" lon="5.31903">
        <ele>211.2</ele>
        <time>2021-12-03T12:18:42Z</time>
      </trkpt>
      <trkpt lat="46.50586" lon="5.31893">
        <ele>212</ele>
        <time>2021-12-03T12:18:44Z</time>
      </trkpt>
      <trkpt lat="46.50588" lon="5.31886">
        <ele>212.2</ele>
        <time>2021-12-03T12:18:45Z</time>
      </trkpt>
      <trkpt lat="46.50593" lon="5.31877">
        <ele>212.8</ele>
        <time>2021-12-03T12:18:47Z</time>
      </trkpt>
      <trkpt lat="46.50596" lon="5.31867">
        <ele>213.4</ele>
        <time>2021-12-03T12:18:49Z</time>
      </trkpt>
      <trkpt lat="46.50604" lon="5.31847">
        <ele>214.6</ele>
        <time>2021-12-03T12:18:53Z</time>
      </trkpt>
      <trkpt lat="46.50606" lon="5.3184">
        <ele>214.6</ele>
        <time>2021-12-03T12:18:54Z</time>
      </trkpt>
      <trkpt lat="46.5061" lon="5.31829">
        <ele>215</ele>
        <time>2021-12-03T12:18:56Z</time>
      </trkpt>
      <trkpt lat="46.50616" lon="5.31812">
        <ele>215.6</ele>
        <time>2021-12-03T12:18:59Z</time>
      </trkpt>
      <trkpt lat="46.50625" lon="5.31787">
        <ele>216.4</ele>
        <time>2021-12-03T12:19:03Z</time>
      </trkpt>
      <trkpt lat="46.50627" lon="5.31779">
        <ele>216.6</ele>
        <time>2021-12-03T12:19:04Z</time>
      </trkpt>
      <trkpt lat="46.50637" lon="5.31755">
        <ele>217</ele>
        <time>2021-12-03T12:19:08Z</time>
      </trkpt>
      <trkpt lat="46.50641" lon="5.31747">
        <ele>217</ele>
        <time>2021-12-03T12:19:09Z</time>
      </trkpt>
      <trkpt lat="46.5065" lon="5.3173">
        <ele>217.2</ele>
        <time>2021-12-03T12:19:12Z</time>
      </trkpt>
      <trkpt lat="46.5066" lon="5.3172">
        <ele>217.2</ele>
        <time>2021-12-03T12:19:14Z</time>
      </trkpt>
      <trkpt lat="46.50665" lon="5.31717">
        <ele>217.2</ele>
        <time>2021-12-03T12:19:15Z</time>
      </trkpt>
      <trkpt lat="46.50688" lon="5.3171">
        <ele>217.4</ele>
        <time>2021-12-03T12:19:19Z</time>
      </trkpt>
      <trkpt lat="46.50736" lon="5.31705">
        <ele>217.8</ele>
        <time>2021-12-03T12:19:27Z</time>
      </trkpt>
      <trkpt lat="46.50769" lon="5.31705">
        <ele>217.6</ele>
        <time>2021-12-03T12:19:32Z</time>
      </trkpt>
      <trkpt lat="46.50775" lon="5.31707">
        <ele>217.6</ele>
        <time>2021-12-03T12:19:33Z</time>
      </trkpt>
      <trkpt lat="46.50781" lon="5.31711">
        <ele>217.4</ele>
        <time>2021-12-03T12:19:34Z</time>
      </trkpt>
      <trkpt lat="46.50804" lon="5.31727">
        <ele>217.6</ele>
        <time>2021-12-03T12:19:38Z</time>
      </trkpt>
      <trkpt lat="46.50828" lon="5.31743">
        <ele>217.8</ele>
        <time>2021-12-03T12:19:42Z</time>
      </trkpt>
      <trkpt lat="46.5084" lon="5.31746">
        <ele>217.8</ele>
        <time>2021-12-03T12:19:44Z</time>
      </trkpt>
      <trkpt lat="46.50851" lon="5.31742">
        <ele>218.2</ele>
        <time>2021-12-03T12:19:46Z</time>
      </trkpt>
      <trkpt lat="46.50856" lon="5.31739">
        <ele>218.4</ele>
        <time>2021-12-03T12:19:47Z</time>
      </trkpt>
      <trkpt lat="46.50886" lon="5.31707">
        <ele>219</ele>
        <time>2021-12-03T12:19:53Z</time>
      </trkpt>
      <trkpt lat="46.50917" lon="5.31674">
        <ele>219</ele>
        <time>2021-12-03T12:19:59Z</time>
      </trkpt>
      <trkpt lat="46.50949" lon="5.3164">
        <ele>218.4</ele>
        <time>2021-12-03T12:20:04Z</time>
      </trkpt>
      <trkpt lat="46.50975" lon="5.31614">
        <ele>217.6</ele>
        <time>2021-12-03T12:20:08Z</time>
      </trkpt>
      <trkpt lat="46.50994" lon="5.31594">
        <ele>217.4</ele>
        <time>2021-12-03T12:20:11Z</time>
      </trkpt>
      <trkpt lat="46.51025" lon="5.3156">
        <ele>217.6</ele>
        <time>2021-12-03T12:20:17Z</time>
      </trkpt>
      <trkpt lat="46.51029" lon="5.31554">
        <ele>217.8</ele>
        <time>2021-12-03T12:20:18Z</time>
      </trkpt>
      <trkpt lat="46.51034" lon="5.31546">
        <ele>218</ele>
        <time>2021-12-03T12:20:19Z</time>
      </trkpt>
      <trkpt lat="46.51043" lon="5.31521">
        <ele>218</ele>
        <time>2021-12-03T12:20:22Z</time>
      </trkpt>
      <trkpt lat="46.51056" lon="5.31467">
        <ele>217.8</ele>
        <time>2021-12-03T12:20:27Z</time>
      </trkpt>
      <trkpt lat="46.51066" lon="5.31419">
        <ele>216.6</ele>
        <time>2021-12-03T12:20:31Z</time>
      </trkpt>
      <trkpt lat="46.51071" lon="5.31396">
        <ele>215.8</ele>
        <time>2021-12-03T12:20:33Z</time>
      </trkpt>
      <trkpt lat="46.51072" lon="5.31385">
        <ele>215.2</ele>
        <time>2021-12-03T12:20:34Z</time>
      </trkpt>
      <trkpt lat="46.51072" lon="5.31373">
        <ele>215</ele>
        <time>2021-12-03T12:20:35Z</time>
      </trkpt>
      <trkpt lat="46.5107" lon="5.31337">
        <ele>214</ele>
        <time>2021-12-03T12:20:38Z</time>
      </trkpt>
      <trkpt lat="46.51073" lon="5.31313">
        <ele>213.4</ele>
        <time>2021-12-03T12:20:40Z</time>
      </trkpt>
      <trkpt lat="46.51076" lon="5.31304">
        <ele>213</ele>
        <time>2021-12-03T12:20:41Z</time>
      </trkpt>
      <trkpt lat="46.51083" lon="5.31292">
        <ele>212.8</ele>
        <time>2021-12-03T12:20:42Z</time>
      </trkpt>
      <trkpt lat="46.51097" lon="5.31274">
        <ele>212</ele>
        <time>2021-12-03T12:20:44Z</time>
      </trkpt>
      <trkpt lat="46.51103" lon="5.31265">
        <ele>211.6</ele>
        <time>2021-12-03T12:20:45Z</time>
      </trkpt>
      <trkpt lat="46.51125" lon="5.3124">
        <ele>210.4</ele>
        <time>2021-12-03T12:20:48Z</time>
      </trkpt>
      <trkpt lat="46.51132" lon="5.31231">
        <ele>210.2</ele>
        <time>2021-12-03T12:20:49Z</time>
      </trkpt>
      <trkpt lat="46.51153" lon="5.31204">
        <ele>209</ele>
        <time>2021-12-03T12:20:52Z</time>
      </trkpt>
      <trkpt lat="46.51179" lon="5.31174">
        <ele>208</ele>
        <time>2021-12-03T12:20:56Z</time>
      </trkpt>
      <trkpt lat="46.51192" lon="5.31158">
        <ele>208</ele>
        <time>2021-12-03T12:20:58Z</time>
      </trkpt>
      <trkpt lat="46.51203" lon="5.31144">
        <ele>207.8</ele>
        <time>2021-12-03T12:21:00Z</time>
      </trkpt>
      <trkpt lat="46.51251" lon="5.31091">
        <ele>206.8</ele>
        <time>2021-12-03T12:21:07Z</time>
      </trkpt>
      <trkpt lat="46.51266" lon="5.31084">
        <ele>206.4</ele>
        <time>2021-12-03T12:21:09Z</time>
      </trkpt>
      <trkpt lat="46.51274" lon="5.31082">
        <ele>206</ele>
        <time>2021-12-03T12:21:10Z</time>
      </trkpt>
      <trkpt lat="46.51282" lon="5.31081">
        <ele>205.8</ele>
        <time>2021-12-03T12:21:11Z</time>
      </trkpt>
      <trkpt lat="46.51332" lon="5.31077">
        <ele>205.2</ele>
        <time>2021-12-03T12:21:17Z</time>
      </trkpt>
      <trkpt lat="46.5139" lon="5.31073">
        <ele>205.8</ele>
        <time>2021-12-03T12:21:25Z</time>
      </trkpt>
      <trkpt lat="46.51451" lon="5.31071">
        <ele>206</ele>
        <time>2021-12-03T12:21:33Z</time>
      </trkpt>
      <trkpt lat="46.51464" lon="5.3107">
        <ele>205.8</ele>
        <time>2021-12-03T12:21:35Z</time>
      </trkpt>
      <trkpt lat="46.51522" lon="5.31073">
        <ele>205.8</ele>
        <time>2021-12-03T12:21:43Z</time>
      </trkpt>
      <trkpt lat="46.51579" lon="5.31079">
        <ele>206.2</ele>
        <time>2021-12-03T12:21:51Z</time>
      </trkpt>
      <trkpt lat="46.51618" lon="5.31095">
        <ele>206.4</ele>
        <time>2021-12-03T12:21:57Z</time>
      </trkpt>
      <trkpt lat="46.51634" lon="5.31104">
        <ele>206.6</ele>
        <time>2021-12-03T12:22:00Z</time>
      </trkpt>
      <trkpt lat="46.51645" lon="5.31106">
        <ele>206.8</ele>
        <time>2021-12-03T12:22:02Z</time>
      </trkpt>
      <trkpt lat="46.51659" lon="5.31102">
        <ele>208.4</ele>
        <time>2021-12-03T12:22:05Z</time>
      </trkpt>
      <trkpt lat="46.51666" lon="5.31095">
        <ele>208.8</ele>
        <time>2021-12-03T12:22:07Z</time>
      </trkpt>
      <trkpt lat="46.51669" lon="5.31082">
        <ele>209.2</ele>
        <time>2021-12-03T12:22:09Z</time>
      </trkpt>
      <trkpt lat="46.51669" lon="5.31075">
        <ele>209.2</ele>
        <time>2021-12-03T12:22:10Z</time>
      </trkpt>
      <trkpt lat="46.51668" lon="5.31066">
        <ele>209.2</ele>
        <time>2021-12-03T12:22:11Z</time>
      </trkpt>
      <trkpt lat="46.51663" lon="5.31039">
        <ele>209.2</ele>
        <time>2021-12-03T12:22:14Z</time>
      </trkpt>
      <trkpt lat="46.51649" lon="5.30959">
        <ele>208.2</ele>
        <time>2021-12-03T12:22:22Z</time>
      </trkpt>
      <trkpt lat="46.51643" lon="5.30924">
        <ele>207.2</ele>
        <time>2021-12-03T12:22:25Z</time>
      </trkpt>
      <trkpt lat="46.51635" lon="5.30878">
        <ele>206.2</ele>
        <time>2021-12-03T12:22:29Z</time>
      </trkpt>
      <trkpt lat="46.51627" lon="5.30845">
        <ele>204.8</ele>
        <time>2021-12-03T12:22:32Z</time>
      </trkpt>
      <trkpt lat="46.51618" lon="5.30821">
        <ele>204.4</ele>
        <time>2021-12-03T12:22:34Z</time>
      </trkpt>
      <trkpt lat="46.51608" lon="5.30801">
        <ele>203.8</ele>
        <time>2021-12-03T12:22:36Z</time>
      </trkpt>
      <trkpt lat="46.51604" lon="5.30791">
        <ele>203.2</ele>
        <time>2021-12-03T12:22:37Z</time>
      </trkpt>
      <trkpt lat="46.51588" lon="5.30764">
        <ele>202.4</ele>
        <time>2021-12-03T12:22:40Z</time>
      </trkpt>
      <trkpt lat="46.51583" lon="5.30756">
        <ele>202.2</ele>
        <time>2021-12-03T12:22:41Z</time>
      </trkpt>
      <trkpt lat="46.51577" lon="5.30747">
        <ele>202.2</ele>
        <time>2021-12-03T12:22:42Z</time>
      </trkpt>
      <trkpt lat="46.51557" lon="5.30715">
        <ele>201.8</ele>
        <time>2021-12-03T12:22:46Z</time>
      </trkpt>
      <trkpt lat="46.51516" lon="5.30652">
        <ele>201.2</ele>
        <time>2021-12-03T12:22:54Z</time>
      </trkpt>
      <trkpt lat="46.51492" lon="5.30607">
        <ele>201.4</ele>
        <time>2021-12-03T12:23:00Z</time>
      </trkpt>
      <trkpt lat="46.5149" lon="5.30599">
        <ele>201.6</ele>
        <time>2021-12-03T12:23:01Z</time>
      </trkpt>
      <trkpt lat="46.5148" lon="5.30546">
        <ele>201.8</ele>
        <time>2021-12-03T12:23:07Z</time>
      </trkpt>
      <trkpt lat="46.51465" lon="5.30473">
        <ele>201.8</ele>
        <time>2021-12-03T12:23:15Z</time>
      </trkpt>
      <trkpt lat="46.51439" lon="5.30398">
        <ele>202</ele>
        <time>2021-12-03T12:23:24Z</time>
      </trkpt>
      <trkpt lat="46.51437" lon="5.30391">
        <ele>202</ele>
        <time>2021-12-03T12:23:25Z</time>
      </trkpt>
      <trkpt lat="46.51413" lon="5.30325">
        <ele>202</ele>
        <time>2021-12-03T12:23:33Z</time>
      </trkpt>
      <trkpt lat="46.5139" lon="5.30262">
        <ele>201.4</ele>
        <time>2021-12-03T12:23:41Z</time>
      </trkpt>
      <trkpt lat="46.5139" lon="5.30244">
        <ele>201.4</ele>
        <time>2021-12-03T12:23:43Z</time>
      </trkpt>
      <trkpt lat="46.51392" lon="5.30235">
        <ele>201.4</ele>
        <time>2021-12-03T12:23:44Z</time>
      </trkpt>
      <trkpt lat="46.51395" lon="5.30227">
        <ele>201.4</ele>
        <time>2021-12-03T12:23:45Z</time>
      </trkpt>
      <trkpt lat="46.5141" lon="5.30192">
        <ele>201.8</ele>
        <time>2021-12-03T12:23:50Z</time>
      </trkpt>
      <trkpt lat="46.51423" lon="5.3015">
        <ele>203.2</ele>
        <time>2021-12-03T12:23:57Z</time>
      </trkpt>
      <trkpt lat="46.5143" lon="5.30128">
        <ele>204.2</ele>
        <time>2021-12-03T12:24:01Z</time>
      </trkpt>
      <trkpt lat="46.51432" lon="5.30123">
        <ele>204.8</ele>
        <time>2021-12-03T12:24:02Z</time>
      </trkpt>
      <trkpt lat="46.51434" lon="5.30119">
        <ele>205.2</ele>
        <time>2021-12-03T12:24:03Z</time>
      </trkpt>
      <trkpt lat="46.51437" lon="5.30109">
        <ele>206</ele>
        <time>2021-12-03T12:24:05Z</time>
      </trkpt>
      <trkpt lat="46.51443" lon="5.30088">
        <ele>207</ele>
        <time>2021-12-03T12:24:09Z</time>
      </trkpt>
      <trkpt lat="46.51446" lon="5.30078">
        <ele>207.6</ele>
        <time>2021-12-03T12:24:11Z</time>
      </trkpt>
      <trkpt lat="46.51451" lon="5.30063">
        <ele>208.2</ele>
        <time>2021-12-03T12:24:14Z</time>
      </trkpt>
      <trkpt lat="46.51457" lon="5.30042">
        <ele>209.4</ele>
        <time>2021-12-03T12:24:18Z</time>
      </trkpt>
      <trkpt lat="46.51465" lon="5.30017">
        <ele>210.6</ele>
        <time>2021-12-03T12:24:23Z</time>
      </trkpt>
      <trkpt lat="46.5147" lon="5.3">
        <ele>211.2</ele>
        <time>2021-12-03T12:24:26Z</time>
      </trkpt>
      <trkpt lat="46.51471" lon="5.29996">
        <ele>211.6</ele>
        <time>2021-12-03T12:24:27Z</time>
      </trkpt>
      <trkpt lat="46.51488" lon="5.29944">
        <ele>212.4</ele>
        <time>2021-12-03T12:24:36Z</time>
      </trkpt>
      <trkpt lat="46.51497" lon="5.29919">
        <ele>212.8</ele>
        <time>2021-12-03T12:24:40Z</time>
      </trkpt>
      <trkpt lat="46.51502" lon="5.29907">
        <ele>212.8</ele>
        <time>2021-12-03T12:24:42Z</time>
      </trkpt>
      <trkpt lat="46.51508" lon="5.29892">
        <ele>212.8</ele>
        <time>2021-12-03T12:24:44Z</time>
      </trkpt>
      <trkpt lat="46.51523" lon="5.29846">
        <ele>212.4</ele>
        <time>2021-12-03T12:24:50Z</time>
      </trkpt>
      <trkpt lat="46.51536" lon="5.29798">
        <ele>211.8</ele>
        <time>2021-12-03T12:24:56Z</time>
      </trkpt>
      <trkpt lat="46.51544" lon="5.2977">
        <ele>211.6</ele>
        <time>2021-12-03T12:24:59Z</time>
      </trkpt>
      <trkpt lat="46.51551" lon="5.29746">
        <ele>210.6</ele>
        <time>2021-12-03T12:25:01Z</time>
      </trkpt>
      <trkpt lat="46.51554" lon="5.29735">
        <ele>210.6</ele>
        <time>2021-12-03T12:25:02Z</time>
      </trkpt>
      <trkpt lat="46.51567" lon="5.29693">
        <ele>209.4</ele>
        <time>2021-12-03T12:25:06Z</time>
      </trkpt>
      <trkpt lat="46.5157" lon="5.29684">
        <ele>209.4</ele>
        <time>2021-12-03T12:25:07Z</time>
      </trkpt>
      <trkpt lat="46.51575" lon="5.29651">
        <ele>209.4</ele>
        <time>2021-12-03T12:25:11Z</time>
      </trkpt>
      <trkpt lat="46.51574" lon="5.29624">
        <ele>210.6</ele>
        <time>2021-12-03T12:25:15Z</time>
      </trkpt>
      <trkpt lat="46.51574" lon="5.29611">
        <ele>211.2</ele>
        <time>2021-12-03T12:25:17Z</time>
      </trkpt>
      <trkpt lat="46.51575" lon="5.29598">
        <ele>211.8</ele>
        <time>2021-12-03T12:25:19Z</time>
      </trkpt>
      <trkpt lat="46.51578" lon="5.2958">
        <ele>212.6</ele>
        <time>2021-12-03T12:25:22Z</time>
      </trkpt>
      <trkpt lat="46.5158" lon="5.29573">
        <ele>212.8</ele>
        <time>2021-12-03T12:25:23Z</time>
      </trkpt>
      <trkpt lat="46.5159" lon="5.29541">
        <ele>213.8</ele>
        <time>2021-12-03T12:25:28Z</time>
      </trkpt>
      <trkpt lat="46.51593" lon="5.29529">
        <ele>214.2</ele>
        <time>2021-12-03T12:25:30Z</time>
      </trkpt>
      <trkpt lat="46.51599" lon="5.29501">
        <ele>214.8</ele>
        <time>2021-12-03T12:25:34Z</time>
      </trkpt>
      <trkpt lat="46.51601" lon="5.2948">
        <ele>215.2</ele>
        <time>2021-12-03T12:25:37Z</time>
      </trkpt>
      <trkpt lat="46.516" lon="5.29436">
        <ele>216.2</ele>
        <time>2021-12-03T12:25:43Z</time>
      </trkpt>
      <trkpt lat="46.51599" lon="5.29429">
        <ele>216.4</ele>
        <time>2021-12-03T12:25:44Z</time>
      </trkpt>
      <trkpt lat="46.516" lon="5.29362">
        <ele>216.8</ele>
        <time>2021-12-03T12:25:53Z</time>
      </trkpt>
      <trkpt lat="46.51607" lon="5.29291">
        <ele>217</ele>
        <time>2021-12-03T12:26:02Z</time>
      </trkpt>
      <trkpt lat="46.51616" lon="5.29216">
        <ele>215.6</ele>
        <time>2021-12-03T12:26:10Z</time>
      </trkpt>
      <trkpt lat="46.51616" lon="5.29206">
        <ele>215.2</ele>
        <time>2021-12-03T12:26:11Z</time>
      </trkpt>
      <trkpt lat="46.51611" lon="5.29167">
        <ele>214.2</ele>
        <time>2021-12-03T12:26:15Z</time>
      </trkpt>
      <trkpt lat="46.51609" lon="5.29154">
        <ele>214</ele>
        <time>2021-12-03T12:26:16Z</time>
      </trkpt>
      <trkpt lat="46.51604" lon="5.29123">
        <ele>212.8</ele>
        <time>2021-12-03T12:26:19Z</time>
      </trkpt>
      <trkpt lat="46.51606" lon="5.29102">
        <ele>212</ele>
        <time>2021-12-03T12:26:21Z</time>
      </trkpt>
      <trkpt lat="46.51607" lon="5.29091">
        <ele>211.8</ele>
        <time>2021-12-03T12:26:22Z</time>
      </trkpt>
      <trkpt lat="46.5161" lon="5.29081">
        <ele>211.6</ele>
        <time>2021-12-03T12:26:23Z</time>
      </trkpt>
      <trkpt lat="46.51617" lon="5.29063">
        <ele>211.4</ele>
        <time>2021-12-03T12:26:25Z</time>
      </trkpt>
      <trkpt lat="46.51628" lon="5.2904">
        <ele>211.2</ele>
        <time>2021-12-03T12:26:28Z</time>
      </trkpt>
      <trkpt lat="46.51633" lon="5.29024">
        <ele>211.2</ele>
        <time>2021-12-03T12:26:30Z</time>
      </trkpt>
      <trkpt lat="46.51637" lon="5.29007">
        <ele>211.2</ele>
        <time>2021-12-03T12:26:32Z</time>
      </trkpt>
      <trkpt lat="46.51639" lon="5.28981">
        <ele>211.6</ele>
        <time>2021-12-03T12:26:35Z</time>
      </trkpt>
      <trkpt lat="46.51639" lon="5.28974">
        <ele>211.8</ele>
        <time>2021-12-03T12:26:36Z</time>
      </trkpt>
      <trkpt lat="46.5164" lon="5.28942">
        <ele>212.8</ele>
        <time>2021-12-03T12:26:40Z</time>
      </trkpt>
      <trkpt lat="46.5164" lon="5.28932">
        <ele>213</ele>
        <time>2021-12-03T12:26:41Z</time>
      </trkpt>
      <trkpt lat="46.51644" lon="5.28902">
        <ele>213.8</ele>
        <time>2021-12-03T12:26:45Z</time>
      </trkpt>
      <trkpt lat="46.51646" lon="5.28894">
        <ele>214.2</ele>
        <time>2021-12-03T12:26:46Z</time>
      </trkpt>
      <trkpt lat="46.51663" lon="5.28847">
        <ele>215.2</ele>
        <time>2021-12-03T12:26:52Z</time>
      </trkpt>
      <trkpt lat="46.51686" lon="5.28801">
        <ele>214.4</ele>
        <time>2021-12-03T12:26:57Z</time>
      </trkpt>
      <trkpt lat="46.51691" lon="5.28791">
        <ele>214.2</ele>
        <time>2021-12-03T12:26:58Z</time>
      </trkpt>
      <trkpt lat="46.51704" lon="5.28757">
        <ele>212.6</ele>
        <time>2021-12-03T12:27:01Z</time>
      </trkpt>
      <trkpt lat="46.5171" lon="5.28746">
        <ele>212</ele>
        <time>2021-12-03T12:27:02Z</time>
      </trkpt>
      <trkpt lat="46.51715" lon="5.28738">
        <ele>211.2</ele>
        <time>2021-12-03T12:27:03Z</time>
      </trkpt>
      <trkpt lat="46.51722" lon="5.28729">
        <ele>210</ele>
        <time>2021-12-03T12:27:04Z</time>
      </trkpt>
      <trkpt lat="46.51733" lon="5.2872">
        <ele>209.6</ele>
        <time>2021-12-03T12:27:05Z</time>
      </trkpt>
      <trkpt lat="46.51742" lon="5.28714">
        <ele>208.2</ele>
        <time>2021-12-03T12:27:06Z</time>
      </trkpt>
      <trkpt lat="46.51759" lon="5.28704">
        <ele>206.6</ele>
        <time>2021-12-03T12:27:08Z</time>
      </trkpt>
      <trkpt lat="46.51777" lon="5.28697">
        <ele>205.2</ele>
        <time>2021-12-03T12:27:10Z</time>
      </trkpt>
      <trkpt lat="46.51786" lon="5.28694">
        <ele>204.6</ele>
        <time>2021-12-03T12:27:11Z</time>
      </trkpt>
      <trkpt lat="46.51796" lon="5.28693">
        <ele>203.8</ele>
        <time>2021-12-03T12:27:12Z</time>
      </trkpt>
      <trkpt lat="46.51814" lon="5.28693">
        <ele>202.8</ele>
        <time>2021-12-03T12:27:14Z</time>
      </trkpt>
      <trkpt lat="46.51832" lon="5.28697">
        <ele>201.6</ele>
        <time>2021-12-03T12:27:16Z</time>
      </trkpt>
      <trkpt lat="46.5184" lon="5.287">
        <ele>201</ele>
        <time>2021-12-03T12:27:17Z</time>
      </trkpt>
      <trkpt lat="46.51848" lon="5.28704">
        <ele>200.8</ele>
        <time>2021-12-03T12:27:18Z</time>
      </trkpt>
      <trkpt lat="46.51864" lon="5.28714">
        <ele>200.6</ele>
        <time>2021-12-03T12:27:20Z</time>
      </trkpt>
      <trkpt lat="46.51871" lon="5.2872">
        <ele>200.4</ele>
        <time>2021-12-03T12:27:21Z</time>
      </trkpt>
      <trkpt lat="46.51877" lon="5.28725">
        <ele>200.2</ele>
        <time>2021-12-03T12:27:22Z</time>
      </trkpt>
      <trkpt lat="46.51892" lon="5.28738">
        <ele>200</ele>
        <time>2021-12-03T12:27:24Z</time>
      </trkpt>
      <trkpt lat="46.51908" lon="5.28746">
        <ele>199.8</ele>
        <time>2021-12-03T12:27:26Z</time>
      </trkpt>
      <trkpt lat="46.51957" lon="5.28752">
        <ele>199.4</ele>
        <time>2021-12-03T12:27:32Z</time>
      </trkpt>
      <trkpt lat="46.5198" lon="5.28751">
        <ele>198.4</ele>
        <time>2021-12-03T12:27:35Z</time>
      </trkpt>
      <trkpt lat="46.51998" lon="5.28744">
        <ele>198</ele>
        <time>2021-12-03T12:27:37Z</time>
      </trkpt>
      <trkpt lat="46.52023" lon="5.2873">
        <ele>197.2</ele>
        <time>2021-12-03T12:27:40Z</time>
      </trkpt>
      <trkpt lat="46.52039" lon="5.28722">
        <ele>196.8</ele>
        <time>2021-12-03T12:27:42Z</time>
      </trkpt>
      <trkpt lat="46.52048" lon="5.2872">
        <ele>196.6</ele>
        <time>2021-12-03T12:27:43Z</time>
      </trkpt>
      <trkpt lat="46.52055" lon="5.28719">
        <ele>196.2</ele>
        <time>2021-12-03T12:27:44Z</time>
      </trkpt>
      <trkpt lat="46.52116" lon="5.28704">
        <ele>195.6</ele>
        <time>2021-12-03T12:27:51Z</time>
      </trkpt>
      <trkpt lat="46.52124" lon="5.28702">
        <ele>195.4</ele>
        <time>2021-12-03T12:27:52Z</time>
      </trkpt>
      <trkpt lat="46.52178" lon="5.28681">
        <ele>195.2</ele>
        <time>2021-12-03T12:27:59Z</time>
      </trkpt>
      <trkpt lat="46.52188" lon="5.28677">
        <ele>195.2</ele>
        <time>2021-12-03T12:28:00Z</time>
      </trkpt>
      <trkpt lat="46.52195" lon="5.28675">
        <ele>195</ele>
        <time>2021-12-03T12:28:01Z</time>
      </trkpt>
      <trkpt lat="46.52246" lon="5.28662">
        <ele>194.8</ele>
        <time>2021-12-03T12:28:08Z</time>
      </trkpt>
      <trkpt lat="46.52292" lon="5.28658">
        <ele>196</ele>
        <time>2021-12-03T12:28:15Z</time>
      </trkpt>
      <trkpt lat="46.52298" lon="5.28658">
        <ele>196.2</ele>
        <time>2021-12-03T12:28:16Z</time>
      </trkpt>
      <trkpt lat="46.52327" lon="5.28655">
        <ele>197.4</ele>
        <time>2021-12-03T12:28:21Z</time>
      </trkpt>
      <trkpt lat="46.52338" lon="5.28654">
        <ele>197.8</ele>
        <time>2021-12-03T12:28:23Z</time>
      </trkpt>
      <trkpt lat="46.52358" lon="5.28651">
        <ele>198.6</ele>
        <time>2021-12-03T12:28:27Z</time>
      </trkpt>
      <trkpt lat="46.52382" lon="5.28647">
        <ele>199.6</ele>
        <time>2021-12-03T12:28:32Z</time>
      </trkpt>
      <trkpt lat="46.52386" lon="5.28645">
        <ele>199.8</ele>
        <time>2021-12-03T12:28:33Z</time>
      </trkpt>
      <trkpt lat="46.52398" lon="5.28642">
        <ele>200.8</ele>
        <time>2021-12-03T12:28:36Z</time>
      </trkpt>
      <trkpt lat="46.52411" lon="5.2864">
        <ele>201.8</ele>
        <time>2021-12-03T12:28:39Z</time>
      </trkpt>
      <trkpt lat="46.52415" lon="5.2864">
        <ele>202</ele>
        <time>2021-12-03T12:28:40Z</time>
      </trkpt>
      <trkpt lat="46.5242" lon="5.28639">
        <ele>202.4</ele>
        <time>2021-12-03T12:28:41Z</time>
      </trkpt>
      <trkpt lat="46.52433" lon="5.28637">
        <ele>203</ele>
        <time>2021-12-03T12:28:44Z</time>
      </trkpt>
      <trkpt lat="46.52437" lon="5.28636">
        <ele>203</ele>
        <time>2021-12-03T12:28:45Z</time>
      </trkpt>
      <trkpt lat="46.52455" lon="5.28634">
        <ele>204</ele>
        <time>2021-12-03T12:28:49Z</time>
      </trkpt>
      <trkpt lat="46.52475" lon="5.28631">
        <ele>205</ele>
        <time>2021-12-03T12:28:54Z</time>
      </trkpt>
      <trkpt lat="46.52484" lon="5.28628">
        <ele>205.4</ele>
        <time>2021-12-03T12:28:56Z</time>
      </trkpt>
      <trkpt lat="46.525" lon="5.28624">
        <ele>206.4</ele>
        <time>2021-12-03T12:29:00Z</time>
      </trkpt>
      <trkpt lat="46.52508" lon="5.28624">
        <ele>206.8</ele>
        <time>2021-12-03T12:29:02Z</time>
      </trkpt>
      <trkpt lat="46.52516" lon="5.28623">
        <ele>207.6</ele>
        <time>2021-12-03T12:29:04Z</time>
      </trkpt>
      <trkpt lat="46.52538" lon="5.28619">
        <ele>208.6</ele>
        <time>2021-12-03T12:29:09Z</time>
      </trkpt>
      <trkpt lat="46.52566" lon="5.28613">
        <ele>209.8</ele>
        <time>2021-12-03T12:29:15Z</time>
      </trkpt>
      <trkpt lat="46.52583" lon="5.2861">
        <ele>210.4</ele>
        <time>2021-12-03T12:29:19Z</time>
      </trkpt>
      <trkpt lat="46.52592" lon="5.2861">
        <ele>211</ele>
        <time>2021-12-03T12:29:21Z</time>
      </trkpt>
      <trkpt lat="46.52622" lon="5.28614">
        <ele>211.8</ele>
        <time>2021-12-03T12:29:28Z</time>
      </trkpt>
      <trkpt lat="46.52627" lon="5.28616">
        <ele>212.2</ele>
        <time>2021-12-03T12:29:29Z</time>
      </trkpt>
      <trkpt lat="46.52658" lon="5.28625">
        <ele>213.4</ele>
        <time>2021-12-03T12:29:36Z</time>
      </trkpt>
      <trkpt lat="46.52669" lon="5.28627">
        <ele>213.6</ele>
        <time>2021-12-03T12:29:38Z</time>
      </trkpt>
      <trkpt lat="46.52708" lon="5.28623">
        <ele>214</ele>
        <time>2021-12-03T12:29:45Z</time>
      </trkpt>
      <trkpt lat="46.52757" lon="5.28614">
        <ele>214.4</ele>
        <time>2021-12-03T12:29:54Z</time>
      </trkpt>
      <trkpt lat="46.52768" lon="5.28612">
        <ele>214.4</ele>
        <time>2021-12-03T12:29:56Z</time>
      </trkpt>
      <trkpt lat="46.52798" lon="5.28607">
        <ele>215</ele>
        <time>2021-12-03T12:30:02Z</time>
      </trkpt>
      <trkpt lat="46.52823" lon="5.28601">
        <ele>215.6</ele>
        <time>2021-12-03T12:30:07Z</time>
      </trkpt>
      <trkpt lat="46.52832" lon="5.28599">
        <ele>215.6</ele>
        <time>2021-12-03T12:30:09Z</time>
      </trkpt>
      <trkpt lat="46.52868" lon="5.28592">
        <ele>216</ele>
        <time>2021-12-03T12:30:15Z</time>
      </trkpt>
      <trkpt lat="46.52918" lon="5.28582">
        <ele>216</ele>
        <time>2021-12-03T12:30:23Z</time>
      </trkpt>
      <trkpt lat="46.52966" lon="5.28574">
        <ele>216.2</ele>
        <time>2021-12-03T12:30:31Z</time>
      </trkpt>
      <trkpt lat="46.53013" lon="5.28565">
        <ele>215.6</ele>
        <time>2021-12-03T12:30:38Z</time>
      </trkpt>
      <trkpt lat="46.53055" lon="5.28558">
        <ele>214.6</ele>
        <time>2021-12-03T12:30:44Z</time>
      </trkpt>
      <trkpt lat="46.53062" lon="5.28556">
        <ele>214.2</ele>
        <time>2021-12-03T12:30:45Z</time>
      </trkpt>
      <trkpt lat="46.53099" lon="5.28548">
        <ele>213</ele>
        <time>2021-12-03T12:30:50Z</time>
      </trkpt>
      <trkpt lat="46.53142" lon="5.2854">
        <ele>211.6</ele>
        <time>2021-12-03T12:30:56Z</time>
      </trkpt>
      <trkpt lat="46.53149" lon="5.28539">
        <ele>211.4</ele>
        <time>2021-12-03T12:30:57Z</time>
      </trkpt>
      <trkpt lat="46.53194" lon="5.2853">
        <ele>210.6</ele>
        <time>2021-12-03T12:31:03Z</time>
      </trkpt>
      <trkpt lat="46.53211" lon="5.28528">
        <ele>210</ele>
        <time>2021-12-03T12:31:05Z</time>
      </trkpt>
      <trkpt lat="46.5322" lon="5.28527">
        <ele>209.6</ele>
        <time>2021-12-03T12:31:06Z</time>
      </trkpt>
      <trkpt lat="46.53239" lon="5.28525">
        <ele>208.4</ele>
        <time>2021-12-03T12:31:08Z</time>
      </trkpt>
      <trkpt lat="46.53269" lon="5.28524">
        <ele>207.6</ele>
        <time>2021-12-03T12:31:11Z</time>
      </trkpt>
      <trkpt lat="46.53277" lon="5.28524">
        <ele>206.8</ele>
        <time>2021-12-03T12:31:12Z</time>
      </trkpt>
      <trkpt lat="46.53287" lon="5.28524">
        <ele>205.8</ele>
        <time>2021-12-03T12:31:13Z</time>
      </trkpt>
      <trkpt lat="46.53305" lon="5.28524">
        <ele>204.6</ele>
        <time>2021-12-03T12:31:15Z</time>
      </trkpt>
      <trkpt lat="46.53322" lon="5.28528">
        <ele>204</ele>
        <time>2021-12-03T12:31:17Z</time>
      </trkpt>
      <trkpt lat="46.53338" lon="5.28534">
        <ele>203.8</ele>
        <time>2021-12-03T12:31:19Z</time>
      </trkpt>
      <trkpt lat="46.53344" lon="5.28534">
        <ele>203.8</ele>
        <time>2021-12-03T12:31:20Z</time>
      </trkpt>
      <trkpt lat="46.53348" lon="5.28529">
        <ele>203.8</ele>
        <time>2021-12-03T12:31:21Z</time>
      </trkpt>
      <trkpt lat="46.5335" lon="5.28521">
        <ele>203.8</ele>
        <time>2021-12-03T12:31:22Z</time>
      </trkpt>
      <trkpt lat="46.53352" lon="5.28512">
        <ele>203.8</ele>
        <time>2021-12-03T12:31:23Z</time>
      </trkpt>
      <trkpt lat="46.53353" lon="5.2849">
        <ele>204</ele>
        <time>2021-12-03T12:31:25Z</time>
      </trkpt>
      <trkpt lat="46.53357" lon="5.28421">
        <ele>204.6</ele>
        <time>2021-12-03T12:31:32Z</time>
      </trkpt>
      <trkpt lat="46.53361" lon="5.28349">
        <ele>205</ele>
        <time>2021-12-03T12:31:39Z</time>
      </trkpt>
      <trkpt lat="46.53364" lon="5.283">
        <ele>205.6</ele>
        <time>2021-12-03T12:31:45Z</time>
      </trkpt>
      <trkpt lat="46.53365" lon="5.28285">
        <ele>206.2</ele>
        <time>2021-12-03T12:31:47Z</time>
      </trkpt>
      <trkpt lat="46.53366" lon="5.28257">
        <ele>207.4</ele>
        <time>2021-12-03T12:31:51Z</time>
      </trkpt>
      <trkpt lat="46.53365" lon="5.28231">
        <ele>208.4</ele>
        <time>2021-12-03T12:31:55Z</time>
      </trkpt>
      <trkpt lat="46.53366" lon="5.28227">
        <ele>208.6</ele>
        <time>2021-12-03T12:31:56Z</time>
      </trkpt>
      <trkpt lat="46.53367" lon="5.28214">
        <ele>209.4</ele>
        <time>2021-12-03T12:31:58Z</time>
      </trkpt>
      <trkpt lat="46.53368" lon="5.28193">
        <ele>210.6</ele>
        <time>2021-12-03T12:32:02Z</time>
      </trkpt>
      <trkpt lat="46.53369" lon="5.28183">
        <ele>211</ele>
        <time>2021-12-03T12:32:04Z</time>
      </trkpt>
      <trkpt lat="46.5337" lon="5.2817">
        <ele>211.8</ele>
        <time>2021-12-03T12:32:07Z</time>
      </trkpt>
      <trkpt lat="46.53371" lon="5.28166">
        <ele>211.8</ele>
        <time>2021-12-03T12:32:08Z</time>
      </trkpt>
      <trkpt lat="46.53371" lon="5.28158">
        <ele>212.4</ele>
        <time>2021-12-03T12:32:10Z</time>
      </trkpt>
      <trkpt lat="46.53372" lon="5.28153">
        <ele>212.8</ele>
        <time>2021-12-03T12:32:11Z</time>
      </trkpt>
      <trkpt lat="46.53372" lon="5.28142">
        <ele>213</ele>
        <time>2021-12-03T12:32:13Z</time>
      </trkpt>
      <trkpt lat="46.53374" lon="5.28125">
        <ele>214</ele>
        <time>2021-12-03T12:32:16Z</time>
      </trkpt>
      <trkpt lat="46.53376" lon="5.28105">
        <ele>214.6</ele>
        <time>2021-12-03T12:32:20Z</time>
      </trkpt>
      <trkpt lat="46.53375" lon="5.2808">
        <ele>215</ele>
        <time>2021-12-03T12:32:23Z</time>
      </trkpt>
      <trkpt lat="46.53376" lon="5.28064">
        <ele>215.4</ele>
        <time>2021-12-03T12:32:25Z</time>
      </trkpt>
      <trkpt lat="46.53376" lon="5.28003">
        <ele>215.8</ele>
        <time>2021-12-03T12:32:32Z</time>
      </trkpt>
      <trkpt lat="46.53379" lon="5.27927">
        <ele>215.6</ele>
        <time>2021-12-03T12:32:41Z</time>
      </trkpt>
      <trkpt lat="46.53381" lon="5.27853">
        <ele>215.2</ele>
        <time>2021-12-03T12:32:50Z</time>
      </trkpt>
      <trkpt lat="46.53382" lon="5.27774">
        <ele>214.6</ele>
        <time>2021-12-03T12:32:59Z</time>
      </trkpt>
      <trkpt lat="46.53379" lon="5.27726">
        <ele>214</ele>
        <time>2021-12-03T12:33:04Z</time>
      </trkpt>
      <trkpt lat="46.53377" lon="5.27718">
        <ele>214</ele>
        <time>2021-12-03T12:33:05Z</time>
      </trkpt>
      <trkpt lat="46.53374" lon="5.27708">
        <ele>213.8</ele>
        <time>2021-12-03T12:33:06Z</time>
      </trkpt>
      <trkpt lat="46.5336" lon="5.27668">
        <ele>213</ele>
        <time>2021-12-03T12:33:10Z</time>
      </trkpt>
      <trkpt lat="46.53356" lon="5.2766">
        <ele>212.8</ele>
        <time>2021-12-03T12:33:11Z</time>
      </trkpt>
      <trkpt lat="46.53341" lon="5.27622">
        <ele>211.6</ele>
        <time>2021-12-03T12:33:15Z</time>
      </trkpt>
      <trkpt lat="46.53333" lon="5.27601">
        <ele>211</ele>
        <time>2021-12-03T12:33:17Z</time>
      </trkpt>
      <trkpt lat="46.53326" lon="5.27583">
        <ele>210.4</ele>
        <time>2021-12-03T12:33:19Z</time>
      </trkpt>
      <trkpt lat="46.53314" lon="5.27552">
        <ele>209.8</ele>
        <time>2021-12-03T12:33:23Z</time>
      </trkpt>
      <trkpt lat="46.53293" lon="5.27501">
        <ele>209.4</ele>
        <time>2021-12-03T12:33:29Z</time>
      </trkpt>
      <trkpt lat="46.53281" lon="5.27475">
        <ele>209.2</ele>
        <time>2021-12-03T12:33:32Z</time>
      </trkpt>
      <trkpt lat="46.53269" lon="5.27447">
        <ele>208.8</ele>
        <time>2021-12-03T12:33:35Z</time>
      </trkpt>
      <trkpt lat="46.53266" lon="5.27425">
        <ele>208.2</ele>
        <time>2021-12-03T12:33:37Z</time>
      </trkpt>
      <trkpt lat="46.53274" lon="5.27409">
        <ele>207.6</ele>
        <time>2021-12-03T12:33:39Z</time>
      </trkpt>
      <trkpt lat="46.53281" lon="5.27405">
        <ele>207.2</ele>
        <time>2021-12-03T12:33:40Z</time>
      </trkpt>
      <trkpt lat="46.53287" lon="5.27404">
        <ele>207.2</ele>
        <time>2021-12-03T12:33:41Z</time>
      </trkpt>
      <trkpt lat="46.53294" lon="5.27402">
        <ele>207</ele>
        <time>2021-12-03T12:33:42Z</time>
      </trkpt>
      <trkpt lat="46.53326" lon="5.27394">
        <ele>207.4</ele>
        <time>2021-12-03T12:33:47Z</time>
      </trkpt>
      <trkpt lat="46.53336" lon="5.2739">
        <ele>207.8</ele>
        <time>2021-12-03T12:33:49Z</time>
      </trkpt>
      <trkpt lat="46.53347" lon="5.27385">
        <ele>208.6</ele>
        <time>2021-12-03T12:33:51Z</time>
      </trkpt>
      <trkpt lat="46.53352" lon="5.27382">
        <ele>208.8</ele>
        <time>2021-12-03T12:33:52Z</time>
      </trkpt>
      <trkpt lat="46.53369" lon="5.27371">
        <ele>209.8</ele>
        <time>2021-12-03T12:33:55Z</time>
      </trkpt>
      <trkpt lat="46.53383" lon="5.27362">
        <ele>209.8</ele>
        <time>2021-12-03T12:33:57Z</time>
      </trkpt>
      <trkpt lat="46.53428" lon="5.27328">
        <ele>209.2</ele>
        <time>2021-12-03T12:34:03Z</time>
      </trkpt>
      <trkpt lat="46.53437" lon="5.27322">
        <ele>208.6</ele>
        <time>2021-12-03T12:34:04Z</time>
      </trkpt>
      <trkpt lat="46.53454" lon="5.2731">
        <ele>207.4</ele>
        <time>2021-12-03T12:34:06Z</time>
      </trkpt>
      <trkpt lat="46.53473" lon="5.27296">
        <ele>206.2</ele>
        <time>2021-12-03T12:34:08Z</time>
      </trkpt>
      <trkpt lat="46.53484" lon="5.27287">
        <ele>205</ele>
        <time>2021-12-03T12:34:09Z</time>
      </trkpt>
      <trkpt lat="46.53491" lon="5.27282">
        <ele>204.6</ele>
        <time>2021-12-03T12:34:10Z</time>
      </trkpt>
      <trkpt lat="46.53501" lon="5.27275">
        <ele>203.8</ele>
        <time>2021-12-03T12:34:11Z</time>
      </trkpt>
      <trkpt lat="46.53532" lon="5.27253">
        <ele>202</ele>
        <time>2021-12-03T12:34:14Z</time>
      </trkpt>
      <trkpt lat="46.53541" lon="5.27248">
        <ele>201</ele>
        <time>2021-12-03T12:34:15Z</time>
      </trkpt>
      <trkpt lat="46.53549" lon="5.27244">
        <ele>199.6</ele>
        <time>2021-12-03T12:34:16Z</time>
      </trkpt>
      <trkpt lat="46.53559" lon="5.2724">
        <ele>199.2</ele>
        <time>2021-12-03T12:34:17Z</time>
      </trkpt>
      <trkpt lat="46.53569" lon="5.27238">
        <ele>198.4</ele>
        <time>2021-12-03T12:34:18Z</time>
      </trkpt>
      <trkpt lat="46.53607" lon="5.2723">
        <ele>197.6</ele>
        <time>2021-12-03T12:34:22Z</time>
      </trkpt>
      <trkpt lat="46.53616" lon="5.27229">
        <ele>197.4</ele>
        <time>2021-12-03T12:34:23Z</time>
      </trkpt>
      <trkpt lat="46.53662" lon="5.2722">
        <ele>196.8</ele>
        <time>2021-12-03T12:34:28Z</time>
      </trkpt>
      <trkpt lat="46.53697" lon="5.27215">
        <ele>196.4</ele>
        <time>2021-12-03T12:34:32Z</time>
      </trkpt>
      <trkpt lat="46.53714" lon="5.27211">
        <ele>196</ele>
        <time>2021-12-03T12:34:34Z</time>
      </trkpt>
      <trkpt lat="46.53757" lon="5.27196">
        <ele>195.6</ele>
        <time>2021-12-03T12:34:39Z</time>
      </trkpt>
      <trkpt lat="46.53789" lon="5.27178">
        <ele>195.4</ele>
        <time>2021-12-03T12:34:43Z</time>
      </trkpt>
      <trkpt lat="46.53825" lon="5.27157">
        <ele>195</ele>
        <time>2021-12-03T12:34:48Z</time>
      </trkpt>
      <trkpt lat="46.53868" lon="5.27132">
        <ele>194.8</ele>
        <time>2021-12-03T12:34:54Z</time>
      </trkpt>
      <trkpt lat="46.53913" lon="5.27104">
        <ele>195</ele>
        <time>2021-12-03T12:35:01Z</time>
      </trkpt>
      <trkpt lat="46.53928" lon="5.27095">
        <ele>195</ele>
        <time>2021-12-03T12:35:04Z</time>
      </trkpt>
      <trkpt lat="46.53964" lon="5.27073">
        <ele>195.2</ele>
        <time>2021-12-03T12:35:10Z</time>
      </trkpt>
      <trkpt lat="46.53986" lon="5.27059">
        <ele>195.8</ele>
        <time>2021-12-03T12:35:14Z</time>
      </trkpt>
      <trkpt lat="46.53992" lon="5.27048">
        <ele>196</ele>
        <time>2021-12-03T12:35:16Z</time>
      </trkpt>
      <trkpt lat="46.53989" lon="5.27033">
        <ele>196.2</ele>
        <time>2021-12-03T12:35:18Z</time>
      </trkpt>
      <trkpt lat="46.53986" lon="5.27024">
        <ele>196.2</ele>
        <time>2021-12-03T12:35:19Z</time>
      </trkpt>
      <trkpt lat="46.53964" lon="5.26966">
        <ele>195.6</ele>
        <time>2021-12-03T12:35:25Z</time>
      </trkpt>
      <trkpt lat="46.53938" lon="5.2691">
        <ele>194.2</ele>
        <time>2021-12-03T12:35:31Z</time>
      </trkpt>
      <trkpt lat="46.539" lon="5.26852">
        <ele>193.6</ele>
        <time>2021-12-03T12:35:39Z</time>
      </trkpt>
      <trkpt lat="46.53861" lon="5.2679">
        <ele>193.6</ele>
        <time>2021-12-03T12:35:48Z</time>
      </trkpt>
      <trkpt lat="46.53857" lon="5.26784">
        <ele>193.6</ele>
        <time>2021-12-03T12:35:49Z</time>
      </trkpt>
      <trkpt lat="46.53841" lon="5.26749">
        <ele>193.8</ele>
        <time>2021-12-03T12:35:54Z</time>
      </trkpt>
      <trkpt lat="46.53839" lon="5.26743">
        <ele>193.8</ele>
        <time>2021-12-03T12:35:55Z</time>
      </trkpt>
      <trkpt lat="46.53837" lon="5.26734">
        <ele>193.8</ele>
        <time>2021-12-03T12:35:56Z</time>
      </trkpt>
      <trkpt lat="46.53835" lon="5.26717">
        <ele>193.8</ele>
        <time>2021-12-03T12:35:58Z</time>
      </trkpt>
      <trkpt lat="46.53834" lon="5.26707">
        <ele>193.8</ele>
        <time>2021-12-03T12:35:59Z</time>
      </trkpt>
      <trkpt lat="46.53836" lon="5.2669">
        <ele>193.8</ele>
        <time>2021-12-03T12:36:01Z</time>
      </trkpt>
      <trkpt lat="46.53843" lon="5.26662">
        <ele>193.8</ele>
        <time>2021-12-03T12:36:04Z</time>
      </trkpt>
      <trkpt lat="46.5385" lon="5.26647">
        <ele>193.8</ele>
        <time>2021-12-03T12:36:06Z</time>
      </trkpt>
      <trkpt lat="46.53858" lon="5.26636">
        <ele>193.6</ele>
        <time>2021-12-03T12:36:08Z</time>
      </trkpt>
      <trkpt lat="46.53881" lon="5.266">
        <ele>193.8</ele>
        <time>2021-12-03T12:36:14Z</time>
      </trkpt>
      <trkpt lat="46.53898" lon="5.26559">
        <ele>195.4</ele>
        <time>2021-12-03T12:36:21Z</time>
      </trkpt>
      <trkpt lat="46.53902" lon="5.2655">
        <ele>195.8</ele>
        <time>2021-12-03T12:36:23Z</time>
      </trkpt>
      <trkpt lat="46.53906" lon="5.26538">
        <ele>196.4</ele>
        <time>2021-12-03T12:36:25Z</time>
      </trkpt>
      <trkpt lat="46.53908" lon="5.26533">
        <ele>196.6</ele>
        <time>2021-12-03T12:36:26Z</time>
      </trkpt>
      <trkpt lat="46.53919" lon="5.26505">
        <ele>197.8</ele>
        <time>2021-12-03T12:36:31Z</time>
      </trkpt>
      <trkpt lat="46.53922" lon="5.26494">
        <ele>198.4</ele>
        <time>2021-12-03T12:36:33Z</time>
      </trkpt>
      <trkpt lat="46.53929" lon="5.26473">
        <ele>199</ele>
        <time>2021-12-03T12:36:36Z</time>
      </trkpt>
      <trkpt lat="46.53938" lon="5.2645">
        <ele>199.4</ele>
        <time>2021-12-03T12:36:40Z</time>
      </trkpt>
      <trkpt lat="46.53949" lon="5.26418">
        <ele>200</ele>
        <time>2021-12-03T12:36:45Z</time>
      </trkpt>
      <trkpt lat="46.53958" lon="5.26393">
        <ele>200.6</ele>
        <time>2021-12-03T12:36:49Z</time>
      </trkpt>
      <trkpt lat="46.53972" lon="5.26352">
        <ele>201.2</ele>
        <time>2021-12-03T12:36:56Z</time>
      </trkpt>
      <trkpt lat="46.53974" lon="5.26345">
        <ele>201.4</ele>
        <time>2021-12-03T12:36:57Z</time>
      </trkpt>
      <trkpt lat="46.53985" lon="5.26312">
        <ele>202.4</ele>
        <time>2021-12-03T12:37:03Z</time>
      </trkpt>
      <trkpt lat="46.53989" lon="5.26302">
        <ele>202.8</ele>
        <time>2021-12-03T12:37:05Z</time>
      </trkpt>
      <trkpt lat="46.53996" lon="5.26281">
        <ele>203.4</ele>
        <time>2021-12-03T12:37:09Z</time>
      </trkpt>
      <trkpt lat="46.54005" lon="5.26255">
        <ele>204.6</ele>
        <time>2021-12-03T12:37:14Z</time>
      </trkpt>
      <trkpt lat="46.54019" lon="5.26229">
        <ele>205.8</ele>
        <time>2021-12-03T12:37:20Z</time>
      </trkpt>
      <trkpt lat="46.54022" lon="5.26226">
        <ele>206</ele>
        <time>2021-12-03T12:37:21Z</time>
      </trkpt>
      <trkpt lat="46.54031" lon="5.26218">
        <ele>206.8</ele>
        <time>2021-12-03T12:37:24Z</time>
      </trkpt>
      <trkpt lat="46.54041" lon="5.26211">
        <ele>207.2</ele>
        <time>2021-12-03T12:37:27Z</time>
      </trkpt>
      <trkpt lat="46.5405" lon="5.26206">
        <ele>207.8</ele>
        <time>2021-12-03T12:37:29Z</time>
      </trkpt>
      <trkpt lat="46.54068" lon="5.26196">
        <ele>208.4</ele>
        <time>2021-12-03T12:37:33Z</time>
      </trkpt>
      <trkpt lat="46.54088" lon="5.26186">
        <ele>208.8</ele>
        <time>2021-12-03T12:37:37Z</time>
      </trkpt>
      <trkpt lat="46.54093" lon="5.26184">
        <ele>208.8</ele>
        <time>2021-12-03T12:37:38Z</time>
      </trkpt>
      <trkpt lat="46.54102" lon="5.26177">
        <ele>209</ele>
        <time>2021-12-03T12:37:40Z</time>
      </trkpt>
      <trkpt lat="46.54115" lon="5.26165">
        <ele>209.2</ele>
        <time>2021-12-03T12:37:43Z</time>
      </trkpt>
      <trkpt lat="46.54125" lon="5.26151">
        <ele>209.4</ele>
        <time>2021-12-03T12:37:46Z</time>
      </trkpt>
      <trkpt lat="46.54134" lon="5.26144">
        <ele>209.4</ele>
        <time>2021-12-03T12:37:48Z</time>
      </trkpt>
      <trkpt lat="46.54143" lon="5.26142">
        <ele>209.6</ele>
        <time>2021-12-03T12:37:50Z</time>
      </trkpt>
      <trkpt lat="46.54159" lon="5.26138">
        <ele>209.8</ele>
        <time>2021-12-03T12:37:53Z</time>
      </trkpt>
      <trkpt lat="46.54176" lon="5.26135">
        <ele>210</ele>
        <time>2021-12-03T12:37:56Z</time>
      </trkpt>
      <trkpt lat="46.54182" lon="5.26134">
        <ele>210</ele>
        <time>2021-12-03T12:37:57Z</time>
      </trkpt>
      <trkpt lat="46.54195" lon="5.26138">
        <ele>209.8</ele>
        <time>2021-12-03T12:37:59Z</time>
      </trkpt>
      <trkpt lat="46.54202" lon="5.26143">
        <ele>209.4</ele>
        <time>2021-12-03T12:38:00Z</time>
      </trkpt>
      <trkpt lat="46.54209" lon="5.26149">
        <ele>209.2</ele>
        <time>2021-12-03T12:38:01Z</time>
      </trkpt>
      <trkpt lat="46.54215" lon="5.26157">
        <ele>208.8</ele>
        <time>2021-12-03T12:38:02Z</time>
      </trkpt>
      <trkpt lat="46.54228" lon="5.26173">
        <ele>208</ele>
        <time>2021-12-03T12:38:04Z</time>
      </trkpt>
      <trkpt lat="46.5424" lon="5.26189">
        <ele>207.4</ele>
        <time>2021-12-03T12:38:06Z</time>
      </trkpt>
      <trkpt lat="46.54255" lon="5.26199">
        <ele>206.2</ele>
        <time>2021-12-03T12:38:08Z</time>
      </trkpt>
      <trkpt lat="46.54275" lon="5.26196">
        <ele>204.8</ele>
        <time>2021-12-03T12:38:10Z</time>
      </trkpt>
      <trkpt lat="46.54296" lon="5.26187">
        <ele>203.6</ele>
        <time>2021-12-03T12:38:12Z</time>
      </trkpt>
      <trkpt lat="46.54317" lon="5.26178">
        <ele>202.6</ele>
        <time>2021-12-03T12:38:14Z</time>
      </trkpt>
      <trkpt lat="46.54326" lon="5.26174">
        <ele>201.4</ele>
        <time>2021-12-03T12:38:15Z</time>
      </trkpt>
      <trkpt lat="46.54336" lon="5.26169">
        <ele>201.2</ele>
        <time>2021-12-03T12:38:16Z</time>
      </trkpt>
      <trkpt lat="46.54357" lon="5.26159">
        <ele>200</ele>
        <time>2021-12-03T12:38:18Z</time>
      </trkpt>
      <trkpt lat="46.54376" lon="5.26146">
        <ele>199</ele>
        <time>2021-12-03T12:38:20Z</time>
      </trkpt>
      <trkpt lat="46.54385" lon="5.2614">
        <ele>198.8</ele>
        <time>2021-12-03T12:38:21Z</time>
      </trkpt>
      <trkpt lat="46.5442" lon="5.26109">
        <ele>197.8</ele>
        <time>2021-12-03T12:38:25Z</time>
      </trkpt>
      <trkpt lat="46.54437" lon="5.26095">
        <ele>197</ele>
        <time>2021-12-03T12:38:27Z</time>
      </trkpt>
      <trkpt lat="46.54451" lon="5.26083">
        <ele>196.8</ele>
        <time>2021-12-03T12:38:29Z</time>
      </trkpt>
      <trkpt lat="46.54479" lon="5.26059">
        <ele>196.8</ele>
        <time>2021-12-03T12:38:33Z</time>
      </trkpt>
      <trkpt lat="46.5452" lon="5.26033">
        <ele>197.8</ele>
        <time>2021-12-03T12:38:39Z</time>
      </trkpt>
      <trkpt lat="46.54527" lon="5.26029">
        <ele>198</ele>
        <time>2021-12-03T12:38:40Z</time>
      </trkpt>
      <trkpt lat="46.54573" lon="5.26014">
        <ele>198.8</ele>
        <time>2021-12-03T12:38:47Z</time>
      </trkpt>
      <trkpt lat="46.54579" lon="5.26013">
        <ele>199</ele>
        <time>2021-12-03T12:38:48Z</time>
      </trkpt>
      <trkpt lat="46.54604" lon="5.26008">
        <ele>199.6</ele>
        <time>2021-12-03T12:38:52Z</time>
      </trkpt>
      <trkpt lat="46.54629" lon="5.26004">
        <ele>200</ele>
        <time>2021-12-03T12:38:56Z</time>
      </trkpt>
      <trkpt lat="46.54674" lon="5.25998">
        <ele>200.2</ele>
        <time>2021-12-03T12:39:03Z</time>
      </trkpt>
      <trkpt lat="46.54732" lon="5.25991">
        <ele>199.6</ele>
        <time>2021-12-03T12:39:11Z</time>
      </trkpt>
      <trkpt lat="46.54764" lon="5.25996">
        <ele>199</ele>
        <time>2021-12-03T12:39:15Z</time>
      </trkpt>
      <trkpt lat="46.54773" lon="5.25999">
        <ele>198.4</ele>
        <time>2021-12-03T12:39:16Z</time>
      </trkpt>
      <trkpt lat="46.54789" lon="5.26005">
        <ele>197.8</ele>
        <time>2021-12-03T12:39:18Z</time>
      </trkpt>
      <trkpt lat="46.54813" lon="5.26014">
        <ele>196.8</ele>
        <time>2021-12-03T12:39:21Z</time>
      </trkpt>
      <trkpt lat="46.54836" lon="5.26024">
        <ele>196.4</ele>
        <time>2021-12-03T12:39:24Z</time>
      </trkpt>
      <trkpt lat="46.5488" lon="5.26035">
        <ele>196</ele>
        <time>2021-12-03T12:39:30Z</time>
      </trkpt>
      <trkpt lat="46.54921" lon="5.26039">
        <ele>198</ele>
        <time>2021-12-03T12:39:37Z</time>
      </trkpt>
      <trkpt lat="46.5494" lon="5.2604">
        <ele>199.2</ele>
        <time>2021-12-03T12:39:41Z</time>
      </trkpt>
      <trkpt lat="46.54952" lon="5.26042">
        <ele>200</ele>
        <time>2021-12-03T12:39:44Z</time>
      </trkpt>
      <trkpt lat="46.54956" lon="5.26043">
        <ele>200.4</ele>
        <time>2021-12-03T12:39:45Z</time>
      </trkpt>
      <trkpt lat="46.5496" lon="5.26044">
        <ele>200.6</ele>
        <time>2021-12-03T12:39:46Z</time>
      </trkpt>
      <trkpt lat="46.54968" lon="5.26045">
        <ele>201.4</ele>
        <time>2021-12-03T12:39:48Z</time>
      </trkpt>
      <trkpt lat="46.54976" lon="5.26045">
        <ele>202</ele>
        <time>2021-12-03T12:39:50Z</time>
      </trkpt>
      <trkpt lat="46.54984" lon="5.26046">
        <ele>202.6</ele>
        <time>2021-12-03T12:39:52Z</time>
      </trkpt>
      <trkpt lat="46.54995" lon="5.26047">
        <ele>203.6</ele>
        <time>2021-12-03T12:39:55Z</time>
      </trkpt>
      <trkpt lat="46.55004" lon="5.26049">
        <ele>204.2</ele>
        <time>2021-12-03T12:39:58Z</time>
      </trkpt>
      <trkpt lat="46.55008" lon="5.26049">
        <ele>204.6</ele>
        <time>2021-12-03T12:39:59Z</time>
      </trkpt>
      <trkpt lat="46.55022" lon="5.26051">
        <ele>205.8</ele>
        <time>2021-12-03T12:40:03Z</time>
      </trkpt>
      <trkpt lat="46.5503" lon="5.2605">
        <ele>206.4</ele>
        <time>2021-12-03T12:40:05Z</time>
      </trkpt>
      <trkpt lat="46.55036" lon="5.2605">
        <ele>206.8</ele>
        <time>2021-12-03T12:40:07Z</time>
      </trkpt>
      <trkpt lat="46.55052" lon="5.26054">
        <ele>207.8</ele>
        <time>2021-12-03T12:40:11Z</time>
      </trkpt>
      <trkpt lat="46.55056" lon="5.26055">
        <ele>208.2</ele>
        <time>2021-12-03T12:40:12Z</time>
      </trkpt>
      <trkpt lat="46.55072" lon="5.2606">
        <ele>209</ele>
        <time>2021-12-03T12:40:16Z</time>
      </trkpt>
      <trkpt lat="46.55089" lon="5.26067">
        <ele>210</ele>
        <time>2021-12-03T12:40:20Z</time>
      </trkpt>
      <trkpt lat="46.55092" lon="5.26068">
        <ele>210</ele>
        <time>2021-12-03T12:40:21Z</time>
      </trkpt>
      <trkpt lat="46.55122" lon="5.26082">
        <ele>211.4</ele>
        <time>2021-12-03T12:40:28Z</time>
      </trkpt>
      <trkpt lat="46.55126" lon="5.26085">
        <ele>211.6</ele>
        <time>2021-12-03T12:40:29Z</time>
      </trkpt>
      <trkpt lat="46.55138" lon="5.26092">
        <ele>212</ele>
        <time>2021-12-03T12:40:32Z</time>
      </trkpt>
      <trkpt lat="46.5515" lon="5.26098">
        <ele>212.4</ele>
        <time>2021-12-03T12:40:35Z</time>
      </trkpt>
      <trkpt lat="46.55177" lon="5.26115">
        <ele>213.6</ele>
        <time>2021-12-03T12:40:41Z</time>
      </trkpt>
      <trkpt lat="46.55196" lon="5.26125">
        <ele>214.2</ele>
        <time>2021-12-03T12:40:45Z</time>
      </trkpt>
      <trkpt lat="46.55208" lon="5.26132">
        <ele>214.6</ele>
        <time>2021-12-03T12:40:48Z</time>
      </trkpt>
      <trkpt lat="46.55229" lon="5.2614">
        <ele>215</ele>
        <time>2021-12-03T12:40:52Z</time>
      </trkpt>
      <trkpt lat="46.55235" lon="5.26141">
        <ele>215</ele>
        <time>2021-12-03T12:40:53Z</time>
      </trkpt>
      <trkpt lat="46.55242" lon="5.26139">
        <ele>215</ele>
        <time>2021-12-03T12:40:54Z</time>
      </trkpt>
      <trkpt lat="46.55262" lon="5.26131">
        <ele>214.8</ele>
        <time>2021-12-03T12:40:57Z</time>
      </trkpt>
      <trkpt lat="46.55291" lon="5.26124">
        <ele>214.4</ele>
        <time>2021-12-03T12:41:01Z</time>
      </trkpt>
      <trkpt lat="46.55299" lon="5.26124">
        <ele>214</ele>
        <time>2021-12-03T12:41:02Z</time>
      </trkpt>
      <trkpt lat="46.55323" lon="5.26128">
        <ele>213.4</ele>
        <time>2021-12-03T12:41:05Z</time>
      </trkpt>
      <trkpt lat="46.55345" lon="5.26135">
        <ele>213.2</ele>
        <time>2021-12-03T12:41:08Z</time>
      </trkpt>
      <trkpt lat="46.55385" lon="5.26156">
        <ele>213</ele>
        <time>2021-12-03T12:41:14Z</time>
      </trkpt>
      <trkpt lat="46.55426" lon="5.26188">
        <ele>213.6</ele>
        <time>2021-12-03T12:41:21Z</time>
      </trkpt>
      <trkpt lat="46.55478" lon="5.26215">
        <ele>213.4</ele>
        <time>2021-12-03T12:41:29Z</time>
      </trkpt>
      <trkpt lat="46.55486" lon="5.26217">
        <ele>213.4</ele>
        <time>2021-12-03T12:41:30Z</time>
      </trkpt>
      <trkpt lat="46.55514" lon="5.26214">
        <ele>213.2</ele>
        <time>2021-12-03T12:41:34Z</time>
      </trkpt>
      <trkpt lat="46.55556" lon="5.26208">
        <ele>213.2</ele>
        <time>2021-12-03T12:41:40Z</time>
      </trkpt>
      <trkpt lat="46.55562" lon="5.26209">
        <ele>213.2</ele>
        <time>2021-12-03T12:41:41Z</time>
      </trkpt>
      <trkpt lat="46.55602" lon="5.26218">
        <ele>213.6</ele>
        <time>2021-12-03T12:41:47Z</time>
      </trkpt>
      <trkpt lat="46.55617" lon="5.26218">
        <ele>213.6</ele>
        <time>2021-12-03T12:41:49Z</time>
      </trkpt>
      <trkpt lat="46.55638" lon="5.26215">
        <ele>213.6</ele>
        <time>2021-12-03T12:41:52Z</time>
      </trkpt>
      <trkpt lat="46.55693" lon="5.26211">
        <ele>213.6</ele>
        <time>2021-12-03T12:42:00Z</time>
      </trkpt>
      <trkpt lat="46.55715" lon="5.2621">
        <ele>213.6</ele>
        <time>2021-12-03T12:42:03Z</time>
      </trkpt>
      <trkpt lat="46.55775" lon="5.26207">
        <ele>214</ele>
        <time>2021-12-03T12:42:12Z</time>
      </trkpt>
      <trkpt lat="46.55813" lon="5.26206">
        <ele>214.2</ele>
        <time>2021-12-03T12:42:18Z</time>
      </trkpt>
      <trkpt lat="46.55856" lon="5.26204">
        <ele>214.4</ele>
        <time>2021-12-03T12:42:24Z</time>
      </trkpt>
      <trkpt lat="46.55906" lon="5.26203">
        <ele>213</ele>
        <time>2021-12-03T12:42:30Z</time>
      </trkpt>
      <trkpt lat="46.55914" lon="5.26203">
        <ele>212.6</ele>
        <time>2021-12-03T12:42:31Z</time>
      </trkpt>
      <trkpt lat="46.55933" lon="5.26202">
        <ele>211.4</ele>
        <time>2021-12-03T12:42:33Z</time>
      </trkpt>
      <trkpt lat="46.55955" lon="5.26201">
        <ele>210.4</ele>
        <time>2021-12-03T12:42:35Z</time>
      </trkpt>
      <trkpt lat="46.55976" lon="5.262">
        <ele>208.8</ele>
        <time>2021-12-03T12:42:37Z</time>
      </trkpt>
      <trkpt lat="46.56005" lon="5.262">
        <ele>207</ele>
        <time>2021-12-03T12:42:40Z</time>
      </trkpt>
      <trkpt lat="46.56029" lon="5.26201">
        <ele>205.8</ele>
        <time>2021-12-03T12:42:42Z</time>
      </trkpt>
      <trkpt lat="46.5605" lon="5.26202">
        <ele>204.6</ele>
        <time>2021-12-03T12:42:44Z</time>
      </trkpt>
      <trkpt lat="46.56072" lon="5.26205">
        <ele>203.2</ele>
        <time>2021-12-03T12:42:46Z</time>
      </trkpt>
      <trkpt lat="46.56091" lon="5.26209">
        <ele>202.4</ele>
        <time>2021-12-03T12:42:48Z</time>
      </trkpt>
      <trkpt lat="46.56101" lon="5.26212">
        <ele>201.2</ele>
        <time>2021-12-03T12:42:49Z</time>
      </trkpt>
      <trkpt lat="46.56132" lon="5.26217">
        <ele>200</ele>
        <time>2021-12-03T12:42:52Z</time>
      </trkpt>
      <trkpt lat="46.56149" lon="5.26213">
        <ele>199.2</ele>
        <time>2021-12-03T12:42:54Z</time>
      </trkpt>
      <trkpt lat="46.56158" lon="5.26208">
        <ele>199.2</ele>
        <time>2021-12-03T12:42:55Z</time>
      </trkpt>
      <trkpt lat="46.56166" lon="5.26202">
        <ele>199</ele>
        <time>2021-12-03T12:42:56Z</time>
      </trkpt>
      <trkpt lat="46.56182" lon="5.26189">
        <ele>198.8</ele>
        <time>2021-12-03T12:42:58Z</time>
      </trkpt>
      <trkpt lat="46.5619" lon="5.26181">
        <ele>198.8</ele>
        <time>2021-12-03T12:42:59Z</time>
      </trkpt>
      <trkpt lat="46.56239" lon="5.26135">
        <ele>198.4</ele>
        <time>2021-12-03T12:43:05Z</time>
      </trkpt>
      <trkpt lat="46.56269" lon="5.26106">
        <ele>198.2</ele>
        <time>2021-12-03T12:43:09Z</time>
      </trkpt>
      <trkpt lat="46.56315" lon="5.26062">
        <ele>197.8</ele>
        <time>2021-12-03T12:43:15Z</time>
      </trkpt>
      <trkpt lat="46.56322" lon="5.26055">
        <ele>197.8</ele>
        <time>2021-12-03T12:43:16Z</time>
      </trkpt>
      <trkpt lat="46.56354" lon="5.26026">
        <ele>197.6</ele>
        <time>2021-12-03T12:43:20Z</time>
      </trkpt>
      <trkpt lat="46.56404" lon="5.25979">
        <ele>197.4</ele>
        <time>2021-12-03T12:43:27Z</time>
      </trkpt>
      <trkpt lat="46.56433" lon="5.2595">
        <ele>197.4</ele>
        <time>2021-12-03T12:43:31Z</time>
      </trkpt>
      <trkpt lat="46.56484" lon="5.25902">
        <ele>197.6</ele>
        <time>2021-12-03T12:43:38Z</time>
      </trkpt>
      <trkpt lat="46.5653" lon="5.25858">
        <ele>198</ele>
        <time>2021-12-03T12:43:45Z</time>
      </trkpt>
      <trkpt lat="46.56551" lon="5.25838">
        <ele>198.2</ele>
        <time>2021-12-03T12:43:48Z</time>
      </trkpt>
      <trkpt lat="46.56595" lon="5.2579">
        <ele>198.2</ele>
        <time>2021-12-03T12:43:55Z</time>
      </trkpt>
      <trkpt lat="46.56608" lon="5.25775">
        <ele>198</ele>
        <time>2021-12-03T12:43:57Z</time>
      </trkpt>
      <trkpt lat="46.5665" lon="5.25725">
        <ele>198</ele>
        <time>2021-12-03T12:44:04Z</time>
      </trkpt>
      <trkpt lat="46.56681" lon="5.25689">
        <ele>197.6</ele>
        <time>2021-12-03T12:44:09Z</time>
      </trkpt>
      <trkpt lat="46.56726" lon="5.25636">
        <ele>197.2</ele>
        <time>2021-12-03T12:44:16Z</time>
      </trkpt>
      <trkpt lat="46.56732" lon="5.25628">
        <ele>197.2</ele>
        <time>2021-12-03T12:44:17Z</time>
      </trkpt>
      <trkpt lat="46.56763" lon="5.25579">
        <ele>197</ele>
        <time>2021-12-03T12:44:23Z</time>
      </trkpt>
      <trkpt lat="46.56768" lon="5.25568">
        <ele>196.8</ele>
        <time>2021-12-03T12:44:24Z</time>
      </trkpt>
      <trkpt lat="46.56796" lon="5.25499">
        <ele>196.4</ele>
        <time>2021-12-03T12:44:31Z</time>
      </trkpt>
      <trkpt lat="46.56804" lon="5.25478">
        <ele>195.8</ele>
        <time>2021-12-03T12:44:33Z</time>
      </trkpt>
      <trkpt lat="46.56807" lon="5.25467">
        <ele>195.6</ele>
        <time>2021-12-03T12:44:34Z</time>
      </trkpt>
      <trkpt lat="46.56812" lon="5.25444">
        <ele>195.2</ele>
        <time>2021-12-03T12:44:36Z</time>
      </trkpt>
      <trkpt lat="46.56813" lon="5.25433">
        <ele>195</ele>
        <time>2021-12-03T12:44:37Z</time>
      </trkpt>
      <trkpt lat="46.56814" lon="5.2541">
        <ele>194.6</ele>
        <time>2021-12-03T12:44:39Z</time>
      </trkpt>
      <trkpt lat="46.56813" lon="5.25396">
        <ele>194.4</ele>
        <time>2021-12-03T12:44:40Z</time>
      </trkpt>
      <trkpt lat="46.56813" lon="5.25388">
        <ele>194.4</ele>
        <time>2021-12-03T12:44:41Z</time>
      </trkpt>
      <trkpt lat="46.56802" lon="5.25337">
        <ele>194.2</ele>
        <time>2021-12-03T12:44:46Z</time>
      </trkpt>
      <trkpt lat="46.56787" lon="5.25272">
        <ele>194.6</ele>
        <time>2021-12-03T12:44:53Z</time>
      </trkpt>
      <trkpt lat="46.56783" lon="5.25219">
        <ele>195</ele>
        <time>2021-12-03T12:44:59Z</time>
      </trkpt>
      <trkpt lat="46.56788" lon="5.25179">
        <ele>195.4</ele>
        <time>2021-12-03T12:45:04Z</time>
      </trkpt>
      <trkpt lat="46.56789" lon="5.25173">
        <ele>196</ele>
        <time>2021-12-03T12:45:05Z</time>
      </trkpt>
      <trkpt lat="46.56804" lon="5.2512">
        <ele>196.6</ele>
        <time>2021-12-03T12:45:12Z</time>
      </trkpt>
      <trkpt lat="46.5681" lon="5.25072">
        <ele>196.8</ele>
        <time>2021-12-03T12:45:18Z</time>
      </trkpt>
      <trkpt lat="46.5681" lon="5.25064">
        <ele>197</ele>
        <time>2021-12-03T12:45:19Z</time>
      </trkpt>
      <trkpt lat="46.5681" lon="5.25032">
        <ele>197.2</ele>
        <time>2021-12-03T12:45:23Z</time>
      </trkpt>
      <trkpt lat="46.56813" lon="5.25015">
        <ele>197.2</ele>
        <time>2021-12-03T12:45:25Z</time>
      </trkpt>
      <trkpt lat="46.56818" lon="5.24999">
        <ele>197.4</ele>
        <time>2021-12-03T12:45:27Z</time>
      </trkpt>
      <trkpt lat="46.56828" lon="5.24977">
        <ele>197.6</ele>
        <time>2021-12-03T12:45:30Z</time>
      </trkpt>
      <trkpt lat="46.56851" lon="5.2494">
        <ele>197.8</ele>
        <time>2021-12-03T12:45:35Z</time>
      </trkpt>
      <trkpt lat="46.56856" lon="5.24933">
        <ele>198</ele>
        <time>2021-12-03T12:45:36Z</time>
      </trkpt>
      <trkpt lat="46.56889" lon="5.24878">
        <ele>198</ele>
        <time>2021-12-03T12:45:43Z</time>
      </trkpt>
      <trkpt lat="46.56911" lon="5.24821">
        <ele>197.4</ele>
        <time>2021-12-03T12:45:49Z</time>
      </trkpt>
      <trkpt lat="46.56917" lon="5.24803">
        <ele>197</ele>
        <time>2021-12-03T12:45:51Z</time>
      </trkpt>
      <trkpt lat="46.56931" lon="5.24759">
        <ele>197</ele>
        <time>2021-12-03T12:45:56Z</time>
      </trkpt>
      <trkpt lat="46.56952" lon="5.24703">
        <ele>197.6</ele>
        <time>2021-12-03T12:46:03Z</time>
      </trkpt>
      <trkpt lat="46.56964" lon="5.24667">
        <ele>198.2</ele>
        <time>2021-12-03T12:46:08Z</time>
      </trkpt>
      <trkpt lat="46.56967" lon="5.24661">
        <ele>198.2</ele>
        <time>2021-12-03T12:46:09Z</time>
      </trkpt>
      <trkpt lat="46.56975" lon="5.24648">
        <ele>199.4</ele>
        <time>2021-12-03T12:46:13Z</time>
      </trkpt>
      <trkpt lat="46.56976" lon="5.24647">
        <ele>199.6</ele>
        <time>2021-12-03T12:46:14Z</time>
      </trkpt>
      <trkpt lat="46.56976" lon="5.24646">
        <ele>200.2</ele>
        <time>2021-12-03T12:46:16Z</time>
      </trkpt>
      <trkpt lat="46.56976" lon="5.24646">
        <ele>200.4</ele>
        <time>2021-12-03T12:46:17Z</time>
      </trkpt>
      <trkpt lat="46.5698" lon="5.24646">
        <ele>200.6</ele>
        <time>2021-12-03T12:46:25Z</time>
      </trkpt>
      <trkpt lat="46.56985" lon="5.24647">
        <ele>200.6</ele>
        <time>2021-12-03T12:46:27Z</time>
      </trkpt>
      <trkpt lat="46.57003" lon="5.24654">
        <ele>200.4</ele>
        <time>2021-12-03T12:46:31Z</time>
      </trkpt>
      <trkpt lat="46.5704" lon="5.24667">
        <ele>199.6</ele>
        <time>2021-12-03T12:46:37Z</time>
      </trkpt>
      <trkpt lat="46.57047" lon="5.2467">
        <ele>199.4</ele>
        <time>2021-12-03T12:46:38Z</time>
      </trkpt>
      <trkpt lat="46.57089" lon="5.24683">
        <ele>198.4</ele>
        <time>2021-12-03T12:46:44Z</time>
      </trkpt>
      <trkpt lat="46.57125" lon="5.24693">
        <ele>197.4</ele>
        <time>2021-12-03T12:46:49Z</time>
      </trkpt>
      <trkpt lat="46.5714" lon="5.24694">
        <ele>196.6</ele>
        <time>2021-12-03T12:46:51Z</time>
      </trkpt>
      <trkpt lat="46.57155" lon="5.24691">
        <ele>196.2</ele>
        <time>2021-12-03T12:46:53Z</time>
      </trkpt>
      <trkpt lat="46.57184" lon="5.24681">
        <ele>195.6</ele>
        <time>2021-12-03T12:46:57Z</time>
      </trkpt>
      <trkpt lat="46.57205" lon="5.24674">
        <ele>195</ele>
        <time>2021-12-03T12:47:00Z</time>
      </trkpt>
      <trkpt lat="46.5724" lon="5.2466">
        <ele>194.4</ele>
        <time>2021-12-03T12:47:05Z</time>
      </trkpt>
      <trkpt lat="46.5726" lon="5.24653">
        <ele>194.2</ele>
        <time>2021-12-03T12:47:08Z</time>
      </trkpt>
      <trkpt lat="46.57274" lon="5.2465">
        <ele>194</ele>
        <time>2021-12-03T12:47:10Z</time>
      </trkpt>
      <trkpt lat="46.57282" lon="5.24641">
        <ele>193.8</ele>
        <time>2021-12-03T12:47:12Z</time>
      </trkpt>
      <trkpt lat="46.57283" lon="5.24633">
        <ele>193.8</ele>
        <time>2021-12-03T12:47:13Z</time>
      </trkpt>
      <trkpt lat="46.57283" lon="5.24624">
        <ele>193.8</ele>
        <time>2021-12-03T12:47:14Z</time>
      </trkpt>
      <trkpt lat="46.57281" lon="5.24588">
        <ele>193.6</ele>
        <time>2021-12-03T12:47:18Z</time>
      </trkpt>
      <trkpt lat="46.57282" lon="5.24545">
        <ele>193.8</ele>
        <time>2021-12-03T12:47:23Z</time>
      </trkpt>
      <trkpt lat="46.57285" lon="5.2453">
        <ele>193.8</ele>
        <time>2021-12-03T12:47:25Z</time>
      </trkpt>
      <trkpt lat="46.57299" lon="5.24468">
        <ele>194.6</ele>
        <time>2021-12-03T12:47:33Z</time>
      </trkpt>
      <trkpt lat="46.57312" lon="5.24414">
        <ele>195</ele>
        <time>2021-12-03T12:47:40Z</time>
      </trkpt>
      <trkpt lat="46.57313" lon="5.24398">
        <ele>195.2</ele>
        <time>2021-12-03T12:47:42Z</time>
      </trkpt>
      <trkpt lat="46.57309" lon="5.24346">
        <ele>196</ele>
        <time>2021-12-03T12:47:49Z</time>
      </trkpt>
      <trkpt lat="46.57306" lon="5.24314">
        <ele>197.4</ele>
        <time>2021-12-03T12:47:54Z</time>
      </trkpt>
      <trkpt lat="46.57304" lon="5.24302">
        <ele>197.8</ele>
        <time>2021-12-03T12:47:56Z</time>
      </trkpt>
      <trkpt lat="46.57299" lon="5.24278">
        <ele>198.6</ele>
        <time>2021-12-03T12:48:00Z</time>
      </trkpt>
      <trkpt lat="46.57294" lon="5.24256">
        <ele>200</ele>
        <time>2021-12-03T12:48:04Z</time>
      </trkpt>
      <trkpt lat="46.57292" lon="5.24251">
        <ele>200.2</ele>
        <time>2021-12-03T12:48:05Z</time>
      </trkpt>
      <trkpt lat="46.57288" lon="5.24237">
        <ele>201.2</ele>
        <time>2021-12-03T12:48:08Z</time>
      </trkpt>
      <trkpt lat="46.5728" lon="5.24221">
        <ele>202</ele>
        <time>2021-12-03T12:48:12Z</time>
      </trkpt>
      <trkpt lat="46.57277" lon="5.24216">
        <ele>202.2</ele>
        <time>2021-12-03T12:48:13Z</time>
      </trkpt>
      <trkpt lat="46.57265" lon="5.24202">
        <ele>203.2</ele>
        <time>2021-12-03T12:48:17Z</time>
      </trkpt>
      <trkpt lat="46.5726" lon="5.24197">
        <ele>204</ele>
        <time>2021-12-03T12:48:19Z</time>
      </trkpt>
      <trkpt lat="46.57257" lon="5.24194">
        <ele>204.4</ele>
        <time>2021-12-03T12:48:20Z</time>
      </trkpt>
      <trkpt lat="46.57241" lon="5.24183">
        <ele>205.4</ele>
        <time>2021-12-03T12:48:25Z</time>
      </trkpt>
      <trkpt lat="46.57234" lon="5.24179">
        <ele>205.8</ele>
        <time>2021-12-03T12:48:27Z</time>
      </trkpt>
      <trkpt lat="46.57224" lon="5.24174">
        <ele>206.6</ele>
        <time>2021-12-03T12:48:30Z</time>
      </trkpt>
      <trkpt lat="46.57212" lon="5.24165">
        <ele>207.4</ele>
        <time>2021-12-03T12:48:34Z</time>
      </trkpt>
      <trkpt lat="46.57209" lon="5.24161">
        <ele>207.8</ele>
        <time>2021-12-03T12:48:35Z</time>
      </trkpt>
      <trkpt lat="46.57197" lon="5.24142">
        <ele>209.4</ele>
        <time>2021-12-03T12:48:40Z</time>
      </trkpt>
      <trkpt lat="46.57188" lon="5.24121">
        <ele>210.4</ele>
        <time>2021-12-03T12:48:45Z</time>
      </trkpt>
      <trkpt lat="46.57183" lon="5.24113">
        <ele>211.4</ele>
        <time>2021-12-03T12:48:47Z</time>
      </trkpt>
      <trkpt lat="46.57182" lon="5.24109">
        <ele>211.6</ele>
        <time>2021-12-03T12:48:48Z</time>
      </trkpt>
      <trkpt lat="46.57171" lon="5.24081">
        <ele>212.6</ele>
        <time>2021-12-03T12:48:54Z</time>
      </trkpt>
      <trkpt lat="46.57169" lon="5.24077">
        <ele>212.6</ele>
        <time>2021-12-03T12:48:55Z</time>
      </trkpt>
      <trkpt lat="46.57163" lon="5.24065">
        <ele>213.6</ele>
        <time>2021-12-03T12:48:58Z</time>
      </trkpt>
      <trkpt lat="46.57154" lon="5.24049">
        <ele>214.8</ele>
        <time>2021-12-03T12:49:02Z</time>
      </trkpt>
      <trkpt lat="46.57149" lon="5.24041">
        <ele>215.4</ele>
        <time>2021-12-03T12:49:04Z</time>
      </trkpt>
      <trkpt lat="46.57138" lon="5.24025">
        <ele>216</ele>
        <time>2021-12-03T12:49:08Z</time>
      </trkpt>
      <trkpt lat="46.57126" lon="5.2401">
        <ele>216.6</ele>
        <time>2021-12-03T12:49:12Z</time>
      </trkpt>
      <trkpt lat="46.57108" lon="5.23995">
        <ele>216.8</ele>
        <time>2021-12-03T12:49:16Z</time>
      </trkpt>
      <trkpt lat="46.57099" lon="5.23991">
        <ele>216.8</ele>
        <time>2021-12-03T12:49:18Z</time>
      </trkpt>
      <trkpt lat="46.57085" lon="5.23986">
        <ele>217.2</ele>
        <time>2021-12-03T12:49:21Z</time>
      </trkpt>
      <trkpt lat="46.57058" lon="5.23978">
        <ele>217.2</ele>
        <time>2021-12-03T12:49:26Z</time>
      </trkpt>
      <trkpt lat="46.57002" lon="5.23962">
        <ele>217.2</ele>
        <time>2021-12-03T12:49:36Z</time>
      </trkpt>
      <trkpt lat="46.56995" lon="5.2396">
        <ele>217.2</ele>
        <time>2021-12-03T12:49:37Z</time>
      </trkpt>
      <trkpt lat="46.56948" lon="5.23945">
        <ele>217.2</ele>
        <time>2021-12-03T12:49:45Z</time>
      </trkpt>
      <trkpt lat="46.56895" lon="5.23919">
        <ele>217</ele>
        <time>2021-12-03T12:49:54Z</time>
      </trkpt>
      <trkpt lat="46.56859" lon="5.23895">
        <ele>216.2</ele>
        <time>2021-12-03T12:50:01Z</time>
      </trkpt>
      <trkpt lat="46.56853" lon="5.23891">
        <ele>216.2</ele>
        <time>2021-12-03T12:50:02Z</time>
      </trkpt>
      <trkpt lat="46.56819" lon="5.23869">
        <ele>214.8</ele>
        <time>2021-12-03T12:50:08Z</time>
      </trkpt>
      <trkpt lat="46.56813" lon="5.23864">
        <ele>214.8</ele>
        <time>2021-12-03T12:50:09Z</time>
      </trkpt>
      <trkpt lat="46.56784" lon="5.23835">
        <ele>213.8</ele>
        <time>2021-12-03T12:50:14Z</time>
      </trkpt>
      <trkpt lat="46.56755" lon="5.23783">
        <ele>213.2</ele>
        <time>2021-12-03T12:50:21Z</time>
      </trkpt>
      <trkpt lat="46.56723" lon="5.23726">
        <ele>213.2</ele>
        <time>2021-12-03T12:50:29Z</time>
      </trkpt>
      <trkpt lat="46.56695" lon="5.23683">
        <ele>213.2</ele>
        <time>2021-12-03T12:50:36Z</time>
      </trkpt>
      <trkpt lat="46.56675" lon="5.23657">
        <ele>214</ele>
        <time>2021-12-03T12:50:41Z</time>
      </trkpt>
      <trkpt lat="46.56654" lon="5.23636">
        <ele>215</ele>
        <time>2021-12-03T12:50:46Z</time>
      </trkpt>
      <trkpt lat="46.56636" lon="5.23622">
        <ele>215.6</ele>
        <time>2021-12-03T12:50:50Z</time>
      </trkpt>
      <trkpt lat="46.5662" lon="5.23609">
        <ele>216</ele>
        <time>2021-12-03T12:50:53Z</time>
      </trkpt>
      <trkpt lat="46.56593" lon="5.23592">
        <ele>216.8</ele>
        <time>2021-12-03T12:50:58Z</time>
      </trkpt>
      <trkpt lat="46.56573" lon="5.23577">
        <ele>217.2</ele>
        <time>2021-12-03T12:51:02Z</time>
      </trkpt>
      <trkpt lat="46.56559" lon="5.23565">
        <ele>217.2</ele>
        <time>2021-12-03T12:51:05Z</time>
      </trkpt>
      <trkpt lat="46.56521" lon="5.23519">
        <ele>218</ele>
        <time>2021-12-03T12:51:13Z</time>
      </trkpt>
      <trkpt lat="46.56492" lon="5.23475">
        <ele>218</ele>
        <time>2021-12-03T12:51:20Z</time>
      </trkpt>
      <trkpt lat="46.56482" lon="5.23462">
        <ele>218</ele>
        <time>2021-12-03T12:51:22Z</time>
      </trkpt>
      <trkpt lat="46.56455" lon="5.23416">
        <ele>218.2</ele>
        <time>2021-12-03T12:51:29Z</time>
      </trkpt>
      <trkpt lat="46.56451" lon="5.23409">
        <ele>218.2</ele>
        <time>2021-12-03T12:51:30Z</time>
      </trkpt>
      <trkpt lat="46.56433" lon="5.2337">
        <ele>218.2</ele>
        <time>2021-12-03T12:51:35Z</time>
      </trkpt>
      <trkpt lat="46.56406" lon="5.23295">
        <ele>217.8</ele>
        <time>2021-12-03T12:51:44Z</time>
      </trkpt>
      <trkpt lat="46.56385" lon="5.23244">
        <ele>218.4</ele>
        <time>2021-12-03T12:51:50Z</time>
      </trkpt>
      <trkpt lat="46.56383" lon="5.23237">
        <ele>218.4</ele>
        <time>2021-12-03T12:51:51Z</time>
      </trkpt>
      <trkpt lat="46.56364" lon="5.23187">
        <ele>218.6</ele>
        <time>2021-12-03T12:51:57Z</time>
      </trkpt>
      <trkpt lat="46.56345" lon="5.23134">
        <ele>218.6</ele>
        <time>2021-12-03T12:52:03Z</time>
      </trkpt>
      <trkpt lat="46.56318" lon="5.23064">
        <ele>218.4</ele>
        <time>2021-12-03T12:52:11Z</time>
      </trkpt>
      <trkpt lat="46.5631" lon="5.23045">
        <ele>218.4</ele>
        <time>2021-12-03T12:52:13Z</time>
      </trkpt>
      <trkpt lat="46.56287" lon="5.22983">
        <ele>216.8</ele>
        <time>2021-12-03T12:52:19Z</time>
      </trkpt>
      <trkpt lat="46.56275" lon="5.22949">
        <ele>215.6</ele>
        <time>2021-12-03T12:52:22Z</time>
      </trkpt>
      <trkpt lat="46.56267" lon="5.22929">
        <ele>214.6</ele>
        <time>2021-12-03T12:52:24Z</time>
      </trkpt>
      <trkpt lat="46.56253" lon="5.22893">
        <ele>213.4</ele>
        <time>2021-12-03T12:52:27Z</time>
      </trkpt>
      <trkpt lat="46.56244" lon="5.2287">
        <ele>212</ele>
        <time>2021-12-03T12:52:29Z</time>
      </trkpt>
      <trkpt lat="46.56235" lon="5.22845">
        <ele>211</ele>
        <time>2021-12-03T12:52:31Z</time>
      </trkpt>
      <trkpt lat="46.56226" lon="5.22821">
        <ele>209.4</ele>
        <time>2021-12-03T12:52:33Z</time>
      </trkpt>
      <trkpt lat="46.56216" lon="5.22793">
        <ele>208.2</ele>
        <time>2021-12-03T12:52:35Z</time>
      </trkpt>
      <trkpt lat="46.56206" lon="5.22769">
        <ele>206.8</ele>
        <time>2021-12-03T12:52:37Z</time>
      </trkpt>
      <trkpt lat="46.56193" lon="5.22732">
        <ele>205</ele>
        <time>2021-12-03T12:52:40Z</time>
      </trkpt>
      <trkpt lat="46.56184" lon="5.22707">
        <ele>203.8</ele>
        <time>2021-12-03T12:52:42Z</time>
      </trkpt>
      <trkpt lat="46.5617" lon="5.22671">
        <ele>202.2</ele>
        <time>2021-12-03T12:52:45Z</time>
      </trkpt>
      <trkpt lat="46.56157" lon="5.22638">
        <ele>201.2</ele>
        <time>2021-12-03T12:52:48Z</time>
      </trkpt>
      <trkpt lat="46.5615" lon="5.22617">
        <ele>200.8</ele>
        <time>2021-12-03T12:52:50Z</time>
      </trkpt>
      <trkpt lat="46.56123" lon="5.22535">
        <ele>200.4</ele>
        <time>2021-12-03T12:52:58Z</time>
      </trkpt>
      <trkpt lat="46.561" lon="5.22459">
        <ele>200.6</ele>
        <time>2021-12-03T12:53:06Z</time>
      </trkpt>
      <trkpt lat="46.56078" lon="5.22384">
        <ele>200.6</ele>
        <time>2021-12-03T12:53:14Z</time>
      </trkpt>
      <trkpt lat="46.56075" lon="5.22374">
        <ele>200.6</ele>
        <time>2021-12-03T12:53:15Z</time>
      </trkpt>
      <trkpt lat="46.56053" lon="5.22303">
        <ele>200.8</ele>
        <time>2021-12-03T12:53:23Z</time>
      </trkpt>
      <trkpt lat="46.56046" lon="5.22278">
        <ele>201</ele>
        <time>2021-12-03T12:53:26Z</time>
      </trkpt>
      <trkpt lat="46.56024" lon="5.22205">
        <ele>201.6</ele>
        <time>2021-12-03T12:53:35Z</time>
      </trkpt>
      <trkpt lat="46.56004" lon="5.22138">
        <ele>202.2</ele>
        <time>2021-12-03T12:53:43Z</time>
      </trkpt>
      <trkpt lat="46.55982" lon="5.22063">
        <ele>201.8</ele>
        <time>2021-12-03T12:53:51Z</time>
      </trkpt>
      <trkpt lat="46.55958" lon="5.21984">
        <ele>201</ele>
        <time>2021-12-03T12:54:00Z</time>
      </trkpt>
      <trkpt lat="46.55952" lon="5.21967">
        <ele>200.8</ele>
        <time>2021-12-03T12:54:02Z</time>
      </trkpt>
      <trkpt lat="46.5593" lon="5.21894">
        <ele>201.2</ele>
        <time>2021-12-03T12:54:11Z</time>
      </trkpt>
      <trkpt lat="46.55928" lon="5.21886">
        <ele>201.6</ele>
        <time>2021-12-03T12:54:12Z</time>
      </trkpt>
      <trkpt lat="46.55905" lon="5.21812">
        <ele>202</ele>
        <time>2021-12-03T12:54:21Z</time>
      </trkpt>
      <trkpt lat="46.55903" lon="5.21804">
        <ele>202</ele>
        <time>2021-12-03T12:54:22Z</time>
      </trkpt>
      <trkpt lat="46.55889" lon="5.21741">
        <ele>202.6</ele>
        <time>2021-12-03T12:54:30Z</time>
      </trkpt>
      <trkpt lat="46.55882" lon="5.21696">
        <ele>203.8</ele>
        <time>2021-12-03T12:54:36Z</time>
      </trkpt>
      <trkpt lat="46.55881" lon="5.21689">
        <ele>204</ele>
        <time>2021-12-03T12:54:37Z</time>
      </trkpt>
      <trkpt lat="46.55876" lon="5.2166">
        <ele>204.8</ele>
        <time>2021-12-03T12:54:41Z</time>
      </trkpt>
      <trkpt lat="46.55874" lon="5.21639">
        <ele>206</ele>
        <time>2021-12-03T12:54:44Z</time>
      </trkpt>
      <trkpt lat="46.55873" lon="5.21634">
        <ele>206.4</ele>
        <time>2021-12-03T12:54:45Z</time>
      </trkpt>
      <trkpt lat="46.55872" lon="5.2162">
        <ele>206.8</ele>
        <time>2021-12-03T12:54:47Z</time>
      </trkpt>
      <trkpt lat="46.55871" lon="5.21613">
        <ele>207</ele>
        <time>2021-12-03T12:54:48Z</time>
      </trkpt>
      <trkpt lat="46.55869" lon="5.21594">
        <ele>208</ele>
        <time>2021-12-03T12:54:51Z</time>
      </trkpt>
      <trkpt lat="46.55867" lon="5.21564">
        <ele>209.2</ele>
        <time>2021-12-03T12:54:56Z</time>
      </trkpt>
      <trkpt lat="46.55867" lon="5.21558">
        <ele>209.4</ele>
        <time>2021-12-03T12:54:57Z</time>
      </trkpt>
      <trkpt lat="46.55865" lon="5.21541">
        <ele>210.4</ele>
        <time>2021-12-03T12:55:00Z</time>
      </trkpt>
      <trkpt lat="46.55864" lon="5.21527">
        <ele>210.6</ele>
        <time>2021-12-03T12:55:02Z</time>
      </trkpt>
      <trkpt lat="46.55864" lon="5.21516">
        <ele>211</ele>
        <time>2021-12-03T12:55:04Z</time>
      </trkpt>
      <trkpt lat="46.55863" lon="5.2151">
        <ele>211.4</ele>
        <time>2021-12-03T12:55:05Z</time>
      </trkpt>
      <trkpt lat="46.55863" lon="5.21474">
        <ele>212.4</ele>
        <time>2021-12-03T12:55:11Z</time>
      </trkpt>
      <trkpt lat="46.55863" lon="5.21452">
        <ele>213.6</ele>
        <time>2021-12-03T12:55:15Z</time>
      </trkpt>
      <trkpt lat="46.55864" lon="5.21422">
        <ele>214.8</ele>
        <time>2021-12-03T12:55:20Z</time>
      </trkpt>
      <trkpt lat="46.55864" lon="5.21416">
        <ele>215</ele>
        <time>2021-12-03T12:55:21Z</time>
      </trkpt>
      <trkpt lat="46.55864" lon="5.2139">
        <ele>215.8</ele>
        <time>2021-12-03T12:55:25Z</time>
      </trkpt>
      <trkpt lat="46.55863" lon="5.21369">
        <ele>216.2</ele>
        <time>2021-12-03T12:55:28Z</time>
      </trkpt>
      <trkpt lat="46.55863" lon="5.213">
        <ele>216.8</ele>
        <time>2021-12-03T12:55:37Z</time>
      </trkpt>
      <trkpt lat="46.55863" lon="5.21222">
        <ele>216.4</ele>
        <time>2021-12-03T12:55:46Z</time>
      </trkpt>
      <trkpt lat="46.55863" lon="5.21155">
        <ele>216</ele>
        <time>2021-12-03T12:55:54Z</time>
      </trkpt>
      <trkpt lat="46.55862" lon="5.21097">
        <ele>216</ele>
        <time>2021-12-03T12:56:01Z</time>
      </trkpt>
      <trkpt lat="46.5586" lon="5.21076">
        <ele>216.2</ele>
        <time>2021-12-03T12:56:05Z</time>
      </trkpt>
      <trkpt lat="46.55858" lon="5.2108">
        <ele>216.6</ele>
        <time>2021-12-03T12:56:08Z</time>
      </trkpt>
      <trkpt lat="46.55862" lon="5.21093">
        <ele>216.8</ele>
        <time>2021-12-03T12:56:11Z</time>
      </trkpt>
      <trkpt lat="46.55866" lon="5.21096">
        <ele>216.8</ele>
        <time>2021-12-03T12:56:12Z</time>
      </trkpt>
      <trkpt lat="46.5587" lon="5.21098">
        <ele>216.8</ele>
        <time>2021-12-03T12:56:13Z</time>
      </trkpt>
      <trkpt lat="46.55886" lon="5.21102">
        <ele>216.6</ele>
        <time>2021-12-03T12:56:16Z</time>
      </trkpt>
      <trkpt lat="46.55918" lon="5.21109">
        <ele>216.2</ele>
        <time>2021-12-03T12:56:22Z</time>
      </trkpt>
      <trkpt lat="46.55934" lon="5.21116">
        <ele>215.6</ele>
        <time>2021-12-03T12:56:25Z</time>
      </trkpt>
      <trkpt lat="46.55944" lon="5.21123">
        <ele>215.4</ele>
        <time>2021-12-03T12:56:27Z</time>
      </trkpt>
      <trkpt lat="46.55964" lon="5.21133">
        <ele>215</ele>
        <time>2021-12-03T12:56:31Z</time>
      </trkpt>
      <trkpt lat="46.55975" lon="5.21139">
        <ele>214.6</ele>
        <time>2021-12-03T12:56:34Z</time>
      </trkpt>
      <trkpt lat="46.55977" lon="5.21139">
        <ele>214.4</ele>
        <time>2021-12-03T12:56:37Z</time>
      </trkpt>
      <trkpt lat="46.55977" lon="5.21139">
        <ele>214.4</ele>
        <time>2021-12-03T12:56:38Z</time>
      </trkpt>
      <trkpt lat="46.55972" lon="5.21137">
        <ele>214.2</ele>
        <time>2021-12-03T12:57:34Z</time>
      </trkpt>
      <trkpt lat="46.55964" lon="5.21134">
        <ele>214.2</ele>
        <time>2021-12-03T12:57:36Z</time>
      </trkpt>
      <trkpt lat="46.55941" lon="5.2112">
        <ele>214</ele>
        <time>2021-12-03T12:57:41Z</time>
      </trkpt>
      <trkpt lat="46.55915" lon="5.21107">
        <ele>214.4</ele>
        <time>2021-12-03T12:57:47Z</time>
      </trkpt>
      <trkpt lat="46.5591" lon="5.21106">
        <ele>214.4</ele>
        <time>2021-12-03T12:57:48Z</time>
      </trkpt>
      <trkpt lat="46.55874" lon="5.21102">
        <ele>215.4</ele>
        <time>2021-12-03T12:57:56Z</time>
      </trkpt>
      <trkpt lat="46.55863" lon="5.21098">
        <ele>216</ele>
        <time>2021-12-03T12:58:00Z</time>
      </trkpt>
      <trkpt lat="46.55862" lon="5.21094">
        <ele>216.2</ele>
        <time>2021-12-03T12:58:01Z</time>
      </trkpt>
      <trkpt lat="46.55861" lon="5.21074">
        <ele>216.6</ele>
        <time>2021-12-03T12:58:04Z</time>
      </trkpt>
      <trkpt lat="46.55858" lon="5.2103">
        <ele>216.6</ele>
        <time>2021-12-03T12:58:09Z</time>
      </trkpt>
      <trkpt lat="46.55851" lon="5.20952">
        <ele>216.8</ele>
        <time>2021-12-03T12:58:18Z</time>
      </trkpt>
      <trkpt lat="46.5585" lon="5.20942">
        <ele>216.8</ele>
        <time>2021-12-03T12:58:19Z</time>
      </trkpt>
      <trkpt lat="46.55845" lon="5.20875">
        <ele>217</ele>
        <time>2021-12-03T12:58:27Z</time>
      </trkpt>
      <trkpt lat="46.55839" lon="5.20801">
        <ele>217</ele>
        <time>2021-12-03T12:58:35Z</time>
      </trkpt>
      <trkpt lat="46.55839" lon="5.20772">
        <ele>217</ele>
        <time>2021-12-03T12:58:38Z</time>
      </trkpt>
      <trkpt lat="46.55843" lon="5.20742">
        <ele>217</ele>
        <time>2021-12-03T12:58:41Z</time>
      </trkpt>
      <trkpt lat="46.55848" lon="5.20722">
        <ele>216.8</ele>
        <time>2021-12-03T12:58:43Z</time>
      </trkpt>
      <trkpt lat="46.55858" lon="5.20696">
        <ele>216.4</ele>
        <time>2021-12-03T12:58:46Z</time>
      </trkpt>
      <trkpt lat="46.55883" lon="5.20645">
        <ele>216.2</ele>
        <time>2021-12-03T12:58:52Z</time>
      </trkpt>
      <trkpt lat="46.5591" lon="5.20581">
        <ele>216.2</ele>
        <time>2021-12-03T12:59:00Z</time>
      </trkpt>
      <trkpt lat="46.55913" lon="5.2057">
        <ele>216.2</ele>
        <time>2021-12-03T12:59:01Z</time>
      </trkpt>
      <trkpt lat="46.55917" lon="5.20544">
        <ele>216.2</ele>
        <time>2021-12-03T12:59:04Z</time>
      </trkpt>
      <trkpt lat="46.55917" lon="5.20534">
        <ele>216.2</ele>
        <time>2021-12-03T12:59:05Z</time>
      </trkpt>
      <trkpt lat="46.55915" lon="5.20497">
        <ele>216.2</ele>
        <time>2021-12-03T12:59:09Z</time>
      </trkpt>
      <trkpt lat="46.55903" lon="5.20413">
        <ele>216.4</ele>
        <time>2021-12-03T12:59:18Z</time>
      </trkpt>
      <trkpt lat="46.55893" lon="5.20342">
        <ele>217.2</ele>
        <time>2021-12-03T12:59:26Z</time>
      </trkpt>
      <trkpt lat="46.55891" lon="5.20333">
        <ele>217.4</ele>
        <time>2021-12-03T12:59:27Z</time>
      </trkpt>
      <trkpt lat="46.55879" lon="5.2026">
        <ele>217.6</ele>
        <time>2021-12-03T12:59:35Z</time>
      </trkpt>
      <trkpt lat="46.55867" lon="5.20176">
        <ele>216.6</ele>
        <time>2021-12-03T12:59:44Z</time>
      </trkpt>
      <trkpt lat="46.55866" lon="5.20167">
        <ele>216.6</ele>
        <time>2021-12-03T12:59:45Z</time>
      </trkpt>
      <trkpt lat="46.55854" lon="5.20086">
        <ele>217</ele>
        <time>2021-12-03T12:59:54Z</time>
      </trkpt>
      <trkpt lat="46.55852" lon="5.20078">
        <ele>217</ele>
        <time>2021-12-03T12:59:55Z</time>
      </trkpt>
      <trkpt lat="46.55841" lon="5.19999">
        <ele>217.2</ele>
        <time>2021-12-03T13:00:04Z</time>
      </trkpt>
      <trkpt lat="46.55838" lon="5.19982">
        <ele>217.2</ele>
        <time>2021-12-03T13:00:06Z</time>
      </trkpt>
      <trkpt lat="46.55826" lon="5.19903">
        <ele>217.4</ele>
        <time>2021-12-03T13:00:15Z</time>
      </trkpt>
      <trkpt lat="46.55825" lon="5.19894">
        <ele>217.4</ele>
        <time>2021-12-03T13:00:16Z</time>
      </trkpt>
      <trkpt lat="46.55813" lon="5.19814">
        <ele>218</ele>
        <time>2021-12-03T13:00:25Z</time>
      </trkpt>
      <trkpt lat="46.5581" lon="5.19795">
        <ele>218</ele>
        <time>2021-12-03T13:00:27Z</time>
      </trkpt>
      <trkpt lat="46.55796" lon="5.19733">
        <ele>217.6</ele>
        <time>2021-12-03T13:00:34Z</time>
      </trkpt>
      <trkpt lat="46.55793" lon="5.19724">
        <ele>217.6</ele>
        <time>2021-12-03T13:00:35Z</time>
      </trkpt>
      <trkpt lat="46.55778" lon="5.19695">
        <ele>217.2</ele>
        <time>2021-12-03T13:00:39Z</time>
      </trkpt>
      <trkpt lat="46.55751" lon="5.19642">
        <ele>217.2</ele>
        <time>2021-12-03T13:00:46Z</time>
      </trkpt>
      <trkpt lat="46.55749" lon="5.19634">
        <ele>217.2</ele>
        <time>2021-12-03T13:00:47Z</time>
      </trkpt>
      <trkpt lat="46.55743" lon="5.19607">
        <ele>217.2</ele>
        <time>2021-12-03T13:00:50Z</time>
      </trkpt>
      <trkpt lat="46.55741" lon="5.1958">
        <ele>217.2</ele>
        <time>2021-12-03T13:00:53Z</time>
      </trkpt>
      <trkpt lat="46.55737" lon="5.19498">
        <ele>217</ele>
        <time>2021-12-03T13:01:02Z</time>
      </trkpt>
      <trkpt lat="46.55736" lon="5.19479">
        <ele>217.2</ele>
        <time>2021-12-03T13:01:04Z</time>
      </trkpt>
      <trkpt lat="46.55731" lon="5.19395">
        <ele>217.6</ele>
        <time>2021-12-03T13:01:13Z</time>
      </trkpt>
      <trkpt lat="46.55726" lon="5.19311">
        <ele>217.6</ele>
        <time>2021-12-03T13:01:22Z</time>
      </trkpt>
      <trkpt lat="46.55726" lon="5.19284">
        <ele>217.6</ele>
        <time>2021-12-03T13:01:25Z</time>
      </trkpt>
      <trkpt lat="46.55721" lon="5.19202">
        <ele>217.8</ele>
        <time>2021-12-03T13:01:34Z</time>
      </trkpt>
      <trkpt lat="46.55715" lon="5.19119">
        <ele>217.8</ele>
        <time>2021-12-03T13:01:43Z</time>
      </trkpt>
      <trkpt lat="46.55713" lon="5.1911">
        <ele>217.8</ele>
        <time>2021-12-03T13:01:44Z</time>
      </trkpt>
      <trkpt lat="46.55699" lon="5.19029">
        <ele>217.6</ele>
        <time>2021-12-03T13:01:53Z</time>
      </trkpt>
      <trkpt lat="46.55685" lon="5.18948">
        <ele>217</ele>
        <time>2021-12-03T13:02:02Z</time>
      </trkpt>
      <trkpt lat="46.55681" lon="5.1893">
        <ele>216.8</ele>
        <time>2021-12-03T13:02:04Z</time>
      </trkpt>
      <trkpt lat="46.55677" lon="5.18903">
        <ele>216.8</ele>
        <time>2021-12-03T13:02:07Z</time>
      </trkpt>
      <trkpt lat="46.55663" lon="5.18825">
        <ele>216.8</ele>
        <time>2021-12-03T13:02:16Z</time>
      </trkpt>
      <trkpt lat="46.5565" lon="5.18747">
        <ele>217.4</ele>
        <time>2021-12-03T13:02:25Z</time>
      </trkpt>
      <trkpt lat="46.55649" lon="5.18739">
        <ele>217.4</ele>
        <time>2021-12-03T13:02:26Z</time>
      </trkpt>
      <trkpt lat="46.55635" lon="5.18661">
        <ele>217.6</ele>
        <time>2021-12-03T13:02:35Z</time>
      </trkpt>
      <trkpt lat="46.55634" lon="5.18653">
        <ele>217.6</ele>
        <time>2021-12-03T13:02:36Z</time>
      </trkpt>
      <trkpt lat="46.5562" lon="5.18575">
        <ele>217.8</ele>
        <time>2021-12-03T13:02:45Z</time>
      </trkpt>
      <trkpt lat="46.55617" lon="5.18558">
        <ele>217.6</ele>
        <time>2021-12-03T13:02:47Z</time>
      </trkpt>
      <trkpt lat="46.55603" lon="5.18478">
        <ele>217.2</ele>
        <time>2021-12-03T13:02:56Z</time>
      </trkpt>
      <trkpt lat="46.55591" lon="5.1841">
        <ele>217.2</ele>
        <time>2021-12-03T13:03:04Z</time>
      </trkpt>
      <trkpt lat="46.55578" lon="5.18333">
        <ele>217.2</ele>
        <time>2021-12-03T13:03:13Z</time>
      </trkpt>
      <trkpt lat="46.55566" lon="5.18275">
        <ele>217.2</ele>
        <time>2021-12-03T13:03:20Z</time>
      </trkpt>
      <trkpt lat="46.55546" lon="5.18213">
        <ele>217.2</ele>
        <time>2021-12-03T13:03:28Z</time>
      </trkpt>
      <trkpt lat="46.55516" lon="5.18162">
        <ele>217.4</ele>
        <time>2021-12-03T13:03:36Z</time>
      </trkpt>
      <trkpt lat="46.55474" lon="5.18102">
        <ele>216.8</ele>
        <time>2021-12-03T13:03:45Z</time>
      </trkpt>
      <trkpt lat="46.5545" lon="5.18069">
        <ele>215.8</ele>
        <time>2021-12-03T13:03:50Z</time>
      </trkpt>
      <trkpt lat="46.5542" lon="5.18024">
        <ele>215</ele>
        <time>2021-12-03T13:03:56Z</time>
      </trkpt>
      <trkpt lat="46.55415" lon="5.18016">
        <ele>214.8</ele>
        <time>2021-12-03T13:03:57Z</time>
      </trkpt>
      <trkpt lat="46.55406" lon="5.17988">
        <ele>214.2</ele>
        <time>2021-12-03T13:04:00Z</time>
      </trkpt>
      <trkpt lat="46.55401" lon="5.17969">
        <ele>214</ele>
        <time>2021-12-03T13:04:02Z</time>
      </trkpt>
      <trkpt lat="46.55398" lon="5.17939">
        <ele>214</ele>
        <time>2021-12-03T13:04:05Z</time>
      </trkpt>
      <trkpt lat="46.55396" lon="5.17866">
        <ele>214.4</ele>
        <time>2021-12-03T13:04:13Z</time>
      </trkpt>
      <trkpt lat="46.55395" lon="5.17799">
        <ele>215.6</ele>
        <time>2021-12-03T13:04:21Z</time>
      </trkpt>
      <trkpt lat="46.55395" lon="5.17782">
        <ele>216.2</ele>
        <time>2021-12-03T13:04:23Z</time>
      </trkpt>
      <trkpt lat="46.55398" lon="5.17741">
        <ele>216.8</ele>
        <time>2021-12-03T13:04:28Z</time>
      </trkpt>
      <trkpt lat="46.55402" lon="5.17686">
        <ele>217</ele>
        <time>2021-12-03T13:04:34Z</time>
      </trkpt>
      <trkpt lat="46.55406" lon="5.17638">
        <ele>217.2</ele>
        <time>2021-12-03T13:04:39Z</time>
      </trkpt>
      <trkpt lat="46.55408" lon="5.1762">
        <ele>217.4</ele>
        <time>2021-12-03T13:04:41Z</time>
      </trkpt>
      <trkpt lat="46.55414" lon="5.1754">
        <ele>217.2</ele>
        <time>2021-12-03T13:04:49Z</time>
      </trkpt>
      <trkpt lat="46.55415" lon="5.1753">
        <ele>217</ele>
        <time>2021-12-03T13:04:50Z</time>
      </trkpt>
      <trkpt lat="46.5542" lon="5.17469">
        <ele>216.2</ele>
        <time>2021-12-03T13:04:56Z</time>
      </trkpt>
      <trkpt lat="46.55422" lon="5.17439">
        <ele>216</ele>
        <time>2021-12-03T13:04:59Z</time>
      </trkpt>
      <trkpt lat="46.55429" lon="5.1736">
        <ele>215.4</ele>
        <time>2021-12-03T13:05:07Z</time>
      </trkpt>
      <trkpt lat="46.55432" lon="5.17341">
        <ele>215.4</ele>
        <time>2021-12-03T13:05:09Z</time>
      </trkpt>
      <trkpt lat="46.55446" lon="5.1728">
        <ele>215.6</ele>
        <time>2021-12-03T13:05:16Z</time>
      </trkpt>
      <trkpt lat="46.55464" lon="5.17234">
        <ele>216.2</ele>
        <time>2021-12-03T13:05:22Z</time>
      </trkpt>
      <trkpt lat="46.55471" lon="5.1722">
        <ele>216.4</ele>
        <time>2021-12-03T13:05:24Z</time>
      </trkpt>
      <trkpt lat="46.55492" lon="5.17182">
        <ele>217</ele>
        <time>2021-12-03T13:05:29Z</time>
      </trkpt>
      <trkpt lat="46.55525" lon="5.17117">
        <ele>217</ele>
        <time>2021-12-03T13:05:37Z</time>
      </trkpt>
      <trkpt lat="46.55552" lon="5.17051">
        <ele>216.6</ele>
        <time>2021-12-03T13:05:45Z</time>
      </trkpt>
      <trkpt lat="46.5558" lon="5.16981">
        <ele>216.4</ele>
        <time>2021-12-03T13:05:53Z</time>
      </trkpt>
      <trkpt lat="46.55586" lon="5.16963">
        <ele>216.2</ele>
        <time>2021-12-03T13:05:55Z</time>
      </trkpt>
      <trkpt lat="46.55603" lon="5.16893">
        <ele>215.6</ele>
        <time>2021-12-03T13:06:02Z</time>
      </trkpt>
      <trkpt lat="46.5561" lon="5.16862">
        <ele>215</ele>
        <time>2021-12-03T13:06:05Z</time>
      </trkpt>
      <trkpt lat="46.55621" lon="5.16821">
        <ele>214</ele>
        <time>2021-12-03T13:06:09Z</time>
      </trkpt>
      <trkpt lat="46.55629" lon="5.16787">
        <ele>213</ele>
        <time>2021-12-03T13:06:12Z</time>
      </trkpt>
      <trkpt lat="46.5564" lon="5.16741">
        <ele>212.2</ele>
        <time>2021-12-03T13:06:16Z</time>
      </trkpt>
      <trkpt lat="46.55646" lon="5.16717">
        <ele>211.6</ele>
        <time>2021-12-03T13:06:18Z</time>
      </trkpt>
      <trkpt lat="46.55654" lon="5.16681">
        <ele>210.6</ele>
        <time>2021-12-03T13:06:21Z</time>
      </trkpt>
      <trkpt lat="46.5566" lon="5.16658">
        <ele>210</ele>
        <time>2021-12-03T13:06:23Z</time>
      </trkpt>
      <trkpt lat="46.55669" lon="5.16618">
        <ele>209.8</ele>
        <time>2021-12-03T13:06:27Z</time>
      </trkpt>
      <trkpt lat="46.55684" lon="5.16555">
        <ele>210.6</ele>
        <time>2021-12-03T13:06:34Z</time>
      </trkpt>
      <trkpt lat="46.55696" lon="5.16507">
        <ele>211.6</ele>
        <time>2021-12-03T13:06:40Z</time>
      </trkpt>
      <trkpt lat="46.55698" lon="5.165">
        <ele>211.8</ele>
        <time>2021-12-03T13:06:41Z</time>
      </trkpt>
      <trkpt lat="46.557" lon="5.16487">
        <ele>212.2</ele>
        <time>2021-12-03T13:06:43Z</time>
      </trkpt>
      <trkpt lat="46.55703" lon="5.16477">
        <ele>212.8</ele>
        <time>2021-12-03T13:06:45Z</time>
      </trkpt>
      <trkpt lat="46.55704" lon="5.16474">
        <ele>213.2</ele>
        <time>2021-12-03T13:06:46Z</time>
      </trkpt>
      <trkpt lat="46.55707" lon="5.1647">
        <ele>213.6</ele>
        <time>2021-12-03T13:06:48Z</time>
      </trkpt>
      <trkpt lat="46.55708" lon="5.16462">
        <ele>213.8</ele>
        <time>2021-12-03T13:06:50Z</time>
      </trkpt>
      <trkpt lat="46.55706" lon="5.16458">
        <ele>213.8</ele>
        <time>2021-12-03T13:06:51Z</time>
      </trkpt>
      <trkpt lat="46.55701" lon="5.16449">
        <ele>213.8</ele>
        <time>2021-12-03T13:06:53Z</time>
      </trkpt>
      <trkpt lat="46.55697" lon="5.16444">
        <ele>213.8</ele>
        <time>2021-12-03T13:06:54Z</time>
      </trkpt>
      <trkpt lat="46.55692" lon="5.1644">
        <ele>214</ele>
        <time>2021-12-03T13:06:55Z</time>
      </trkpt>
      <trkpt lat="46.55676" lon="5.16431">
        <ele>214</ele>
        <time>2021-12-03T13:06:58Z</time>
      </trkpt>
      <trkpt lat="46.55659" lon="5.16427">
        <ele>214</ele>
        <time>2021-12-03T13:07:01Z</time>
      </trkpt>
      <trkpt lat="46.55648" lon="5.16426">
        <ele>214</ele>
        <time>2021-12-03T13:07:03Z</time>
      </trkpt>
      <trkpt lat="46.55594" lon="5.16418">
        <ele>214.2</ele>
        <time>2021-12-03T13:07:12Z</time>
      </trkpt>
      <trkpt lat="46.55563" lon="5.1641">
        <ele>214</ele>
        <time>2021-12-03T13:07:17Z</time>
      </trkpt>
      <trkpt lat="46.55556" lon="5.1641">
        <ele>213.8</ele>
        <time>2021-12-03T13:07:18Z</time>
      </trkpt>
      <trkpt lat="46.55549" lon="5.16412">
        <ele>213.8</ele>
        <time>2021-12-03T13:07:19Z</time>
      </trkpt>
      <trkpt lat="46.55536" lon="5.1642">
        <ele>213.6</ele>
        <time>2021-12-03T13:07:21Z</time>
      </trkpt>
      <trkpt lat="46.55516" lon="5.16432">
        <ele>212.8</ele>
        <time>2021-12-03T13:07:24Z</time>
      </trkpt>
      <trkpt lat="46.55507" lon="5.16445">
        <ele>212.4</ele>
        <time>2021-12-03T13:07:26Z</time>
      </trkpt>
      <trkpt lat="46.55501" lon="5.16475">
        <ele>211.6</ele>
        <time>2021-12-03T13:07:29Z</time>
      </trkpt>
      <trkpt lat="46.55495" lon="5.16496">
        <ele>211.4</ele>
        <time>2021-12-03T13:07:31Z</time>
      </trkpt>
      <trkpt lat="46.55483" lon="5.16515">
        <ele>210.8</ele>
        <time>2021-12-03T13:07:33Z</time>
      </trkpt>
      <trkpt lat="46.55476" lon="5.16524">
        <ele>210.6</ele>
        <time>2021-12-03T13:07:34Z</time>
      </trkpt>
      <trkpt lat="46.55461" lon="5.16539">
        <ele>209.8</ele>
        <time>2021-12-03T13:07:36Z</time>
      </trkpt>
      <trkpt lat="46.55455" lon="5.16549">
        <ele>208.8</ele>
        <time>2021-12-03T13:07:37Z</time>
      </trkpt>
      <trkpt lat="46.5545" lon="5.16561">
        <ele>207.8</ele>
        <time>2021-12-03T13:07:38Z</time>
      </trkpt>
      <trkpt lat="46.55446" lon="5.16573">
        <ele>207.4</ele>
        <time>2021-12-03T13:07:39Z</time>
      </trkpt>
      <trkpt lat="46.55443" lon="5.16585">
        <ele>206.4</ele>
        <time>2021-12-03T13:07:40Z</time>
      </trkpt>
      <trkpt lat="46.55434" lon="5.16622">
        <ele>205.2</ele>
        <time>2021-12-03T13:07:43Z</time>
      </trkpt>
      <trkpt lat="46.55424" lon="5.16642">
        <ele>204.4</ele>
        <time>2021-12-03T13:07:45Z</time>
      </trkpt>
      <trkpt lat="46.55412" lon="5.16659">
        <ele>203.8</ele>
        <time>2021-12-03T13:07:47Z</time>
      </trkpt>
      <trkpt lat="46.5537" lon="5.16705">
        <ele>203.6</ele>
        <time>2021-12-03T13:07:54Z</time>
      </trkpt>
      <trkpt lat="46.55332" lon="5.16747">
        <ele>203.6</ele>
        <time>2021-12-03T13:08:01Z</time>
      </trkpt>
      <trkpt lat="46.55287" lon="5.16783">
        <ele>203.8</ele>
        <time>2021-12-03T13:08:09Z</time>
      </trkpt>
      <trkpt lat="46.55244" lon="5.16809">
        <ele>203.8</ele>
        <time>2021-12-03T13:08:16Z</time>
      </trkpt>
      <trkpt lat="46.55221" lon="5.16824">
        <ele>204</ele>
        <time>2021-12-03T13:08:20Z</time>
      </trkpt>
      <trkpt lat="46.55205" lon="5.16838">
        <ele>204</ele>
        <time>2021-12-03T13:08:23Z</time>
      </trkpt>
      <trkpt lat="46.55185" lon="5.16856">
        <ele>204.2</ele>
        <time>2021-12-03T13:08:27Z</time>
      </trkpt>
      <trkpt lat="46.55179" lon="5.16859">
        <ele>204.2</ele>
        <time>2021-12-03T13:08:28Z</time>
      </trkpt>
      <trkpt lat="46.55128" lon="5.16881">
        <ele>204</ele>
        <time>2021-12-03T13:08:36Z</time>
      </trkpt>
      <trkpt lat="46.55083" lon="5.16899">
        <ele>204.2</ele>
        <time>2021-12-03T13:08:43Z</time>
      </trkpt>
      <trkpt lat="46.55072" lon="5.16907">
        <ele>204.2</ele>
        <time>2021-12-03T13:08:45Z</time>
      </trkpt>
      <trkpt lat="46.55062" lon="5.16919">
        <ele>204.2</ele>
        <time>2021-12-03T13:08:47Z</time>
      </trkpt>
      <trkpt lat="46.55056" lon="5.16934">
        <ele>204.4</ele>
        <time>2021-12-03T13:08:49Z</time>
      </trkpt>
      <trkpt lat="46.55052" lon="5.16951">
        <ele>204.4</ele>
        <time>2021-12-03T13:08:51Z</time>
      </trkpt>
      <trkpt lat="46.55042" lon="5.17006">
        <ele>204.6</ele>
        <time>2021-12-03T13:08:57Z</time>
      </trkpt>
      <trkpt lat="46.55039" lon="5.17015">
        <ele>204.6</ele>
        <time>2021-12-03T13:08:58Z</time>
      </trkpt>
      <trkpt lat="46.55036" lon="5.17023">
        <ele>204.4</ele>
        <time>2021-12-03T13:08:59Z</time>
      </trkpt>
      <trkpt lat="46.55028" lon="5.17037">
        <ele>204.4</ele>
        <time>2021-12-03T13:09:01Z</time>
      </trkpt>
      <trkpt lat="46.55022" lon="5.17042">
        <ele>204.4</ele>
        <time>2021-12-03T13:09:02Z</time>
      </trkpt>
      <trkpt lat="46.54987" lon="5.17072">
        <ele>202.8</ele>
        <time>2021-12-03T13:09:07Z</time>
      </trkpt>
      <trkpt lat="46.54963" lon="5.17087">
        <ele>201.6</ele>
        <time>2021-12-03T13:09:10Z</time>
      </trkpt>
      <trkpt lat="46.54955" lon="5.17088">
        <ele>201.2</ele>
        <time>2021-12-03T13:09:11Z</time>
      </trkpt>
      <trkpt lat="46.54947" lon="5.17087">
        <ele>200.2</ele>
        <time>2021-12-03T13:09:12Z</time>
      </trkpt>
      <trkpt lat="46.5493" lon="5.17088">
        <ele>199.4</ele>
        <time>2021-12-03T13:09:14Z</time>
      </trkpt>
      <trkpt lat="46.54922" lon="5.1709">
        <ele>199</ele>
        <time>2021-12-03T13:09:15Z</time>
      </trkpt>
      <trkpt lat="46.54915" lon="5.17095">
        <ele>198.6</ele>
        <time>2021-12-03T13:09:16Z</time>
      </trkpt>
      <trkpt lat="46.54903" lon="5.17109">
        <ele>198.4</ele>
        <time>2021-12-03T13:09:18Z</time>
      </trkpt>
      <trkpt lat="46.54885" lon="5.17131">
        <ele>197.8</ele>
        <time>2021-12-03T13:09:21Z</time>
      </trkpt>
      <trkpt lat="46.54865" lon="5.17149">
        <ele>197.4</ele>
        <time>2021-12-03T13:09:24Z</time>
      </trkpt>
      <trkpt lat="46.54858" lon="5.17153">
        <ele>197.4</ele>
        <time>2021-12-03T13:09:25Z</time>
      </trkpt>
      <trkpt lat="46.54844" lon="5.17158">
        <ele>197</ele>
        <time>2021-12-03T13:09:27Z</time>
      </trkpt>
      <trkpt lat="46.54837" lon="5.17159">
        <ele>197.2</ele>
        <time>2021-12-03T13:09:28Z</time>
      </trkpt>
      <trkpt lat="46.54804" lon="5.17156">
        <ele>197.6</ele>
        <time>2021-12-03T13:09:33Z</time>
      </trkpt>
      <trkpt lat="46.54773" lon="5.17151">
        <ele>199</ele>
        <time>2021-12-03T13:09:39Z</time>
      </trkpt>
      <trkpt lat="46.54759" lon="5.1715">
        <ele>200.2</ele>
        <time>2021-12-03T13:09:42Z</time>
      </trkpt>
      <trkpt lat="46.54741" lon="5.17148">
        <ele>201.4</ele>
        <time>2021-12-03T13:09:46Z</time>
      </trkpt>
      <trkpt lat="46.54728" lon="5.17145">
        <ele>202.6</ele>
        <time>2021-12-03T13:09:49Z</time>
      </trkpt>
      <trkpt lat="46.54704" lon="5.17143">
        <ele>203.6</ele>
        <time>2021-12-03T13:09:54Z</time>
      </trkpt>
      <trkpt lat="46.5467" lon="5.17139">
        <ele>204.6</ele>
        <time>2021-12-03T13:10:01Z</time>
      </trkpt>
      <trkpt lat="46.54665" lon="5.17138">
        <ele>205</ele>
        <time>2021-12-03T13:10:02Z</time>
      </trkpt>
      <trkpt lat="46.54632" lon="5.17135">
        <ele>205.8</ele>
        <time>2021-12-03T13:10:09Z</time>
      </trkpt>
      <trkpt lat="46.54594" lon="5.17134">
        <ele>206.8</ele>
        <time>2021-12-03T13:10:17Z</time>
      </trkpt>
      <trkpt lat="46.54585" lon="5.17134">
        <ele>207</ele>
        <time>2021-12-03T13:10:19Z</time>
      </trkpt>
      <trkpt lat="46.54549" lon="5.17133">
        <ele>208</ele>
        <time>2021-12-03T13:10:27Z</time>
      </trkpt>
      <trkpt lat="46.54505" lon="5.17132">
        <ele>208.8</ele>
        <time>2021-12-03T13:10:36Z</time>
      </trkpt>
      <trkpt lat="46.54495" lon="5.17132">
        <ele>209</ele>
        <time>2021-12-03T13:10:38Z</time>
      </trkpt>
      <trkpt lat="46.5446" lon="5.17132">
        <ele>209.4</ele>
        <time>2021-12-03T13:10:45Z</time>
      </trkpt>
      <trkpt lat="46.54427" lon="5.17132">
        <ele>210.2</ele>
        <time>2021-12-03T13:10:52Z</time>
      </trkpt>
      <trkpt lat="46.54412" lon="5.17132">
        <ele>210.2</ele>
        <time>2021-12-03T13:10:55Z</time>
      </trkpt>
      <trkpt lat="46.54381" lon="5.17145">
        <ele>210.6</ele>
        <time>2021-12-03T13:11:01Z</time>
      </trkpt>
      <trkpt lat="46.54344" lon="5.17176">
        <ele>210</ele>
        <time>2021-12-03T13:11:08Z</time>
      </trkpt>
      <trkpt lat="46.54303" lon="5.17207">
        <ele>209</ele>
        <time>2021-12-03T13:11:15Z</time>
      </trkpt>
      <trkpt lat="46.54257" lon="5.17241">
        <ele>208</ele>
        <time>2021-12-03T13:11:22Z</time>
      </trkpt>
      <trkpt lat="46.5425" lon="5.17246">
        <ele>207.6</ele>
        <time>2021-12-03T13:11:23Z</time>
      </trkpt>
      <trkpt lat="46.54236" lon="5.17257">
        <ele>207</ele>
        <time>2021-12-03T13:11:25Z</time>
      </trkpt>
      <trkpt lat="46.54208" lon="5.17278">
        <ele>206</ele>
        <time>2021-12-03T13:11:29Z</time>
      </trkpt>
      <trkpt lat="46.54196" lon="5.17288">
        <ele>205.6</ele>
        <time>2021-12-03T13:11:31Z</time>
      </trkpt>
      <trkpt lat="46.54164" lon="5.17312">
        <ele>205.8</ele>
        <time>2021-12-03T13:11:37Z</time>
      </trkpt>
      <trkpt lat="46.54146" lon="5.17324">
        <ele>207</ele>
        <time>2021-12-03T13:11:41Z</time>
      </trkpt>
      <trkpt lat="46.54138" lon="5.1733">
        <ele>207.6</ele>
        <time>2021-12-03T13:11:43Z</time>
      </trkpt>
      <trkpt lat="46.54134" lon="5.17333">
        <ele>208</ele>
        <time>2021-12-03T13:11:44Z</time>
      </trkpt>
      <trkpt lat="46.54113" lon="5.1735">
        <ele>209.2</ele>
        <time>2021-12-03T13:11:49Z</time>
      </trkpt>
      <trkpt lat="46.541" lon="5.1736">
        <ele>209.8</ele>
        <time>2021-12-03T13:11:52Z</time>
      </trkpt>
      <trkpt lat="46.54092" lon="5.17367">
        <ele>210.2</ele>
        <time>2021-12-03T13:11:54Z</time>
      </trkpt>
      <trkpt lat="46.54063" lon="5.17388">
        <ele>211.4</ele>
        <time>2021-12-03T13:12:00Z</time>
      </trkpt>
      <trkpt lat="46.54058" lon="5.17392">
        <ele>211.4</ele>
        <time>2021-12-03T13:12:01Z</time>
      </trkpt>
      <trkpt lat="46.5402" lon="5.17421">
        <ele>211.6</ele>
        <time>2021-12-03T13:12:09Z</time>
      </trkpt>
      <trkpt lat="46.53968" lon="5.17459">
        <ele>211.6</ele>
        <time>2021-12-03T13:12:19Z</time>
      </trkpt>
      <trkpt lat="46.53957" lon="5.17467">
        <ele>211.6</ele>
        <time>2021-12-03T13:12:21Z</time>
      </trkpt>
      <trkpt lat="46.53909" lon="5.17504">
        <ele>211.4</ele>
        <time>2021-12-03T13:12:30Z</time>
      </trkpt>
      <trkpt lat="46.53872" lon="5.1753">
        <ele>210.2</ele>
        <time>2021-12-03T13:12:36Z</time>
      </trkpt>
      <trkpt lat="46.53865" lon="5.17533">
        <ele>210</ele>
        <time>2021-12-03T13:12:37Z</time>
      </trkpt>
      <trkpt lat="46.53828" lon="5.17544">
        <ele>209.8</ele>
        <time>2021-12-03T13:12:43Z</time>
      </trkpt>
      <trkpt lat="46.53795" lon="5.17551">
        <ele>210.2</ele>
        <time>2021-12-03T13:12:49Z</time>
      </trkpt>
      <trkpt lat="46.53773" lon="5.17555">
        <ele>210.6</ele>
        <time>2021-12-03T13:12:53Z</time>
      </trkpt>
      <trkpt lat="46.53757" lon="5.17558">
        <ele>211</ele>
        <time>2021-12-03T13:12:56Z</time>
      </trkpt>
      <trkpt lat="46.53716" lon="5.17568">
        <ele>211.2</ele>
        <time>2021-12-03T13:13:03Z</time>
      </trkpt>
      <trkpt lat="46.53659" lon="5.1758">
        <ele>211.8</ele>
        <time>2021-12-03T13:13:13Z</time>
      </trkpt>
      <trkpt lat="46.53612" lon="5.1759">
        <ele>211.4</ele>
        <time>2021-12-03T13:13:21Z</time>
      </trkpt>
      <trkpt lat="46.53555" lon="5.17604">
        <ele>211.6</ele>
        <time>2021-12-03T13:13:31Z</time>
      </trkpt>
      <trkpt lat="46.53549" lon="5.17606">
        <ele>211.6</ele>
        <time>2021-12-03T13:13:32Z</time>
      </trkpt>
      <trkpt lat="46.53519" lon="5.17622">
        <ele>211.8</ele>
        <time>2021-12-03T13:13:38Z</time>
      </trkpt>
      <trkpt lat="46.53489" lon="5.17646">
        <ele>212.4</ele>
        <time>2021-12-03T13:13:44Z</time>
      </trkpt>
      <trkpt lat="46.53468" lon="5.17661">
        <ele>212.4</ele>
        <time>2021-12-03T13:13:48Z</time>
      </trkpt>
      <trkpt lat="46.53425" lon="5.17694">
        <ele>212</ele>
        <time>2021-12-03T13:13:56Z</time>
      </trkpt>
      <trkpt lat="46.53403" lon="5.17711">
        <ele>211.4</ele>
        <time>2021-12-03T13:14:00Z</time>
      </trkpt>
      <trkpt lat="46.53367" lon="5.17737">
        <ele>210.8</ele>
        <time>2021-12-03T13:14:06Z</time>
      </trkpt>
      <trkpt lat="46.53348" lon="5.17749">
        <ele>210.2</ele>
        <time>2021-12-03T13:14:09Z</time>
      </trkpt>
      <trkpt lat="46.53327" lon="5.17757">
        <ele>210</ele>
        <time>2021-12-03T13:14:12Z</time>
      </trkpt>
      <trkpt lat="46.53284" lon="5.17761">
        <ele>209.8</ele>
        <time>2021-12-03T13:14:19Z</time>
      </trkpt>
      <trkpt lat="46.53247" lon="5.17762">
        <ele>210.4</ele>
        <time>2021-12-03T13:14:25Z</time>
      </trkpt>
      <trkpt lat="46.53205" lon="5.17755">
        <ele>211.2</ele>
        <time>2021-12-03T13:14:32Z</time>
      </trkpt>
      <trkpt lat="46.53186" lon="5.17752">
        <ele>211.6</ele>
        <time>2021-12-03T13:14:35Z</time>
      </trkpt>
      <trkpt lat="46.53149" lon="5.17744">
        <ele>211.6</ele>
        <time>2021-12-03T13:14:41Z</time>
      </trkpt>
      <trkpt lat="46.53093" lon="5.17734">
        <ele>210.2</ele>
        <time>2021-12-03T13:14:50Z</time>
      </trkpt>
      <trkpt lat="46.53058" lon="5.17729">
        <ele>209</ele>
        <time>2021-12-03T13:14:55Z</time>
      </trkpt>
      <trkpt lat="46.53049" lon="5.17727">
        <ele>208.6</ele>
        <time>2021-12-03T13:14:56Z</time>
      </trkpt>
      <trkpt lat="46.53034" lon="5.17724">
        <ele>208</ele>
        <time>2021-12-03T13:14:58Z</time>
      </trkpt>
      <trkpt lat="46.53012" lon="5.17718">
        <ele>207</ele>
        <time>2021-12-03T13:15:01Z</time>
      </trkpt>
      <trkpt lat="46.52991" lon="5.1771">
        <ele>206.2</ele>
        <time>2021-12-03T13:15:04Z</time>
      </trkpt>
      <trkpt lat="46.52984" lon="5.17708">
        <ele>206</ele>
        <time>2021-12-03T13:15:05Z</time>
      </trkpt>
      <trkpt lat="46.52944" lon="5.17691">
        <ele>205.4</ele>
        <time>2021-12-03T13:15:11Z</time>
      </trkpt>
      <trkpt lat="46.52899" lon="5.1767">
        <ele>205</ele>
        <time>2021-12-03T13:15:18Z</time>
      </trkpt>
      <trkpt lat="46.52893" lon="5.17667">
        <ele>204.8</ele>
        <time>2021-12-03T13:15:19Z</time>
      </trkpt>
      <trkpt lat="46.52835" lon="5.17641">
        <ele>203.6</ele>
        <time>2021-12-03T13:15:28Z</time>
      </trkpt>
      <trkpt lat="46.52828" lon="5.17638">
        <ele>203.4</ele>
        <time>2021-12-03T13:15:29Z</time>
      </trkpt>
      <trkpt lat="46.52815" lon="5.17624">
        <ele>203.2</ele>
        <time>2021-12-03T13:15:31Z</time>
      </trkpt>
      <trkpt lat="46.5281" lon="5.17616">
        <ele>202.8</ele>
        <time>2021-12-03T13:15:32Z</time>
      </trkpt>
      <trkpt lat="46.52805" lon="5.17608">
        <ele>202.6</ele>
        <time>2021-12-03T13:15:33Z</time>
      </trkpt>
      <trkpt lat="46.52769" lon="5.17545">
        <ele>201.6</ele>
        <time>2021-12-03T13:15:41Z</time>
      </trkpt>
      <trkpt lat="46.52764" lon="5.17538">
        <ele>201.6</ele>
        <time>2021-12-03T13:15:42Z</time>
      </trkpt>
      <trkpt lat="46.52733" lon="5.17487">
        <ele>201.4</ele>
        <time>2021-12-03T13:15:49Z</time>
      </trkpt>
      <trkpt lat="46.5271" lon="5.17454">
        <ele>202</ele>
        <time>2021-12-03T13:15:55Z</time>
      </trkpt>
      <trkpt lat="46.52695" lon="5.17437">
        <ele>202.8</ele>
        <time>2021-12-03T13:15:59Z</time>
      </trkpt>
      <trkpt lat="46.52678" lon="5.1742">
        <ele>203.8</ele>
        <time>2021-12-03T13:16:03Z</time>
      </trkpt>
      <trkpt lat="46.52661" lon="5.17401">
        <ele>204.8</ele>
        <time>2021-12-03T13:16:08Z</time>
      </trkpt>
      <trkpt lat="46.52657" lon="5.17398">
        <ele>205</ele>
        <time>2021-12-03T13:16:09Z</time>
      </trkpt>
      <trkpt lat="46.52644" lon="5.17383">
        <ele>206.2</ele>
        <time>2021-12-03T13:16:13Z</time>
      </trkpt>
      <trkpt lat="46.52635" lon="5.17373">
        <ele>207</ele>
        <time>2021-12-03T13:16:16Z</time>
      </trkpt>
      <trkpt lat="46.52632" lon="5.17369">
        <ele>207.4</ele>
        <time>2021-12-03T13:16:17Z</time>
      </trkpt>
      <trkpt lat="46.5262" lon="5.17357">
        <ele>208.6</ele>
        <time>2021-12-03T13:16:21Z</time>
      </trkpt>
      <trkpt lat="46.52612" lon="5.17346">
        <ele>209.2</ele>
        <time>2021-12-03T13:16:24Z</time>
      </trkpt>
      <trkpt lat="46.52607" lon="5.1734">
        <ele>209.6</ele>
        <time>2021-12-03T13:16:26Z</time>
      </trkpt>
      <trkpt lat="46.52595" lon="5.17328">
        <ele>210.8</ele>
        <time>2021-12-03T13:16:30Z</time>
      </trkpt>
      <trkpt lat="46.52581" lon="5.1731">
        <ele>212</ele>
        <time>2021-12-03T13:16:35Z</time>
      </trkpt>
      <trkpt lat="46.52575" lon="5.17303">
        <ele>212.4</ele>
        <time>2021-12-03T13:16:37Z</time>
      </trkpt>
      <trkpt lat="46.52561" lon="5.17286">
        <ele>213.2</ele>
        <time>2021-12-03T13:16:41Z</time>
      </trkpt>
      <trkpt lat="46.5255" lon="5.17276">
        <ele>213.6</ele>
        <time>2021-12-03T13:16:44Z</time>
      </trkpt>
      <trkpt lat="46.52541" lon="5.17266">
        <ele>214.2</ele>
        <time>2021-12-03T13:16:47Z</time>
      </trkpt>
      <trkpt lat="46.52517" lon="5.17238">
        <ele>215.4</ele>
        <time>2021-12-03T13:16:54Z</time>
      </trkpt>
      <trkpt lat="46.52483" lon="5.17201">
        <ele>216</ele>
        <time>2021-12-03T13:17:03Z</time>
      </trkpt>
      <trkpt lat="46.52448" lon="5.17162">
        <ele>216.2</ele>
        <time>2021-12-03T13:17:12Z</time>
      </trkpt>
      <trkpt lat="46.52411" lon="5.17116">
        <ele>216.6</ele>
        <time>2021-12-03T13:17:21Z</time>
      </trkpt>
      <trkpt lat="46.52371" lon="5.17069">
        <ele>216.4</ele>
        <time>2021-12-03T13:17:30Z</time>
      </trkpt>
      <trkpt lat="46.52325" lon="5.17016">
        <ele>215.8</ele>
        <time>2021-12-03T13:17:40Z</time>
      </trkpt>
      <trkpt lat="46.5232" lon="5.1701">
        <ele>215.6</ele>
        <time>2021-12-03T13:17:41Z</time>
      </trkpt>
      <trkpt lat="46.52311" lon="5.16998">
        <ele>215.4</ele>
        <time>2021-12-03T13:17:43Z</time>
      </trkpt>
      <trkpt lat="46.52289" lon="5.16956">
        <ele>215.2</ele>
        <time>2021-12-03T13:17:49Z</time>
      </trkpt>
      <trkpt lat="46.52284" lon="5.16939">
        <ele>215.2</ele>
        <time>2021-12-03T13:17:51Z</time>
      </trkpt>
      <trkpt lat="46.52279" lon="5.16913">
        <ele>215.2</ele>
        <time>2021-12-03T13:17:54Z</time>
      </trkpt>
      <trkpt lat="46.52279" lon="5.16905">
        <ele>215.2</ele>
        <time>2021-12-03T13:17:55Z</time>
      </trkpt>
      <trkpt lat="46.5228" lon="5.16845">
        <ele>215.6</ele>
        <time>2021-12-03T13:18:02Z</time>
      </trkpt>
      <trkpt lat="46.52281" lon="5.16789">
        <ele>216.4</ele>
        <time>2021-12-03T13:18:09Z</time>
      </trkpt>
      <trkpt lat="46.52281" lon="5.16755">
        <ele>216.8</ele>
        <time>2021-12-03T13:18:13Z</time>
      </trkpt>
      <trkpt lat="46.52278" lon="5.16713">
        <ele>217.2</ele>
        <time>2021-12-03T13:18:18Z</time>
      </trkpt>
      <trkpt lat="46.52277" lon="5.16705">
        <ele>217.4</ele>
        <time>2021-12-03T13:18:19Z</time>
      </trkpt>
      <trkpt lat="46.52266" lon="5.16675">
        <ele>217.6</ele>
        <time>2021-12-03T13:18:23Z</time>
      </trkpt>
      <trkpt lat="46.52254" lon="5.16657">
        <ele>217.8</ele>
        <time>2021-12-03T13:18:26Z</time>
      </trkpt>
      <trkpt lat="46.52249" lon="5.16652">
        <ele>217.8</ele>
        <time>2021-12-03T13:18:27Z</time>
      </trkpt>
      <trkpt lat="46.52244" lon="5.16646">
        <ele>217.8</ele>
        <time>2021-12-03T13:18:28Z</time>
      </trkpt>
      <trkpt lat="46.52239" lon="5.16642">
        <ele>217.8</ele>
        <time>2021-12-03T13:18:29Z</time>
      </trkpt>
      <trkpt lat="46.52216" lon="5.16628">
        <ele>217.4</ele>
        <time>2021-12-03T13:18:33Z</time>
      </trkpt>
      <trkpt lat="46.52166" lon="5.16599">
        <ele>217.2</ele>
        <time>2021-12-03T13:18:42Z</time>
      </trkpt>
      <trkpt lat="46.5211" lon="5.16569">
        <ele>218</ele>
        <time>2021-12-03T13:18:52Z</time>
      </trkpt>
      <trkpt lat="46.52099" lon="5.16563">
        <ele>218</ele>
        <time>2021-12-03T13:18:54Z</time>
      </trkpt>
      <trkpt lat="46.52053" lon="5.16543">
        <ele>217.4</ele>
        <time>2021-12-03T13:19:01Z</time>
      </trkpt>
      <trkpt lat="46.52032" lon="5.16543">
        <ele>216.8</ele>
        <time>2021-12-03T13:19:04Z</time>
      </trkpt>
      <trkpt lat="46.52018" lon="5.16546">
        <ele>216.2</ele>
        <time>2021-12-03T13:19:06Z</time>
      </trkpt>
      <trkpt lat="46.51982" lon="5.16554">
        <ele>215.6</ele>
        <time>2021-12-03T13:19:11Z</time>
      </trkpt>
      <trkpt lat="46.51959" lon="5.16558">
        <ele>214.8</ele>
        <time>2021-12-03T13:19:14Z</time>
      </trkpt>
      <trkpt lat="46.51944" lon="5.1656">
        <ele>214.4</ele>
        <time>2021-12-03T13:19:16Z</time>
      </trkpt>
      <trkpt lat="46.5192" lon="5.16565">
        <ele>213.4</ele>
        <time>2021-12-03T13:19:19Z</time>
      </trkpt>
      <trkpt lat="46.51885" lon="5.16572">
        <ele>211.6</ele>
        <time>2021-12-03T13:19:23Z</time>
      </trkpt>
      <trkpt lat="46.51876" lon="5.16574">
        <ele>211.6</ele>
        <time>2021-12-03T13:19:24Z</time>
      </trkpt>
      <trkpt lat="46.51859" lon="5.16576">
        <ele>210.8</ele>
        <time>2021-12-03T13:19:26Z</time>
      </trkpt>
      <trkpt lat="46.51832" lon="5.16577">
        <ele>209.2</ele>
        <time>2021-12-03T13:19:29Z</time>
      </trkpt>
      <trkpt lat="46.51824" lon="5.16577">
        <ele>209.2</ele>
        <time>2021-12-03T13:19:30Z</time>
      </trkpt>
      <trkpt lat="46.51808" lon="5.16575">
        <ele>207.8</ele>
        <time>2021-12-03T13:19:32Z</time>
      </trkpt>
      <trkpt lat="46.51762" lon="5.16574">
        <ele>207.2</ele>
        <time>2021-12-03T13:19:38Z</time>
      </trkpt>
      <trkpt lat="46.51755" lon="5.16575">
        <ele>207.2</ele>
        <time>2021-12-03T13:19:39Z</time>
      </trkpt>
      <trkpt lat="46.51743" lon="5.16582">
        <ele>207.2</ele>
        <time>2021-12-03T13:19:41Z</time>
      </trkpt>
      <trkpt lat="46.51712" lon="5.16614">
        <ele>208.2</ele>
        <time>2021-12-03T13:19:47Z</time>
      </trkpt>
      <trkpt lat="46.51689" lon="5.16636">
        <ele>209.6</ele>
        <time>2021-12-03T13:19:52Z</time>
      </trkpt>
      <trkpt lat="46.51684" lon="5.16639">
        <ele>209.8</ele>
        <time>2021-12-03T13:19:53Z</time>
      </trkpt>
      <trkpt lat="46.51674" lon="5.16645">
        <ele>210.2</ele>
        <time>2021-12-03T13:19:55Z</time>
      </trkpt>
      <trkpt lat="46.51664" lon="5.16648">
        <ele>210.6</ele>
        <time>2021-12-03T13:19:57Z</time>
      </trkpt>
      <trkpt lat="46.51658" lon="5.16649">
        <ele>210.8</ele>
        <time>2021-12-03T13:19:58Z</time>
      </trkpt>
      <trkpt lat="46.51653" lon="5.16649">
        <ele>210.8</ele>
        <time>2021-12-03T13:19:59Z</time>
      </trkpt>
      <trkpt lat="46.51613" lon="5.16659">
        <ele>211.6</ele>
        <time>2021-12-03T13:20:06Z</time>
      </trkpt>
      <trkpt lat="46.51578" lon="5.16684">
        <ele>211.6</ele>
        <time>2021-12-03T13:20:12Z</time>
      </trkpt>
      <trkpt lat="46.51559" lon="5.16695">
        <ele>211.4</ele>
        <time>2021-12-03T13:20:15Z</time>
      </trkpt>
      <trkpt lat="46.51544" lon="5.16698">
        <ele>211</ele>
        <time>2021-12-03T13:20:17Z</time>
      </trkpt>
      <trkpt lat="46.51531" lon="5.16695">
        <ele>210.6</ele>
        <time>2021-12-03T13:20:19Z</time>
      </trkpt>
      <trkpt lat="46.51517" lon="5.16688">
        <ele>210.2</ele>
        <time>2021-12-03T13:20:21Z</time>
      </trkpt>
      <trkpt lat="46.51496" lon="5.1668">
        <ele>209.6</ele>
        <time>2021-12-03T13:20:24Z</time>
      </trkpt>
      <trkpt lat="46.51462" lon="5.16671">
        <ele>209.4</ele>
        <time>2021-12-03T13:20:29Z</time>
      </trkpt>
      <trkpt lat="46.51416" lon="5.1667">
        <ele>209.4</ele>
        <time>2021-12-03T13:20:36Z</time>
      </trkpt>
      <trkpt lat="46.5141" lon="5.16671">
        <ele>209.4</ele>
        <time>2021-12-03T13:20:37Z</time>
      </trkpt>
      <trkpt lat="46.51387" lon="5.16686">
        <ele>209.6</ele>
        <time>2021-12-03T13:20:41Z</time>
      </trkpt>
      <trkpt lat="46.51383" lon="5.1669">
        <ele>209.8</ele>
        <time>2021-12-03T13:20:42Z</time>
      </trkpt>
      <trkpt lat="46.51354" lon="5.16717">
        <ele>209.8</ele>
        <time>2021-12-03T13:20:47Z</time>
      </trkpt>
      <trkpt lat="46.51311" lon="5.16746">
        <ele>209.4</ele>
        <time>2021-12-03T13:20:54Z</time>
      </trkpt>
      <trkpt lat="46.51269" lon="5.16772">
        <ele>209.2</ele>
        <time>2021-12-03T13:21:01Z</time>
      </trkpt>
      <trkpt lat="46.51254" lon="5.16776">
        <ele>209.2</ele>
        <time>2021-12-03T13:21:03Z</time>
      </trkpt>
      <trkpt lat="46.51226" lon="5.16771">
        <ele>208.4</ele>
        <time>2021-12-03T13:21:07Z</time>
      </trkpt>
      <trkpt lat="46.5122" lon="5.16768">
        <ele>208.4</ele>
        <time>2021-12-03T13:21:08Z</time>
      </trkpt>
      <trkpt lat="46.51202" lon="5.16752">
        <ele>208</ele>
        <time>2021-12-03T13:21:11Z</time>
      </trkpt>
      <trkpt lat="46.51176" lon="5.16719">
        <ele>207.4</ele>
        <time>2021-12-03T13:21:16Z</time>
      </trkpt>
      <trkpt lat="46.51162" lon="5.167">
        <ele>207.2</ele>
        <time>2021-12-03T13:21:19Z</time>
      </trkpt>
      <trkpt lat="46.51118" lon="5.16641">
        <ele>206.4</ele>
        <time>2021-12-03T13:21:27Z</time>
      </trkpt>
      <trkpt lat="46.51112" lon="5.16635">
        <ele>206.2</ele>
        <time>2021-12-03T13:21:28Z</time>
      </trkpt>
      <trkpt lat="46.511" lon="5.16625">
        <ele>206</ele>
        <time>2021-12-03T13:21:30Z</time>
      </trkpt>
      <trkpt lat="46.51088" lon="5.16618">
        <ele>205.6</ele>
        <time>2021-12-03T13:21:32Z</time>
      </trkpt>
      <trkpt lat="46.51075" lon="5.16613">
        <ele>205.2</ele>
        <time>2021-12-03T13:21:34Z</time>
      </trkpt>
      <trkpt lat="46.51043" lon="5.16602">
        <ele>205</ele>
        <time>2021-12-03T13:21:39Z</time>
      </trkpt>
      <trkpt lat="46.51019" lon="5.16588">
        <ele>205</ele>
        <time>2021-12-03T13:21:43Z</time>
      </trkpt>
      <trkpt lat="46.51014" lon="5.16583">
        <ele>205</ele>
        <time>2021-12-03T13:21:44Z</time>
      </trkpt>
      <trkpt lat="46.50981" lon="5.16557">
        <ele>205</ele>
        <time>2021-12-03T13:21:50Z</time>
      </trkpt>
      <trkpt lat="46.50969" lon="5.16554">
        <ele>205</ele>
        <time>2021-12-03T13:21:52Z</time>
      </trkpt>
      <trkpt lat="46.50956" lon="5.16554">
        <ele>204.8</ele>
        <time>2021-12-03T13:21:54Z</time>
      </trkpt>
      <trkpt lat="46.50919" lon="5.16562">
        <ele>204.6</ele>
        <time>2021-12-03T13:22:00Z</time>
      </trkpt>
      <trkpt lat="46.50888" lon="5.16568">
        <ele>204.2</ele>
        <time>2021-12-03T13:22:05Z</time>
      </trkpt>
      <trkpt lat="46.50881" lon="5.16568">
        <ele>204.2</ele>
        <time>2021-12-03T13:22:06Z</time>
      </trkpt>
      <trkpt lat="46.50875" lon="5.16567">
        <ele>204.2</ele>
        <time>2021-12-03T13:22:07Z</time>
      </trkpt>
      <trkpt lat="46.50823" lon="5.1655">
        <ele>204.2</ele>
        <time>2021-12-03T13:22:16Z</time>
      </trkpt>
      <trkpt lat="46.50766" lon="5.16531">
        <ele>204.4</ele>
        <time>2021-12-03T13:22:26Z</time>
      </trkpt>
      <trkpt lat="46.50761" lon="5.1653">
        <ele>204.2</ele>
        <time>2021-12-03T13:22:27Z</time>
      </trkpt>
      <trkpt lat="46.50727" lon="5.16533">
        <ele>204</ele>
        <time>2021-12-03T13:22:33Z</time>
      </trkpt>
      <trkpt lat="46.50685" lon="5.1655">
        <ele>204.4</ele>
        <time>2021-12-03T13:22:41Z</time>
      </trkpt>
      <trkpt lat="46.50645" lon="5.16582">
        <ele>204.6</ele>
        <time>2021-12-03T13:22:49Z</time>
      </trkpt>
      <trkpt lat="46.50608" lon="5.16615">
        <ele>205</ele>
        <time>2021-12-03T13:22:57Z</time>
      </trkpt>
      <trkpt lat="46.50603" lon="5.16619">
        <ele>205</ele>
        <time>2021-12-03T13:22:58Z</time>
      </trkpt>
      <trkpt lat="46.50588" lon="5.16629">
        <ele>205.2</ele>
        <time>2021-12-03T13:23:01Z</time>
      </trkpt>
      <trkpt lat="46.50553" lon="5.16653">
        <ele>205.6</ele>
        <time>2021-12-03T13:23:08Z</time>
      </trkpt>
      <trkpt lat="46.50505" lon="5.16682">
        <ele>206</ele>
        <time>2021-12-03T13:23:17Z</time>
      </trkpt>
      <trkpt lat="46.50463" lon="5.16708">
        <ele>205.6</ele>
        <time>2021-12-03T13:23:24Z</time>
      </trkpt>
      <trkpt lat="46.50456" lon="5.1671">
        <ele>205.6</ele>
        <time>2021-12-03T13:23:25Z</time>
      </trkpt>
      <trkpt lat="46.5045" lon="5.16712">
        <ele>205.4</ele>
        <time>2021-12-03T13:23:26Z</time>
      </trkpt>
      <trkpt lat="46.50437" lon="5.16713">
        <ele>205.4</ele>
        <time>2021-12-03T13:23:28Z</time>
      </trkpt>
      <trkpt lat="46.5043" lon="5.16712">
        <ele>205.2</ele>
        <time>2021-12-03T13:23:29Z</time>
      </trkpt>
      <trkpt lat="46.50385" lon="5.167">
        <ele>204.2</ele>
        <time>2021-12-03T13:23:36Z</time>
      </trkpt>
      <trkpt lat="46.50338" lon="5.16681">
        <ele>204</ele>
        <time>2021-12-03T13:23:43Z</time>
      </trkpt>
      <trkpt lat="46.50332" lon="5.16676">
        <ele>203.8</ele>
        <time>2021-12-03T13:23:44Z</time>
      </trkpt>
      <trkpt lat="46.50303" lon="5.1664">
        <ele>203.8</ele>
        <time>2021-12-03T13:23:50Z</time>
      </trkpt>
      <trkpt lat="46.50291" lon="5.16628">
        <ele>203.6</ele>
        <time>2021-12-03T13:23:52Z</time>
      </trkpt>
      <trkpt lat="46.50279" lon="5.16622">
        <ele>203.8</ele>
        <time>2021-12-03T13:23:54Z</time>
      </trkpt>
      <trkpt lat="46.50247" lon="5.16621">
        <ele>203.6</ele>
        <time>2021-12-03T13:23:59Z</time>
      </trkpt>
      <trkpt lat="46.50204" lon="5.16624">
        <ele>203.8</ele>
        <time>2021-12-03T13:24:06Z</time>
      </trkpt>
      <trkpt lat="46.50157" lon="5.16628">
        <ele>204.4</ele>
        <time>2021-12-03T13:24:14Z</time>
      </trkpt>
      <trkpt lat="46.50125" lon="5.16629">
        <ele>205</ele>
        <time>2021-12-03T13:24:20Z</time>
      </trkpt>
      <trkpt lat="46.50116" lon="5.16629">
        <ele>205</ele>
        <time>2021-12-03T13:24:22Z</time>
      </trkpt>
      <trkpt lat="46.50104" lon="5.16626">
        <ele>205.4</ele>
        <time>2021-12-03T13:24:24Z</time>
      </trkpt>
      <trkpt lat="46.5008" lon="5.16622">
        <ele>206</ele>
        <time>2021-12-03T13:24:29Z</time>
      </trkpt>
      <trkpt lat="46.5007" lon="5.1662">
        <ele>206.4</ele>
        <time>2021-12-03T13:24:31Z</time>
      </trkpt>
      <trkpt lat="46.50046" lon="5.16611">
        <ele>207.4</ele>
        <time>2021-12-03T13:24:36Z</time>
      </trkpt>
      <trkpt lat="46.5004" lon="5.16609">
        <ele>207.6</ele>
        <time>2021-12-03T13:24:37Z</time>
      </trkpt>
      <trkpt lat="46.50007" lon="5.16601">
        <ele>208.4</ele>
        <time>2021-12-03T13:24:44Z</time>
      </trkpt>
      <trkpt lat="46.50003" lon="5.166">
        <ele>208.6</ele>
        <time>2021-12-03T13:24:45Z</time>
      </trkpt>
      <trkpt lat="46.49973" lon="5.16591">
        <ele>209.4</ele>
        <time>2021-12-03T13:24:51Z</time>
      </trkpt>
      <trkpt lat="46.49967" lon="5.16589">
        <ele>209.6</ele>
        <time>2021-12-03T13:24:52Z</time>
      </trkpt>
      <trkpt lat="46.49921" lon="5.16576">
        <ele>210.4</ele>
        <time>2021-12-03T13:25:01Z</time>
      </trkpt>
      <trkpt lat="46.4988" lon="5.16569">
        <ele>210.6</ele>
        <time>2021-12-03T13:25:09Z</time>
      </trkpt>
      <trkpt lat="46.49865" lon="5.16567">
        <ele>211</ele>
        <time>2021-12-03T13:25:12Z</time>
      </trkpt>
      <trkpt lat="46.49818" lon="5.16561">
        <ele>211.4</ele>
        <time>2021-12-03T13:25:21Z</time>
      </trkpt>
      <trkpt lat="46.49771" lon="5.16552">
        <ele>211.8</ele>
        <time>2021-12-03T13:25:30Z</time>
      </trkpt>
      <trkpt lat="46.49766" lon="5.16551">
        <ele>212</ele>
        <time>2021-12-03T13:25:31Z</time>
      </trkpt>
      <trkpt lat="46.49727" lon="5.16546">
        <ele>212.8</ele>
        <time>2021-12-03T13:25:39Z</time>
      </trkpt>
      <trkpt lat="46.49723" lon="5.16546">
        <ele>213</ele>
        <time>2021-12-03T13:25:40Z</time>
      </trkpt>
      <trkpt lat="46.4971" lon="5.16547">
        <ele>213.4</ele>
        <time>2021-12-03T13:25:43Z</time>
      </trkpt>
      <trkpt lat="46.49697" lon="5.1655">
        <ele>213.8</ele>
        <time>2021-12-03T13:25:46Z</time>
      </trkpt>
      <trkpt lat="46.4969" lon="5.16551">
        <ele>214.2</ele>
        <time>2021-12-03T13:25:48Z</time>
      </trkpt>
      <trkpt lat="46.49675" lon="5.16556">
        <ele>215</ele>
        <time>2021-12-03T13:25:52Z</time>
      </trkpt>
      <trkpt lat="46.49671" lon="5.16557">
        <ele>215.2</ele>
        <time>2021-12-03T13:25:53Z</time>
      </trkpt>
      <trkpt lat="46.49652" lon="5.16563">
        <ele>216.2</ele>
        <time>2021-12-03T13:25:58Z</time>
      </trkpt>
      <trkpt lat="46.49645" lon="5.16566">
        <ele>216.6</ele>
        <time>2021-12-03T13:26:00Z</time>
      </trkpt>
      <trkpt lat="46.49628" lon="5.16574">
        <ele>217.4</ele>
        <time>2021-12-03T13:26:04Z</time>
      </trkpt>
      <trkpt lat="46.49615" lon="5.16579">
        <ele>217.8</ele>
        <time>2021-12-03T13:26:07Z</time>
      </trkpt>
      <trkpt lat="46.49606" lon="5.16583">
        <ele>218.6</ele>
        <time>2021-12-03T13:26:09Z</time>
      </trkpt>
      <trkpt lat="46.4958" lon="5.16591">
        <ele>219.4</ele>
        <time>2021-12-03T13:26:15Z</time>
      </trkpt>
      <trkpt lat="46.49577" lon="5.16591">
        <ele>219.6</ele>
        <time>2021-12-03T13:26:16Z</time>
      </trkpt>
      <trkpt lat="46.49555" lon="5.16599">
        <ele>220.8</ele>
        <time>2021-12-03T13:26:21Z</time>
      </trkpt>
      <trkpt lat="46.49534" lon="5.16607">
        <ele>221</ele>
        <time>2021-12-03T13:26:25Z</time>
      </trkpt>
      <trkpt lat="46.49489" lon="5.16624">
        <ele>220.4</ele>
        <time>2021-12-03T13:26:33Z</time>
      </trkpt>
      <trkpt lat="46.49451" lon="5.1663">
        <ele>219.6</ele>
        <time>2021-12-03T13:26:39Z</time>
      </trkpt>
      <trkpt lat="46.49445" lon="5.16631">
        <ele>219.4</ele>
        <time>2021-12-03T13:26:40Z</time>
      </trkpt>
      <trkpt lat="46.49404" lon="5.1663">
        <ele>218.4</ele>
        <time>2021-12-03T13:26:46Z</time>
      </trkpt>
      <trkpt lat="46.49346" lon="5.1663">
        <ele>218</ele>
        <time>2021-12-03T13:26:55Z</time>
      </trkpt>
      <trkpt lat="46.49294" lon="5.16629">
        <ele>217.4</ele>
        <time>2021-12-03T13:27:03Z</time>
      </trkpt>
      <trkpt lat="46.49272" lon="5.16628">
        <ele>217</ele>
        <time>2021-12-03T13:27:06Z</time>
      </trkpt>
      <trkpt lat="46.49217" lon="5.16634">
        <ele>216.4</ele>
        <time>2021-12-03T13:27:14Z</time>
      </trkpt>
      <trkpt lat="46.4921" lon="5.16637">
        <ele>216.2</ele>
        <time>2021-12-03T13:27:15Z</time>
      </trkpt>
      <trkpt lat="46.49151" lon="5.16658">
        <ele>215.4</ele>
        <time>2021-12-03T13:27:24Z</time>
      </trkpt>
      <trkpt lat="46.49147" lon="5.16659">
        <ele>215.4</ele>
        <time>2021-12-03T13:27:25Z</time>
      </trkpt>
      <trkpt lat="46.49098" lon="5.16677">
        <ele>215.6</ele>
        <time>2021-12-03T13:27:33Z</time>
      </trkpt>
      <trkpt lat="46.49047" lon="5.16696">
        <ele>216.2</ele>
        <time>2021-12-03T13:27:42Z</time>
      </trkpt>
      <trkpt lat="46.48992" lon="5.16718">
        <ele>216.4</ele>
        <time>2021-12-03T13:27:52Z</time>
      </trkpt>
      <trkpt lat="46.48986" lon="5.16721">
        <ele>216.4</ele>
        <time>2021-12-03T13:27:53Z</time>
      </trkpt>
      <trkpt lat="46.48938" lon="5.16745">
        <ele>216.8</ele>
        <time>2021-12-03T13:28:02Z</time>
      </trkpt>
      <trkpt lat="46.48926" lon="5.16751">
        <ele>217.2</ele>
        <time>2021-12-03T13:28:04Z</time>
      </trkpt>
      <trkpt lat="46.48879" lon="5.16777">
        <ele>218.2</ele>
        <time>2021-12-03T13:28:13Z</time>
      </trkpt>
      <trkpt lat="46.48871" lon="5.16783">
        <ele>218.2</ele>
        <time>2021-12-03T13:28:15Z</time>
      </trkpt>
      <trkpt lat="46.48838" lon="5.16802">
        <ele>219</ele>
        <time>2021-12-03T13:28:22Z</time>
      </trkpt>
      <trkpt lat="46.48823" lon="5.1681">
        <ele>219.2</ele>
        <time>2021-12-03T13:28:25Z</time>
      </trkpt>
      <trkpt lat="46.48785" lon="5.16825">
        <ele>220</ele>
        <time>2021-12-03T13:28:32Z</time>
      </trkpt>
      <trkpt lat="46.48732" lon="5.16834">
        <ele>219.4</ele>
        <time>2021-12-03T13:28:41Z</time>
      </trkpt>
      <trkpt lat="46.48692" lon="5.16839">
        <ele>219.4</ele>
        <time>2021-12-03T13:28:48Z</time>
      </trkpt>
      <trkpt lat="46.48632" lon="5.16847">
        <ele>219.2</ele>
        <time>2021-12-03T13:28:58Z</time>
      </trkpt>
      <trkpt lat="46.48626" lon="5.16848">
        <ele>219.2</ele>
        <time>2021-12-03T13:28:59Z</time>
      </trkpt>
      <trkpt lat="46.48577" lon="5.16846">
        <ele>219</ele>
        <time>2021-12-03T13:29:07Z</time>
      </trkpt>
      <trkpt lat="46.48559" lon="5.16843">
        <ele>219</ele>
        <time>2021-12-03T13:29:10Z</time>
      </trkpt>
      <trkpt lat="46.4854" lon="5.16835">
        <ele>219</ele>
        <time>2021-12-03T13:29:13Z</time>
      </trkpt>
      <trkpt lat="46.48496" lon="5.16811">
        <ele>219</ele>
        <time>2021-12-03T13:29:21Z</time>
      </trkpt>
      <trkpt lat="46.48452" lon="5.16783">
        <ele>220.2</ele>
        <time>2021-12-03T13:29:30Z</time>
      </trkpt>
      <trkpt lat="46.48447" lon="5.1678">
        <ele>220.4</ele>
        <time>2021-12-03T13:29:31Z</time>
      </trkpt>
      <trkpt lat="46.4842" lon="5.16763">
        <ele>221.4</ele>
        <time>2021-12-03T13:29:37Z</time>
      </trkpt>
      <trkpt lat="46.48415" lon="5.1676">
        <ele>221.6</ele>
        <time>2021-12-03T13:29:38Z</time>
      </trkpt>
      <trkpt lat="46.48378" lon="5.16738">
        <ele>222.6</ele>
        <time>2021-12-03T13:29:46Z</time>
      </trkpt>
      <trkpt lat="46.48368" lon="5.16732">
        <ele>223</ele>
        <time>2021-12-03T13:29:48Z</time>
      </trkpt>
      <trkpt lat="46.48353" lon="5.16722">
        <ele>223.6</ele>
        <time>2021-12-03T13:29:51Z</time>
      </trkpt>
      <trkpt lat="46.48323" lon="5.16701">
        <ele>224.2</ele>
        <time>2021-12-03T13:29:57Z</time>
      </trkpt>
      <trkpt lat="46.48308" lon="5.16691">
        <ele>224.6</ele>
        <time>2021-12-03T13:30:00Z</time>
      </trkpt>
      <trkpt lat="46.48271" lon="5.16671">
        <ele>224.8</ele>
        <time>2021-12-03T13:30:07Z</time>
      </trkpt>
      <trkpt lat="46.48215" lon="5.16646">
        <ele>225</ele>
        <time>2021-12-03T13:30:17Z</time>
      </trkpt>
      <trkpt lat="46.4821" lon="5.16643">
        <ele>225.2</ele>
        <time>2021-12-03T13:30:18Z</time>
      </trkpt>
      <trkpt lat="46.48171" lon="5.16626">
        <ele>225.2</ele>
        <time>2021-12-03T13:30:25Z</time>
      </trkpt>
      <trkpt lat="46.48117" lon="5.16592">
        <ele>224.8</ele>
        <time>2021-12-03T13:30:35Z</time>
      </trkpt>
      <trkpt lat="46.48073" lon="5.16555">
        <ele>224.8</ele>
        <time>2021-12-03T13:30:43Z</time>
      </trkpt>
      <trkpt lat="46.48038" lon="5.16524">
        <ele>223.6</ele>
        <time>2021-12-03T13:30:49Z</time>
      </trkpt>
      <trkpt lat="46.48026" lon="5.16515">
        <ele>223.6</ele>
        <time>2021-12-03T13:30:51Z</time>
      </trkpt>
      <trkpt lat="46.47975" lon="5.16478">
        <ele>223.2</ele>
        <time>2021-12-03T13:30:59Z</time>
      </trkpt>
      <trkpt lat="46.47968" lon="5.16473">
        <ele>222.8</ele>
        <time>2021-12-03T13:31:00Z</time>
      </trkpt>
      <trkpt lat="46.47949" lon="5.16459">
        <ele>222.4</ele>
        <time>2021-12-03T13:31:03Z</time>
      </trkpt>
      <trkpt lat="46.47924" lon="5.16438">
        <ele>221.6</ele>
        <time>2021-12-03T13:31:07Z</time>
      </trkpt>
      <trkpt lat="46.47918" lon="5.16433">
        <ele>221.2</ele>
        <time>2021-12-03T13:31:08Z</time>
      </trkpt>
      <trkpt lat="46.47878" lon="5.16391">
        <ele>220.6</ele>
        <time>2021-12-03T13:31:15Z</time>
      </trkpt>
      <trkpt lat="46.47844" lon="5.16355">
        <ele>220.2</ele>
        <time>2021-12-03T13:31:21Z</time>
      </trkpt>
      <trkpt lat="46.47839" lon="5.16349">
        <ele>220.2</ele>
        <time>2021-12-03T13:31:22Z</time>
      </trkpt>
      <trkpt lat="46.47808" lon="5.16317">
        <ele>220.4</ele>
        <time>2021-12-03T13:31:28Z</time>
      </trkpt>
      <trkpt lat="46.47773" lon="5.1628">
        <ele>220.8</ele>
        <time>2021-12-03T13:31:35Z</time>
      </trkpt>
      <trkpt lat="46.47729" lon="5.16244">
        <ele>221.4</ele>
        <time>2021-12-03T13:31:43Z</time>
      </trkpt>
      <trkpt lat="46.47685" lon="5.16229">
        <ele>222.2</ele>
        <time>2021-12-03T13:31:51Z</time>
      </trkpt>
      <trkpt lat="46.47664" lon="5.16225">
        <ele>222.4</ele>
        <time>2021-12-03T13:31:55Z</time>
      </trkpt>
      <trkpt lat="46.47636" lon="5.16217">
        <ele>223</ele>
        <time>2021-12-03T13:32:00Z</time>
      </trkpt>
      <trkpt lat="46.47609" lon="5.16205">
        <ele>223.4</ele>
        <time>2021-12-03T13:32:05Z</time>
      </trkpt>
      <trkpt lat="46.47592" lon="5.16194">
        <ele>223.6</ele>
        <time>2021-12-03T13:32:08Z</time>
      </trkpt>
      <trkpt lat="46.47565" lon="5.16163">
        <ele>224</ele>
        <time>2021-12-03T13:32:14Z</time>
      </trkpt>
      <trkpt lat="46.47561" lon="5.16157">
        <ele>224.4</ele>
        <time>2021-12-03T13:32:15Z</time>
      </trkpt>
      <trkpt lat="46.47554" lon="5.16144">
        <ele>224.4</ele>
        <time>2021-12-03T13:32:17Z</time>
      </trkpt>
      <trkpt lat="46.47544" lon="5.16124">
        <ele>224.6</ele>
        <time>2021-12-03T13:32:20Z</time>
      </trkpt>
      <trkpt lat="46.47527" lon="5.16073">
        <ele>225.2</ele>
        <time>2021-12-03T13:32:27Z</time>
      </trkpt>
      <trkpt lat="46.47514" lon="5.16028">
        <ele>225.6</ele>
        <time>2021-12-03T13:32:33Z</time>
      </trkpt>
      <trkpt lat="46.4751" lon="5.16015">
        <ele>225.8</ele>
        <time>2021-12-03T13:32:35Z</time>
      </trkpt>
      <trkpt lat="46.47504" lon="5.16002">
        <ele>226</ele>
        <time>2021-12-03T13:32:37Z</time>
      </trkpt>
      <trkpt lat="46.47497" lon="5.1599">
        <ele>226.2</ele>
        <time>2021-12-03T13:32:39Z</time>
      </trkpt>
      <trkpt lat="46.47494" lon="5.15986">
        <ele>226.2</ele>
        <time>2021-12-03T13:32:40Z</time>
      </trkpt>
      <trkpt lat="46.4749" lon="5.15982">
        <ele>226.4</ele>
        <time>2021-12-03T13:32:41Z</time>
      </trkpt>
      <trkpt lat="46.47482" lon="5.15977">
        <ele>226.6</ele>
        <time>2021-12-03T13:32:43Z</time>
      </trkpt>
      <trkpt lat="46.47479" lon="5.15974">
        <ele>226.8</ele>
        <time>2021-12-03T13:32:44Z</time>
      </trkpt>
      <trkpt lat="46.47468" lon="5.15968">
        <ele>227.8</ele>
        <time>2021-12-03T13:32:48Z</time>
      </trkpt>
      <trkpt lat="46.47465" lon="5.15964">
        <ele>228.2</ele>
        <time>2021-12-03T13:32:50Z</time>
      </trkpt>
      <trkpt lat="46.47459" lon="5.15967">
        <ele>228.4</ele>
        <time>2021-12-03T13:32:52Z</time>
      </trkpt>
      <trkpt lat="46.47452" lon="5.1597">
        <ele>228.4</ele>
        <time>2021-12-03T13:32:54Z</time>
      </trkpt>
      <trkpt lat="46.47441" lon="5.1597">
        <ele>228.4</ele>
        <time>2021-12-03T13:32:56Z</time>
      </trkpt>
      <trkpt lat="46.4741" lon="5.15967">
        <ele>228.2</ele>
        <time>2021-12-03T13:33:01Z</time>
      </trkpt>
      <trkpt lat="46.47362" lon="5.15956">
        <ele>227.8</ele>
        <time>2021-12-03T13:33:09Z</time>
      </trkpt>
      <trkpt lat="46.47325" lon="5.15939">
        <ele>227.6</ele>
        <time>2021-12-03T13:33:15Z</time>
      </trkpt>
      <trkpt lat="46.47294" lon="5.15923">
        <ele>227.4</ele>
        <time>2021-12-03T13:33:20Z</time>
      </trkpt>
      <trkpt lat="46.47276" lon="5.15915">
        <ele>227.4</ele>
        <time>2021-12-03T13:33:23Z</time>
      </trkpt>
      <trkpt lat="46.4723" lon="5.15904">
        <ele>226.8</ele>
        <time>2021-12-03T13:33:30Z</time>
      </trkpt>
      <trkpt lat="46.47217" lon="5.15903">
        <ele>226.6</ele>
        <time>2021-12-03T13:33:32Z</time>
      </trkpt>
      <trkpt lat="46.47174" lon="5.15905">
        <ele>226.6</ele>
        <time>2021-12-03T13:33:39Z</time>
      </trkpt>
      <trkpt lat="46.47117" lon="5.15909">
        <ele>226.8</ele>
        <time>2021-12-03T13:33:49Z</time>
      </trkpt>
      <trkpt lat="46.47058" lon="5.15912">
        <ele>227.2</ele>
        <time>2021-12-03T13:33:59Z</time>
      </trkpt>
      <trkpt lat="46.47046" lon="5.15912">
        <ele>227.4</ele>
        <time>2021-12-03T13:34:01Z</time>
      </trkpt>
      <trkpt lat="46.47002" lon="5.15899">
        <ele>227.2</ele>
        <time>2021-12-03T13:34:08Z</time>
      </trkpt>
      <trkpt lat="46.46968" lon="5.15875">
        <ele>227.2</ele>
        <time>2021-12-03T13:34:14Z</time>
      </trkpt>
      <trkpt lat="46.4692" lon="5.15835">
        <ele>227</ele>
        <time>2021-12-03T13:34:23Z</time>
      </trkpt>
      <trkpt lat="46.46915" lon="5.15831">
        <ele>227</ele>
        <time>2021-12-03T13:34:24Z</time>
      </trkpt>
      <trkpt lat="46.46866" lon="5.15793">
        <ele>227.2</ele>
        <time>2021-12-03T13:34:33Z</time>
      </trkpt>
      <trkpt lat="46.4685" lon="5.1578">
        <ele>227.2</ele>
        <time>2021-12-03T13:34:36Z</time>
      </trkpt>
      <trkpt lat="46.468" lon="5.15742">
        <ele>226.4</ele>
        <time>2021-12-03T13:34:45Z</time>
      </trkpt>
      <trkpt lat="46.46781" lon="5.15729">
        <ele>226.2</ele>
        <time>2021-12-03T13:34:48Z</time>
      </trkpt>
      <trkpt lat="46.46731" lon="5.1569">
        <ele>225.8</ele>
        <time>2021-12-03T13:34:57Z</time>
      </trkpt>
      <trkpt lat="46.46725" lon="5.15686">
        <ele>225.8</ele>
        <time>2021-12-03T13:34:58Z</time>
      </trkpt>
      <trkpt lat="46.46719" lon="5.15681">
        <ele>225.6</ele>
        <time>2021-12-03T13:34:59Z</time>
      </trkpt>
      <trkpt lat="46.46684" lon="5.15654">
        <ele>224.6</ele>
        <time>2021-12-03T13:35:05Z</time>
      </trkpt>
      <trkpt lat="46.46659" lon="5.15636">
        <ele>224.2</ele>
        <time>2021-12-03T13:35:09Z</time>
      </trkpt>
      <trkpt lat="46.46626" lon="5.15618">
        <ele>223.6</ele>
        <time>2021-12-03T13:35:14Z</time>
      </trkpt>
      <trkpt lat="46.46606" lon="5.1561">
        <ele>223.2</ele>
        <time>2021-12-03T13:35:17Z</time>
      </trkpt>
      <trkpt lat="46.46551" lon="5.15592">
        <ele>222.6</ele>
        <time>2021-12-03T13:35:25Z</time>
      </trkpt>
      <trkpt lat="46.46545" lon="5.1559">
        <ele>222.4</ele>
        <time>2021-12-03T13:35:26Z</time>
      </trkpt>
      <trkpt lat="46.46491" lon="5.15574">
        <ele>221.6</ele>
        <time>2021-12-03T13:35:34Z</time>
      </trkpt>
      <trkpt lat="46.46485" lon="5.15572">
        <ele>221.4</ele>
        <time>2021-12-03T13:35:35Z</time>
      </trkpt>
      <trkpt lat="46.46432" lon="5.15554">
        <ele>221.2</ele>
        <time>2021-12-03T13:35:43Z</time>
      </trkpt>
      <trkpt lat="46.46406" lon="5.15546">
        <ele>220.8</ele>
        <time>2021-12-03T13:35:47Z</time>
      </trkpt>
      <trkpt lat="46.46368" lon="5.15532">
        <ele>220.4</ele>
        <time>2021-12-03T13:35:53Z</time>
      </trkpt>
      <trkpt lat="46.46349" lon="5.15525">
        <ele>220.4</ele>
        <time>2021-12-03T13:35:56Z</time>
      </trkpt>
      <trkpt lat="46.46291" lon="5.15503">
        <ele>220</ele>
        <time>2021-12-03T13:36:04Z</time>
      </trkpt>
      <trkpt lat="46.46285" lon="5.155">
        <ele>220</ele>
        <time>2021-12-03T13:36:05Z</time>
      </trkpt>
      <trkpt lat="46.46228" lon="5.15477">
        <ele>219.6</ele>
        <time>2021-12-03T13:36:14Z</time>
      </trkpt>
      <trkpt lat="46.46196" lon="5.15465">
        <ele>219.4</ele>
        <time>2021-12-03T13:36:19Z</time>
      </trkpt>
      <trkpt lat="46.4619" lon="5.15462">
        <ele>219.4</ele>
        <time>2021-12-03T13:36:20Z</time>
      </trkpt>
      <trkpt lat="46.46144" lon="5.15444">
        <ele>218.6</ele>
        <time>2021-12-03T13:36:27Z</time>
      </trkpt>
      <trkpt lat="46.46132" lon="5.15438">
        <ele>218.4</ele>
        <time>2021-12-03T13:36:29Z</time>
      </trkpt>
      <trkpt lat="46.46103" lon="5.15417">
        <ele>218</ele>
        <time>2021-12-03T13:36:34Z</time>
      </trkpt>
      <trkpt lat="46.4607" lon="5.15387">
        <ele>217.4</ele>
        <time>2021-12-03T13:36:40Z</time>
      </trkpt>
      <trkpt lat="46.46065" lon="5.15381">
        <ele>217.4</ele>
        <time>2021-12-03T13:36:41Z</time>
      </trkpt>
      <trkpt lat="46.46034" lon="5.15342">
        <ele>217.8</ele>
        <time>2021-12-03T13:36:48Z</time>
      </trkpt>
      <trkpt lat="46.4602" lon="5.15321">
        <ele>218.4</ele>
        <time>2021-12-03T13:36:52Z</time>
      </trkpt>
      <trkpt lat="46.46016" lon="5.15315">
        <ele>218.6</ele>
        <time>2021-12-03T13:36:53Z</time>
      </trkpt>
      <trkpt lat="46.46008" lon="5.15304">
        <ele>219.4</ele>
        <time>2021-12-03T13:36:57Z</time>
      </trkpt>
      <trkpt lat="46.46004" lon="5.15298">
        <ele>219.6</ele>
        <time>2021-12-03T13:36:58Z</time>
      </trkpt>
      <trkpt lat="46.45994" lon="5.15284">
        <ele>220.8</ele>
        <time>2021-12-03T13:37:03Z</time>
      </trkpt>
      <trkpt lat="46.4598" lon="5.15264">
        <ele>221.2</ele>
        <time>2021-12-03T13:37:08Z</time>
      </trkpt>
      <trkpt lat="46.45969" lon="5.15246">
        <ele>222</ele>
        <time>2021-12-03T13:37:12Z</time>
      </trkpt>
      <trkpt lat="46.4596" lon="5.15232">
        <ele>222.6</ele>
        <time>2021-12-03T13:37:15Z</time>
      </trkpt>
      <trkpt lat="46.45954" lon="5.15223">
        <ele>223.2</ele>
        <time>2021-12-03T13:37:18Z</time>
      </trkpt>
      <trkpt lat="46.4593" lon="5.15191">
        <ele>224.4</ele>
        <time>2021-12-03T13:37:25Z</time>
      </trkpt>
      <trkpt lat="46.45926" lon="5.15187">
        <ele>224.6</ele>
        <time>2021-12-03T13:37:26Z</time>
      </trkpt>
      <trkpt lat="46.45915" lon="5.15176">
        <ele>225.2</ele>
        <time>2021-12-03T13:37:29Z</time>
      </trkpt>
      <trkpt lat="46.45912" lon="5.15172">
        <ele>225.4</ele>
        <time>2021-12-03T13:37:30Z</time>
      </trkpt>
      <trkpt lat="46.45907" lon="5.15169">
        <ele>225.6</ele>
        <time>2021-12-03T13:37:31Z</time>
      </trkpt>
      <trkpt lat="46.45902" lon="5.15165">
        <ele>226.2</ele>
        <time>2021-12-03T13:37:32Z</time>
      </trkpt>
      <trkpt lat="46.45893" lon="5.1516">
        <ele>226.6</ele>
        <time>2021-12-03T13:37:34Z</time>
      </trkpt>
      <trkpt lat="46.45871" lon="5.15152">
        <ele>227</ele>
        <time>2021-12-03T13:37:38Z</time>
      </trkpt>
      <trkpt lat="46.45834" lon="5.15145">
        <ele>226.8</ele>
        <time>2021-12-03T13:37:44Z</time>
      </trkpt>
      <trkpt lat="46.45808" lon="5.15142">
        <ele>225.6</ele>
        <time>2021-12-03T13:37:48Z</time>
      </trkpt>
      <trkpt lat="46.45788" lon="5.15142">
        <ele>225</ele>
        <time>2021-12-03T13:37:51Z</time>
      </trkpt>
      <trkpt lat="46.45737" lon="5.15156">
        <ele>225</ele>
        <time>2021-12-03T13:37:59Z</time>
      </trkpt>
      <trkpt lat="46.45721" lon="5.15165">
        <ele>225.6</ele>
        <time>2021-12-03T13:38:02Z</time>
      </trkpt>
      <trkpt lat="46.45706" lon="5.15177">
        <ele>226</ele>
        <time>2021-12-03T13:38:05Z</time>
      </trkpt>
      <trkpt lat="46.45683" lon="5.15201">
        <ele>226.6</ele>
        <time>2021-12-03T13:38:10Z</time>
      </trkpt>
      <trkpt lat="46.45674" lon="5.15212">
        <ele>227</ele>
        <time>2021-12-03T13:38:12Z</time>
      </trkpt>
      <trkpt lat="46.45637" lon="5.1525">
        <ele>227.8</ele>
        <time>2021-12-03T13:38:19Z</time>
      </trkpt>
      <trkpt lat="46.45629" lon="5.1526">
        <ele>228</ele>
        <time>2021-12-03T13:38:21Z</time>
      </trkpt>
      <trkpt lat="46.45605" lon="5.15286">
        <ele>228.8</ele>
        <time>2021-12-03T13:38:27Z</time>
      </trkpt>
      <trkpt lat="46.4559" lon="5.15299">
        <ele>229</ele>
        <time>2021-12-03T13:38:29Z</time>
      </trkpt>
      <trkpt lat="46.45567" lon="5.15319">
        <ele>229.4</ele>
        <time>2021-12-03T13:38:34Z</time>
      </trkpt>
      <trkpt lat="46.45547" lon="5.15334">
        <ele>230</ele>
        <time>2021-12-03T13:38:38Z</time>
      </trkpt>
      <trkpt lat="46.4553" lon="5.15347">
        <ele>230</ele>
        <time>2021-12-03T13:38:41Z</time>
      </trkpt>
      <trkpt lat="46.4549" lon="5.15372">
        <ele>229.6</ele>
        <time>2021-12-03T13:38:48Z</time>
      </trkpt>
      <trkpt lat="46.4545" lon="5.15395">
        <ele>228.6</ele>
        <time>2021-12-03T13:38:54Z</time>
      </trkpt>
      <trkpt lat="46.45436" lon="5.15401">
        <ele>228.2</ele>
        <time>2021-12-03T13:38:56Z</time>
      </trkpt>
      <trkpt lat="46.45393" lon="5.15412">
        <ele>227.4</ele>
        <time>2021-12-03T13:39:02Z</time>
      </trkpt>
      <trkpt lat="46.45371" lon="5.15415">
        <ele>226.4</ele>
        <time>2021-12-03T13:39:05Z</time>
      </trkpt>
      <trkpt lat="46.45341" lon="5.15419">
        <ele>225.2</ele>
        <time>2021-12-03T13:39:09Z</time>
      </trkpt>
      <trkpt lat="46.45326" lon="5.15421">
        <ele>224.6</ele>
        <time>2021-12-03T13:39:11Z</time>
      </trkpt>
      <trkpt lat="46.45311" lon="5.15423">
        <ele>224.2</ele>
        <time>2021-12-03T13:39:13Z</time>
      </trkpt>
      <trkpt lat="46.45276" lon="5.15428">
        <ele>223.2</ele>
        <time>2021-12-03T13:39:18Z</time>
      </trkpt>
      <trkpt lat="46.45244" lon="5.15432">
        <ele>223.4</ele>
        <time>2021-12-03T13:39:23Z</time>
      </trkpt>
      <trkpt lat="46.45195" lon="5.15439">
        <ele>224</ele>
        <time>2021-12-03T13:39:31Z</time>
      </trkpt>
      <trkpt lat="46.45141" lon="5.15447">
        <ele>223.8</ele>
        <time>2021-12-03T13:39:39Z</time>
      </trkpt>
      <trkpt lat="46.45134" lon="5.15448">
        <ele>223.8</ele>
        <time>2021-12-03T13:39:40Z</time>
      </trkpt>
      <trkpt lat="46.45072" lon="5.15456">
        <ele>222.2</ele>
        <time>2021-12-03T13:39:48Z</time>
      </trkpt>
      <trkpt lat="46.45072" lon="5.15456">
        <ele>222.2</ele>
        <time>2021-12-03T13:39:49Z</time>
      </trkpt>
      <trkpt lat="46.45058" lon="5.15455">
        <ele>221.6</ele>
        <time>2021-12-03T13:39:50Z</time>
      </trkpt>
      <trkpt lat="46.45041" lon="5.15451">
        <ele>220.6</ele>
        <time>2021-12-03T13:39:52Z</time>
      </trkpt>
      <trkpt lat="46.45034" lon="5.15448">
        <ele>220.4</ele>
        <time>2021-12-03T13:39:53Z</time>
      </trkpt>
      <trkpt lat="46.45013" lon="5.15436">
        <ele>219.6</ele>
        <time>2021-12-03T13:39:56Z</time>
      </trkpt>
      <trkpt lat="46.44993" lon="5.1542">
        <ele>219</ele>
        <time>2021-12-03T13:39:59Z</time>
      </trkpt>
      <trkpt lat="46.44973" lon="5.15404">
        <ele>218.6</ele>
        <time>2021-12-03T13:40:02Z</time>
      </trkpt>
      <trkpt lat="46.44955" lon="5.15389">
        <ele>218.4</ele>
        <time>2021-12-03T13:40:05Z</time>
      </trkpt>
      <trkpt lat="46.44905" lon="5.15347">
        <ele>219.2</ele>
        <time>2021-12-03T13:40:14Z</time>
      </trkpt>
      <trkpt lat="46.44895" lon="5.15339">
        <ele>219.6</ele>
        <time>2021-12-03T13:40:16Z</time>
      </trkpt>
      <trkpt lat="46.44861" lon="5.15311">
        <ele>220.2</ele>
        <time>2021-12-03T13:40:23Z</time>
      </trkpt>
      <trkpt lat="46.44811" lon="5.15272">
        <ele>220.6</ele>
        <time>2021-12-03T13:40:33Z</time>
      </trkpt>
      <trkpt lat="46.44806" lon="5.15268">
        <ele>220.6</ele>
        <time>2021-12-03T13:40:34Z</time>
      </trkpt>
      <trkpt lat="46.44773" lon="5.15252">
        <ele>221.4</ele>
        <time>2021-12-03T13:40:40Z</time>
      </trkpt>
      <trkpt lat="46.44762" lon="5.15247">
        <ele>221.6</ele>
        <time>2021-12-03T13:40:42Z</time>
      </trkpt>
      <trkpt lat="46.44735" lon="5.15238">
        <ele>222.4</ele>
        <time>2021-12-03T13:40:47Z</time>
      </trkpt>
      <trkpt lat="46.44714" lon="5.15232">
        <ele>222.8</ele>
        <time>2021-12-03T13:40:51Z</time>
      </trkpt>
      <trkpt lat="46.44708" lon="5.15231">
        <ele>223</ele>
        <time>2021-12-03T13:40:52Z</time>
      </trkpt>
      <trkpt lat="46.44702" lon="5.1523">
        <ele>223.2</ele>
        <time>2021-12-03T13:40:53Z</time>
      </trkpt>
      <trkpt lat="46.44662" lon="5.1523">
        <ele>224</ele>
        <time>2021-12-03T13:41:00Z</time>
      </trkpt>
      <trkpt lat="46.44644" lon="5.15232">
        <ele>224.2</ele>
        <time>2021-12-03T13:41:03Z</time>
      </trkpt>
      <trkpt lat="46.44598" lon="5.15238">
        <ele>225</ele>
        <time>2021-12-03T13:41:11Z</time>
      </trkpt>
      <trkpt lat="46.44594" lon="5.15239">
        <ele>225.2</ele>
        <time>2021-12-03T13:41:12Z</time>
      </trkpt>
      <trkpt lat="46.4456" lon="5.15246">
        <ele>226</ele>
        <time>2021-12-03T13:41:18Z</time>
      </trkpt>
      <trkpt lat="46.44538" lon="5.1525">
        <ele>226.4</ele>
        <time>2021-12-03T13:41:22Z</time>
      </trkpt>
      <trkpt lat="46.4451" lon="5.15255">
        <ele>227.2</ele>
        <time>2021-12-03T13:41:27Z</time>
      </trkpt>
      <trkpt lat="46.44471" lon="5.15262">
        <ele>227.6</ele>
        <time>2021-12-03T13:41:34Z</time>
      </trkpt>
      <trkpt lat="46.44417" lon="5.15272">
        <ele>227.6</ele>
        <time>2021-12-03T13:41:42Z</time>
      </trkpt>
      <trkpt lat="46.44412" lon="5.15273">
        <ele>227.2</ele>
        <time>2021-12-03T13:41:44Z</time>
      </trkpt>
      <trkpt lat="46.44362" lon="5.15286">
        <ele>226</ele>
        <time>2021-12-03T13:41:50Z</time>
      </trkpt>
      <trkpt lat="46.44356" lon="5.15289">
        <ele>226</ele>
        <time>2021-12-03T13:41:51Z</time>
      </trkpt>
      <trkpt lat="46.44307" lon="5.15321">
        <ele>225.6</ele>
        <time>2021-12-03T13:41:59Z</time>
      </trkpt>
      <trkpt lat="46.44264" lon="5.15351">
        <ele>226</ele>
        <time>2021-12-03T13:42:07Z</time>
      </trkpt>
      <trkpt lat="46.44258" lon="5.15354">
        <ele>226.2</ele>
        <time>2021-12-03T13:42:08Z</time>
      </trkpt>
      <trkpt lat="46.44234" lon="5.15357">
        <ele>226.4</ele>
        <time>2021-12-03T13:42:12Z</time>
      </trkpt>
      <trkpt lat="46.44176" lon="5.15354">
        <ele>226.2</ele>
        <time>2021-12-03T13:42:21Z</time>
      </trkpt>
      <trkpt lat="46.44169" lon="5.15354">
        <ele>226.2</ele>
        <time>2021-12-03T13:42:22Z</time>
      </trkpt>
      <trkpt lat="46.44109" lon="5.15351">
        <ele>225.8</ele>
        <time>2021-12-03T13:42:31Z</time>
      </trkpt>
      <trkpt lat="46.44102" lon="5.1535">
        <ele>225.8</ele>
        <time>2021-12-03T13:42:32Z</time>
      </trkpt>
      <trkpt lat="46.44053" lon="5.15348">
        <ele>226</ele>
        <time>2021-12-03T13:42:41Z</time>
      </trkpt>
      <trkpt lat="46.44004" lon="5.1535">
        <ele>226.6</ele>
        <time>2021-12-03T13:42:48Z</time>
      </trkpt>
      <trkpt lat="46.43957" lon="5.15352">
        <ele>227.2</ele>
        <time>2021-12-03T13:42:56Z</time>
      </trkpt>
      <trkpt lat="46.43945" lon="5.15352">
        <ele>227.2</ele>
        <time>2021-12-03T13:42:58Z</time>
      </trkpt>
      <trkpt lat="46.43887" lon="5.1535">
        <ele>228.2</ele>
        <time>2021-12-03T13:43:08Z</time>
      </trkpt>
      <trkpt lat="46.43883" lon="5.15349">
        <ele>228.4</ele>
        <time>2021-12-03T13:43:09Z</time>
      </trkpt>
      <trkpt lat="46.43849" lon="5.15338">
        <ele>229</ele>
        <time>2021-12-03T13:43:15Z</time>
      </trkpt>
      <trkpt lat="46.43834" lon="5.1533">
        <ele>229.2</ele>
        <time>2021-12-03T13:43:18Z</time>
      </trkpt>
      <trkpt lat="46.43815" lon="5.15317">
        <ele>229.8</ele>
        <time>2021-12-03T13:43:23Z</time>
      </trkpt>
      <trkpt lat="46.43787" lon="5.15294">
        <ele>230.4</ele>
        <time>2021-12-03T13:43:28Z</time>
      </trkpt>
      <trkpt lat="46.43765" lon="5.1527">
        <ele>231.2</ele>
        <time>2021-12-03T13:43:33Z</time>
      </trkpt>
      <trkpt lat="46.4376" lon="5.15265">
        <ele>231.4</ele>
        <time>2021-12-03T13:43:34Z</time>
      </trkpt>
      <trkpt lat="46.43722" lon="5.15218">
        <ele>231.6</ele>
        <time>2021-12-03T13:43:42Z</time>
      </trkpt>
      <trkpt lat="46.43701" lon="5.15192">
        <ele>230.4</ele>
        <time>2021-12-03T13:43:47Z</time>
      </trkpt>
      <trkpt lat="46.43689" lon="5.15178">
        <ele>230</ele>
        <time>2021-12-03T13:43:48Z</time>
      </trkpt>
      <trkpt lat="46.43665" lon="5.1515">
        <ele>229</ele>
        <time>2021-12-03T13:43:52Z</time>
      </trkpt>
      <trkpt lat="46.43641" lon="5.15121">
        <ele>228</ele>
        <time>2021-12-03T13:43:56Z</time>
      </trkpt>
      <trkpt lat="46.43635" lon="5.15114">
        <ele>227.6</ele>
        <time>2021-12-03T13:43:57Z</time>
      </trkpt>
      <trkpt lat="46.43623" lon="5.15099">
        <ele>226.8</ele>
        <time>2021-12-03T13:43:59Z</time>
      </trkpt>
      <trkpt lat="46.43605" lon="5.15077">
        <ele>225.8</ele>
        <time>2021-12-03T13:44:02Z</time>
      </trkpt>
      <trkpt lat="46.43592" lon="5.15063">
        <ele>225</ele>
        <time>2021-12-03T13:44:05Z</time>
      </trkpt>
      <trkpt lat="46.4358" lon="5.15049">
        <ele>224.6</ele>
        <time>2021-12-03T13:44:06Z</time>
      </trkpt>
      <trkpt lat="46.43556" lon="5.1502">
        <ele>223.2</ele>
        <time>2021-12-03T13:44:10Z</time>
      </trkpt>
      <trkpt lat="46.43538" lon="5.14999">
        <ele>222.6</ele>
        <time>2021-12-03T13:44:13Z</time>
      </trkpt>
      <trkpt lat="46.43526" lon="5.14984">
        <ele>222</ele>
        <time>2021-12-03T13:44:15Z</time>
      </trkpt>
      <trkpt lat="46.43501" lon="5.14955">
        <ele>220.4</ele>
        <time>2021-12-03T13:44:19Z</time>
      </trkpt>
      <trkpt lat="46.43495" lon="5.14948">
        <ele>220.2</ele>
        <time>2021-12-03T13:44:20Z</time>
      </trkpt>
      <trkpt lat="46.43477" lon="5.14926">
        <ele>219.2</ele>
        <time>2021-12-03T13:44:23Z</time>
      </trkpt>
      <trkpt lat="46.43461" lon="5.14906">
        <ele>218</ele>
        <time>2021-12-03T13:44:26Z</time>
      </trkpt>
      <trkpt lat="46.43442" lon="5.14884">
        <ele>217.4</ele>
        <time>2021-12-03T13:44:29Z</time>
      </trkpt>
      <trkpt lat="46.4343" lon="5.1487">
        <ele>217</ele>
        <time>2021-12-03T13:44:32Z</time>
      </trkpt>
      <trkpt lat="46.434" lon="5.14837">
        <ele>216.6</ele>
        <time>2021-12-03T13:44:36Z</time>
      </trkpt>
      <trkpt lat="46.43349" lon="5.14797">
        <ele>216.2</ele>
        <time>2021-12-03T13:44:44Z</time>
      </trkpt>
      <trkpt lat="46.43321" lon="5.14774">
        <ele>216.8</ele>
        <time>2021-12-03T13:44:49Z</time>
      </trkpt>
      <trkpt lat="46.43285" lon="5.14745">
        <ele>217.4</ele>
        <time>2021-12-03T13:44:56Z</time>
      </trkpt>
      <trkpt lat="46.43245" lon="5.14708">
        <ele>217.8</ele>
        <time>2021-12-03T13:45:04Z</time>
      </trkpt>
      <trkpt lat="46.43223" lon="5.14681">
        <ele>218</ele>
        <time>2021-12-03T13:45:09Z</time>
      </trkpt>
      <trkpt lat="46.43202" lon="5.14653">
        <ele>218.4</ele>
        <time>2021-12-03T13:45:14Z</time>
      </trkpt>
      <trkpt lat="46.43168" lon="5.14611">
        <ele>219.6</ele>
        <time>2021-12-03T13:45:22Z</time>
      </trkpt>
      <trkpt lat="46.43131" lon="5.14563">
        <ele>220.6</ele>
        <time>2021-12-03T13:45:31Z</time>
      </trkpt>
      <trkpt lat="46.43104" lon="5.1452">
        <ele>221.2</ele>
        <time>2021-12-03T13:45:38Z</time>
      </trkpt>
      <trkpt lat="46.43071" lon="5.14466">
        <ele>220.6</ele>
        <time>2021-12-03T13:45:45Z</time>
      </trkpt>
      <trkpt lat="46.43046" lon="5.14427">
        <ele>219.6</ele>
        <time>2021-12-03T13:45:50Z</time>
      </trkpt>
      <trkpt lat="46.43027" lon="5.14395">
        <ele>218.8</ele>
        <time>2021-12-03T13:45:54Z</time>
      </trkpt>
      <trkpt lat="46.43014" lon="5.14374">
        <ele>218.4</ele>
        <time>2021-12-03T13:45:57Z</time>
      </trkpt>
      <trkpt lat="46.42991" lon="5.14338">
        <ele>218.4</ele>
        <time>2021-12-03T13:46:02Z</time>
      </trkpt>
      <trkpt lat="46.42958" lon="5.14291">
        <ele>219</ele>
        <time>2021-12-03T13:46:10Z</time>
      </trkpt>
      <trkpt lat="46.42935" lon="5.14269">
        <ele>219.6</ele>
        <time>2021-12-03T13:46:15Z</time>
      </trkpt>
      <trkpt lat="46.42924" lon="5.1426">
        <ele>219.6</ele>
        <time>2021-12-03T13:46:17Z</time>
      </trkpt>
      <trkpt lat="46.42888" lon="5.14234">
        <ele>220.8</ele>
        <time>2021-12-03T13:46:24Z</time>
      </trkpt>
      <trkpt lat="46.42878" lon="5.14225">
        <ele>221.2</ele>
        <time>2021-12-03T13:46:26Z</time>
      </trkpt>
      <trkpt lat="46.42873" lon="5.14221">
        <ele>221.2</ele>
        <time>2021-12-03T13:46:27Z</time>
      </trkpt>
      <trkpt lat="46.42857" lon="5.1421">
        <ele>221.6</ele>
        <time>2021-12-03T13:46:30Z</time>
      </trkpt>
      <trkpt lat="46.42845" lon="5.14206">
        <ele>221.6</ele>
        <time>2021-12-03T13:46:32Z</time>
      </trkpt>
      <trkpt lat="46.42791" lon="5.14193">
        <ele>221.4</ele>
        <time>2021-12-03T13:46:41Z</time>
      </trkpt>
      <trkpt lat="46.42785" lon="5.14192">
        <ele>221.4</ele>
        <time>2021-12-03T13:46:42Z</time>
      </trkpt>
      <trkpt lat="46.4274" lon="5.1419">
        <ele>220.2</ele>
        <time>2021-12-03T13:46:49Z</time>
      </trkpt>
      <trkpt lat="46.42721" lon="5.14192">
        <ele>220</ele>
        <time>2021-12-03T13:46:52Z</time>
      </trkpt>
      <trkpt lat="46.42701" lon="5.142">
        <ele>220</ele>
        <time>2021-12-03T13:46:56Z</time>
      </trkpt>
      <trkpt lat="46.42695" lon="5.14204">
        <ele>220.2</ele>
        <time>2021-12-03T13:46:57Z</time>
      </trkpt>
      <trkpt lat="46.42681" lon="5.14216">
        <ele>220.6</ele>
        <time>2021-12-03T13:47:00Z</time>
      </trkpt>
      <trkpt lat="46.42665" lon="5.14229">
        <ele>220.6</ele>
        <time>2021-12-03T13:47:03Z</time>
      </trkpt>
      <trkpt lat="46.42654" lon="5.14235">
        <ele>220.6</ele>
        <time>2021-12-03T13:47:05Z</time>
      </trkpt>
      <trkpt lat="46.42605" lon="5.14258">
        <ele>220.4</ele>
        <time>2021-12-03T13:47:13Z</time>
      </trkpt>
      <trkpt lat="46.4257" lon="5.14275">
        <ele>220.4</ele>
        <time>2021-12-03T13:47:19Z</time>
      </trkpt>
      <trkpt lat="46.42562" lon="5.14277">
        <ele>220.2</ele>
        <time>2021-12-03T13:47:20Z</time>
      </trkpt>
      <trkpt lat="46.42529" lon="5.14281">
        <ele>219.8</ele>
        <time>2021-12-03T13:47:25Z</time>
      </trkpt>
      <trkpt lat="46.42501" lon="5.14286">
        <ele>219.2</ele>
        <time>2021-12-03T13:47:29Z</time>
      </trkpt>
      <trkpt lat="46.42482" lon="5.14292">
        <ele>218.6</ele>
        <time>2021-12-03T13:47:32Z</time>
      </trkpt>
      <trkpt lat="46.42475" lon="5.14293">
        <ele>218.6</ele>
        <time>2021-12-03T13:47:33Z</time>
      </trkpt>
      <trkpt lat="46.42459" lon="5.14291">
        <ele>218.4</ele>
        <time>2021-12-03T13:47:35Z</time>
      </trkpt>
      <trkpt lat="46.42427" lon="5.14272">
        <ele>218.2</ele>
        <time>2021-12-03T13:47:40Z</time>
      </trkpt>
      <trkpt lat="46.42409" lon="5.1426">
        <ele>218.2</ele>
        <time>2021-12-03T13:47:43Z</time>
      </trkpt>
      <trkpt lat="46.42397" lon="5.14255">
        <ele>218.2</ele>
        <time>2021-12-03T13:47:45Z</time>
      </trkpt>
      <trkpt lat="46.42386" lon="5.14252">
        <ele>218.2</ele>
        <time>2021-12-03T13:47:47Z</time>
      </trkpt>
      <trkpt lat="46.42369" lon="5.14249">
        <ele>218.4</ele>
        <time>2021-12-03T13:47:50Z</time>
      </trkpt>
      <trkpt lat="46.42344" lon="5.14244">
        <ele>218.8</ele>
        <time>2021-12-03T13:47:55Z</time>
      </trkpt>
      <trkpt lat="46.42339" lon="5.14243">
        <ele>219.2</ele>
        <time>2021-12-03T13:47:56Z</time>
      </trkpt>
      <trkpt lat="46.42325" lon="5.1424">
        <ele>219.8</ele>
        <time>2021-12-03T13:47:59Z</time>
      </trkpt>
      <trkpt lat="46.4232" lon="5.14239">
        <ele>219.8</ele>
        <time>2021-12-03T13:48:00Z</time>
      </trkpt>
      <trkpt lat="46.42309" lon="5.14239">
        <ele>220.4</ele>
        <time>2021-12-03T13:48:02Z</time>
      </trkpt>
      <trkpt lat="46.423" lon="5.14238">
        <ele>220.8</ele>
        <time>2021-12-03T13:48:04Z</time>
      </trkpt>
      <trkpt lat="46.42281" lon="5.14241">
        <ele>221.6</ele>
        <time>2021-12-03T13:48:08Z</time>
      </trkpt>
      <trkpt lat="46.42272" lon="5.14244">
        <ele>221.8</ele>
        <time>2021-12-03T13:48:10Z</time>
      </trkpt>
      <trkpt lat="46.42257" lon="5.14254">
        <ele>222.6</ele>
        <time>2021-12-03T13:48:14Z</time>
      </trkpt>
      <trkpt lat="46.42252" lon="5.14257">
        <ele>223</ele>
        <time>2021-12-03T13:48:15Z</time>
      </trkpt>
      <trkpt lat="46.42227" lon="5.14276">
        <ele>224.2</ele>
        <time>2021-12-03T13:48:21Z</time>
      </trkpt>
      <trkpt lat="46.4221" lon="5.14291">
        <ele>225</ele>
        <time>2021-12-03T13:48:25Z</time>
      </trkpt>
      <trkpt lat="46.42195" lon="5.14304">
        <ele>225.2</ele>
        <time>2021-12-03T13:48:29Z</time>
      </trkpt>
      <trkpt lat="46.42184" lon="5.14314">
        <ele>225.6</ele>
        <time>2021-12-03T13:48:32Z</time>
      </trkpt>
      <trkpt lat="46.4218" lon="5.14317">
        <ele>225.8</ele>
        <time>2021-12-03T13:48:33Z</time>
      </trkpt>
      <trkpt lat="46.42165" lon="5.14324">
        <ele>226.6</ele>
        <time>2021-12-03T13:48:37Z</time>
      </trkpt>
      <trkpt lat="46.42146" lon="5.14329">
        <ele>227.2</ele>
        <time>2021-12-03T13:48:41Z</time>
      </trkpt>
      <trkpt lat="46.4212" lon="5.1433">
        <ele>227.6</ele>
        <time>2021-12-03T13:48:46Z</time>
      </trkpt>
      <trkpt lat="46.42113" lon="5.1433">
        <ele>227.6</ele>
        <time>2021-12-03T13:48:47Z</time>
      </trkpt>
      <trkpt lat="46.42085" lon="5.14337">
        <ele>227.4</ele>
        <time>2021-12-03T13:48:52Z</time>
      </trkpt>
      <trkpt lat="46.4208" lon="5.14339">
        <ele>227.4</ele>
        <time>2021-12-03T13:48:53Z</time>
      </trkpt>
      <trkpt lat="46.42038" lon="5.14363">
        <ele>227.4</ele>
        <time>2021-12-03T13:49:01Z</time>
      </trkpt>
      <trkpt lat="46.42027" lon="5.14365">
        <ele>227.6</ele>
        <time>2021-12-03T13:49:03Z</time>
      </trkpt>
      <trkpt lat="46.42004" lon="5.14367">
        <ele>227.6</ele>
        <time>2021-12-03T13:49:07Z</time>
      </trkpt>
      <trkpt lat="46.41953" lon="5.14368">
        <ele>228.4</ele>
        <time>2021-12-03T13:49:16Z</time>
      </trkpt>
      <trkpt lat="46.41949" lon="5.14369">
        <ele>228.4</ele>
        <time>2021-12-03T13:49:17Z</time>
      </trkpt>
      <trkpt lat="46.41937" lon="5.1437">
        <ele>228.4</ele>
        <time>2021-12-03T13:49:19Z</time>
      </trkpt>
      <trkpt lat="46.41916" lon="5.14376">
        <ele>228.8</ele>
        <time>2021-12-03T13:49:23Z</time>
      </trkpt>
      <trkpt lat="46.41912" lon="5.14377">
        <ele>229</ele>
        <time>2021-12-03T13:49:24Z</time>
      </trkpt>
      <trkpt lat="46.41906" lon="5.14379">
        <ele>229.2</ele>
        <time>2021-12-03T13:49:25Z</time>
      </trkpt>
      <trkpt lat="46.41892" lon="5.14388">
        <ele>229.4</ele>
        <time>2021-12-03T13:49:28Z</time>
      </trkpt>
      <trkpt lat="46.41885" lon="5.14398">
        <ele>229.6</ele>
        <time>2021-12-03T13:49:30Z</time>
      </trkpt>
      <trkpt lat="46.4188" lon="5.14408">
        <ele>229.8</ele>
        <time>2021-12-03T13:49:32Z</time>
      </trkpt>
      <trkpt lat="46.41876" lon="5.14415">
        <ele>230</ele>
        <time>2021-12-03T13:49:33Z</time>
      </trkpt>
      <trkpt lat="46.41868" lon="5.14442">
        <ele>230.6</ele>
        <time>2021-12-03T13:49:37Z</time>
      </trkpt>
      <trkpt lat="46.4186" lon="5.14469">
        <ele>231</ele>
        <time>2021-12-03T13:49:41Z</time>
      </trkpt>
      <trkpt lat="46.41856" lon="5.14477">
        <ele>231.2</ele>
        <time>2021-12-03T13:49:42Z</time>
      </trkpt>
      <trkpt lat="46.41853" lon="5.14483">
        <ele>231.6</ele>
        <time>2021-12-03T13:49:43Z</time>
      </trkpt>
      <trkpt lat="46.41849" lon="5.14489">
        <ele>231.8</ele>
        <time>2021-12-03T13:49:44Z</time>
      </trkpt>
      <trkpt lat="46.4184" lon="5.14499">
        <ele>232</ele>
        <time>2021-12-03T13:49:46Z</time>
      </trkpt>
      <trkpt lat="46.41835" lon="5.14503">
        <ele>232</ele>
        <time>2021-12-03T13:49:47Z</time>
      </trkpt>
      <trkpt lat="46.4183" lon="5.14506">
        <ele>232</ele>
        <time>2021-12-03T13:49:48Z</time>
      </trkpt>
      <trkpt lat="46.41809" lon="5.14515">
        <ele>232.4</ele>
        <time>2021-12-03T13:49:52Z</time>
      </trkpt>
      <trkpt lat="46.41761" lon="5.14538">
        <ele>232.8</ele>
        <time>2021-12-03T13:50:01Z</time>
      </trkpt>
      <trkpt lat="46.41725" lon="5.14556">
        <ele>233</ele>
        <time>2021-12-03T13:50:08Z</time>
      </trkpt>
      <trkpt lat="46.41716" lon="5.14564">
        <ele>233</ele>
        <time>2021-12-03T13:50:10Z</time>
      </trkpt>
      <trkpt lat="46.41708" lon="5.14572">
        <ele>233</ele>
        <time>2021-12-03T13:50:12Z</time>
      </trkpt>
      <trkpt lat="46.41695" lon="5.14587">
        <ele>233</ele>
        <time>2021-12-03T13:50:15Z</time>
      </trkpt>
      <trkpt lat="46.41692" lon="5.1459">
        <ele>233</ele>
        <time>2021-12-03T13:50:16Z</time>
      </trkpt>
      <trkpt lat="46.41684" lon="5.14597">
        <ele>233.2</ele>
        <time>2021-12-03T13:50:19Z</time>
      </trkpt>
      <trkpt lat="46.41684" lon="5.14598">
        <ele>233.2</ele>
        <time>2021-12-03T13:50:22Z</time>
      </trkpt>
      <trkpt lat="46.41676" lon="5.14598">
        <ele>233</ele>
        <time>2021-12-03T13:51:37Z</time>
      </trkpt>
      <trkpt lat="46.41665" lon="5.146">
        <ele>232.8</ele>
        <time>2021-12-03T13:51:40Z</time>
      </trkpt>
      <trkpt lat="46.41646" lon="5.14605">
        <ele>232.8</ele>
        <time>2021-12-03T13:51:44Z</time>
      </trkpt>
      <trkpt lat="46.41622" lon="5.14608">
        <ele>232.2</ele>
        <time>2021-12-03T13:51:49Z</time>
      </trkpt>
      <trkpt lat="46.4161" lon="5.14607">
        <ele>231.6</ele>
        <time>2021-12-03T13:51:51Z</time>
      </trkpt>
      <trkpt lat="46.41605" lon="5.14607">
        <ele>231.4</ele>
        <time>2021-12-03T13:51:52Z</time>
      </trkpt>
      <trkpt lat="46.41594" lon="5.14607">
        <ele>231.2</ele>
        <time>2021-12-03T13:51:54Z</time>
      </trkpt>
      <trkpt lat="46.41584" lon="5.1461">
        <ele>231.2</ele>
        <time>2021-12-03T13:51:55Z</time>
      </trkpt>
      <trkpt lat="46.41577" lon="5.14612">
        <ele>231.2</ele>
        <time>2021-12-03T13:51:56Z</time>
      </trkpt>
      <trkpt lat="46.41558" lon="5.14627">
        <ele>231.2</ele>
        <time>2021-12-03T13:51:59Z</time>
      </trkpt>
      <trkpt lat="46.41549" lon="5.14637">
        <ele>231.2</ele>
        <time>2021-12-03T13:52:01Z</time>
      </trkpt>
      <trkpt lat="46.41531" lon="5.14664">
        <ele>231.4</ele>
        <time>2021-12-03T13:52:06Z</time>
      </trkpt>
      <trkpt lat="46.41498" lon="5.14707">
        <ele>232</ele>
        <time>2021-12-03T13:52:13Z</time>
      </trkpt>
      <trkpt lat="46.41464" lon="5.14761">
        <ele>231.4</ele>
        <time>2021-12-03T13:52:21Z</time>
      </trkpt>
      <trkpt lat="46.41451" lon="5.14806">
        <ele>231.2</ele>
        <time>2021-12-03T13:52:27Z</time>
      </trkpt>
      <trkpt lat="46.41444" lon="5.14837">
        <ele>231.4</ele>
        <time>2021-12-03T13:52:31Z</time>
      </trkpt>
      <trkpt lat="46.41442" lon="5.14852">
        <ele>231.6</ele>
        <time>2021-12-03T13:52:33Z</time>
      </trkpt>
      <trkpt lat="46.41432" lon="5.14914">
        <ele>232.2</ele>
        <time>2021-12-03T13:52:41Z</time>
      </trkpt>
      <trkpt lat="46.4143" lon="5.14922">
        <ele>232.4</ele>
        <time>2021-12-03T13:52:42Z</time>
      </trkpt>
      <trkpt lat="46.41424" lon="5.14935">
        <ele>232.6</ele>
        <time>2021-12-03T13:52:44Z</time>
      </trkpt>
      <trkpt lat="46.41419" lon="5.1494">
        <ele>232.8</ele>
        <time>2021-12-03T13:52:45Z</time>
      </trkpt>
      <trkpt lat="46.41414" lon="5.14944">
        <ele>232.8</ele>
        <time>2021-12-03T13:52:46Z</time>
      </trkpt>
      <trkpt lat="46.41408" lon="5.14946">
        <ele>232.8</ele>
        <time>2021-12-03T13:52:47Z</time>
      </trkpt>
      <trkpt lat="46.41366" lon="5.14954">
        <ele>233</ele>
        <time>2021-12-03T13:52:54Z</time>
      </trkpt>
      <trkpt lat="46.4132" lon="5.1495">
        <ele>233.2</ele>
        <time>2021-12-03T13:53:02Z</time>
      </trkpt>
      <trkpt lat="46.41265" lon="5.14939">
        <ele>233.6</ele>
        <time>2021-12-03T13:53:11Z</time>
      </trkpt>
      <trkpt lat="46.41217" lon="5.14932">
        <ele>233</ele>
        <time>2021-12-03T13:53:18Z</time>
      </trkpt>
      <trkpt lat="46.41159" lon="5.1493">
        <ele>231.8</ele>
        <time>2021-12-03T13:53:26Z</time>
      </trkpt>
      <trkpt lat="46.41151" lon="5.1493">
        <ele>231.6</ele>
        <time>2021-12-03T13:53:27Z</time>
      </trkpt>
      <trkpt lat="46.41119" lon="5.14932">
        <ele>230.6</ele>
        <time>2021-12-03T13:53:31Z</time>
      </trkpt>
      <trkpt lat="46.41112" lon="5.14932">
        <ele>230</ele>
        <time>2021-12-03T13:53:32Z</time>
      </trkpt>
      <trkpt lat="46.41088" lon="5.14938">
        <ele>229.4</ele>
        <time>2021-12-03T13:53:35Z</time>
      </trkpt>
      <trkpt lat="46.41069" lon="5.14945">
        <ele>228.8</ele>
        <time>2021-12-03T13:53:38Z</time>
      </trkpt>
      <trkpt lat="46.41047" lon="5.14952">
        <ele>228.6</ele>
        <time>2021-12-03T13:53:41Z</time>
      </trkpt>
      <trkpt lat="46.41034" lon="5.14953">
        <ele>228.4</ele>
        <time>2021-12-03T13:53:43Z</time>
      </trkpt>
      <trkpt lat="46.41019" lon="5.14947">
        <ele>228.4</ele>
        <time>2021-12-03T13:53:45Z</time>
      </trkpt>
      <trkpt lat="46.41006" lon="5.14937">
        <ele>228.4</ele>
        <time>2021-12-03T13:53:47Z</time>
      </trkpt>
      <trkpt lat="46.4097" lon="5.14904">
        <ele>228</ele>
        <time>2021-12-03T13:53:53Z</time>
      </trkpt>
      <trkpt lat="46.40963" lon="5.14901">
        <ele>228</ele>
        <time>2021-12-03T13:53:54Z</time>
      </trkpt>
      <trkpt lat="46.4091" lon="5.14881">
        <ele>227.6</ele>
        <time>2021-12-03T13:54:02Z</time>
      </trkpt>
      <trkpt lat="46.40878" lon="5.14867">
        <ele>227.8</ele>
        <time>2021-12-03T13:54:07Z</time>
      </trkpt>
      <trkpt lat="46.40869" lon="5.14855">
        <ele>227.8</ele>
        <time>2021-12-03T13:54:09Z</time>
      </trkpt>
      <trkpt lat="46.40862" lon="5.14839">
        <ele>228</ele>
        <time>2021-12-03T13:54:11Z</time>
      </trkpt>
      <trkpt lat="46.40845" lon="5.14789">
        <ele>228.2</ele>
        <time>2021-12-03T13:54:17Z</time>
      </trkpt>
      <trkpt lat="46.40835" lon="5.14758">
        <ele>228.8</ele>
        <time>2021-12-03T13:54:21Z</time>
      </trkpt>
      <trkpt lat="46.4083" lon="5.14746">
        <ele>229</ele>
        <time>2021-12-03T13:54:23Z</time>
      </trkpt>
      <trkpt lat="46.4082" lon="5.14735">
        <ele>229.4</ele>
        <time>2021-12-03T13:54:25Z</time>
      </trkpt>
      <trkpt lat="46.40815" lon="5.14731">
        <ele>229.6</ele>
        <time>2021-12-03T13:54:26Z</time>
      </trkpt>
      <trkpt lat="46.40799" lon="5.14722">
        <ele>230</ele>
        <time>2021-12-03T13:54:29Z</time>
      </trkpt>
      <trkpt lat="46.40779" lon="5.14714">
        <ele>229.8</ele>
        <time>2021-12-03T13:54:32Z</time>
      </trkpt>
      <trkpt lat="46.40736" lon="5.14701">
        <ele>228.8</ele>
        <time>2021-12-03T13:54:38Z</time>
      </trkpt>
      <trkpt lat="46.40729" lon="5.14699">
        <ele>228.4</ele>
        <time>2021-12-03T13:54:39Z</time>
      </trkpt>
      <trkpt lat="46.40711" lon="5.14691">
        <ele>227.2</ele>
        <time>2021-12-03T13:54:42Z</time>
      </trkpt>
      <trkpt lat="46.40707" lon="5.14689">
        <ele>226.8</ele>
        <time>2021-12-03T13:54:43Z</time>
      </trkpt>
      <trkpt lat="46.40701" lon="5.14688">
        <ele>226.4</ele>
        <time>2021-12-03T13:54:44Z</time>
      </trkpt>
      <trkpt lat="46.40698" lon="5.14687">
        <ele>226.2</ele>
        <time>2021-12-03T13:54:45Z</time>
      </trkpt>
      <trkpt lat="46.40694" lon="5.14685">
        <ele>226</ele>
        <time>2021-12-03T13:54:47Z</time>
      </trkpt>
      <trkpt lat="46.40692" lon="5.14685">
        <ele>226</ele>
        <time>2021-12-03T13:54:48Z</time>
      </trkpt>
      <trkpt lat="46.40689" lon="5.14693">
        <ele>225.8</ele>
        <time>2021-12-03T13:54:50Z</time>
      </trkpt>
      <trkpt lat="46.40689" lon="5.14699">
        <ele>225.8</ele>
        <time>2021-12-03T13:54:51Z</time>
      </trkpt>
      <trkpt lat="46.40689" lon="5.14713">
        <ele>225.8</ele>
        <time>2021-12-03T13:54:53Z</time>
      </trkpt>
      <trkpt lat="46.40688" lon="5.1472">
        <ele>225.8</ele>
        <time>2021-12-03T13:54:54Z</time>
      </trkpt>
      <trkpt lat="46.40687" lon="5.14771">
        <ele>226.2</ele>
        <time>2021-12-03T13:55:01Z</time>
      </trkpt>
      <trkpt lat="46.40686" lon="5.14818">
        <ele>227.2</ele>
        <time>2021-12-03T13:55:07Z</time>
      </trkpt>
      <trkpt lat="46.40687" lon="5.14834">
        <ele>227.6</ele>
        <time>2021-12-03T13:55:09Z</time>
      </trkpt>
      <trkpt lat="46.40687" lon="5.14866">
        <ele>228.4</ele>
        <time>2021-12-03T13:55:13Z</time>
      </trkpt>
      <trkpt lat="46.40685" lon="5.14898">
        <ele>229</ele>
        <time>2021-12-03T13:55:17Z</time>
      </trkpt>
      <trkpt lat="46.40684" lon="5.14905">
        <ele>229.4</ele>
        <time>2021-12-03T13:55:18Z</time>
      </trkpt>
      <trkpt lat="46.40682" lon="5.1495">
        <ele>230.2</ele>
        <time>2021-12-03T13:55:24Z</time>
      </trkpt>
      <trkpt lat="46.40682" lon="5.14957">
        <ele>230.4</ele>
        <time>2021-12-03T13:55:25Z</time>
      </trkpt>
      <trkpt lat="46.40683" lon="5.15001">
        <ele>231.6</ele>
        <time>2021-12-03T13:55:31Z</time>
      </trkpt>
      <trkpt lat="46.40683" lon="5.15009">
        <ele>231.8</ele>
        <time>2021-12-03T13:55:32Z</time>
      </trkpt>
      <trkpt lat="46.40683" lon="5.1504">
        <ele>232.8</ele>
        <time>2021-12-03T13:55:36Z</time>
      </trkpt>
      <trkpt lat="46.40682" lon="5.15064">
        <ele>233</ele>
        <time>2021-12-03T13:55:39Z</time>
      </trkpt>
      <trkpt lat="46.40682" lon="5.15096">
        <ele>233.8</ele>
        <time>2021-12-03T13:55:43Z</time>
      </trkpt>
      <trkpt lat="46.40682" lon="5.15129">
        <ele>234.2</ele>
        <time>2021-12-03T13:55:47Z</time>
      </trkpt>
      <trkpt lat="46.4068" lon="5.15211">
        <ele>234.2</ele>
        <time>2021-12-03T13:55:56Z</time>
      </trkpt>
      <trkpt lat="46.4068" lon="5.15223">
        <ele>234.2</ele>
        <time>2021-12-03T13:55:57Z</time>
      </trkpt>
      <trkpt lat="46.40678" lon="5.15312">
        <ele>233.6</ele>
        <time>2021-12-03T13:56:06Z</time>
      </trkpt>
      <trkpt lat="46.40677" lon="5.15375">
        <ele>232.6</ele>
        <time>2021-12-03T13:56:12Z</time>
      </trkpt>
      <trkpt lat="46.40676" lon="5.15405">
        <ele>232.2</ele>
        <time>2021-12-03T13:56:15Z</time>
      </trkpt>
      <trkpt lat="46.40674" lon="5.15485">
        <ele>231.8</ele>
        <time>2021-12-03T13:56:22Z</time>
      </trkpt>
      <trkpt lat="46.40674" lon="5.15496">
        <ele>231.6</ele>
        <time>2021-12-03T13:56:23Z</time>
      </trkpt>
      <trkpt lat="46.40674" lon="5.15504">
        <ele>231.4</ele>
        <time>2021-12-03T13:56:24Z</time>
      </trkpt>
      <trkpt lat="46.40674" lon="5.15576">
        <ele>230.4</ele>
        <time>2021-12-03T13:56:30Z</time>
      </trkpt>
      <trkpt lat="46.40673" lon="5.15637">
        <ele>229.4</ele>
        <time>2021-12-03T13:56:35Z</time>
      </trkpt>
      <trkpt lat="46.40673" lon="5.1565">
        <ele>229.2</ele>
        <time>2021-12-03T13:56:36Z</time>
      </trkpt>
      <trkpt lat="46.40671" lon="5.15718">
        <ele>228.2</ele>
        <time>2021-12-03T13:56:42Z</time>
      </trkpt>
      <trkpt lat="46.4067" lon="5.15731">
        <ele>228</ele>
        <time>2021-12-03T13:56:43Z</time>
      </trkpt>
      <trkpt lat="46.40669" lon="5.15789">
        <ele>228.2</ele>
        <time>2021-12-03T13:56:49Z</time>
      </trkpt>
      <trkpt lat="46.40669" lon="5.15814">
        <ele>229.2</ele>
        <time>2021-12-03T13:56:52Z</time>
      </trkpt>
      <trkpt lat="46.40668" lon="5.15845">
        <ele>230.2</ele>
        <time>2021-12-03T13:56:56Z</time>
      </trkpt>
      <trkpt lat="46.40668" lon="5.15853">
        <ele>230.4</ele>
        <time>2021-12-03T13:56:57Z</time>
      </trkpt>
      <trkpt lat="46.40667" lon="5.15884">
        <ele>231.4</ele>
        <time>2021-12-03T13:57:01Z</time>
      </trkpt>
      <trkpt lat="46.40667" lon="5.159">
        <ele>231.8</ele>
        <time>2021-12-03T13:57:03Z</time>
      </trkpt>
      <trkpt lat="46.40667" lon="5.15952">
        <ele>232.4</ele>
        <time>2021-12-03T13:57:09Z</time>
      </trkpt>
      <trkpt lat="46.40667" lon="5.15974">
        <ele>232.6</ele>
        <time>2021-12-03T13:57:11Z</time>
      </trkpt>
      <trkpt lat="46.40666" lon="5.1604">
        <ele>232.2</ele>
        <time>2021-12-03T13:57:17Z</time>
      </trkpt>
      <trkpt lat="46.40665" lon="5.16085">
        <ele>231.4</ele>
        <time>2021-12-03T13:57:21Z</time>
      </trkpt>
      <trkpt lat="46.40665" lon="5.16122">
        <ele>230.4</ele>
        <time>2021-12-03T13:57:24Z</time>
      </trkpt>
      <trkpt lat="46.40664" lon="5.16134">
        <ele>229.6</ele>
        <time>2021-12-03T13:57:25Z</time>
      </trkpt>
      <trkpt lat="46.40664" lon="5.16147">
        <ele>229.4</ele>
        <time>2021-12-03T13:57:26Z</time>
      </trkpt>
      <trkpt lat="46.40663" lon="5.16184">
        <ele>228</ele>
        <time>2021-12-03T13:57:29Z</time>
      </trkpt>
      <trkpt lat="46.40662" lon="5.1622">
        <ele>226.8</ele>
        <time>2021-12-03T13:57:32Z</time>
      </trkpt>
      <trkpt lat="46.40662" lon="5.16255">
        <ele>226.4</ele>
        <time>2021-12-03T13:57:35Z</time>
      </trkpt>
      <trkpt lat="46.40662" lon="5.16306">
        <ele>226.6</ele>
        <time>2021-12-03T13:57:40Z</time>
      </trkpt>
      <trkpt lat="46.40659" lon="5.16361">
        <ele>227.8</ele>
        <time>2021-12-03T13:57:46Z</time>
      </trkpt>
      <trkpt lat="46.40659" lon="5.16369">
        <ele>228.4</ele>
        <time>2021-12-03T13:57:47Z</time>
      </trkpt>
      <trkpt lat="46.40658" lon="5.16387">
        <ele>229.2</ele>
        <time>2021-12-03T13:57:49Z</time>
      </trkpt>
      <trkpt lat="46.40657" lon="5.16412">
        <ele>230.4</ele>
        <time>2021-12-03T13:57:52Z</time>
      </trkpt>
      <trkpt lat="46.40657" lon="5.1643">
        <ele>230.8</ele>
        <time>2021-12-03T13:57:54Z</time>
      </trkpt>
      <trkpt lat="46.40657" lon="5.16468">
        <ele>231.8</ele>
        <time>2021-12-03T13:57:58Z</time>
      </trkpt>
      <trkpt lat="46.40656" lon="5.16508">
        <ele>232.2</ele>
        <time>2021-12-03T13:58:02Z</time>
      </trkpt>
      <trkpt lat="46.40655" lon="5.16591">
        <ele>232.2</ele>
        <time>2021-12-03T13:58:10Z</time>
      </trkpt>
      <trkpt lat="46.40655" lon="5.16612">
        <ele>232</ele>
        <time>2021-12-03T13:58:12Z</time>
      </trkpt>
      <trkpt lat="46.40653" lon="5.16678">
        <ele>231.6</ele>
        <time>2021-12-03T13:58:18Z</time>
      </trkpt>
      <trkpt lat="46.40653" lon="5.16736">
        <ele>230.4</ele>
        <time>2021-12-03T13:58:23Z</time>
      </trkpt>
      <trkpt lat="46.40652" lon="5.16768">
        <ele>230.2</ele>
        <time>2021-12-03T13:58:26Z</time>
      </trkpt>
      <trkpt lat="46.40651" lon="5.16826">
        <ele>230.2</ele>
        <time>2021-12-03T13:58:32Z</time>
      </trkpt>
      <trkpt lat="46.40649" lon="5.16878">
        <ele>231</ele>
        <time>2021-12-03T13:58:38Z</time>
      </trkpt>
      <trkpt lat="46.40648" lon="5.16898">
        <ele>231.4</ele>
        <time>2021-12-03T13:58:40Z</time>
      </trkpt>
      <trkpt lat="46.40648" lon="5.16916">
        <ele>231.6</ele>
        <time>2021-12-03T13:58:42Z</time>
      </trkpt>
      <trkpt lat="46.40647" lon="5.16943">
        <ele>232</ele>
        <time>2021-12-03T13:58:45Z</time>
      </trkpt>
      <trkpt lat="46.40646" lon="5.1703">
        <ele>232.2</ele>
        <time>2021-12-03T13:58:54Z</time>
      </trkpt>
      <trkpt lat="46.40645" lon="5.17058">
        <ele>232.2</ele>
        <time>2021-12-03T13:58:57Z</time>
      </trkpt>
      <trkpt lat="46.40643" lon="5.1714">
        <ele>231.8</ele>
        <time>2021-12-03T13:59:05Z</time>
      </trkpt>
      <trkpt lat="46.4064" lon="5.17223">
        <ele>231.2</ele>
        <time>2021-12-03T13:59:13Z</time>
      </trkpt>
      <trkpt lat="46.40639" lon="5.17234">
        <ele>231.2</ele>
        <time>2021-12-03T13:59:14Z</time>
      </trkpt>
      <trkpt lat="46.40639" lon="5.17279">
        <ele>230.2</ele>
        <time>2021-12-03T13:59:18Z</time>
      </trkpt>
      <trkpt lat="46.40637" lon="5.17316">
        <ele>229.8</ele>
        <time>2021-12-03T13:59:21Z</time>
      </trkpt>
      <trkpt lat="46.40637" lon="5.17341">
        <ele>229.2</ele>
        <time>2021-12-03T13:59:23Z</time>
      </trkpt>
      <trkpt lat="46.40637" lon="5.17393">
        <ele>227.8</ele>
        <time>2021-12-03T13:59:27Z</time>
      </trkpt>
      <trkpt lat="46.40637" lon="5.17406">
        <ele>227.4</ele>
        <time>2021-12-03T13:59:28Z</time>
      </trkpt>
      <trkpt lat="46.40636" lon="5.17434">
        <ele>226.4</ele>
        <time>2021-12-03T13:59:30Z</time>
      </trkpt>
      <trkpt lat="46.40636" lon="5.1746">
        <ele>225.4</ele>
        <time>2021-12-03T13:59:32Z</time>
      </trkpt>
      <trkpt lat="46.40635" lon="5.17489">
        <ele>224.2</ele>
        <time>2021-12-03T13:59:34Z</time>
      </trkpt>
      <trkpt lat="46.40635" lon="5.17519">
        <ele>222.4</ele>
        <time>2021-12-03T13:59:36Z</time>
      </trkpt>
      <trkpt lat="46.40634" lon="5.17548">
        <ele>221</ele>
        <time>2021-12-03T13:59:38Z</time>
      </trkpt>
      <trkpt lat="46.40633" lon="5.17591">
        <ele>219.6</ele>
        <time>2021-12-03T13:59:41Z</time>
      </trkpt>
      <trkpt lat="46.40633" lon="5.17604">
        <ele>219.4</ele>
        <time>2021-12-03T13:59:42Z</time>
      </trkpt>
      <trkpt lat="46.40633" lon="5.17631">
        <ele>218.4</ele>
        <time>2021-12-03T13:59:44Z</time>
      </trkpt>
      <trkpt lat="46.40631" lon="5.1767">
        <ele>217.6</ele>
        <time>2021-12-03T13:59:47Z</time>
      </trkpt>
      <trkpt lat="46.40631" lon="5.17695">
        <ele>217.4</ele>
        <time>2021-12-03T13:59:49Z</time>
      </trkpt>
      <trkpt lat="46.40629" lon="5.17742">
        <ele>217.2</ele>
        <time>2021-12-03T13:59:53Z</time>
      </trkpt>
      <trkpt lat="46.40626" lon="5.17819">
        <ele>217.4</ele>
        <time>2021-12-03T14:00:00Z</time>
      </trkpt>
      <trkpt lat="46.40626" lon="5.17872">
        <ele>217.8</ele>
        <time>2021-12-03T14:00:05Z</time>
      </trkpt>
      <trkpt lat="46.40624" lon="5.17891">
        <ele>218</ele>
        <time>2021-12-03T14:00:07Z</time>
      </trkpt>
      <trkpt lat="46.40623" lon="5.17926">
        <ele>218</ele>
        <time>2021-12-03T14:00:11Z</time>
      </trkpt>
      <trkpt lat="46.40623" lon="5.17935">
        <ele>218.6</ele>
        <time>2021-12-03T14:00:12Z</time>
      </trkpt>
      <trkpt lat="46.40621" lon="5.17957">
        <ele>219.6</ele>
        <time>2021-12-03T14:00:15Z</time>
      </trkpt>
      <trkpt lat="46.4062" lon="5.17964">
        <ele>219.8</ele>
        <time>2021-12-03T14:00:16Z</time>
      </trkpt>
      <trkpt lat="46.4062" lon="5.17972">
        <ele>220.2</ele>
        <time>2021-12-03T14:00:17Z</time>
      </trkpt>
      <trkpt lat="46.4062" lon="5.17986">
        <ele>221</ele>
        <time>2021-12-03T14:00:19Z</time>
      </trkpt>
      <trkpt lat="46.40619" lon="5.17999">
        <ele>221.8</ele>
        <time>2021-12-03T14:00:21Z</time>
      </trkpt>
      <trkpt lat="46.40619" lon="5.18005">
        <ele>222</ele>
        <time>2021-12-03T14:00:22Z</time>
      </trkpt>
      <trkpt lat="46.40619" lon="5.18012">
        <ele>222.6</ele>
        <time>2021-12-03T14:00:23Z</time>
      </trkpt>
      <trkpt lat="46.40618" lon="5.18018">
        <ele>223.2</ele>
        <time>2021-12-03T14:00:24Z</time>
      </trkpt>
      <trkpt lat="46.40617" lon="5.18044">
        <ele>224.2</ele>
        <time>2021-12-03T14:00:28Z</time>
      </trkpt>
      <trkpt lat="46.40617" lon="5.1805">
        <ele>224.2</ele>
        <time>2021-12-03T14:00:29Z</time>
      </trkpt>
      <trkpt lat="46.40617" lon="5.18064">
        <ele>225.2</ele>
        <time>2021-12-03T14:00:31Z</time>
      </trkpt>
      <trkpt lat="46.40617" lon="5.18071">
        <ele>225.4</ele>
        <time>2021-12-03T14:00:32Z</time>
      </trkpt>
      <trkpt lat="46.40617" lon="5.18091">
        <ele>226.4</ele>
        <time>2021-12-03T14:00:35Z</time>
      </trkpt>
      <trkpt lat="46.40617" lon="5.18124">
        <ele>227.4</ele>
        <time>2021-12-03T14:00:40Z</time>
      </trkpt>
      <trkpt lat="46.40617" lon="5.18159">
        <ele>228.6</ele>
        <time>2021-12-03T14:00:45Z</time>
      </trkpt>
      <trkpt lat="46.40616" lon="5.182">
        <ele>229.8</ele>
        <time>2021-12-03T14:00:51Z</time>
      </trkpt>
      <trkpt lat="46.40616" lon="5.18214">
        <ele>230</ele>
        <time>2021-12-03T14:00:53Z</time>
      </trkpt>
      <trkpt lat="46.40614" lon="5.18271">
        <ele>230</ele>
        <time>2021-12-03T14:01:00Z</time>
      </trkpt>
      <trkpt lat="46.40613" lon="5.18324">
        <ele>229.6</ele>
        <time>2021-12-03T14:01:05Z</time>
      </trkpt>
      <trkpt lat="46.40612" lon="5.18349">
        <ele>228.4</ele>
        <time>2021-12-03T14:01:07Z</time>
      </trkpt>
      <trkpt lat="46.40611" lon="5.18387">
        <ele>227.4</ele>
        <time>2021-12-03T14:01:10Z</time>
      </trkpt>
      <trkpt lat="46.40611" lon="5.184">
        <ele>226.6</ele>
        <time>2021-12-03T14:01:11Z</time>
      </trkpt>
      <trkpt lat="46.4061" lon="5.18417">
        <ele>226.2</ele>
        <time>2021-12-03T14:01:12Z</time>
      </trkpt>
      <trkpt lat="46.40609" lon="5.18443">
        <ele>225.2</ele>
        <time>2021-12-03T14:01:14Z</time>
      </trkpt>
      <trkpt lat="46.40609" lon="5.1847">
        <ele>223.6</ele>
        <time>2021-12-03T14:01:16Z</time>
      </trkpt>
      <trkpt lat="46.40607" lon="5.18506">
        <ele>222.6</ele>
        <time>2021-12-03T14:01:19Z</time>
      </trkpt>
      <trkpt lat="46.40607" lon="5.18518">
        <ele>222.4</ele>
        <time>2021-12-03T14:01:20Z</time>
      </trkpt>
      <trkpt lat="46.40605" lon="5.18593">
        <ele>222.4</ele>
        <time>2021-12-03T14:01:27Z</time>
      </trkpt>
      <trkpt lat="46.40603" lon="5.18674">
        <ele>222.4</ele>
        <time>2021-12-03T14:01:34Z</time>
      </trkpt>
      <trkpt lat="46.40602" lon="5.1871">
        <ele>222.4</ele>
        <time>2021-12-03T14:01:37Z</time>
      </trkpt>
      <trkpt lat="46.406" lon="5.18757">
        <ele>221.4</ele>
        <time>2021-12-03T14:01:41Z</time>
      </trkpt>
      <trkpt lat="46.40599" lon="5.18806">
        <ele>220.6</ele>
        <time>2021-12-03T14:01:45Z</time>
      </trkpt>
      <trkpt lat="46.40598" lon="5.18832">
        <ele>220.2</ele>
        <time>2021-12-03T14:01:47Z</time>
      </trkpt>
      <trkpt lat="46.40597" lon="5.1889">
        <ele>219.8</ele>
        <time>2021-12-03T14:01:52Z</time>
      </trkpt>
      <trkpt lat="46.40595" lon="5.1895">
        <ele>219</ele>
        <time>2021-12-03T14:01:57Z</time>
      </trkpt>
      <trkpt lat="46.40595" lon="5.1896">
        <ele>218.8</ele>
        <time>2021-12-03T14:01:58Z</time>
      </trkpt>
      <trkpt lat="46.40592" lon="5.19043">
        <ele>218</ele>
        <time>2021-12-03T14:02:05Z</time>
      </trkpt>
      <trkpt lat="46.40591" lon="5.19066">
        <ele>218</ele>
        <time>2021-12-03T14:02:07Z</time>
      </trkpt>
      <trkpt lat="46.4059" lon="5.19134">
        <ele>217.6</ele>
        <time>2021-12-03T14:02:13Z</time>
      </trkpt>
      <trkpt lat="46.40587" lon="5.1922">
        <ele>217.6</ele>
        <time>2021-12-03T14:02:21Z</time>
      </trkpt>
      <trkpt lat="46.40586" lon="5.19243">
        <ele>217.6</ele>
        <time>2021-12-03T14:02:23Z</time>
      </trkpt>
      <trkpt lat="46.40584" lon="5.1932">
        <ele>218</ele>
        <time>2021-12-03T14:02:31Z</time>
      </trkpt>
      <trkpt lat="46.40582" lon="5.19383">
        <ele>219</ele>
        <time>2021-12-03T14:02:38Z</time>
      </trkpt>
      <trkpt lat="46.40581" lon="5.19435">
        <ele>220</ele>
        <time>2021-12-03T14:02:45Z</time>
      </trkpt>
      <trkpt lat="46.4058" lon="5.19465">
        <ele>221</ele>
        <time>2021-12-03T14:02:49Z</time>
      </trkpt>
      <trkpt lat="46.40579" lon="5.19486">
        <ele>221.4</ele>
        <time>2021-12-03T14:02:52Z</time>
      </trkpt>
      <trkpt lat="46.40579" lon="5.19507">
        <ele>222</ele>
        <time>2021-12-03T14:02:55Z</time>
      </trkpt>
      <trkpt lat="46.40579" lon="5.1954">
        <ele>223.6</ele>
        <time>2021-12-03T14:03:00Z</time>
      </trkpt>
      <trkpt lat="46.40579" lon="5.19548">
        <ele>223.6</ele>
        <time>2021-12-03T14:03:01Z</time>
      </trkpt>
      <trkpt lat="46.40579" lon="5.19567">
        <ele>224.6</ele>
        <time>2021-12-03T14:03:04Z</time>
      </trkpt>
      <trkpt lat="46.40578" lon="5.19599">
        <ele>226.2</ele>
        <time>2021-12-03T14:03:09Z</time>
      </trkpt>
      <trkpt lat="46.40578" lon="5.19611">
        <ele>226.8</ele>
        <time>2021-12-03T14:03:11Z</time>
      </trkpt>
      <trkpt lat="46.40577" lon="5.19629">
        <ele>227.4</ele>
        <time>2021-12-03T14:03:14Z</time>
      </trkpt>
      <trkpt lat="46.40577" lon="5.19647">
        <ele>228.6</ele>
        <time>2021-12-03T14:03:17Z</time>
      </trkpt>
      <trkpt lat="46.40577" lon="5.19653">
        <ele>229.2</ele>
        <time>2021-12-03T14:03:18Z</time>
      </trkpt>
      <trkpt lat="46.40576" lon="5.19677">
        <ele>229.8</ele>
        <time>2021-12-03T14:03:22Z</time>
      </trkpt>
      <trkpt lat="46.40574" lon="5.19708">
        <ele>231</ele>
        <time>2021-12-03T14:03:27Z</time>
      </trkpt>
      <trkpt lat="46.40573" lon="5.19713">
        <ele>231.2</ele>
        <time>2021-12-03T14:03:28Z</time>
      </trkpt>
      <trkpt lat="46.40573" lon="5.19726">
        <ele>231.6</ele>
        <time>2021-12-03T14:03:30Z</time>
      </trkpt>
      <trkpt lat="46.40572" lon="5.19738">
        <ele>232.2</ele>
        <time>2021-12-03T14:03:32Z</time>
      </trkpt>
      <trkpt lat="46.40572" lon="5.19764">
        <ele>232.8</ele>
        <time>2021-12-03T14:03:36Z</time>
      </trkpt>
      <trkpt lat="46.40571" lon="5.19784">
        <ele>233.2</ele>
        <time>2021-12-03T14:03:39Z</time>
      </trkpt>
      <trkpt lat="46.40571" lon="5.19818">
        <ele>234.2</ele>
        <time>2021-12-03T14:03:44Z</time>
      </trkpt>
      <trkpt lat="46.4057" lon="5.19825">
        <ele>234.4</ele>
        <time>2021-12-03T14:03:45Z</time>
      </trkpt>
      <trkpt lat="46.40569" lon="5.19891">
        <ele>235.2</ele>
        <time>2021-12-03T14:03:54Z</time>
      </trkpt>
      <trkpt lat="46.40569" lon="5.19899">
        <ele>235.2</ele>
        <time>2021-12-03T14:03:55Z</time>
      </trkpt>
      <trkpt lat="46.40567" lon="5.19947">
        <ele>235.6</ele>
        <time>2021-12-03T14:04:01Z</time>
      </trkpt>
      <trkpt lat="46.40564" lon="5.20025">
        <ele>235.6</ele>
        <time>2021-12-03T14:04:10Z</time>
      </trkpt>
      <trkpt lat="46.40561" lon="5.20104">
        <ele>235.6</ele>
        <time>2021-12-03T14:04:19Z</time>
      </trkpt>
      <trkpt lat="46.40557" lon="5.20183">
        <ele>235.8</ele>
        <time>2021-12-03T14:04:28Z</time>
      </trkpt>
      <trkpt lat="46.40553" lon="5.20243">
        <ele>236.4</ele>
        <time>2021-12-03T14:04:35Z</time>
      </trkpt>
      <trkpt lat="46.40551" lon="5.2026">
        <ele>236.6</ele>
        <time>2021-12-03T14:04:37Z</time>
      </trkpt>
      <trkpt lat="46.40545" lon="5.20342">
        <ele>236.6</ele>
        <time>2021-12-03T14:04:46Z</time>
      </trkpt>
      <trkpt lat="46.40543" lon="5.2036">
        <ele>236.4</ele>
        <time>2021-12-03T14:04:48Z</time>
      </trkpt>
      <trkpt lat="46.40537" lon="5.2044">
        <ele>235.8</ele>
        <time>2021-12-03T14:04:56Z</time>
      </trkpt>
      <trkpt lat="46.40536" lon="5.20451">
        <ele>235.6</ele>
        <time>2021-12-03T14:04:57Z</time>
      </trkpt>
      <trkpt lat="46.40536" lon="5.20463">
        <ele>235.2</ele>
        <time>2021-12-03T14:04:58Z</time>
      </trkpt>
      <trkpt lat="46.40532" lon="5.20514">
        <ele>233.8</ele>
        <time>2021-12-03T14:05:02Z</time>
      </trkpt>
      <trkpt lat="46.40531" lon="5.2053">
        <ele>233.4</ele>
        <time>2021-12-03T14:05:03Z</time>
      </trkpt>
      <trkpt lat="46.4053" lon="5.20541">
        <ele>232.8</ele>
        <time>2021-12-03T14:05:04Z</time>
      </trkpt>
      <trkpt lat="46.40528" lon="5.2057">
        <ele>231.4</ele>
        <time>2021-12-03T14:05:06Z</time>
      </trkpt>
      <trkpt lat="46.40525" lon="5.20616">
        <ele>229.6</ele>
        <time>2021-12-03T14:05:09Z</time>
      </trkpt>
      <trkpt lat="46.40524" lon="5.20629">
        <ele>229.6</ele>
        <time>2021-12-03T14:05:10Z</time>
      </trkpt>
      <trkpt lat="46.40523" lon="5.20644">
        <ele>228</ele>
        <time>2021-12-03T14:05:11Z</time>
      </trkpt>
      <trkpt lat="46.4052" lon="5.20678">
        <ele>225.8</ele>
        <time>2021-12-03T14:05:13Z</time>
      </trkpt>
      <trkpt lat="46.40519" lon="5.20691">
        <ele>225</ele>
        <time>2021-12-03T14:05:14Z</time>
      </trkpt>
      <trkpt lat="46.40518" lon="5.20707">
        <ele>224.6</ele>
        <time>2021-12-03T14:05:15Z</time>
      </trkpt>
      <trkpt lat="46.40516" lon="5.20724">
        <ele>223.8</ele>
        <time>2021-12-03T14:05:16Z</time>
      </trkpt>
      <trkpt lat="46.40514" lon="5.2076">
        <ele>222.6</ele>
        <time>2021-12-03T14:05:18Z</time>
      </trkpt>
      <trkpt lat="46.40511" lon="5.2079">
        <ele>221</ele>
        <time>2021-12-03T14:05:20Z</time>
      </trkpt>
      <trkpt lat="46.40509" lon="5.20822">
        <ele>219.4</ele>
        <time>2021-12-03T14:05:22Z</time>
      </trkpt>
      <trkpt lat="46.40507" lon="5.20853">
        <ele>218</ele>
        <time>2021-12-03T14:05:24Z</time>
      </trkpt>
      <trkpt lat="46.40504" lon="5.20882">
        <ele>216.8</ele>
        <time>2021-12-03T14:05:26Z</time>
      </trkpt>
      <trkpt lat="46.40503" lon="5.209">
        <ele>216.2</ele>
        <time>2021-12-03T14:05:27Z</time>
      </trkpt>
      <trkpt lat="46.40502" lon="5.20924">
        <ele>215.6</ele>
        <time>2021-12-03T14:05:29Z</time>
      </trkpt>
      <trkpt lat="46.40498" lon="5.2099">
        <ele>215</ele>
        <time>2021-12-03T14:05:34Z</time>
      </trkpt>
      <trkpt lat="46.40493" lon="5.21063">
        <ele>214.8</ele>
        <time>2021-12-03T14:05:40Z</time>
      </trkpt>
      <trkpt lat="46.40493" lon="5.21075">
        <ele>214.8</ele>
        <time>2021-12-03T14:05:41Z</time>
      </trkpt>
      <trkpt lat="46.40497" lon="5.21085">
        <ele>214.8</ele>
        <time>2021-12-03T14:05:42Z</time>
      </trkpt>
      <trkpt lat="46.40502" lon="5.21094">
        <ele>214.6</ele>
        <time>2021-12-03T14:05:43Z</time>
      </trkpt>
      <trkpt lat="46.40516" lon="5.21106">
        <ele>214.6</ele>
        <time>2021-12-03T14:05:45Z</time>
      </trkpt>
      <trkpt lat="46.40562" lon="5.21137">
        <ele>214.2</ele>
        <time>2021-12-03T14:05:51Z</time>
      </trkpt>
      <trkpt lat="46.40571" lon="5.21139">
        <ele>214</ele>
        <time>2021-12-03T14:05:52Z</time>
      </trkpt>
      <trkpt lat="46.40579" lon="5.21139">
        <ele>214</ele>
        <time>2021-12-03T14:05:53Z</time>
      </trkpt>
      <trkpt lat="46.40597" lon="5.21134">
        <ele>213.8</ele>
        <time>2021-12-03T14:05:55Z</time>
      </trkpt>
      <trkpt lat="46.40612" lon="5.21127">
        <ele>213.6</ele>
        <time>2021-12-03T14:05:57Z</time>
      </trkpt>
      <trkpt lat="46.40665" lon="5.21102">
        <ele>213.2</ele>
        <time>2021-12-03T14:06:04Z</time>
      </trkpt>
      <trkpt lat="46.40672" lon="5.21098">
        <ele>213</ele>
        <time>2021-12-03T14:06:05Z</time>
      </trkpt>
      <trkpt lat="46.40721" lon="5.21076">
        <ele>213.8</ele>
        <time>2021-12-03T14:06:12Z</time>
      </trkpt>
      <trkpt lat="46.40753" lon="5.21062">
        <ele>214.6</ele>
        <time>2021-12-03T14:06:17Z</time>
      </trkpt>
      <trkpt lat="46.40771" lon="5.21053">
        <ele>214.8</ele>
        <time>2021-12-03T14:06:20Z</time>
      </trkpt>
      <trkpt lat="46.40801" lon="5.21041">
        <ele>215.6</ele>
        <time>2021-12-03T14:06:25Z</time>
      </trkpt>
      <trkpt lat="46.40819" lon="5.21034">
        <ele>216</ele>
        <time>2021-12-03T14:06:28Z</time>
      </trkpt>
      <trkpt lat="46.40848" lon="5.21021">
        <ele>216.8</ele>
        <time>2021-12-03T14:06:33Z</time>
      </trkpt>
      <trkpt lat="46.40872" lon="5.21011">
        <ele>217</ele>
        <time>2021-12-03T14:06:37Z</time>
      </trkpt>
      <trkpt lat="46.40924" lon="5.20988">
        <ele>218.4</ele>
        <time>2021-12-03T14:06:46Z</time>
      </trkpt>
      <trkpt lat="46.4093" lon="5.20985">
        <ele>218.6</ele>
        <time>2021-12-03T14:06:47Z</time>
      </trkpt>
      <trkpt lat="46.4097" lon="5.20967">
        <ele>219.2</ele>
        <time>2021-12-03T14:06:54Z</time>
      </trkpt>
      <trkpt lat="46.40976" lon="5.20964">
        <ele>219.4</ele>
        <time>2021-12-03T14:06:55Z</time>
      </trkpt>
      <trkpt lat="46.41019" lon="5.20945">
        <ele>219.8</ele>
        <time>2021-12-03T14:07:02Z</time>
      </trkpt>
      <trkpt lat="46.41042" lon="5.20937">
        <ele>220.4</ele>
        <time>2021-12-03T14:07:06Z</time>
      </trkpt>
      <trkpt lat="46.41078" lon="5.20925">
        <ele>220.6</ele>
        <time>2021-12-03T14:07:12Z</time>
      </trkpt>
      <trkpt lat="46.41126" lon="5.20908">
        <ele>221.4</ele>
        <time>2021-12-03T14:07:20Z</time>
      </trkpt>
      <trkpt lat="46.41133" lon="5.20906">
        <ele>221.6</ele>
        <time>2021-12-03T14:07:21Z</time>
      </trkpt>
      <trkpt lat="46.41176" lon="5.20893">
        <ele>222</ele>
        <time>2021-12-03T14:07:28Z</time>
      </trkpt>
      <trkpt lat="46.41234" lon="5.20876">
        <ele>222.2</ele>
        <time>2021-12-03T14:07:37Z</time>
      </trkpt>
      <trkpt lat="46.41249" lon="5.20872">
        <ele>222.4</ele>
        <time>2021-12-03T14:07:39Z</time>
      </trkpt>
      <trkpt lat="46.41308" lon="5.20855">
        <ele>222.2</ele>
        <time>2021-12-03T14:07:48Z</time>
      </trkpt>
      <trkpt lat="46.41317" lon="5.20853">
        <ele>222.2</ele>
        <time>2021-12-03T14:07:49Z</time>
      </trkpt>
      <trkpt lat="46.41371" lon="5.20836">
        <ele>221.8</ele>
        <time>2021-12-03T14:07:57Z</time>
      </trkpt>
      <trkpt lat="46.41378" lon="5.20836">
        <ele>221.8</ele>
        <time>2021-12-03T14:07:58Z</time>
      </trkpt>
      <trkpt lat="46.4139" lon="5.20842">
        <ele>221.8</ele>
        <time>2021-12-03T14:08:00Z</time>
      </trkpt>
      <trkpt lat="46.41395" lon="5.20848">
        <ele>221.8</ele>
        <time>2021-12-03T14:08:01Z</time>
      </trkpt>
      <trkpt lat="46.41399" lon="5.20856">
        <ele>221.8</ele>
        <time>2021-12-03T14:08:02Z</time>
      </trkpt>
      <trkpt lat="46.41413" lon="5.20886">
        <ele>222</ele>
        <time>2021-12-03T14:08:06Z</time>
      </trkpt>
      <trkpt lat="46.41426" lon="5.20922">
        <ele>222.4</ele>
        <time>2021-12-03T14:08:11Z</time>
      </trkpt>
      <trkpt lat="46.41427" lon="5.2093">
        <ele>222.6</ele>
        <time>2021-12-03T14:08:12Z</time>
      </trkpt>
      <trkpt lat="46.41429" lon="5.20939">
        <ele>222.8</ele>
        <time>2021-12-03T14:08:13Z</time>
      </trkpt>
      <trkpt lat="46.41432" lon="5.20961">
        <ele>224</ele>
        <time>2021-12-03T14:08:16Z</time>
      </trkpt>
      <trkpt lat="46.41436" lon="5.20996">
        <ele>225</ele>
        <time>2021-12-03T14:08:21Z</time>
      </trkpt>
      <trkpt lat="46.41437" lon="5.21008">
        <ele>225.4</ele>
        <time>2021-12-03T14:08:23Z</time>
      </trkpt>
      <trkpt lat="46.41438" lon="5.21015">
        <ele>225.6</ele>
        <time>2021-12-03T14:08:24Z</time>
      </trkpt>
      <trkpt lat="46.4144" lon="5.21026">
        <ele>226.2</ele>
        <time>2021-12-03T14:08:26Z</time>
      </trkpt>
      <trkpt lat="46.41444" lon="5.21038">
        <ele>227.6</ele>
        <time>2021-12-03T14:08:28Z</time>
      </trkpt>
      <trkpt lat="46.41447" lon="5.21043">
        <ele>228</ele>
        <time>2021-12-03T14:08:29Z</time>
      </trkpt>
      <trkpt lat="46.41453" lon="5.21052">
        <ele>228.6</ele>
        <time>2021-12-03T14:08:31Z</time>
      </trkpt>
      <trkpt lat="46.41468" lon="5.2107">
        <ele>230</ele>
        <time>2021-12-03T14:08:35Z</time>
      </trkpt>
      <trkpt lat="46.41495" lon="5.21102">
        <ele>230.6</ele>
        <time>2021-12-03T14:08:41Z</time>
      </trkpt>
      <trkpt lat="46.41523" lon="5.2114">
        <ele>229.8</ele>
        <time>2021-12-03T14:08:46Z</time>
      </trkpt>
      <trkpt lat="46.4154" lon="5.21169">
        <ele>228.4</ele>
        <time>2021-12-03T14:08:49Z</time>
      </trkpt>
      <trkpt lat="46.4155" lon="5.21187">
        <ele>227.4</ele>
        <time>2021-12-03T14:08:51Z</time>
      </trkpt>
      <trkpt lat="46.41555" lon="5.21196">
        <ele>227.2</ele>
        <time>2021-12-03T14:08:52Z</time>
      </trkpt>
      <trkpt lat="46.41574" lon="5.21227">
        <ele>227</ele>
        <time>2021-12-03T14:08:56Z</time>
      </trkpt>
      <trkpt lat="46.41606" lon="5.2126">
        <ele>227.4</ele>
        <time>2021-12-03T14:09:02Z</time>
      </trkpt>
      <trkpt lat="46.41652" lon="5.21303">
        <ele>228</ele>
        <time>2021-12-03T14:09:10Z</time>
      </trkpt>
      <trkpt lat="46.41656" lon="5.21307">
        <ele>228.2</ele>
        <time>2021-12-03T14:09:11Z</time>
      </trkpt>
      <trkpt lat="46.41663" lon="5.21312">
        <ele>228.4</ele>
        <time>2021-12-03T14:09:12Z</time>
      </trkpt>
      <trkpt lat="46.41697" lon="5.21339">
        <ele>229.4</ele>
        <time>2021-12-03T14:09:18Z</time>
      </trkpt>
      <trkpt lat="46.41735" lon="5.2137">
        <ele>230.4</ele>
        <time>2021-12-03T14:09:25Z</time>
      </trkpt>
      <trkpt lat="46.4175" lon="5.21384">
        <ele>230.8</ele>
        <time>2021-12-03T14:09:28Z</time>
      </trkpt>
      <trkpt lat="46.41768" lon="5.214">
        <ele>231.2</ele>
        <time>2021-12-03T14:09:31Z</time>
      </trkpt>
      <trkpt lat="46.41806" lon="5.21429">
        <ele>231.2</ele>
        <time>2021-12-03T14:09:38Z</time>
      </trkpt>
      <trkpt lat="46.41828" lon="5.21443">
        <ele>231.6</ele>
        <time>2021-12-03T14:09:42Z</time>
      </trkpt>
      <trkpt lat="46.41845" lon="5.21451">
        <ele>231.6</ele>
        <time>2021-12-03T14:09:45Z</time>
      </trkpt>
      <trkpt lat="46.4185" lon="5.21454">
        <ele>231.6</ele>
        <time>2021-12-03T14:09:46Z</time>
      </trkpt>
      <trkpt lat="46.41873" lon="5.21466">
        <ele>232.2</ele>
        <time>2021-12-03T14:09:50Z</time>
      </trkpt>
      <trkpt lat="46.41914" lon="5.21486">
        <ele>232.4</ele>
        <time>2021-12-03T14:09:57Z</time>
      </trkpt>
      <trkpt lat="46.41963" lon="5.2151">
        <ele>232</ele>
        <time>2021-12-03T14:10:05Z</time>
      </trkpt>
      <trkpt lat="46.42004" lon="5.21537">
        <ele>231.6</ele>
        <time>2021-12-03T14:10:12Z</time>
      </trkpt>
      <trkpt lat="46.42049" lon="5.21571">
        <ele>231.4</ele>
        <time>2021-12-03T14:10:20Z</time>
      </trkpt>
      <trkpt lat="46.421" lon="5.21606">
        <ele>230.6</ele>
        <time>2021-12-03T14:10:28Z</time>
      </trkpt>
      <trkpt lat="46.42112" lon="5.21615">
        <ele>230.4</ele>
        <time>2021-12-03T14:10:30Z</time>
      </trkpt>
      <trkpt lat="46.42161" lon="5.2165">
        <ele>230.6</ele>
        <time>2021-12-03T14:10:38Z</time>
      </trkpt>
      <trkpt lat="46.42204" lon="5.21687">
        <ele>231.2</ele>
        <time>2021-12-03T14:10:46Z</time>
      </trkpt>
      <trkpt lat="46.42242" lon="5.2171">
        <ele>231.4</ele>
        <time>2021-12-03T14:10:52Z</time>
      </trkpt>
      <trkpt lat="46.42295" lon="5.21732">
        <ele>232</ele>
        <time>2021-12-03T14:11:00Z</time>
      </trkpt>
      <trkpt lat="46.42339" lon="5.21748">
        <ele>232.6</ele>
        <time>2021-12-03T14:11:07Z</time>
      </trkpt>
      <trkpt lat="46.42352" lon="5.21752">
        <ele>232.8</ele>
        <time>2021-12-03T14:11:09Z</time>
      </trkpt>
      <trkpt lat="46.42398" lon="5.21754">
        <ele>233.4</ele>
        <time>2021-12-03T14:11:16Z</time>
      </trkpt>
      <trkpt lat="46.42412" lon="5.21754">
        <ele>233.6</ele>
        <time>2021-12-03T14:11:18Z</time>
      </trkpt>
      <trkpt lat="46.4246" lon="5.21758">
        <ele>233.8</ele>
        <time>2021-12-03T14:11:25Z</time>
      </trkpt>
      <trkpt lat="46.42507" lon="5.21773">
        <ele>234.2</ele>
        <time>2021-12-03T14:11:32Z</time>
      </trkpt>
      <trkpt lat="46.42558" lon="5.21792">
        <ele>234.8</ele>
        <time>2021-12-03T14:11:40Z</time>
      </trkpt>
      <trkpt lat="46.4257" lon="5.21796">
        <ele>235</ele>
        <time>2021-12-03T14:11:42Z</time>
      </trkpt>
      <trkpt lat="46.42613" lon="5.21811">
        <ele>235.8</ele>
        <time>2021-12-03T14:11:49Z</time>
      </trkpt>
      <trkpt lat="46.42619" lon="5.21813">
        <ele>235.8</ele>
        <time>2021-12-03T14:11:50Z</time>
      </trkpt>
      <trkpt lat="46.42659" lon="5.21822">
        <ele>236.4</ele>
        <time>2021-12-03T14:11:56Z</time>
      </trkpt>
      <trkpt lat="46.42713" lon="5.21828">
        <ele>236.4</ele>
        <time>2021-12-03T14:12:04Z</time>
      </trkpt>
      <trkpt lat="46.4272" lon="5.21829">
        <ele>236.4</ele>
        <time>2021-12-03T14:12:05Z</time>
      </trkpt>
      <trkpt lat="46.4277" lon="5.21833">
        <ele>236.4</ele>
        <time>2021-12-03T14:12:12Z</time>
      </trkpt>
      <trkpt lat="46.42805" lon="5.21828">
        <ele>236.2</ele>
        <time>2021-12-03T14:12:17Z</time>
      </trkpt>
      <trkpt lat="46.42861" lon="5.21815">
        <ele>236</ele>
        <time>2021-12-03T14:12:25Z</time>
      </trkpt>
      <trkpt lat="46.42868" lon="5.21815">
        <ele>236</ele>
        <time>2021-12-03T14:12:26Z</time>
      </trkpt>
      <trkpt lat="46.42909" lon="5.21819">
        <ele>236</ele>
        <time>2021-12-03T14:12:32Z</time>
      </trkpt>
      <trkpt lat="46.42969" lon="5.21831">
        <ele>236.2</ele>
        <time>2021-12-03T14:12:41Z</time>
      </trkpt>
      <trkpt lat="46.42988" lon="5.21838">
        <ele>236.4</ele>
        <time>2021-12-03T14:12:44Z</time>
      </trkpt>
      <trkpt lat="46.4301" lon="5.2184">
        <ele>236.6</ele>
        <time>2021-12-03T14:12:47Z</time>
      </trkpt>
      <trkpt lat="46.43032" lon="5.21836">
        <ele>236.6</ele>
        <time>2021-12-03T14:12:50Z</time>
      </trkpt>
      <trkpt lat="46.43052" lon="5.21829">
        <ele>236.6</ele>
        <time>2021-12-03T14:12:53Z</time>
      </trkpt>
      <trkpt lat="46.43087" lon="5.21818">
        <ele>236.6</ele>
        <time>2021-12-03T14:12:58Z</time>
      </trkpt>
      <trkpt lat="46.43101" lon="5.21816">
        <ele>236.4</ele>
        <time>2021-12-03T14:13:00Z</time>
      </trkpt>
      <trkpt lat="46.43143" lon="5.21824">
        <ele>236.2</ele>
        <time>2021-12-03T14:13:06Z</time>
      </trkpt>
      <trkpt lat="46.43177" lon="5.21838">
        <ele>236.4</ele>
        <time>2021-12-03T14:13:11Z</time>
      </trkpt>
      <trkpt lat="46.43183" lon="5.21843">
        <ele>236.4</ele>
        <time>2021-12-03T14:13:12Z</time>
      </trkpt>
      <trkpt lat="46.43216" lon="5.21883">
        <ele>236.6</ele>
        <time>2021-12-03T14:13:18Z</time>
      </trkpt>
      <trkpt lat="46.43251" lon="5.21906">
        <ele>236.8</ele>
        <time>2021-12-03T14:13:23Z</time>
      </trkpt>
      <trkpt lat="46.43263" lon="5.21916">
        <ele>236.8</ele>
        <time>2021-12-03T14:13:25Z</time>
      </trkpt>
      <trkpt lat="46.43274" lon="5.21931">
        <ele>236.8</ele>
        <time>2021-12-03T14:13:27Z</time>
      </trkpt>
      <trkpt lat="46.43305" lon="5.21991">
        <ele>236.6</ele>
        <time>2021-12-03T14:13:34Z</time>
      </trkpt>
      <trkpt lat="46.43338" lon="5.22056">
        <ele>236.2</ele>
        <time>2021-12-03T14:13:41Z</time>
      </trkpt>
      <trkpt lat="46.43344" lon="5.22067">
        <ele>236.2</ele>
        <time>2021-12-03T14:13:42Z</time>
      </trkpt>
      <trkpt lat="46.43362" lon="5.22093">
        <ele>235.4</ele>
        <time>2021-12-03T14:13:45Z</time>
      </trkpt>
      <trkpt lat="46.43369" lon="5.221">
        <ele>235</ele>
        <time>2021-12-03T14:13:46Z</time>
      </trkpt>
      <trkpt lat="46.43397" lon="5.22129">
        <ele>233.6</ele>
        <time>2021-12-03T14:13:50Z</time>
      </trkpt>
      <trkpt lat="46.43425" lon="5.22157">
        <ele>232.8</ele>
        <time>2021-12-03T14:13:54Z</time>
      </trkpt>
      <trkpt lat="46.4344" lon="5.22168">
        <ele>232.6</ele>
        <time>2021-12-03T14:13:56Z</time>
      </trkpt>
      <trkpt lat="46.43448" lon="5.22172">
        <ele>232.6</ele>
        <time>2021-12-03T14:13:57Z</time>
      </trkpt>
      <trkpt lat="46.43463" lon="5.22179">
        <ele>232.6</ele>
        <time>2021-12-03T14:13:59Z</time>
      </trkpt>
      <trkpt lat="46.435" lon="5.22186">
        <ele>232.6</ele>
        <time>2021-12-03T14:14:04Z</time>
      </trkpt>
      <trkpt lat="46.43545" lon="5.22192">
        <ele>232.8</ele>
        <time>2021-12-03T14:14:10Z</time>
      </trkpt>
      <trkpt lat="46.43552" lon="5.22195">
        <ele>232.8</ele>
        <time>2021-12-03T14:14:11Z</time>
      </trkpt>
      <trkpt lat="46.43601" lon="5.22223">
        <ele>233.6</ele>
        <time>2021-12-03T14:14:18Z</time>
      </trkpt>
      <trkpt lat="46.43652" lon="5.22268">
        <ele>234.2</ele>
        <time>2021-12-03T14:14:26Z</time>
      </trkpt>
      <trkpt lat="46.43679" lon="5.22297">
        <ele>234.6</ele>
        <time>2021-12-03T14:14:31Z</time>
      </trkpt>
      <trkpt lat="46.43684" lon="5.22302">
        <ele>234.8</ele>
        <time>2021-12-03T14:14:32Z</time>
      </trkpt>
      <trkpt lat="46.43706" lon="5.22324">
        <ele>235.8</ele>
        <time>2021-12-03T14:14:36Z</time>
      </trkpt>
      <trkpt lat="46.43718" lon="5.22335">
        <ele>236</ele>
        <time>2021-12-03T14:14:38Z</time>
      </trkpt>
      <trkpt lat="46.43765" lon="5.2238">
        <ele>236.4</ele>
        <time>2021-12-03T14:14:46Z</time>
      </trkpt>
      <trkpt lat="46.43782" lon="5.22397">
        <ele>236</ele>
        <time>2021-12-03T14:14:49Z</time>
      </trkpt>
      <trkpt lat="46.4383" lon="5.22441">
        <ele>235.2</ele>
        <time>2021-12-03T14:14:57Z</time>
      </trkpt>
      <trkpt lat="46.43836" lon="5.22446">
        <ele>235</ele>
        <time>2021-12-03T14:14:58Z</time>
      </trkpt>
      <trkpt lat="46.4385" lon="5.22456">
        <ele>234.8</ele>
        <time>2021-12-03T14:15:00Z</time>
      </trkpt>
      <trkpt lat="46.43891" lon="5.22482">
        <ele>234</ele>
        <time>2021-12-03T14:15:06Z</time>
      </trkpt>
      <trkpt lat="46.4392" lon="5.22489">
        <ele>233.8</ele>
        <time>2021-12-03T14:15:10Z</time>
      </trkpt>
      <trkpt lat="46.43934" lon="5.2249">
        <ele>233.6</ele>
        <time>2021-12-03T14:15:12Z</time>
      </trkpt>
      <trkpt lat="46.43988" lon="5.22489">
        <ele>233.4</ele>
        <time>2021-12-03T14:15:19Z</time>
      </trkpt>
      <trkpt lat="46.44042" lon="5.22491">
        <ele>233</ele>
        <time>2021-12-03T14:15:26Z</time>
      </trkpt>
      <trkpt lat="46.44096" lon="5.22494">
        <ele>232.8</ele>
        <time>2021-12-03T14:15:33Z</time>
      </trkpt>
      <trkpt lat="46.44103" lon="5.22491">
        <ele>232.8</ele>
        <time>2021-12-03T14:15:34Z</time>
      </trkpt>
      <trkpt lat="46.4411" lon="5.22487">
        <ele>232.8</ele>
        <time>2021-12-03T14:15:35Z</time>
      </trkpt>
      <trkpt lat="46.44122" lon="5.22473">
        <ele>232.6</ele>
        <time>2021-12-03T14:15:37Z</time>
      </trkpt>
      <trkpt lat="46.4413" lon="5.22455">
        <ele>232.6</ele>
        <time>2021-12-03T14:15:39Z</time>
      </trkpt>
      <trkpt lat="46.44134" lon="5.22445">
        <ele>232.4</ele>
        <time>2021-12-03T14:15:40Z</time>
      </trkpt>
      <trkpt lat="46.44146" lon="5.22404">
        <ele>232.4</ele>
        <time>2021-12-03T14:15:44Z</time>
      </trkpt>
      <trkpt lat="46.44156" lon="5.22388">
        <ele>232.2</ele>
        <time>2021-12-03T14:15:46Z</time>
      </trkpt>
      <trkpt lat="46.44169" lon="5.22379">
        <ele>232</ele>
        <time>2021-12-03T14:15:48Z</time>
      </trkpt>
      <trkpt lat="46.44176" lon="5.22377">
        <ele>232</ele>
        <time>2021-12-03T14:15:49Z</time>
      </trkpt>
      <trkpt lat="46.44183" lon="5.22376">
        <ele>232.2</ele>
        <time>2021-12-03T14:15:50Z</time>
      </trkpt>
      <trkpt lat="46.44204" lon="5.22381">
        <ele>232</ele>
        <time>2021-12-03T14:15:53Z</time>
      </trkpt>
      <trkpt lat="46.44256" lon="5.22394">
        <ele>232.2</ele>
        <time>2021-12-03T14:16:00Z</time>
      </trkpt>
      <trkpt lat="46.44306" lon="5.22404">
        <ele>232.4</ele>
        <time>2021-12-03T14:16:07Z</time>
      </trkpt>
      <trkpt lat="46.44356" lon="5.22417">
        <ele>232.6</ele>
        <time>2021-12-03T14:16:14Z</time>
      </trkpt>
      <trkpt lat="46.44364" lon="5.2242">
        <ele>232.6</ele>
        <time>2021-12-03T14:16:15Z</time>
      </trkpt>
      <trkpt lat="46.44378" lon="5.22428">
        <ele>232.4</ele>
        <time>2021-12-03T14:16:17Z</time>
      </trkpt>
      <trkpt lat="46.44384" lon="5.22432">
        <ele>232.4</ele>
        <time>2021-12-03T14:16:18Z</time>
      </trkpt>
      <trkpt lat="46.44425" lon="5.22468">
        <ele>231.8</ele>
        <time>2021-12-03T14:16:24Z</time>
      </trkpt>
      <trkpt lat="46.44439" lon="5.22475">
        <ele>231.6</ele>
        <time>2021-12-03T14:16:26Z</time>
      </trkpt>
      <trkpt lat="46.44482" lon="5.22495">
        <ele>231.4</ele>
        <time>2021-12-03T14:16:32Z</time>
      </trkpt>
      <trkpt lat="46.44539" lon="5.22522">
        <ele>231</ele>
        <time>2021-12-03T14:16:40Z</time>
      </trkpt>
      <trkpt lat="46.44552" lon="5.22529">
        <ele>231.2</ele>
        <time>2021-12-03T14:16:42Z</time>
      </trkpt>
      <trkpt lat="46.44599" lon="5.2256">
        <ele>231</ele>
        <time>2021-12-03T14:16:49Z</time>
      </trkpt>
      <trkpt lat="46.4463" lon="5.22576">
        <ele>230.8</ele>
        <time>2021-12-03T14:16:54Z</time>
      </trkpt>
      <trkpt lat="46.44658" lon="5.22587">
        <ele>230.8</ele>
        <time>2021-12-03T14:16:59Z</time>
      </trkpt>
      <trkpt lat="46.44662" lon="5.2259">
        <ele>230.8</ele>
        <time>2021-12-03T14:17:00Z</time>
      </trkpt>
      <trkpt lat="46.44667" lon="5.22596">
        <ele>230.8</ele>
        <time>2021-12-03T14:17:01Z</time>
      </trkpt>
      <trkpt lat="46.44672" lon="5.2261">
        <ele>230.8</ele>
        <time>2021-12-03T14:17:03Z</time>
      </trkpt>
      <trkpt lat="46.44674" lon="5.22646">
        <ele>230.6</ele>
        <time>2021-12-03T14:17:07Z</time>
      </trkpt>
      <trkpt lat="46.44675" lon="5.22655">
        <ele>230.6</ele>
        <time>2021-12-03T14:17:08Z</time>
      </trkpt>
      <trkpt lat="46.44677" lon="5.22727">
        <ele>230.4</ele>
        <time>2021-12-03T14:17:15Z</time>
      </trkpt>
      <trkpt lat="46.44681" lon="5.22814">
        <ele>230.6</ele>
        <time>2021-12-03T14:17:24Z</time>
      </trkpt>
      <trkpt lat="46.44681" lon="5.22824">
        <ele>230.8</ele>
        <time>2021-12-03T14:17:25Z</time>
      </trkpt>
      <trkpt lat="46.44683" lon="5.22833">
        <ele>230.8</ele>
        <time>2021-12-03T14:17:26Z</time>
      </trkpt>
      <trkpt lat="46.44689" lon="5.22848">
        <ele>230.8</ele>
        <time>2021-12-03T14:17:28Z</time>
      </trkpt>
      <trkpt lat="46.44707" lon="5.2286">
        <ele>230.8</ele>
        <time>2021-12-03T14:17:31Z</time>
      </trkpt>
      <trkpt lat="46.44721" lon="5.22868">
        <ele>230.8</ele>
        <time>2021-12-03T14:17:33Z</time>
      </trkpt>
      <trkpt lat="46.44735" lon="5.22878">
        <ele>230.6</ele>
        <time>2021-12-03T14:17:35Z</time>
      </trkpt>
      <trkpt lat="46.44782" lon="5.22918">
        <ele>230</ele>
        <time>2021-12-03T14:17:42Z</time>
      </trkpt>
      <trkpt lat="46.44788" lon="5.22923">
        <ele>230</ele>
        <time>2021-12-03T14:17:43Z</time>
      </trkpt>
      <trkpt lat="46.44833" lon="5.22955">
        <ele>230</ele>
        <time>2021-12-03T14:17:50Z</time>
      </trkpt>
      <trkpt lat="46.44846" lon="5.2297">
        <ele>230</ele>
        <time>2021-12-03T14:17:52Z</time>
      </trkpt>
      <trkpt lat="46.44854" lon="5.22988">
        <ele>230.2</ele>
        <time>2021-12-03T14:17:54Z</time>
      </trkpt>
      <trkpt lat="46.44876" lon="5.2305">
        <ele>230.4</ele>
        <time>2021-12-03T14:18:01Z</time>
      </trkpt>
      <trkpt lat="46.44883" lon="5.23065">
        <ele>230.4</ele>
        <time>2021-12-03T14:18:03Z</time>
      </trkpt>
      <trkpt lat="46.44894" lon="5.23085">
        <ele>230.6</ele>
        <time>2021-12-03T14:18:06Z</time>
      </trkpt>
      <trkpt lat="46.44911" lon="5.23106">
        <ele>230.8</ele>
        <time>2021-12-03T14:18:10Z</time>
      </trkpt>
      <trkpt lat="46.44916" lon="5.2311">
        <ele>230.8</ele>
        <time>2021-12-03T14:18:11Z</time>
      </trkpt>
      <trkpt lat="46.4492" lon="5.23114">
        <ele>230.8</ele>
        <time>2021-12-03T14:18:12Z</time>
      </trkpt>
      <trkpt lat="46.4493" lon="5.23124">
        <ele>231.2</ele>
        <time>2021-12-03T14:18:15Z</time>
      </trkpt>
      <trkpt lat="46.44936" lon="5.23121">
        <ele>231.2</ele>
        <time>2021-12-03T14:18:17Z</time>
      </trkpt>
      <trkpt lat="46.44938" lon="5.23117">
        <ele>231.2</ele>
        <time>2021-12-03T14:18:18Z</time>
      </trkpt>
      <trkpt lat="46.44948" lon="5.231">
        <ele>231.6</ele>
        <time>2021-12-03T14:18:21Z</time>
      </trkpt>
      <trkpt lat="46.44952" lon="5.23093">
        <ele>231.6</ele>
        <time>2021-12-03T14:18:22Z</time>
      </trkpt>
      <trkpt lat="46.44955" lon="5.23084">
        <ele>231.6</ele>
        <time>2021-12-03T14:18:23Z</time>
      </trkpt>
      <trkpt lat="46.44961" lon="5.23058">
        <ele>231.4</ele>
        <time>2021-12-03T14:18:26Z</time>
      </trkpt>
      <trkpt lat="46.44966" lon="5.23034">
        <ele>231.2</ele>
        <time>2021-12-03T14:18:28Z</time>
      </trkpt>
      <trkpt lat="46.4497" lon="5.23012">
        <ele>231</ele>
        <time>2021-12-03T14:18:30Z</time>
      </trkpt>
      <trkpt lat="46.44979" lon="5.22959">
        <ele>229.8</ele>
        <time>2021-12-03T14:18:35Z</time>
      </trkpt>
      <trkpt lat="46.44983" lon="5.22935">
        <ele>229.6</ele>
        <time>2021-12-03T14:18:37Z</time>
      </trkpt>
      <trkpt lat="46.44989" lon="5.22914">
        <ele>229.6</ele>
        <time>2021-12-03T14:18:39Z</time>
      </trkpt>
      <trkpt lat="46.44993" lon="5.22905">
        <ele>229.6</ele>
        <time>2021-12-03T14:18:40Z</time>
      </trkpt>
      <trkpt lat="46.44997" lon="5.22896">
        <ele>229.6</ele>
        <time>2021-12-03T14:18:41Z</time>
      </trkpt>
      <trkpt lat="46.45013" lon="5.22875">
        <ele>229.6</ele>
        <time>2021-12-03T14:18:44Z</time>
      </trkpt>
      <trkpt lat="46.4503" lon="5.2286">
        <ele>229.6</ele>
        <time>2021-12-03T14:18:47Z</time>
      </trkpt>
      <trkpt lat="46.45049" lon="5.22848">
        <ele>229.8</ele>
        <time>2021-12-03T14:18:50Z</time>
      </trkpt>
      <trkpt lat="46.45068" lon="5.22837">
        <ele>230</ele>
        <time>2021-12-03T14:18:53Z</time>
      </trkpt>
      <trkpt lat="46.45077" lon="5.22824">
        <ele>230.4</ele>
        <time>2021-12-03T14:18:55Z</time>
      </trkpt>
      <trkpt lat="46.45082" lon="5.22796">
        <ele>230.6</ele>
        <time>2021-12-03T14:18:58Z</time>
      </trkpt>
      <trkpt lat="46.45085" lon="5.22777">
        <ele>230.6</ele>
        <time>2021-12-03T14:19:00Z</time>
      </trkpt>
      <trkpt lat="46.45096" lon="5.22718">
        <ele>230.8</ele>
        <time>2021-12-03T14:19:06Z</time>
      </trkpt>
      <trkpt lat="46.45114" lon="5.22666">
        <ele>231</ele>
        <time>2021-12-03T14:19:12Z</time>
      </trkpt>
      <trkpt lat="46.45138" lon="5.22592">
        <ele>231</ele>
        <time>2021-12-03T14:19:20Z</time>
      </trkpt>
      <trkpt lat="46.4514" lon="5.22584">
        <ele>231</ele>
        <time>2021-12-03T14:19:21Z</time>
      </trkpt>
      <trkpt lat="46.45156" lon="5.22517">
        <ele>230.8</ele>
        <time>2021-12-03T14:19:28Z</time>
      </trkpt>
      <trkpt lat="46.45177" lon="5.22442">
        <ele>230.6</ele>
        <time>2021-12-03T14:19:36Z</time>
      </trkpt>
      <trkpt lat="46.4518" lon="5.22433">
        <ele>230.6</ele>
        <time>2021-12-03T14:19:37Z</time>
      </trkpt>
      <trkpt lat="46.45203" lon="5.22374">
        <ele>230.6</ele>
        <time>2021-12-03T14:19:44Z</time>
      </trkpt>
      <trkpt lat="46.45206" lon="5.22366">
        <ele>230.6</ele>
        <time>2021-12-03T14:19:45Z</time>
      </trkpt>
      <trkpt lat="46.45222" lon="5.22324">
        <ele>230.8</ele>
        <time>2021-12-03T14:19:50Z</time>
      </trkpt>
      <trkpt lat="46.45231" lon="5.22311">
        <ele>230.8</ele>
        <time>2021-12-03T14:19:52Z</time>
      </trkpt>
      <trkpt lat="46.45243" lon="5.22301">
        <ele>230.6</ele>
        <time>2021-12-03T14:19:54Z</time>
      </trkpt>
      <trkpt lat="46.45276" lon="5.22283">
        <ele>230.2</ele>
        <time>2021-12-03T14:19:59Z</time>
      </trkpt>
      <trkpt lat="46.45323" lon="5.22256">
        <ele>230</ele>
        <time>2021-12-03T14:20:06Z</time>
      </trkpt>
      <trkpt lat="46.45375" lon="5.22224">
        <ele>230.2</ele>
        <time>2021-12-03T14:20:14Z</time>
      </trkpt>
      <trkpt lat="46.45407" lon="5.222">
        <ele>230</ele>
        <time>2021-12-03T14:20:19Z</time>
      </trkpt>
      <trkpt lat="46.45412" lon="5.22194">
        <ele>230</ele>
        <time>2021-12-03T14:20:20Z</time>
      </trkpt>
      <trkpt lat="46.45436" lon="5.22154">
        <ele>229.6</ele>
        <time>2021-12-03T14:20:25Z</time>
      </trkpt>
      <trkpt lat="46.45445" lon="5.22135">
        <ele>229.4</ele>
        <time>2021-12-03T14:20:27Z</time>
      </trkpt>
      <trkpt lat="46.45459" lon="5.22095">
        <ele>229</ele>
        <time>2021-12-03T14:20:31Z</time>
      </trkpt>
      <trkpt lat="46.45476" lon="5.22045">
        <ele>228.6</ele>
        <time>2021-12-03T14:20:36Z</time>
      </trkpt>
      <trkpt lat="46.45489" lon="5.22007">
        <ele>228.2</ele>
        <time>2021-12-03T14:20:40Z</time>
      </trkpt>
      <trkpt lat="46.45516" lon="5.21937">
        <ele>228.2</ele>
        <time>2021-12-03T14:20:48Z</time>
      </trkpt>
      <trkpt lat="46.45537" lon="5.21882">
        <ele>228.8</ele>
        <time>2021-12-03T14:20:55Z</time>
      </trkpt>
      <trkpt lat="46.45567" lon="5.21815">
        <ele>229.4</ele>
        <time>2021-12-03T14:21:03Z</time>
      </trkpt>
      <trkpt lat="46.45595" lon="5.21746">
        <ele>229.4</ele>
        <time>2021-12-03T14:21:11Z</time>
      </trkpt>
      <trkpt lat="46.45607" lon="5.21716">
        <ele>229.2</ele>
        <time>2021-12-03T14:21:14Z</time>
      </trkpt>
      <trkpt lat="46.45642" lon="5.21645">
        <ele>228.4</ele>
        <time>2021-12-03T14:21:22Z</time>
      </trkpt>
      <trkpt lat="46.45679" lon="5.21584">
        <ele>228.4</ele>
        <time>2021-12-03T14:21:30Z</time>
      </trkpt>
      <trkpt lat="46.45693" lon="5.21563">
        <ele>228.6</ele>
        <time>2021-12-03T14:21:33Z</time>
      </trkpt>
      <trkpt lat="46.45724" lon="5.2153">
        <ele>229.2</ele>
        <time>2021-12-03T14:21:39Z</time>
      </trkpt>
      <trkpt lat="46.45741" lon="5.21518">
        <ele>229.8</ele>
        <time>2021-12-03T14:21:42Z</time>
      </trkpt>
      <trkpt lat="46.4576" lon="5.21508">
        <ele>229.8</ele>
        <time>2021-12-03T14:21:45Z</time>
      </trkpt>
      <trkpt lat="46.45786" lon="5.21496">
        <ele>230.2</ele>
        <time>2021-12-03T14:21:49Z</time>
      </trkpt>
      <trkpt lat="46.458" lon="5.21492">
        <ele>230.2</ele>
        <time>2021-12-03T14:21:51Z</time>
      </trkpt>
      <trkpt lat="46.45845" lon="5.21493">
        <ele>229.8</ele>
        <time>2021-12-03T14:21:57Z</time>
      </trkpt>
      <trkpt lat="46.459" lon="5.21506">
        <ele>229.2</ele>
        <time>2021-12-03T14:22:04Z</time>
      </trkpt>
      <trkpt lat="46.45924" lon="5.21514">
        <ele>228.8</ele>
        <time>2021-12-03T14:22:07Z</time>
      </trkpt>
      <trkpt lat="46.45979" lon="5.21538">
        <ele>228</ele>
        <time>2021-12-03T14:22:14Z</time>
      </trkpt>
      <trkpt lat="46.45989" lon="5.21544">
        <ele>227.8</ele>
        <time>2021-12-03T14:22:15Z</time>
      </trkpt>
      <trkpt lat="46.45996" lon="5.21548">
        <ele>227.8</ele>
        <time>2021-12-03T14:22:16Z</time>
      </trkpt>
      <trkpt lat="46.46029" lon="5.21574">
        <ele>226.6</ele>
        <time>2021-12-03T14:22:20Z</time>
      </trkpt>
      <trkpt lat="46.4605" lon="5.21597">
        <ele>225.6</ele>
        <time>2021-12-03T14:22:23Z</time>
      </trkpt>
      <trkpt lat="46.46076" lon="5.21628">
        <ele>225.4</ele>
        <time>2021-12-03T14:22:27Z</time>
      </trkpt>
      <trkpt lat="46.46119" lon="5.21682">
        <ele>225.2</ele>
        <time>2021-12-03T14:22:34Z</time>
      </trkpt>
      <trkpt lat="46.46125" lon="5.2169">
        <ele>225.2</ele>
        <time>2021-12-03T14:22:35Z</time>
      </trkpt>
      <trkpt lat="46.46154" lon="5.2174">
        <ele>225.4</ele>
        <time>2021-12-03T14:22:41Z</time>
      </trkpt>
      <trkpt lat="46.46185" lon="5.2179">
        <ele>225</ele>
        <time>2021-12-03T14:22:46Z</time>
      </trkpt>
      <trkpt lat="46.46198" lon="5.2181">
        <ele>224.4</ele>
        <time>2021-12-03T14:22:48Z</time>
      </trkpt>
      <trkpt lat="46.4621" lon="5.21828">
        <ele>223.2</ele>
        <time>2021-12-03T14:22:50Z</time>
      </trkpt>
      <trkpt lat="46.46225" lon="5.2185">
        <ele>222</ele>
        <time>2021-12-03T14:22:52Z</time>
      </trkpt>
      <trkpt lat="46.46249" lon="5.21888">
        <ele>220.8</ele>
        <time>2021-12-03T14:22:56Z</time>
      </trkpt>
      <trkpt lat="46.46261" lon="5.21906">
        <ele>220.2</ele>
        <time>2021-12-03T14:22:58Z</time>
      </trkpt>
      <trkpt lat="46.46274" lon="5.21922">
        <ele>219.8</ele>
        <time>2021-12-03T14:23:00Z</time>
      </trkpt>
      <trkpt lat="46.46289" lon="5.21935">
        <ele>219.4</ele>
        <time>2021-12-03T14:23:02Z</time>
      </trkpt>
      <trkpt lat="46.46295" lon="5.21939">
        <ele>219.4</ele>
        <time>2021-12-03T14:23:03Z</time>
      </trkpt>
      <trkpt lat="46.46323" lon="5.21956">
        <ele>219.4</ele>
        <time>2021-12-03T14:23:07Z</time>
      </trkpt>
      <trkpt lat="46.46355" lon="5.21972">
        <ele>221</ele>
        <time>2021-12-03T14:23:12Z</time>
      </trkpt>
      <trkpt lat="46.46361" lon="5.21975">
        <ele>221.4</ele>
        <time>2021-12-03T14:23:13Z</time>
      </trkpt>
      <trkpt lat="46.46379" lon="5.21984">
        <ele>222.2</ele>
        <time>2021-12-03T14:23:16Z</time>
      </trkpt>
      <trkpt lat="46.46405" lon="5.21992">
        <ele>223.2</ele>
        <time>2021-12-03T14:23:20Z</time>
      </trkpt>
      <trkpt lat="46.46411" lon="5.21992">
        <ele>223.4</ele>
        <time>2021-12-03T14:23:21Z</time>
      </trkpt>
      <trkpt lat="46.46448" lon="5.21996">
        <ele>224.2</ele>
        <time>2021-12-03T14:23:27Z</time>
      </trkpt>
      <trkpt lat="46.46454" lon="5.21997">
        <ele>224.6</ele>
        <time>2021-12-03T14:23:28Z</time>
      </trkpt>
      <trkpt lat="46.4649" lon="5.22007">
        <ele>225.6</ele>
        <time>2021-12-03T14:23:34Z</time>
      </trkpt>
      <trkpt lat="46.46496" lon="5.22009">
        <ele>225.8</ele>
        <time>2021-12-03T14:23:35Z</time>
      </trkpt>
      <trkpt lat="46.46549" lon="5.22027">
        <ele>226</ele>
        <time>2021-12-03T14:23:43Z</time>
      </trkpt>
      <trkpt lat="46.46556" lon="5.22029">
        <ele>225.8</ele>
        <time>2021-12-03T14:23:44Z</time>
      </trkpt>
      <trkpt lat="46.4657" lon="5.22031">
        <ele>225.8</ele>
        <time>2021-12-03T14:23:46Z</time>
      </trkpt>
      <trkpt lat="46.46578" lon="5.2203">
        <ele>225.6</ele>
        <time>2021-12-03T14:23:47Z</time>
      </trkpt>
      <trkpt lat="46.46638" lon="5.22017">
        <ele>224.6</ele>
        <time>2021-12-03T14:23:55Z</time>
      </trkpt>
      <trkpt lat="46.46653" lon="5.22016">
        <ele>224.6</ele>
        <time>2021-12-03T14:23:57Z</time>
      </trkpt>
      <trkpt lat="46.467" lon="5.22014">
        <ele>223.6</ele>
        <time>2021-12-03T14:24:03Z</time>
      </trkpt>
      <trkpt lat="46.46719" lon="5.22013">
        <ele>223</ele>
        <time>2021-12-03T14:24:05Z</time>
      </trkpt>
      <trkpt lat="46.46745" lon="5.22012">
        <ele>222.2</ele>
        <time>2021-12-03T14:24:08Z</time>
      </trkpt>
      <trkpt lat="46.46767" lon="5.22006">
        <ele>221</ele>
        <time>2021-12-03T14:24:11Z</time>
      </trkpt>
      <trkpt lat="46.46793" lon="5.21997">
        <ele>220.4</ele>
        <time>2021-12-03T14:24:14Z</time>
      </trkpt>
      <trkpt lat="46.46802" lon="5.21996">
        <ele>220.2</ele>
        <time>2021-12-03T14:24:15Z</time>
      </trkpt>
      <trkpt lat="46.46811" lon="5.21999">
        <ele>220</ele>
        <time>2021-12-03T14:24:16Z</time>
      </trkpt>
      <trkpt lat="46.4682" lon="5.22004">
        <ele>219.6</ele>
        <time>2021-12-03T14:24:17Z</time>
      </trkpt>
      <trkpt lat="46.46828" lon="5.22012">
        <ele>219.2</ele>
        <time>2021-12-03T14:24:18Z</time>
      </trkpt>
      <trkpt lat="46.46842" lon="5.22033">
        <ele>218.4</ele>
        <time>2021-12-03T14:24:20Z</time>
      </trkpt>
      <trkpt lat="46.46846" lon="5.22043">
        <ele>218</ele>
        <time>2021-12-03T14:24:21Z</time>
      </trkpt>
      <trkpt lat="46.46858" lon="5.22071">
        <ele>217.2</ele>
        <time>2021-12-03T14:24:23Z</time>
      </trkpt>
      <trkpt lat="46.46876" lon="5.22107">
        <ele>215.8</ele>
        <time>2021-12-03T14:24:26Z</time>
      </trkpt>
      <trkpt lat="46.46883" lon="5.22117">
        <ele>214</ele>
        <time>2021-12-03T14:24:27Z</time>
      </trkpt>
      <trkpt lat="46.46893" lon="5.22124">
        <ele>213.4</ele>
        <time>2021-12-03T14:24:28Z</time>
      </trkpt>
      <trkpt lat="46.46901" lon="5.22128">
        <ele>212.6</ele>
        <time>2021-12-03T14:24:29Z</time>
      </trkpt>
      <trkpt lat="46.46911" lon="5.22131">
        <ele>212.4</ele>
        <time>2021-12-03T14:24:30Z</time>
      </trkpt>
      <trkpt lat="46.46933" lon="5.22133">
        <ele>211.6</ele>
        <time>2021-12-03T14:24:32Z</time>
      </trkpt>
      <trkpt lat="46.46951" lon="5.22132">
        <ele>210</ele>
        <time>2021-12-03T14:24:34Z</time>
      </trkpt>
      <trkpt lat="46.46992" lon="5.2213">
        <ele>209.6</ele>
        <time>2021-12-03T14:24:39Z</time>
      </trkpt>
      <trkpt lat="46.47035" lon="5.22128">
        <ele>211.4</ele>
        <time>2021-12-03T14:24:45Z</time>
      </trkpt>
      <trkpt lat="46.47053" lon="5.22132">
        <ele>212.6</ele>
        <time>2021-12-03T14:24:48Z</time>
      </trkpt>
      <trkpt lat="46.47072" lon="5.22137">
        <ele>213.8</ele>
        <time>2021-12-03T14:24:51Z</time>
      </trkpt>
      <trkpt lat="46.47077" lon="5.22139">
        <ele>214.2</ele>
        <time>2021-12-03T14:24:52Z</time>
      </trkpt>
      <trkpt lat="46.47091" lon="5.22143">
        <ele>215.2</ele>
        <time>2021-12-03T14:24:54Z</time>
      </trkpt>
      <trkpt lat="46.47115" lon="5.22152">
        <ele>216.4</ele>
        <time>2021-12-03T14:24:58Z</time>
      </trkpt>
      <trkpt lat="46.47127" lon="5.22156">
        <ele>216.6</ele>
        <time>2021-12-03T14:25:00Z</time>
      </trkpt>
      <trkpt lat="46.47163" lon="5.2217">
        <ele>217.4</ele>
        <time>2021-12-03T14:25:06Z</time>
      </trkpt>
      <trkpt lat="46.4717" lon="5.22173">
        <ele>217.8</ele>
        <time>2021-12-03T14:25:07Z</time>
      </trkpt>
      <trkpt lat="46.47214" lon="5.2219">
        <ele>218.6</ele>
        <time>2021-12-03T14:25:15Z</time>
      </trkpt>
      <trkpt lat="46.47225" lon="5.22195">
        <ele>218.8</ele>
        <time>2021-12-03T14:25:17Z</time>
      </trkpt>
      <trkpt lat="46.47251" lon="5.22204">
        <ele>219.6</ele>
        <time>2021-12-03T14:25:22Z</time>
      </trkpt>
      <trkpt lat="46.47261" lon="5.22208">
        <ele>219.8</ele>
        <time>2021-12-03T14:25:24Z</time>
      </trkpt>
      <trkpt lat="46.47281" lon="5.22217">
        <ele>220.6</ele>
        <time>2021-12-03T14:25:28Z</time>
      </trkpt>
      <trkpt lat="46.47323" lon="5.22232">
        <ele>221.6</ele>
        <time>2021-12-03T14:25:36Z</time>
      </trkpt>
      <trkpt lat="46.47328" lon="5.22234">
        <ele>221.8</ele>
        <time>2021-12-03T14:25:37Z</time>
      </trkpt>
      <trkpt lat="46.47348" lon="5.22241">
        <ele>222.8</ele>
        <time>2021-12-03T14:25:41Z</time>
      </trkpt>
      <trkpt lat="46.47368" lon="5.2225">
        <ele>223.2</ele>
        <time>2021-12-03T14:25:45Z</time>
      </trkpt>
      <trkpt lat="46.47381" lon="5.22259">
        <ele>223.8</ele>
        <time>2021-12-03T14:25:48Z</time>
      </trkpt>
      <trkpt lat="46.47407" lon="5.22274">
        <ele>224.2</ele>
        <time>2021-12-03T14:25:53Z</time>
      </trkpt>
      <trkpt lat="46.47442" lon="5.22292">
        <ele>224.4</ele>
        <time>2021-12-03T14:25:59Z</time>
      </trkpt>
      <trkpt lat="46.47495" lon="5.22321">
        <ele>224.2</ele>
        <time>2021-12-03T14:26:08Z</time>
      </trkpt>
      <trkpt lat="46.47543" lon="5.22346">
        <ele>224.2</ele>
        <time>2021-12-03T14:26:16Z</time>
      </trkpt>
      <trkpt lat="46.47594" lon="5.22369">
        <ele>224.6</ele>
        <time>2021-12-03T14:26:25Z</time>
      </trkpt>
      <trkpt lat="46.47606" lon="5.22373">
        <ele>225</ele>
        <time>2021-12-03T14:26:27Z</time>
      </trkpt>
      <trkpt lat="46.47646" lon="5.22388">
        <ele>225.2</ele>
        <time>2021-12-03T14:26:34Z</time>
      </trkpt>
      <trkpt lat="46.47668" lon="5.22394">
        <ele>226</ele>
        <time>2021-12-03T14:26:38Z</time>
      </trkpt>
      <trkpt lat="46.47685" lon="5.22396">
        <ele>226</ele>
        <time>2021-12-03T14:26:41Z</time>
      </trkpt>
      <trkpt lat="46.47712" lon="5.22396">
        <ele>227.4</ele>
        <time>2021-12-03T14:26:46Z</time>
      </trkpt>
      <trkpt lat="46.4774" lon="5.22398">
        <ele>227.6</ele>
        <time>2021-12-03T14:26:51Z</time>
      </trkpt>
      <trkpt lat="46.47763" lon="5.224">
        <ele>227.6</ele>
        <time>2021-12-03T14:26:55Z</time>
      </trkpt>
      <trkpt lat="46.47772" lon="5.22403">
        <ele>227.4</ele>
        <time>2021-12-03T14:26:57Z</time>
      </trkpt>
      <trkpt lat="46.47778" lon="5.22414">
        <ele>227.2</ele>
        <time>2021-12-03T14:26:59Z</time>
      </trkpt>
      <trkpt lat="46.47779" lon="5.22421">
        <ele>227.2</ele>
        <time>2021-12-03T14:27:00Z</time>
      </trkpt>
      <trkpt lat="46.47781" lon="5.22438">
        <ele>227.4</ele>
        <time>2021-12-03T14:27:02Z</time>
      </trkpt>
      <trkpt lat="46.47788" lon="5.22473">
        <ele>227.4</ele>
        <time>2021-12-03T14:27:06Z</time>
      </trkpt>
      <trkpt lat="46.478" lon="5.22528">
        <ele>227.2</ele>
        <time>2021-12-03T14:27:12Z</time>
      </trkpt>
      <trkpt lat="46.47808" lon="5.22555">
        <ele>227.2</ele>
        <time>2021-12-03T14:27:15Z</time>
      </trkpt>
      <trkpt lat="46.47816" lon="5.22571">
        <ele>227</ele>
        <time>2021-12-03T14:27:17Z</time>
      </trkpt>
      <trkpt lat="46.47844" lon="5.22607">
        <ele>226.8</ele>
        <time>2021-12-03T14:27:22Z</time>
      </trkpt>
      <trkpt lat="46.47857" lon="5.2262">
        <ele>226.2</ele>
        <time>2021-12-03T14:27:24Z</time>
      </trkpt>
      <trkpt lat="46.47879" lon="5.22642">
        <ele>224.8</ele>
        <time>2021-12-03T14:27:27Z</time>
      </trkpt>
      <trkpt lat="46.47886" lon="5.2265">
        <ele>224.4</ele>
        <time>2021-12-03T14:27:28Z</time>
      </trkpt>
      <trkpt lat="46.47901" lon="5.22666">
        <ele>223.4</ele>
        <time>2021-12-03T14:27:30Z</time>
      </trkpt>
      <trkpt lat="46.47924" lon="5.22691">
        <ele>222.2</ele>
        <time>2021-12-03T14:27:33Z</time>
      </trkpt>
      <trkpt lat="46.4794" lon="5.22708">
        <ele>221.2</ele>
        <time>2021-12-03T14:27:35Z</time>
      </trkpt>
      <trkpt lat="46.47963" lon="5.22736">
        <ele>219.6</ele>
        <time>2021-12-03T14:27:38Z</time>
      </trkpt>
      <trkpt lat="46.47977" lon="5.22757">
        <ele>218.8</ele>
        <time>2021-12-03T14:27:40Z</time>
      </trkpt>
      <trkpt lat="46.47982" lon="5.22769">
        <ele>217.8</ele>
        <time>2021-12-03T14:27:41Z</time>
      </trkpt>
      <trkpt lat="46.47995" lon="5.22806">
        <ele>216.8</ele>
        <time>2021-12-03T14:27:44Z</time>
      </trkpt>
      <trkpt lat="46.47999" lon="5.22818">
        <ele>216.4</ele>
        <time>2021-12-03T14:27:45Z</time>
      </trkpt>
      <trkpt lat="46.48012" lon="5.22855">
        <ele>215.8</ele>
        <time>2021-12-03T14:27:48Z</time>
      </trkpt>
      <trkpt lat="46.48033" lon="5.22916">
        <ele>214.6</ele>
        <time>2021-12-03T14:27:53Z</time>
      </trkpt>
      <trkpt lat="46.48043" lon="5.22956">
        <ele>213.6</ele>
        <time>2021-12-03T14:27:56Z</time>
      </trkpt>
      <trkpt lat="46.48044" lon="5.2297">
        <ele>213.4</ele>
        <time>2021-12-03T14:27:57Z</time>
      </trkpt>
      <trkpt lat="46.48046" lon="5.23026">
        <ele>211.8</ele>
        <time>2021-12-03T14:28:01Z</time>
      </trkpt>
      <trkpt lat="46.48047" lon="5.23053">
        <ele>210.8</ele>
        <time>2021-12-03T14:28:03Z</time>
      </trkpt>
      <trkpt lat="46.48048" lon="5.23136">
        <ele>209.8</ele>
        <time>2021-12-03T14:28:09Z</time>
      </trkpt>
      <trkpt lat="46.48049" lon="5.2318">
        <ele>208.8</ele>
        <time>2021-12-03T14:28:12Z</time>
      </trkpt>
      <trkpt lat="46.48049" lon="5.23209">
        <ele>207.6</ele>
        <time>2021-12-03T14:28:14Z</time>
      </trkpt>
      <trkpt lat="46.4805" lon="5.23251">
        <ele>206.2</ele>
        <time>2021-12-03T14:28:17Z</time>
      </trkpt>
      <trkpt lat="46.48051" lon="5.23304">
        <ele>205.4</ele>
        <time>2021-12-03T14:28:21Z</time>
      </trkpt>
      <trkpt lat="46.48052" lon="5.23343">
        <ele>205.2</ele>
        <time>2021-12-03T14:28:24Z</time>
      </trkpt>
      <trkpt lat="46.48053" lon="5.23404">
        <ele>204.6</ele>
        <time>2021-12-03T14:28:29Z</time>
      </trkpt>
      <trkpt lat="46.48055" lon="5.23485">
        <ele>204.6</ele>
        <time>2021-12-03T14:28:36Z</time>
      </trkpt>
      <trkpt lat="46.48057" lon="5.23574">
        <ele>204.4</ele>
        <time>2021-12-03T14:28:44Z</time>
      </trkpt>
      <trkpt lat="46.48059" lon="5.23606">
        <ele>204.4</ele>
        <time>2021-12-03T14:28:47Z</time>
      </trkpt>
      <trkpt lat="46.48067" lon="5.23665">
        <ele>204.2</ele>
        <time>2021-12-03T14:28:53Z</time>
      </trkpt>
      <trkpt lat="46.48087" lon="5.23726">
        <ele>204.8</ele>
        <time>2021-12-03T14:29:00Z</time>
      </trkpt>
      <trkpt lat="46.48117" lon="5.23777">
        <ele>205.4</ele>
        <time>2021-12-03T14:29:07Z</time>
      </trkpt>
      <trkpt lat="46.48162" lon="5.23831">
        <ele>206.2</ele>
        <time>2021-12-03T14:29:16Z</time>
      </trkpt>
      <trkpt lat="46.48167" lon="5.23837">
        <ele>206.2</ele>
        <time>2021-12-03T14:29:17Z</time>
      </trkpt>
      <trkpt lat="46.48172" lon="5.23846">
        <ele>206.2</ele>
        <time>2021-12-03T14:29:18Z</time>
      </trkpt>
      <trkpt lat="46.48179" lon="5.2386">
        <ele>206.6</ele>
        <time>2021-12-03T14:29:20Z</time>
      </trkpt>
      <trkpt lat="46.48187" lon="5.23896">
        <ele>206.6</ele>
        <time>2021-12-03T14:29:24Z</time>
      </trkpt>
      <trkpt lat="46.48188" lon="5.23906">
        <ele>206.6</ele>
        <time>2021-12-03T14:29:25Z</time>
      </trkpt>
      <trkpt lat="46.48188" lon="5.23915">
        <ele>206.8</ele>
        <time>2021-12-03T14:29:26Z</time>
      </trkpt>
      <trkpt lat="46.48186" lon="5.23932">
        <ele>206.8</ele>
        <time>2021-12-03T14:29:28Z</time>
      </trkpt>
      <trkpt lat="46.48184" lon="5.23941">
        <ele>207</ele>
        <time>2021-12-03T14:29:29Z</time>
      </trkpt>
      <trkpt lat="46.48171" lon="5.23983">
        <ele>207.4</ele>
        <time>2021-12-03T14:29:35Z</time>
      </trkpt>
      <trkpt lat="46.48163" lon="5.24002">
        <ele>208.6</ele>
        <time>2021-12-03T14:29:38Z</time>
      </trkpt>
      <trkpt lat="46.48153" lon="5.24025">
        <ele>209.4</ele>
        <time>2021-12-03T14:29:42Z</time>
      </trkpt>
      <trkpt lat="46.4815" lon="5.2403">
        <ele>209.8</ele>
        <time>2021-12-03T14:29:43Z</time>
      </trkpt>
      <trkpt lat="46.48143" lon="5.24053">
        <ele>210.8</ele>
        <time>2021-12-03T14:29:47Z</time>
      </trkpt>
      <trkpt lat="46.4814" lon="5.24059">
        <ele>211</ele>
        <time>2021-12-03T14:29:48Z</time>
      </trkpt>
      <trkpt lat="46.48137" lon="5.24069">
        <ele>211.8</ele>
        <time>2021-12-03T14:29:50Z</time>
      </trkpt>
      <trkpt lat="46.48135" lon="5.24074">
        <ele>212</ele>
        <time>2021-12-03T14:29:51Z</time>
      </trkpt>
      <trkpt lat="46.48128" lon="5.24096">
        <ele>213</ele>
        <time>2021-12-03T14:29:55Z</time>
      </trkpt>
      <trkpt lat="46.48118" lon="5.24118">
        <ele>214.2</ele>
        <time>2021-12-03T14:29:59Z</time>
      </trkpt>
      <trkpt lat="46.48111" lon="5.24135">
        <ele>215</ele>
        <time>2021-12-03T14:30:02Z</time>
      </trkpt>
      <trkpt lat="46.48107" lon="5.24146">
        <ele>215.4</ele>
        <time>2021-12-03T14:30:04Z</time>
      </trkpt>
      <trkpt lat="46.48099" lon="5.24166">
        <ele>216.6</ele>
        <time>2021-12-03T14:30:08Z</time>
      </trkpt>
      <trkpt lat="46.48093" lon="5.24181">
        <ele>217.4</ele>
        <time>2021-12-03T14:30:11Z</time>
      </trkpt>
      <trkpt lat="46.48092" lon="5.24186">
        <ele>217.8</ele>
        <time>2021-12-03T14:30:12Z</time>
      </trkpt>
      <trkpt lat="46.48083" lon="5.24211">
        <ele>218.8</ele>
        <time>2021-12-03T14:30:17Z</time>
      </trkpt>
      <trkpt lat="46.48075" lon="5.24231">
        <ele>219.8</ele>
        <time>2021-12-03T14:30:21Z</time>
      </trkpt>
      <trkpt lat="46.48074" lon="5.24236">
        <ele>220</ele>
        <time>2021-12-03T14:30:22Z</time>
      </trkpt>
      <trkpt lat="46.48069" lon="5.24259">
        <ele>221.2</ele>
        <time>2021-12-03T14:30:26Z</time>
      </trkpt>
      <trkpt lat="46.48069" lon="5.24265">
        <ele>221.4</ele>
        <time>2021-12-03T14:30:27Z</time>
      </trkpt>
      <trkpt lat="46.4807" lon="5.24283">
        <ele>222.4</ele>
        <time>2021-12-03T14:30:30Z</time>
      </trkpt>
      <trkpt lat="46.48074" lon="5.24298">
        <ele>222.8</ele>
        <time>2021-12-03T14:30:33Z</time>
      </trkpt>
      <trkpt lat="46.48078" lon="5.24308">
        <ele>223.4</ele>
        <time>2021-12-03T14:30:35Z</time>
      </trkpt>
      <trkpt lat="46.4809" lon="5.24323">
        <ele>224.4</ele>
        <time>2021-12-03T14:30:39Z</time>
      </trkpt>
      <trkpt lat="46.48104" lon="5.24336">
        <ele>225.6</ele>
        <time>2021-12-03T14:30:43Z</time>
      </trkpt>
      <trkpt lat="46.48108" lon="5.24345">
        <ele>226.2</ele>
        <time>2021-12-03T14:30:45Z</time>
      </trkpt>
      <trkpt lat="46.48108" lon="5.24351">
        <ele>226.4</ele>
        <time>2021-12-03T14:30:46Z</time>
      </trkpt>
      <trkpt lat="46.48107" lon="5.24356">
        <ele>226.6</ele>
        <time>2021-12-03T14:30:47Z</time>
      </trkpt>
      <trkpt lat="46.48106" lon="5.24361">
        <ele>227</ele>
        <time>2021-12-03T14:30:48Z</time>
      </trkpt>
      <trkpt lat="46.48092" lon="5.24378">
        <ele>228</ele>
        <time>2021-12-03T14:30:52Z</time>
      </trkpt>
      <trkpt lat="46.4806" lon="5.24404">
        <ele>228.6</ele>
        <time>2021-12-03T14:30:59Z</time>
      </trkpt>
      <trkpt lat="46.48015" lon="5.24434">
        <ele>228.6</ele>
        <time>2021-12-03T14:31:08Z</time>
      </trkpt>
      <trkpt lat="46.47975" lon="5.24461">
        <ele>229</ele>
        <time>2021-12-03T14:31:16Z</time>
      </trkpt>
      <trkpt lat="46.4797" lon="5.24465">
        <ele>229.2</ele>
        <time>2021-12-03T14:31:17Z</time>
      </trkpt>
      <trkpt lat="46.47929" lon="5.2449">
        <ele>229.8</ele>
        <time>2021-12-03T14:31:25Z</time>
      </trkpt>
      <trkpt lat="46.47919" lon="5.24495">
        <ele>230.2</ele>
        <time>2021-12-03T14:31:27Z</time>
      </trkpt>
      <trkpt lat="46.47897" lon="5.24498">
        <ele>230.6</ele>
        <time>2021-12-03T14:31:31Z</time>
      </trkpt>
      <trkpt lat="46.47841" lon="5.24496">
        <ele>230.8</ele>
        <time>2021-12-03T14:31:40Z</time>
      </trkpt>
      <trkpt lat="46.47786" lon="5.24498">
        <ele>229.8</ele>
        <time>2021-12-03T14:31:48Z</time>
      </trkpt>
      <trkpt lat="46.47772" lon="5.245">
        <ele>229.6</ele>
        <time>2021-12-03T14:31:50Z</time>
      </trkpt>
      <trkpt lat="46.47758" lon="5.24504">
        <ele>229.2</ele>
        <time>2021-12-03T14:31:52Z</time>
      </trkpt>
      <trkpt lat="46.47716" lon="5.24515">
        <ele>228.2</ele>
        <time>2021-12-03T14:31:58Z</time>
      </trkpt>
      <trkpt lat="46.4771" lon="5.24518">
        <ele>228.2</ele>
        <time>2021-12-03T14:31:59Z</time>
      </trkpt>
      <trkpt lat="46.47672" lon="5.24535">
        <ele>228</ele>
        <time>2021-12-03T14:32:05Z</time>
      </trkpt>
      <trkpt lat="46.47617" lon="5.24566">
        <ele>228</ele>
        <time>2021-12-03T14:32:14Z</time>
      </trkpt>
      <trkpt lat="46.47605" lon="5.24573">
        <ele>228</ele>
        <time>2021-12-03T14:32:16Z</time>
      </trkpt>
      <trkpt lat="46.47554" lon="5.24603">
        <ele>227.6</ele>
        <time>2021-12-03T14:32:24Z</time>
      </trkpt>
      <trkpt lat="46.47548" lon="5.24607">
        <ele>227.6</ele>
        <time>2021-12-03T14:32:25Z</time>
      </trkpt>
      <trkpt lat="46.47528" lon="5.24617">
        <ele>227.2</ele>
        <time>2021-12-03T14:32:28Z</time>
      </trkpt>
      <trkpt lat="46.47495" lon="5.24631">
        <ele>226.6</ele>
        <time>2021-12-03T14:32:33Z</time>
      </trkpt>
      <trkpt lat="46.47468" lon="5.24636">
        <ele>226.2</ele>
        <time>2021-12-03T14:32:37Z</time>
      </trkpt>
      <trkpt lat="46.47441" lon="5.24639">
        <ele>226</ele>
        <time>2021-12-03T14:32:41Z</time>
      </trkpt>
      <trkpt lat="46.47388" lon="5.24644">
        <ele>225.6</ele>
        <time>2021-12-03T14:32:49Z</time>
      </trkpt>
      <trkpt lat="46.47338" lon="5.24647">
        <ele>225</ele>
        <time>2021-12-03T14:32:56Z</time>
      </trkpt>
      <trkpt lat="46.47318" lon="5.24648">
        <ele>224.6</ele>
        <time>2021-12-03T14:32:59Z</time>
      </trkpt>
      <trkpt lat="46.47288" lon="5.2465">
        <ele>224</ele>
        <time>2021-12-03T14:33:03Z</time>
      </trkpt>
      <trkpt lat="46.47257" lon="5.24653">
        <ele>223</ele>
        <time>2021-12-03T14:33:07Z</time>
      </trkpt>
      <trkpt lat="46.47249" lon="5.24653">
        <ele>222.8</ele>
        <time>2021-12-03T14:33:08Z</time>
      </trkpt>
      <trkpt lat="46.47209" lon="5.24651">
        <ele>221.4</ele>
        <time>2021-12-03T14:33:13Z</time>
      </trkpt>
      <trkpt lat="46.47186" lon="5.2465">
        <ele>220.6</ele>
        <time>2021-12-03T14:33:16Z</time>
      </trkpt>
      <trkpt lat="46.47178" lon="5.24649">
        <ele>220</ele>
        <time>2021-12-03T14:33:17Z</time>
      </trkpt>
      <trkpt lat="46.47148" lon="5.24642">
        <ele>219</ele>
        <time>2021-12-03T14:33:21Z</time>
      </trkpt>
      <trkpt lat="46.47141" lon="5.24638">
        <ele>218.8</ele>
        <time>2021-12-03T14:33:22Z</time>
      </trkpt>
      <trkpt lat="46.47111" lon="5.24626">
        <ele>218.2</ele>
        <time>2021-12-03T14:33:26Z</time>
      </trkpt>
      <trkpt lat="46.47104" lon="5.24628">
        <ele>217.8</ele>
        <time>2021-12-03T14:33:27Z</time>
      </trkpt>
      <trkpt lat="46.47097" lon="5.24633">
        <ele>217</ele>
        <time>2021-12-03T14:33:28Z</time>
      </trkpt>
      <trkpt lat="46.47088" lon="5.2465">
        <ele>216.4</ele>
        <time>2021-12-03T14:33:30Z</time>
      </trkpt>
      <trkpt lat="46.47084" lon="5.24671">
        <ele>215.8</ele>
        <time>2021-12-03T14:33:32Z</time>
      </trkpt>
      <trkpt lat="46.47077" lon="5.2469">
        <ele>215.6</ele>
        <time>2021-12-03T14:33:34Z</time>
      </trkpt>
      <trkpt lat="46.47066" lon="5.24719">
        <ele>215.4</ele>
        <time>2021-12-03T14:33:37Z</time>
      </trkpt>
      <trkpt lat="46.47055" lon="5.24739">
        <ele>215.2</ele>
        <time>2021-12-03T14:33:39Z</time>
      </trkpt>
      <trkpt lat="46.4702" lon="5.24786">
        <ele>213.8</ele>
        <time>2021-12-03T14:33:44Z</time>
      </trkpt>
      <trkpt lat="46.46986" lon="5.24818">
        <ele>212</ele>
        <time>2021-12-03T14:33:48Z</time>
      </trkpt>
      <trkpt lat="46.46977" lon="5.24826">
        <ele>211.2</ele>
        <time>2021-12-03T14:33:49Z</time>
      </trkpt>
      <trkpt lat="46.46969" lon="5.24833">
        <ele>210.8</ele>
        <time>2021-12-03T14:33:50Z</time>
      </trkpt>
      <trkpt lat="46.46952" lon="5.24847">
        <ele>209.8</ele>
        <time>2021-12-03T14:33:52Z</time>
      </trkpt>
      <trkpt lat="46.46928" lon="5.24866">
        <ele>209.4</ele>
        <time>2021-12-03T14:33:55Z</time>
      </trkpt>
      <trkpt lat="46.46891" lon="5.24896">
        <ele>209.8</ele>
        <time>2021-12-03T14:34:01Z</time>
      </trkpt>
      <trkpt lat="46.46867" lon="5.24915">
        <ele>211</ele>
        <time>2021-12-03T14:34:05Z</time>
      </trkpt>
      <trkpt lat="46.4685" lon="5.24929">
        <ele>211.8</ele>
        <time>2021-12-03T14:34:08Z</time>
      </trkpt>
      <trkpt lat="46.46845" lon="5.24934">
        <ele>212</ele>
        <time>2021-12-03T14:34:09Z</time>
      </trkpt>
      <trkpt lat="46.4683" lon="5.24946">
        <ele>212.4</ele>
        <time>2021-12-03T14:34:12Z</time>
      </trkpt>
      <trkpt lat="46.46825" lon="5.2495">
        <ele>212.6</ele>
        <time>2021-12-03T14:34:13Z</time>
      </trkpt>
      <trkpt lat="46.46812" lon="5.24963">
        <ele>212.8</ele>
        <time>2021-12-03T14:34:16Z</time>
      </trkpt>
      <trkpt lat="46.46808" lon="5.24967">
        <ele>212.8</ele>
        <time>2021-12-03T14:34:17Z</time>
      </trkpt>
      <trkpt lat="46.46804" lon="5.24971">
        <ele>213</ele>
        <time>2021-12-03T14:34:18Z</time>
      </trkpt>
      <trkpt lat="46.46787" lon="5.24984">
        <ele>213.6</ele>
        <time>2021-12-03T14:34:22Z</time>
      </trkpt>
      <trkpt lat="46.46783" lon="5.24987">
        <ele>213.6</ele>
        <time>2021-12-03T14:34:23Z</time>
      </trkpt>
      <trkpt lat="46.46775" lon="5.24996">
        <ele>214.2</ele>
        <time>2021-12-03T14:34:25Z</time>
      </trkpt>
      <trkpt lat="46.46767" lon="5.25004">
        <ele>214.8</ele>
        <time>2021-12-03T14:34:27Z</time>
      </trkpt>
      <trkpt lat="46.46757" lon="5.25014">
        <ele>215.4</ele>
        <time>2021-12-03T14:34:29Z</time>
      </trkpt>
      <trkpt lat="46.46751" lon="5.25018">
        <ele>215.4</ele>
        <time>2021-12-03T14:34:30Z</time>
      </trkpt>
      <trkpt lat="46.46713" lon="5.25048">
        <ele>215.8</ele>
        <time>2021-12-03T14:34:36Z</time>
      </trkpt>
      <trkpt lat="46.46662" lon="5.25085">
        <ele>215.8</ele>
        <time>2021-12-03T14:34:44Z</time>
      </trkpt>
      <trkpt lat="46.4663" lon="5.25111">
        <ele>216</ele>
        <time>2021-12-03T14:34:50Z</time>
      </trkpt>
      <trkpt lat="46.46619" lon="5.25117">
        <ele>216.4</ele>
        <time>2021-12-03T14:34:52Z</time>
      </trkpt>
      <trkpt lat="46.46601" lon="5.25132">
        <ele>217.2</ele>
        <time>2021-12-03T14:34:56Z</time>
      </trkpt>
      <trkpt lat="46.46581" lon="5.25149">
        <ele>217.6</ele>
        <time>2021-12-03T14:35:00Z</time>
      </trkpt>
      <trkpt lat="46.46562" lon="5.25167">
        <ele>217.8</ele>
        <time>2021-12-03T14:35:04Z</time>
      </trkpt>
      <trkpt lat="46.46538" lon="5.25188">
        <ele>218.2</ele>
        <time>2021-12-03T14:35:09Z</time>
      </trkpt>
      <trkpt lat="46.46529" lon="5.25196">
        <ele>218.4</ele>
        <time>2021-12-03T14:35:11Z</time>
      </trkpt>
      <trkpt lat="46.46501" lon="5.2522">
        <ele>218.6</ele>
        <time>2021-12-03T14:35:17Z</time>
      </trkpt>
      <trkpt lat="46.4649" lon="5.25226">
        <ele>218.8</ele>
        <time>2021-12-03T14:35:19Z</time>
      </trkpt>
      <trkpt lat="46.46466" lon="5.25243">
        <ele>219</ele>
        <time>2021-12-03T14:35:24Z</time>
      </trkpt>
      <trkpt lat="46.46458" lon="5.25249">
        <ele>219.6</ele>
        <time>2021-12-03T14:35:26Z</time>
      </trkpt>
      <trkpt lat="46.46453" lon="5.25253">
        <ele>219.8</ele>
        <time>2021-12-03T14:35:27Z</time>
      </trkpt>
      <trkpt lat="46.46426" lon="5.25273">
        <ele>220.6</ele>
        <time>2021-12-03T14:35:33Z</time>
      </trkpt>
      <trkpt lat="46.46422" lon="5.25276">
        <ele>220.8</ele>
        <time>2021-12-03T14:35:34Z</time>
      </trkpt>
      <trkpt lat="46.46405" lon="5.25292">
        <ele>221.2</ele>
        <time>2021-12-03T14:35:38Z</time>
      </trkpt>
      <trkpt lat="46.46398" lon="5.253">
        <ele>221.6</ele>
        <time>2021-12-03T14:35:40Z</time>
      </trkpt>
      <trkpt lat="46.46395" lon="5.25304">
        <ele>221.8</ele>
        <time>2021-12-03T14:35:41Z</time>
      </trkpt>
      <trkpt lat="46.46391" lon="5.2531">
        <ele>221.8</ele>
        <time>2021-12-03T14:35:42Z</time>
      </trkpt>
      <trkpt lat="46.46378" lon="5.25329">
        <ele>222.8</ele>
        <time>2021-12-03T14:35:46Z</time>
      </trkpt>
      <trkpt lat="46.46367" lon="5.25346">
        <ele>223</ele>
        <time>2021-12-03T14:35:49Z</time>
      </trkpt>
      <trkpt lat="46.46355" lon="5.25368">
        <ele>223.8</ele>
        <time>2021-12-03T14:35:53Z</time>
      </trkpt>
      <trkpt lat="46.46335" lon="5.25401">
        <ele>224.4</ele>
        <time>2021-12-03T14:35:59Z</time>
      </trkpt>
      <trkpt lat="46.46313" lon="5.25439">
        <ele>225</ele>
        <time>2021-12-03T14:36:06Z</time>
      </trkpt>
      <trkpt lat="46.46296" lon="5.25467">
        <ele>225.6</ele>
        <time>2021-12-03T14:36:11Z</time>
      </trkpt>
      <trkpt lat="46.46277" lon="5.25499">
        <ele>226</ele>
        <time>2021-12-03T14:36:17Z</time>
      </trkpt>
      <trkpt lat="46.4626" lon="5.25534">
        <ele>226.6</ele>
        <time>2021-12-03T14:36:23Z</time>
      </trkpt>
      <trkpt lat="46.46246" lon="5.25576">
        <ele>227</ele>
        <time>2021-12-03T14:36:29Z</time>
      </trkpt>
      <trkpt lat="46.46242" lon="5.2559">
        <ele>227.4</ele>
        <time>2021-12-03T14:36:31Z</time>
      </trkpt>
      <trkpt lat="46.46231" lon="5.25643">
        <ele>227.8</ele>
        <time>2021-12-03T14:36:38Z</time>
      </trkpt>
      <trkpt lat="46.46226" lon="5.2567">
        <ele>227.8</ele>
        <time>2021-12-03T14:36:41Z</time>
      </trkpt>
      <trkpt lat="46.46226" lon="5.2568">
        <ele>227.8</ele>
        <time>2021-12-03T14:36:42Z</time>
      </trkpt>
      <trkpt lat="46.46228" lon="5.25724">
        <ele>226.6</ele>
        <time>2021-12-03T14:36:46Z</time>
      </trkpt>
      <trkpt lat="46.46235" lon="5.25759">
        <ele>225.6</ele>
        <time>2021-12-03T14:36:49Z</time>
      </trkpt>
      <trkpt lat="46.46244" lon="5.25803">
        <ele>224.4</ele>
        <time>2021-12-03T14:36:53Z</time>
      </trkpt>
      <trkpt lat="46.4625" lon="5.25847">
        <ele>224.4</ele>
        <time>2021-12-03T14:36:58Z</time>
      </trkpt>
      <trkpt lat="46.46251" lon="5.25855">
        <ele>224.4</ele>
        <time>2021-12-03T14:36:59Z</time>
      </trkpt>
      <trkpt lat="46.46248" lon="5.25882">
        <ele>226</ele>
        <time>2021-12-03T14:37:03Z</time>
      </trkpt>
      <trkpt lat="46.4624" lon="5.25905">
        <ele>227.6</ele>
        <time>2021-12-03T14:37:07Z</time>
      </trkpt>
      <trkpt lat="46.46236" lon="5.25916">
        <ele>228.6</ele>
        <time>2021-12-03T14:37:09Z</time>
      </trkpt>
      <trkpt lat="46.46234" lon="5.25922">
        <ele>228.8</ele>
        <time>2021-12-03T14:37:10Z</time>
      </trkpt>
      <trkpt lat="46.46226" lon="5.25945">
        <ele>230.2</ele>
        <time>2021-12-03T14:37:14Z</time>
      </trkpt>
      <trkpt lat="46.46218" lon="5.25973">
        <ele>231.2</ele>
        <time>2021-12-03T14:37:19Z</time>
      </trkpt>
      <trkpt lat="46.46211" lon="5.25996">
        <ele>232.6</ele>
        <time>2021-12-03T14:37:23Z</time>
      </trkpt>
      <trkpt lat="46.46208" lon="5.26015">
        <ele>233.4</ele>
        <time>2021-12-03T14:37:26Z</time>
      </trkpt>
      <trkpt lat="46.46207" lon="5.26021">
        <ele>234</ele>
        <time>2021-12-03T14:37:27Z</time>
      </trkpt>
      <trkpt lat="46.46203" lon="5.26054">
        <ele>235</ele>
        <time>2021-12-03T14:37:32Z</time>
      </trkpt>
      <trkpt lat="46.46202" lon="5.26069">
        <ele>235.2</ele>
        <time>2021-12-03T14:37:34Z</time>
      </trkpt>
      <trkpt lat="46.46195" lon="5.2615">
        <ele>235.4</ele>
        <time>2021-12-03T14:37:44Z</time>
      </trkpt>
      <trkpt lat="46.46189" lon="5.26224">
        <ele>234.2</ele>
        <time>2021-12-03T14:37:52Z</time>
      </trkpt>
      <trkpt lat="46.46188" lon="5.26233">
        <ele>234</ele>
        <time>2021-12-03T14:37:53Z</time>
      </trkpt>
      <trkpt lat="46.46182" lon="5.26298">
        <ele>232.6</ele>
        <time>2021-12-03T14:37:59Z</time>
      </trkpt>
      <trkpt lat="46.46177" lon="5.26348">
        <ele>231.2</ele>
        <time>2021-12-03T14:38:03Z</time>
      </trkpt>
      <trkpt lat="46.46174" lon="5.26387">
        <ele>229.6</ele>
        <time>2021-12-03T14:38:06Z</time>
      </trkpt>
      <trkpt lat="46.46171" lon="5.26415">
        <ele>228</ele>
        <time>2021-12-03T14:38:08Z</time>
      </trkpt>
      <trkpt lat="46.46169" lon="5.26443">
        <ele>226.8</ele>
        <time>2021-12-03T14:38:10Z</time>
      </trkpt>
      <trkpt lat="46.46166" lon="5.26471">
        <ele>225.4</ele>
        <time>2021-12-03T14:38:12Z</time>
      </trkpt>
      <trkpt lat="46.46165" lon="5.26485">
        <ele>225</ele>
        <time>2021-12-03T14:38:13Z</time>
      </trkpt>
      <trkpt lat="46.46164" lon="5.26499">
        <ele>224.4</ele>
        <time>2021-12-03T14:38:14Z</time>
      </trkpt>
      <trkpt lat="46.46161" lon="5.26527">
        <ele>223</ele>
        <time>2021-12-03T14:38:16Z</time>
      </trkpt>
      <trkpt lat="46.46156" lon="5.26571">
        <ele>221.6</ele>
        <time>2021-12-03T14:38:19Z</time>
      </trkpt>
      <trkpt lat="46.46153" lon="5.26601">
        <ele>220.8</ele>
        <time>2021-12-03T14:38:21Z</time>
      </trkpt>
      <trkpt lat="46.46152" lon="5.26616">
        <ele>220.4</ele>
        <time>2021-12-03T14:38:22Z</time>
      </trkpt>
      <trkpt lat="46.46151" lon="5.26647">
        <ele>219.2</ele>
        <time>2021-12-03T14:38:24Z</time>
      </trkpt>
      <trkpt lat="46.4615" lon="5.26678">
        <ele>217.6</ele>
        <time>2021-12-03T14:38:26Z</time>
      </trkpt>
      <trkpt lat="46.46148" lon="5.26708">
        <ele>216</ele>
        <time>2021-12-03T14:38:28Z</time>
      </trkpt>
      <trkpt lat="46.46147" lon="5.26754">
        <ele>214.8</ele>
        <time>2021-12-03T14:38:31Z</time>
      </trkpt>
      <trkpt lat="46.46146" lon="5.26783">
        <ele>213.2</ele>
        <time>2021-12-03T14:38:33Z</time>
      </trkpt>
      <trkpt lat="46.46145" lon="5.26811">
        <ele>212</ele>
        <time>2021-12-03T14:38:35Z</time>
      </trkpt>
      <trkpt lat="46.46143" lon="5.26866">
        <ele>211</ele>
        <time>2021-12-03T14:38:39Z</time>
      </trkpt>
      <trkpt lat="46.46142" lon="5.26904">
        <ele>210</ele>
        <time>2021-12-03T14:38:42Z</time>
      </trkpt>
      <trkpt lat="46.46141" lon="5.26927">
        <ele>209.6</ele>
        <time>2021-12-03T14:38:44Z</time>
      </trkpt>
      <trkpt lat="46.46141" lon="5.26971">
        <ele>209.4</ele>
        <time>2021-12-03T14:38:48Z</time>
      </trkpt>
      <trkpt lat="46.46139" lon="5.27053">
        <ele>210</ele>
        <time>2021-12-03T14:38:56Z</time>
      </trkpt>
      <trkpt lat="46.46136" lon="5.27138">
        <ele>210</ele>
        <time>2021-12-03T14:39:04Z</time>
      </trkpt>
      <trkpt lat="46.46136" lon="5.2715">
        <ele>209.8</ele>
        <time>2021-12-03T14:39:05Z</time>
      </trkpt>
      <trkpt lat="46.46134" lon="5.27228">
        <ele>208.6</ele>
        <time>2021-12-03T14:39:12Z</time>
      </trkpt>
      <trkpt lat="46.46133" lon="5.27239">
        <ele>208.4</ele>
        <time>2021-12-03T14:39:13Z</time>
      </trkpt>
      <trkpt lat="46.46132" lon="5.27323">
        <ele>208.2</ele>
        <time>2021-12-03T14:39:21Z</time>
      </trkpt>
      <trkpt lat="46.4613" lon="5.27393">
        <ele>208.4</ele>
        <time>2021-12-03T14:39:28Z</time>
      </trkpt>
      <trkpt lat="46.46128" lon="5.27472">
        <ele>208.4</ele>
        <time>2021-12-03T14:39:36Z</time>
      </trkpt>
      <trkpt lat="46.46127" lon="5.27482">
        <ele>208.2</ele>
        <time>2021-12-03T14:39:37Z</time>
      </trkpt>
      <trkpt lat="46.46126" lon="5.2753">
        <ele>208.4</ele>
        <time>2021-12-03T14:39:42Z</time>
      </trkpt>
      <trkpt lat="46.46125" lon="5.27567">
        <ele>208.4</ele>
        <time>2021-12-03T14:39:46Z</time>
      </trkpt>
      <trkpt lat="46.46123" lon="5.27633">
        <ele>208.4</ele>
        <time>2021-12-03T14:39:53Z</time>
      </trkpt>
      <trkpt lat="46.46122" lon="5.27704">
        <ele>208.4</ele>
        <time>2021-12-03T14:40:01Z</time>
      </trkpt>
      <trkpt lat="46.4612" lon="5.27766">
        <ele>209.2</ele>
        <time>2021-12-03T14:40:09Z</time>
      </trkpt>
      <trkpt lat="46.4612" lon="5.27801">
        <ele>210</ele>
        <time>2021-12-03T14:40:14Z</time>
      </trkpt>
      <trkpt lat="46.4612" lon="5.27821">
        <ele>210.4</ele>
        <time>2021-12-03T14:40:17Z</time>
      </trkpt>
      <trkpt lat="46.4612" lon="5.27835">
        <ele>211</ele>
        <time>2021-12-03T14:40:19Z</time>
      </trkpt>
      <trkpt lat="46.46121" lon="5.27867">
        <ele>212</ele>
        <time>2021-12-03T14:40:24Z</time>
      </trkpt>
      <trkpt lat="46.46121" lon="5.27874">
        <ele>212.4</ele>
        <time>2021-12-03T14:40:25Z</time>
      </trkpt>
      <trkpt lat="46.46123" lon="5.27905">
        <ele>213.8</ele>
        <time>2021-12-03T14:40:30Z</time>
      </trkpt>
      <trkpt lat="46.46123" lon="5.27916">
        <ele>214.2</ele>
        <time>2021-12-03T14:40:32Z</time>
      </trkpt>
      <trkpt lat="46.46124" lon="5.27927">
        <ele>214.6</ele>
        <time>2021-12-03T14:40:34Z</time>
      </trkpt>
      <trkpt lat="46.46127" lon="5.27938">
        <ele>215</ele>
        <time>2021-12-03T14:40:36Z</time>
      </trkpt>
      <trkpt lat="46.46129" lon="5.27948">
        <ele>215.4</ele>
        <time>2021-12-03T14:40:38Z</time>
      </trkpt>
      <trkpt lat="46.46135" lon="5.27961">
        <ele>216.6</ele>
        <time>2021-12-03T14:40:41Z</time>
      </trkpt>
      <trkpt lat="46.46141" lon="5.27968">
        <ele>217.2</ele>
        <time>2021-12-03T14:40:43Z</time>
      </trkpt>
      <trkpt lat="46.46147" lon="5.27974">
        <ele>217.8</ele>
        <time>2021-12-03T14:40:45Z</time>
      </trkpt>
      <trkpt lat="46.46153" lon="5.27979">
        <ele>219</ele>
        <time>2021-12-03T14:40:47Z</time>
      </trkpt>
      <trkpt lat="46.46162" lon="5.27986">
        <ele>220.2</ele>
        <time>2021-12-03T14:40:50Z</time>
      </trkpt>
      <trkpt lat="46.46169" lon="5.2799">
        <ele>220.8</ele>
        <time>2021-12-03T14:40:52Z</time>
      </trkpt>
      <trkpt lat="46.46175" lon="5.27994">
        <ele>221.4</ele>
        <time>2021-12-03T14:40:54Z</time>
      </trkpt>
      <trkpt lat="46.46185" lon="5.28">
        <ele>222.4</ele>
        <time>2021-12-03T14:40:57Z</time>
      </trkpt>
      <trkpt lat="46.46191" lon="5.28006">
        <ele>223.2</ele>
        <time>2021-12-03T14:40:59Z</time>
      </trkpt>
      <trkpt lat="46.46193" lon="5.28011">
        <ele>223.4</ele>
        <time>2021-12-03T14:41:00Z</time>
      </trkpt>
      <trkpt lat="46.46193" lon="5.28016">
        <ele>223.8</ele>
        <time>2021-12-03T14:41:01Z</time>
      </trkpt>
      <trkpt lat="46.46192" lon="5.28023">
        <ele>224</ele>
        <time>2021-12-03T14:41:02Z</time>
      </trkpt>
      <trkpt lat="46.46189" lon="5.28057">
        <ele>224.6</ele>
        <time>2021-12-03T14:41:07Z</time>
      </trkpt>
      <trkpt lat="46.46185" lon="5.28107">
        <ele>224.2</ele>
        <time>2021-12-03T14:41:13Z</time>
      </trkpt>
      <trkpt lat="46.46179" lon="5.28168">
        <ele>224.2</ele>
        <time>2021-12-03T14:41:21Z</time>
      </trkpt>
      <trkpt lat="46.46167" lon="5.2824">
        <ele>224.2</ele>
        <time>2021-12-03T14:41:30Z</time>
      </trkpt>
      <trkpt lat="46.46165" lon="5.28289">
        <ele>223.2</ele>
        <time>2021-12-03T14:41:35Z</time>
      </trkpt>
      <trkpt lat="46.46167" lon="5.2831">
        <ele>222.6</ele>
        <time>2021-12-03T14:41:37Z</time>
      </trkpt>
      <trkpt lat="46.46171" lon="5.28344">
        <ele>221.2</ele>
        <time>2021-12-03T14:41:40Z</time>
      </trkpt>
      <trkpt lat="46.46173" lon="5.28356">
        <ele>221.2</ele>
        <time>2021-12-03T14:41:41Z</time>
      </trkpt>
      <trkpt lat="46.46179" lon="5.28391">
        <ele>220</ele>
        <time>2021-12-03T14:41:44Z</time>
      </trkpt>
      <trkpt lat="46.46185" lon="5.28426">
        <ele>218.8</ele>
        <time>2021-12-03T14:41:47Z</time>
      </trkpt>
      <trkpt lat="46.46188" lon="5.28447">
        <ele>218.6</ele>
        <time>2021-12-03T14:41:49Z</time>
      </trkpt>
      <trkpt lat="46.46195" lon="5.28492">
        <ele>218.6</ele>
        <time>2021-12-03T14:41:54Z</time>
      </trkpt>
      <trkpt lat="46.46199" lon="5.28522">
        <ele>220</ele>
        <time>2021-12-03T14:41:58Z</time>
      </trkpt>
      <trkpt lat="46.46202" lon="5.28543">
        <ele>221.2</ele>
        <time>2021-12-03T14:42:01Z</time>
      </trkpt>
      <trkpt lat="46.46205" lon="5.28563">
        <ele>222.4</ele>
        <time>2021-12-03T14:42:04Z</time>
      </trkpt>
      <trkpt lat="46.4621" lon="5.28597">
        <ele>223.8</ele>
        <time>2021-12-03T14:42:09Z</time>
      </trkpt>
      <trkpt lat="46.46213" lon="5.28609">
        <ele>224.2</ele>
        <time>2021-12-03T14:42:11Z</time>
      </trkpt>
      <trkpt lat="46.46215" lon="5.28628">
        <ele>225</ele>
        <time>2021-12-03T14:42:14Z</time>
      </trkpt>
      <trkpt lat="46.46217" lon="5.2864">
        <ele>225.4</ele>
        <time>2021-12-03T14:42:16Z</time>
      </trkpt>
      <trkpt lat="46.46221" lon="5.28666">
        <ele>226.6</ele>
        <time>2021-12-03T14:42:20Z</time>
      </trkpt>
      <trkpt lat="46.46224" lon="5.28679">
        <ele>227.6</ele>
        <time>2021-12-03T14:42:22Z</time>
      </trkpt>
      <trkpt lat="46.46229" lon="5.28691">
        <ele>228.2</ele>
        <time>2021-12-03T14:42:24Z</time>
      </trkpt>
      <trkpt lat="46.46232" lon="5.28697">
        <ele>228.4</ele>
        <time>2021-12-03T14:42:25Z</time>
      </trkpt>
      <trkpt lat="46.46235" lon="5.28701">
        <ele>228.6</ele>
        <time>2021-12-03T14:42:26Z</time>
      </trkpt>
      <trkpt lat="46.46243" lon="5.28708">
        <ele>229.2</ele>
        <time>2021-12-03T14:42:28Z</time>
      </trkpt>
      <trkpt lat="46.46251" lon="5.28712">
        <ele>229.4</ele>
        <time>2021-12-03T14:42:30Z</time>
      </trkpt>
      <trkpt lat="46.46254" lon="5.28715">
        <ele>229.8</ele>
        <time>2021-12-03T14:42:31Z</time>
      </trkpt>
      <trkpt lat="46.46265" lon="5.28723">
        <ele>231</ele>
        <time>2021-12-03T14:42:34Z</time>
      </trkpt>
      <trkpt lat="46.46276" lon="5.28731">
        <ele>231.8</ele>
        <time>2021-12-03T14:42:37Z</time>
      </trkpt>
      <trkpt lat="46.4628" lon="5.28734">
        <ele>232.2</ele>
        <time>2021-12-03T14:42:38Z</time>
      </trkpt>
      <trkpt lat="46.4631" lon="5.28752">
        <ele>233.2</ele>
        <time>2021-12-03T14:42:45Z</time>
      </trkpt>
      <trkpt lat="46.46337" lon="5.28771">
        <ele>234.6</ele>
        <time>2021-12-03T14:42:52Z</time>
      </trkpt>
      <trkpt lat="46.46345" lon="5.28776">
        <ele>234.8</ele>
        <time>2021-12-03T14:42:54Z</time>
      </trkpt>
      <trkpt lat="46.46367" lon="5.28794">
        <ele>235.8</ele>
        <time>2021-12-03T14:43:00Z</time>
      </trkpt>
      <trkpt lat="46.46379" lon="5.28804">
        <ele>236.4</ele>
        <time>2021-12-03T14:43:03Z</time>
      </trkpt>
      <trkpt lat="46.46399" lon="5.28833">
        <ele>236.6</ele>
        <time>2021-12-03T14:43:08Z</time>
      </trkpt>
      <trkpt lat="46.46401" lon="5.28838">
        <ele>236.8</ele>
        <time>2021-12-03T14:43:09Z</time>
      </trkpt>
      <trkpt lat="46.46412" lon="5.28865">
        <ele>237.2</ele>
        <time>2021-12-03T14:43:13Z</time>
      </trkpt>
      <trkpt lat="46.46415" lon="5.28874">
        <ele>237.2</ele>
        <time>2021-12-03T14:43:14Z</time>
      </trkpt>
      <trkpt lat="46.46431" lon="5.28943">
        <ele>237.8</ele>
        <time>2021-12-03T14:43:23Z</time>
      </trkpt>
      <trkpt lat="46.46448" lon="5.29024">
        <ele>238.6</ele>
        <time>2021-12-03T14:43:33Z</time>
      </trkpt>
      <trkpt lat="46.4645" lon="5.29031">
        <ele>238.6</ele>
        <time>2021-12-03T14:43:34Z</time>
      </trkpt>
      <trkpt lat="46.46457" lon="5.29064">
        <ele>238.8</ele>
        <time>2021-12-03T14:43:38Z</time>
      </trkpt>
      <trkpt lat="46.46468" lon="5.29119">
        <ele>239</ele>
        <time>2021-12-03T14:43:44Z</time>
      </trkpt>
      <trkpt lat="46.46484" lon="5.29195">
        <ele>239.2</ele>
        <time>2021-12-03T14:43:52Z</time>
      </trkpt>
      <trkpt lat="46.46487" lon="5.29205">
        <ele>239.2</ele>
        <time>2021-12-03T14:43:53Z</time>
      </trkpt>
      <trkpt lat="46.46503" lon="5.29281">
        <ele>238.2</ele>
        <time>2021-12-03T14:44:00Z</time>
      </trkpt>
      <trkpt lat="46.46508" lon="5.29303">
        <ele>238</ele>
        <time>2021-12-03T14:44:02Z</time>
      </trkpt>
      <trkpt lat="46.4651" lon="5.29314">
        <ele>237.4</ele>
        <time>2021-12-03T14:44:03Z</time>
      </trkpt>
      <trkpt lat="46.46526" lon="5.29391">
        <ele>236.6</ele>
        <time>2021-12-03T14:44:10Z</time>
      </trkpt>
      <trkpt lat="46.46528" lon="5.29402">
        <ele>236.6</ele>
        <time>2021-12-03T14:44:11Z</time>
      </trkpt>
      <trkpt lat="46.4654" lon="5.29463">
        <ele>236.6</ele>
        <time>2021-12-03T14:44:17Z</time>
      </trkpt>
      <trkpt lat="46.46549" lon="5.29496">
        <ele>236.4</ele>
        <time>2021-12-03T14:44:20Z</time>
      </trkpt>
      <trkpt lat="46.46558" lon="5.2953">
        <ele>236</ele>
        <time>2021-12-03T14:44:23Z</time>
      </trkpt>
      <trkpt lat="46.4657" lon="5.29576">
        <ele>235.6</ele>
        <time>2021-12-03T14:44:28Z</time>
      </trkpt>
      <trkpt lat="46.46575" lon="5.29594">
        <ele>235.6</ele>
        <time>2021-12-03T14:44:30Z</time>
      </trkpt>
      <trkpt lat="46.46583" lon="5.29621">
        <ele>235.8</ele>
        <time>2021-12-03T14:44:33Z</time>
      </trkpt>
      <trkpt lat="46.466" lon="5.29689">
        <ele>237.6</ele>
        <time>2021-12-03T14:44:40Z</time>
      </trkpt>
      <trkpt lat="46.46606" lon="5.29709">
        <ele>237.8</ele>
        <time>2021-12-03T14:44:42Z</time>
      </trkpt>
      <trkpt lat="46.46621" lon="5.29764">
        <ele>238.6</ele>
        <time>2021-12-03T14:44:48Z</time>
      </trkpt>
      <trkpt lat="46.46623" lon="5.29772">
        <ele>238.8</ele>
        <time>2021-12-03T14:44:49Z</time>
      </trkpt>
      <trkpt lat="46.46635" lon="5.29821">
        <ele>239.6</ele>
        <time>2021-12-03T14:44:55Z</time>
      </trkpt>
      <trkpt lat="46.46643" lon="5.29845">
        <ele>239.8</ele>
        <time>2021-12-03T14:44:58Z</time>
      </trkpt>
      <trkpt lat="46.46654" lon="5.29883">
        <ele>240</ele>
        <time>2021-12-03T14:45:02Z</time>
      </trkpt>
      <trkpt lat="46.46672" lon="5.29953">
        <ele>239.6</ele>
        <time>2021-12-03T14:45:09Z</time>
      </trkpt>
      <trkpt lat="46.4668" lon="5.29985">
        <ele>239.6</ele>
        <time>2021-12-03T14:45:12Z</time>
      </trkpt>
      <trkpt lat="46.46688" lon="5.30017">
        <ele>239</ele>
        <time>2021-12-03T14:45:15Z</time>
      </trkpt>
      <trkpt lat="46.46693" lon="5.30037">
        <ele>238.8</ele>
        <time>2021-12-03T14:45:17Z</time>
      </trkpt>
      <trkpt lat="46.46707" lon="5.30093">
        <ele>237.8</ele>
        <time>2021-12-03T14:45:22Z</time>
      </trkpt>
      <trkpt lat="46.46712" lon="5.30113">
        <ele>237.6</ele>
        <time>2021-12-03T14:45:24Z</time>
      </trkpt>
      <trkpt lat="46.46729" lon="5.30181">
        <ele>237.6</ele>
        <time>2021-12-03T14:45:31Z</time>
      </trkpt>
      <trkpt lat="46.46737" lon="5.30208">
        <ele>237.8</ele>
        <time>2021-12-03T14:45:34Z</time>
      </trkpt>
      <trkpt lat="46.46745" lon="5.30224">
        <ele>238</ele>
        <time>2021-12-03T14:45:36Z</time>
      </trkpt>
      <trkpt lat="46.46771" lon="5.30256">
        <ele>238.8</ele>
        <time>2021-12-03T14:45:41Z</time>
      </trkpt>
      <trkpt lat="46.46777" lon="5.30263">
        <ele>238.8</ele>
        <time>2021-12-03T14:45:42Z</time>
      </trkpt>
      <trkpt lat="46.46823" lon="5.30317">
        <ele>239</ele>
        <time>2021-12-03T14:45:50Z</time>
      </trkpt>
      <trkpt lat="46.46834" lon="5.30331">
        <ele>239</ele>
        <time>2021-12-03T14:45:52Z</time>
      </trkpt>
      <trkpt lat="46.46876" lon="5.30374">
        <ele>238.6</ele>
        <time>2021-12-03T14:45:59Z</time>
      </trkpt>
      <trkpt lat="46.46911" lon="5.30391">
        <ele>238.4</ele>
        <time>2021-12-03T14:46:04Z</time>
      </trkpt>
      <trkpt lat="46.46963" lon="5.30415">
        <ele>238</ele>
        <time>2021-12-03T14:46:11Z</time>
      </trkpt>
      <trkpt lat="46.46969" lon="5.3042">
        <ele>238</ele>
        <time>2021-12-03T14:46:12Z</time>
      </trkpt>
      <trkpt lat="46.47012" lon="5.30457">
        <ele>238.2</ele>
        <time>2021-12-03T14:46:19Z</time>
      </trkpt>
      <trkpt lat="46.47061" lon="5.305">
        <ele>238.8</ele>
        <time>2021-12-03T14:46:27Z</time>
      </trkpt>
      <trkpt lat="46.47073" lon="5.3051">
        <ele>238.8</ele>
        <time>2021-12-03T14:46:29Z</time>
      </trkpt>
      <trkpt lat="46.47118" lon="5.30541">
        <ele>239.6</ele>
        <time>2021-12-03T14:46:36Z</time>
      </trkpt>
      <trkpt lat="46.47169" lon="5.30561">
        <ele>239.6</ele>
        <time>2021-12-03T14:46:43Z</time>
      </trkpt>
      <trkpt lat="46.47216" lon="5.30559">
        <ele>239.4</ele>
        <time>2021-12-03T14:46:49Z</time>
      </trkpt>
      <trkpt lat="46.47232" lon="5.30563">
        <ele>239.2</ele>
        <time>2021-12-03T14:46:51Z</time>
      </trkpt>
      <trkpt lat="46.47246" lon="5.30571">
        <ele>239</ele>
        <time>2021-12-03T14:46:53Z</time>
      </trkpt>
      <trkpt lat="46.47265" lon="5.30588">
        <ele>238.8</ele>
        <time>2021-12-03T14:46:56Z</time>
      </trkpt>
      <trkpt lat="46.47276" lon="5.30602">
        <ele>238.8</ele>
        <time>2021-12-03T14:46:58Z</time>
      </trkpt>
      <trkpt lat="46.47307" lon="5.30644">
        <ele>238.8</ele>
        <time>2021-12-03T14:47:04Z</time>
      </trkpt>
      <trkpt lat="46.47314" lon="5.30663">
        <ele>239</ele>
        <time>2021-12-03T14:47:06Z</time>
      </trkpt>
      <trkpt lat="46.47315" lon="5.30673">
        <ele>239</ele>
        <time>2021-12-03T14:47:07Z</time>
      </trkpt>
      <trkpt lat="46.47318" lon="5.30749">
        <ele>238.6</ele>
        <time>2021-12-03T14:47:14Z</time>
      </trkpt>
      <trkpt lat="46.47325" lon="5.30836">
        <ele>237.6</ele>
        <time>2021-12-03T14:47:22Z</time>
      </trkpt>
      <trkpt lat="46.47333" lon="5.30882">
        <ele>237.4</ele>
        <time>2021-12-03T14:47:27Z</time>
      </trkpt>
      <trkpt lat="46.47341" lon="5.30896">
        <ele>237.6</ele>
        <time>2021-12-03T14:47:29Z</time>
      </trkpt>
      <trkpt lat="46.47346" lon="5.30898">
        <ele>237.6</ele>
        <time>2021-12-03T14:47:30Z</time>
      </trkpt>
      <trkpt lat="46.47353" lon="5.30898">
        <ele>238</ele>
        <time>2021-12-03T14:47:31Z</time>
      </trkpt>
      <trkpt lat="46.47367" lon="5.30893">
        <ele>238.4</ele>
        <time>2021-12-03T14:47:33Z</time>
      </trkpt>
      <trkpt lat="46.47411" lon="5.30875">
        <ele>238.6</ele>
        <time>2021-12-03T14:47:39Z</time>
      </trkpt>
      <trkpt lat="46.47461" lon="5.30848">
        <ele>238.4</ele>
        <time>2021-12-03T14:47:46Z</time>
      </trkpt>
      <trkpt lat="46.47516" lon="5.30821">
        <ele>238.6</ele>
        <time>2021-12-03T14:47:54Z</time>
      </trkpt>
      <trkpt lat="46.47522" lon="5.30818">
        <ele>238.6</ele>
        <time>2021-12-03T14:47:55Z</time>
      </trkpt>
      <trkpt lat="46.47529" lon="5.30815">
        <ele>238.8</ele>
        <time>2021-12-03T14:47:56Z</time>
      </trkpt>
      <trkpt lat="46.4757" lon="5.30806">
        <ele>239.4</ele>
        <time>2021-12-03T14:48:02Z</time>
      </trkpt>
      <trkpt lat="46.47627" lon="5.30797">
        <ele>239.6</ele>
        <time>2021-12-03T14:48:10Z</time>
      </trkpt>
      <trkpt lat="46.47685" lon="5.30789">
        <ele>239.6</ele>
        <time>2021-12-03T14:48:18Z</time>
      </trkpt>
      <trkpt lat="46.4773" lon="5.30782">
        <ele>239.6</ele>
        <time>2021-12-03T14:48:24Z</time>
      </trkpt>
      <trkpt lat="46.47784" lon="5.30773">
        <ele>238.6</ele>
        <time>2021-12-03T14:48:31Z</time>
      </trkpt>
      <trkpt lat="46.47792" lon="5.30772">
        <ele>238.6</ele>
        <time>2021-12-03T14:48:32Z</time>
      </trkpt>
      <trkpt lat="46.47835" lon="5.30775">
        <ele>238.4</ele>
        <time>2021-12-03T14:48:38Z</time>
      </trkpt>
      <trkpt lat="46.47844" lon="5.30784">
        <ele>238.6</ele>
        <time>2021-12-03T14:48:40Z</time>
      </trkpt>
      <trkpt lat="46.47848" lon="5.3079">
        <ele>239.2</ele>
        <time>2021-12-03T14:48:41Z</time>
      </trkpt>
      <trkpt lat="46.47851" lon="5.30795">
        <ele>239.6</ele>
        <time>2021-12-03T14:48:42Z</time>
      </trkpt>
      <trkpt lat="46.47855" lon="5.30799">
        <ele>240</ele>
        <time>2021-12-03T14:48:43Z</time>
      </trkpt>
      <trkpt lat="46.47861" lon="5.308">
        <ele>240.2</ele>
        <time>2021-12-03T14:48:44Z</time>
      </trkpt>
      <trkpt lat="46.47876" lon="5.30802">
        <ele>240.6</ele>
        <time>2021-12-03T14:48:46Z</time>
      </trkpt>
      <trkpt lat="46.47884" lon="5.30804">
        <ele>240.6</ele>
        <time>2021-12-03T14:48:47Z</time>
      </trkpt>
      <trkpt lat="46.47931" lon="5.30818">
        <ele>240</ele>
        <time>2021-12-03T14:48:52Z</time>
      </trkpt>
      <trkpt lat="46.47941" lon="5.30819">
        <ele>239.6</ele>
        <time>2021-12-03T14:48:53Z</time>
      </trkpt>
      <trkpt lat="46.47962" lon="5.30818">
        <ele>238.4</ele>
        <time>2021-12-03T14:48:55Z</time>
      </trkpt>
      <trkpt lat="46.47972" lon="5.30815">
        <ele>238</ele>
        <time>2021-12-03T14:48:56Z</time>
      </trkpt>
      <trkpt lat="46.47981" lon="5.30811">
        <ele>237</ele>
        <time>2021-12-03T14:48:57Z</time>
      </trkpt>
      <trkpt lat="46.47999" lon="5.30801">
        <ele>235.8</ele>
        <time>2021-12-03T14:48:59Z</time>
      </trkpt>
      <trkpt lat="46.48008" lon="5.30796">
        <ele>235.6</ele>
        <time>2021-12-03T14:49:00Z</time>
      </trkpt>
      <trkpt lat="46.48054" lon="5.30771">
        <ele>235.8</ele>
        <time>2021-12-03T14:49:06Z</time>
      </trkpt>
      <trkpt lat="46.48082" lon="5.30756">
        <ele>237.2</ele>
        <time>2021-12-03T14:49:10Z</time>
      </trkpt>
      <trkpt lat="46.48103" lon="5.30745">
        <ele>237.8</ele>
        <time>2021-12-03T14:49:13Z</time>
      </trkpt>
      <trkpt lat="46.48159" lon="5.30713">
        <ele>237.4</ele>
        <time>2021-12-03T14:49:21Z</time>
      </trkpt>
      <trkpt lat="46.48213" lon="5.30687">
        <ele>236.6</ele>
        <time>2021-12-03T14:49:28Z</time>
      </trkpt>
      <trkpt lat="46.4823" lon="5.30686">
        <ele>236.2</ele>
        <time>2021-12-03T14:49:30Z</time>
      </trkpt>
      <trkpt lat="46.48239" lon="5.30687">
        <ele>235.8</ele>
        <time>2021-12-03T14:49:31Z</time>
      </trkpt>
      <trkpt lat="46.48248" lon="5.30688">
        <ele>235.6</ele>
        <time>2021-12-03T14:49:32Z</time>
      </trkpt>
      <trkpt lat="46.48275" lon="5.30696">
        <ele>234.6</ele>
        <time>2021-12-03T14:49:35Z</time>
      </trkpt>
      <trkpt lat="46.48293" lon="5.307">
        <ele>234</ele>
        <time>2021-12-03T14:49:37Z</time>
      </trkpt>
      <trkpt lat="46.4832" lon="5.30698">
        <ele>233.6</ele>
        <time>2021-12-03T14:49:40Z</time>
      </trkpt>
      <trkpt lat="46.48328" lon="5.30694">
        <ele>233.4</ele>
        <time>2021-12-03T14:49:41Z</time>
      </trkpt>
      <trkpt lat="46.48336" lon="5.3069">
        <ele>233.2</ele>
        <time>2021-12-03T14:49:42Z</time>
      </trkpt>
      <trkpt lat="46.48358" lon="5.30671">
        <ele>233</ele>
        <time>2021-12-03T14:49:45Z</time>
      </trkpt>
      <trkpt lat="46.48405" lon="5.30625">
        <ele>233.2</ele>
        <time>2021-12-03T14:49:52Z</time>
      </trkpt>
      <trkpt lat="46.48448" lon="5.30583">
        <ele>233.8</ele>
        <time>2021-12-03T14:49:59Z</time>
      </trkpt>
      <trkpt lat="46.48483" lon="5.30549">
        <ele>234.6</ele>
        <time>2021-12-03T14:50:05Z</time>
      </trkpt>
      <trkpt lat="46.48501" lon="5.30532">
        <ele>234.8</ele>
        <time>2021-12-03T14:50:08Z</time>
      </trkpt>
      <trkpt lat="46.48548" lon="5.30494">
        <ele>235.4</ele>
        <time>2021-12-03T14:50:16Z</time>
      </trkpt>
      <trkpt lat="46.4856" lon="5.30499">
        <ele>235.4</ele>
        <time>2021-12-03T14:50:18Z</time>
      </trkpt>
      <trkpt lat="46.48562" lon="5.30514">
        <ele>235.2</ele>
        <time>2021-12-03T14:50:20Z</time>
      </trkpt>
      <trkpt lat="46.48556" lon="5.30552">
        <ele>235</ele>
        <time>2021-12-03T14:50:24Z</time>
      </trkpt>
      <trkpt lat="46.48548" lon="5.3061">
        <ele>234.2</ele>
        <time>2021-12-03T14:50:29Z</time>
      </trkpt>
      <trkpt lat="46.48544" lon="5.30647">
        <ele>233.4</ele>
        <time>2021-12-03T14:50:32Z</time>
      </trkpt>
      <trkpt lat="46.48543" lon="5.3066">
        <ele>233.4</ele>
        <time>2021-12-03T14:50:33Z</time>
      </trkpt>
      <trkpt lat="46.48544" lon="5.30673">
        <ele>233</ele>
        <time>2021-12-03T14:50:34Z</time>
      </trkpt>
      <trkpt lat="46.48546" lon="5.30682">
        <ele>232.8</ele>
        <time>2021-12-03T14:50:35Z</time>
      </trkpt>
      <trkpt lat="46.48549" lon="5.30699">
        <ele>232</ele>
        <time>2021-12-03T14:50:36Z</time>
      </trkpt>
      <trkpt lat="46.48552" lon="5.30713">
        <ele>231.8</ele>
        <time>2021-12-03T14:50:37Z</time>
      </trkpt>
      <trkpt lat="46.48556" lon="5.30724">
        <ele>230.6</ele>
        <time>2021-12-03T14:50:39Z</time>
      </trkpt>
      <trkpt lat="46.48566" lon="5.30743">
        <ele>230.4</ele>
        <time>2021-12-03T14:50:40Z</time>
      </trkpt>
      <trkpt lat="46.48587" lon="5.30769">
        <ele>229.4</ele>
        <time>2021-12-03T14:50:43Z</time>
      </trkpt>
      <trkpt lat="46.48603" lon="5.30784">
        <ele>228.8</ele>
        <time>2021-12-03T14:50:45Z</time>
      </trkpt>
      <trkpt lat="46.48618" lon="5.30797">
        <ele>228.2</ele>
        <time>2021-12-03T14:50:47Z</time>
      </trkpt>
      <trkpt lat="46.48643" lon="5.30813">
        <ele>227.2</ele>
        <time>2021-12-03T14:50:50Z</time>
      </trkpt>
      <trkpt lat="46.48658" lon="5.30823">
        <ele>226.8</ele>
        <time>2021-12-03T14:50:52Z</time>
      </trkpt>
      <trkpt lat="46.48686" lon="5.3084">
        <ele>226.6</ele>
        <time>2021-12-03T14:50:56Z</time>
      </trkpt>
      <trkpt lat="46.48712" lon="5.30858">
        <ele>227.2</ele>
        <time>2021-12-03T14:51:00Z</time>
      </trkpt>
      <trkpt lat="46.48717" lon="5.30865">
        <ele>227.8</ele>
        <time>2021-12-03T14:51:01Z</time>
      </trkpt>
      <trkpt lat="46.48721" lon="5.30873">
        <ele>228</ele>
        <time>2021-12-03T14:51:02Z</time>
      </trkpt>
      <trkpt lat="46.48723" lon="5.30882">
        <ele>228.2</ele>
        <time>2021-12-03T14:51:03Z</time>
      </trkpt>
      <trkpt lat="46.48723" lon="5.30893">
        <ele>228.4</ele>
        <time>2021-12-03T14:51:04Z</time>
      </trkpt>
      <trkpt lat="46.48717" lon="5.30912">
        <ele>228.6</ele>
        <time>2021-12-03T14:51:06Z</time>
      </trkpt>
      <trkpt lat="46.48713" lon="5.30919">
        <ele>228.6</ele>
        <time>2021-12-03T14:51:07Z</time>
      </trkpt>
      <trkpt lat="46.48708" lon="5.30925">
        <ele>228.8</ele>
        <time>2021-12-03T14:51:08Z</time>
      </trkpt>
      <trkpt lat="46.48699" lon="5.30937">
        <ele>229</ele>
        <time>2021-12-03T14:51:10Z</time>
      </trkpt>
      <trkpt lat="46.48695" lon="5.30944">
        <ele>229</ele>
        <time>2021-12-03T14:51:11Z</time>
      </trkpt>
      <trkpt lat="46.48692" lon="5.30951">
        <ele>229.2</ele>
        <time>2021-12-03T14:51:12Z</time>
      </trkpt>
      <trkpt lat="46.48688" lon="5.30959">
        <ele>229.6</ele>
        <time>2021-12-03T14:51:13Z</time>
      </trkpt>
      <trkpt lat="46.48676" lon="5.30982">
        <ele>230.6</ele>
        <time>2021-12-03T14:51:16Z</time>
      </trkpt>
      <trkpt lat="46.48672" lon="5.3099">
        <ele>231.4</ele>
        <time>2021-12-03T14:51:17Z</time>
      </trkpt>
      <trkpt lat="46.48661" lon="5.31014">
        <ele>232</ele>
        <time>2021-12-03T14:51:20Z</time>
      </trkpt>
      <trkpt lat="46.48633" lon="5.3107">
        <ele>232.2</ele>
        <time>2021-12-03T14:51:27Z</time>
      </trkpt>
      <trkpt lat="46.48598" lon="5.31141">
        <ele>230.6</ele>
        <time>2021-12-03T14:51:35Z</time>
      </trkpt>
      <trkpt lat="46.48576" lon="5.31188">
        <ele>229.4</ele>
        <time>2021-12-03T14:51:40Z</time>
      </trkpt>
      <trkpt lat="46.48558" lon="5.31226">
        <ele>228.2</ele>
        <time>2021-12-03T14:51:44Z</time>
      </trkpt>
      <trkpt lat="46.48555" lon="5.31237">
        <ele>228</ele>
        <time>2021-12-03T14:51:45Z</time>
      </trkpt>
      <trkpt lat="46.48551" lon="5.3126">
        <ele>227.2</ele>
        <time>2021-12-03T14:51:47Z</time>
      </trkpt>
      <trkpt lat="46.48554" lon="5.31306">
        <ele>226.4</ele>
        <time>2021-12-03T14:51:51Z</time>
      </trkpt>
      <trkpt lat="46.48557" lon="5.31341">
        <ele>226.2</ele>
        <time>2021-12-03T14:51:54Z</time>
      </trkpt>
      <trkpt lat="46.48559" lon="5.31352">
        <ele>226</ele>
        <time>2021-12-03T14:51:55Z</time>
      </trkpt>
      <trkpt lat="46.48562" lon="5.31363">
        <ele>225.8</ele>
        <time>2021-12-03T14:51:56Z</time>
      </trkpt>
      <trkpt lat="46.48566" lon="5.31373">
        <ele>225.8</ele>
        <time>2021-12-03T14:51:57Z</time>
      </trkpt>
      <trkpt lat="46.48579" lon="5.31392">
        <ele>225.4</ele>
        <time>2021-12-03T14:51:59Z</time>
      </trkpt>
      <trkpt lat="46.48587" lon="5.31401">
        <ele>225</ele>
        <time>2021-12-03T14:52:00Z</time>
      </trkpt>
      <trkpt lat="46.48594" lon="5.3141">
        <ele>224.6</ele>
        <time>2021-12-03T14:52:01Z</time>
      </trkpt>
      <trkpt lat="46.48602" lon="5.31423">
        <ele>223.8</ele>
        <time>2021-12-03T14:52:02Z</time>
      </trkpt>
      <trkpt lat="46.48606" lon="5.31433">
        <ele>223.6</ele>
        <time>2021-12-03T14:52:03Z</time>
      </trkpt>
      <trkpt lat="46.48608" lon="5.31463">
        <ele>222</ele>
        <time>2021-12-03T14:52:05Z</time>
      </trkpt>
      <trkpt lat="46.48609" lon="5.3149">
        <ele>220.8</ele>
        <time>2021-12-03T14:52:07Z</time>
      </trkpt>
      <trkpt lat="46.48615" lon="5.31513">
        <ele>219.6</ele>
        <time>2021-12-03T14:52:09Z</time>
      </trkpt>
      <trkpt lat="46.4863" lon="5.31541">
        <ele>219.2</ele>
        <time>2021-12-03T14:52:12Z</time>
      </trkpt>
      <trkpt lat="46.48664" lon="5.31579">
        <ele>219</ele>
        <time>2021-12-03T14:52:17Z</time>
      </trkpt>
      <trkpt lat="46.48708" lon="5.31633">
        <ele>219</ele>
        <time>2021-12-03T14:52:24Z</time>
      </trkpt>
      <trkpt lat="46.48719" lon="5.31648">
        <ele>219</ele>
        <time>2021-12-03T14:52:26Z</time>
      </trkpt>
      <trkpt lat="46.48731" lon="5.31662">
        <ele>219</ele>
        <time>2021-12-03T14:52:28Z</time>
      </trkpt>
      <trkpt lat="46.48737" lon="5.31669">
        <ele>219.2</ele>
        <time>2021-12-03T14:52:29Z</time>
      </trkpt>
      <trkpt lat="46.4876" lon="5.31701">
        <ele>219.4</ele>
        <time>2021-12-03T14:52:33Z</time>
      </trkpt>
      <trkpt lat="46.48773" lon="5.31716">
        <ele>219.6</ele>
        <time>2021-12-03T14:52:35Z</time>
      </trkpt>
      <trkpt lat="46.48779" lon="5.31739">
        <ele>219.6</ele>
        <time>2021-12-03T14:52:37Z</time>
      </trkpt>
      <trkpt lat="46.48782" lon="5.31762">
        <ele>219.4</ele>
        <time>2021-12-03T14:52:39Z</time>
      </trkpt>
      <trkpt lat="46.48781" lon="5.31784">
        <ele>219.2</ele>
        <time>2021-12-03T14:52:41Z</time>
      </trkpt>
      <trkpt lat="46.48784" lon="5.31826">
        <ele>218.8</ele>
        <time>2021-12-03T14:52:45Z</time>
      </trkpt>
      <trkpt lat="46.48788" lon="5.31836">
        <ele>218.8</ele>
        <time>2021-12-03T14:52:46Z</time>
      </trkpt>
      <trkpt lat="46.48792" lon="5.31844">
        <ele>218.8</ele>
        <time>2021-12-03T14:52:47Z</time>
      </trkpt>
      <trkpt lat="46.48806" lon="5.31854">
        <ele>218.8</ele>
        <time>2021-12-03T14:52:49Z</time>
      </trkpt>
      <trkpt lat="46.4882" lon="5.31861">
        <ele>218.8</ele>
        <time>2021-12-03T14:52:51Z</time>
      </trkpt>
      <trkpt lat="46.48833" lon="5.31873">
        <ele>218.8</ele>
        <time>2021-12-03T14:52:53Z</time>
      </trkpt>
      <trkpt lat="46.4884" lon="5.31892">
        <ele>218.8</ele>
        <time>2021-12-03T14:52:55Z</time>
      </trkpt>
      <trkpt lat="46.48842" lon="5.31902">
        <ele>219</ele>
        <time>2021-12-03T14:52:56Z</time>
      </trkpt>
      <trkpt lat="46.48849" lon="5.3197">
        <ele>219.4</ele>
        <time>2021-12-03T14:53:03Z</time>
      </trkpt>
      <trkpt lat="46.48846" lon="5.32017">
        <ele>220.2</ele>
        <time>2021-12-03T14:53:08Z</time>
      </trkpt>
      <trkpt lat="46.4884" lon="5.32053">
        <ele>220.6</ele>
        <time>2021-12-03T14:53:12Z</time>
      </trkpt>
      <trkpt lat="46.48834" lon="5.32089">
        <ele>221</ele>
        <time>2021-12-03T14:53:16Z</time>
      </trkpt>
      <trkpt lat="46.48826" lon="5.32133">
        <ele>221.6</ele>
        <time>2021-12-03T14:53:21Z</time>
      </trkpt>
      <trkpt lat="46.48825" lon="5.32141">
        <ele>221.8</ele>
        <time>2021-12-03T14:53:22Z</time>
      </trkpt>
      <trkpt lat="46.48825" lon="5.32158">
        <ele>222.4</ele>
        <time>2021-12-03T14:53:24Z</time>
      </trkpt>
      <trkpt lat="46.48826" lon="5.32174">
        <ele>222.8</ele>
        <time>2021-12-03T14:53:26Z</time>
      </trkpt>
      <trkpt lat="46.4883" lon="5.32213">
        <ele>223.8</ele>
        <time>2021-12-03T14:53:31Z</time>
      </trkpt>
      <trkpt lat="46.48831" lon="5.3222">
        <ele>223.8</ele>
        <time>2021-12-03T14:53:32Z</time>
      </trkpt>
      <trkpt lat="46.48833" lon="5.32228">
        <ele>224</ele>
        <time>2021-12-03T14:53:33Z</time>
      </trkpt>
      <trkpt lat="46.48841" lon="5.32247">
        <ele>224.6</ele>
        <time>2021-12-03T14:53:36Z</time>
      </trkpt>
      <trkpt lat="46.48844" lon="5.32253">
        <ele>225</ele>
        <time>2021-12-03T14:53:37Z</time>
      </trkpt>
      <trkpt lat="46.48852" lon="5.32266">
        <ele>225</ele>
        <time>2021-12-03T14:53:39Z</time>
      </trkpt>
      <trkpt lat="46.48861" lon="5.32279">
        <ele>225.2</ele>
        <time>2021-12-03T14:53:41Z</time>
      </trkpt>
      <trkpt lat="46.4889" lon="5.32321">
        <ele>223.8</ele>
        <time>2021-12-03T14:53:46Z</time>
      </trkpt>
      <trkpt lat="46.48902" lon="5.32342">
        <ele>222.8</ele>
        <time>2021-12-03T14:53:48Z</time>
      </trkpt>
      <trkpt lat="46.48912" lon="5.32366">
        <ele>221.2</ele>
        <time>2021-12-03T14:53:50Z</time>
      </trkpt>
      <trkpt lat="46.48916" lon="5.32379">
        <ele>220</ele>
        <time>2021-12-03T14:53:51Z</time>
      </trkpt>
      <trkpt lat="46.48927" lon="5.32416">
        <ele>218.8</ele>
        <time>2021-12-03T14:53:54Z</time>
      </trkpt>
      <trkpt lat="46.48938" lon="5.32454">
        <ele>217.6</ele>
        <time>2021-12-03T14:53:57Z</time>
      </trkpt>
      <trkpt lat="46.48952" lon="5.32502">
        <ele>217</ele>
        <time>2021-12-03T14:54:01Z</time>
      </trkpt>
      <trkpt lat="46.48957" lon="5.32527">
        <ele>217</ele>
        <time>2021-12-03T14:54:03Z</time>
      </trkpt>
      <trkpt lat="46.48957" lon="5.3254">
        <ele>217</ele>
        <time>2021-12-03T14:54:04Z</time>
      </trkpt>
      <trkpt lat="46.48955" lon="5.32552">
        <ele>217</ele>
        <time>2021-12-03T14:54:05Z</time>
      </trkpt>
      <trkpt lat="46.48951" lon="5.32563">
        <ele>217</ele>
        <time>2021-12-03T14:54:06Z</time>
      </trkpt>
      <trkpt lat="46.48945" lon="5.32573">
        <ele>217.2</ele>
        <time>2021-12-03T14:54:07Z</time>
      </trkpt>
      <trkpt lat="46.4893" lon="5.32596">
        <ele>217.4</ele>
        <time>2021-12-03T14:54:10Z</time>
      </trkpt>
      <trkpt lat="46.48922" lon="5.3261">
        <ele>217.6</ele>
        <time>2021-12-03T14:54:12Z</time>
      </trkpt>
      <trkpt lat="46.48919" lon="5.32625">
        <ele>218.2</ele>
        <time>2021-12-03T14:54:14Z</time>
      </trkpt>
      <trkpt lat="46.48919" lon="5.3264">
        <ele>219</ele>
        <time>2021-12-03T14:54:16Z</time>
      </trkpt>
      <trkpt lat="46.48922" lon="5.32653">
        <ele>219.8</ele>
        <time>2021-12-03T14:54:18Z</time>
      </trkpt>
      <trkpt lat="46.48925" lon="5.32658">
        <ele>220.2</ele>
        <time>2021-12-03T14:54:19Z</time>
      </trkpt>
      <trkpt lat="46.4893" lon="5.32668">
        <ele>221</ele>
        <time>2021-12-03T14:54:21Z</time>
      </trkpt>
      <trkpt lat="46.48933" lon="5.32672">
        <ele>221.4</ele>
        <time>2021-12-03T14:54:22Z</time>
      </trkpt>
      <trkpt lat="46.48939" lon="5.32681">
        <ele>222.4</ele>
        <time>2021-12-03T14:54:24Z</time>
      </trkpt>
      <trkpt lat="46.48942" lon="5.32685">
        <ele>222.8</ele>
        <time>2021-12-03T14:54:25Z</time>
      </trkpt>
      <trkpt lat="46.48954" lon="5.32699">
        <ele>224</ele>
        <time>2021-12-03T14:54:29Z</time>
      </trkpt>
      <trkpt lat="46.4896" lon="5.32704">
        <ele>224.6</ele>
        <time>2021-12-03T14:54:31Z</time>
      </trkpt>
      <trkpt lat="46.48967" lon="5.32708">
        <ele>225.2</ele>
        <time>2021-12-03T14:54:33Z</time>
      </trkpt>
      <trkpt lat="46.48985" lon="5.32714">
        <ele>226.4</ele>
        <time>2021-12-03T14:54:38Z</time>
      </trkpt>
      <trkpt lat="46.49002" lon="5.32713">
        <ele>227.6</ele>
        <time>2021-12-03T14:54:43Z</time>
      </trkpt>
      <trkpt lat="46.49017" lon="5.32711">
        <ele>228.8</ele>
        <time>2021-12-03T14:54:47Z</time>
      </trkpt>
      <trkpt lat="46.4902" lon="5.3271">
        <ele>229</ele>
        <time>2021-12-03T14:54:48Z</time>
      </trkpt>
      <trkpt lat="46.49035" lon="5.32708">
        <ele>229.8</ele>
        <time>2021-12-03T14:54:52Z</time>
      </trkpt>
      <trkpt lat="46.49053" lon="5.32705">
        <ele>231</ele>
        <time>2021-12-03T14:54:57Z</time>
      </trkpt>
      <trkpt lat="46.49057" lon="5.32705">
        <ele>231.2</ele>
        <time>2021-12-03T14:54:58Z</time>
      </trkpt>
      <trkpt lat="46.49076" lon="5.32702">
        <ele>232.2</ele>
        <time>2021-12-03T14:55:03Z</time>
      </trkpt>
      <trkpt lat="46.49087" lon="5.32699">
        <ele>232.8</ele>
        <time>2021-12-03T14:55:06Z</time>
      </trkpt>
      <trkpt lat="46.49098" lon="5.32698">
        <ele>233.4</ele>
        <time>2021-12-03T14:55:09Z</time>
      </trkpt>
      <trkpt lat="46.49112" lon="5.327">
        <ele>234.4</ele>
        <time>2021-12-03T14:55:13Z</time>
      </trkpt>
      <trkpt lat="46.49116" lon="5.32702">
        <ele>234.6</ele>
        <time>2021-12-03T14:55:14Z</time>
      </trkpt>
      <trkpt lat="46.49127" lon="5.32718">
        <ele>235.2</ele>
        <time>2021-12-03T14:55:18Z</time>
      </trkpt>
      <trkpt lat="46.49133" lon="5.32735">
        <ele>235.8</ele>
        <time>2021-12-03T14:55:21Z</time>
      </trkpt>
      <trkpt lat="46.49137" lon="5.32752">
        <ele>236</ele>
        <time>2021-12-03T14:55:24Z</time>
      </trkpt>
      <trkpt lat="46.49144" lon="5.32803">
        <ele>236.2</ele>
        <time>2021-12-03T14:55:31Z</time>
      </trkpt>
      <trkpt lat="46.49144" lon="5.32812">
        <ele>236.2</ele>
        <time>2021-12-03T14:55:32Z</time>
      </trkpt>
      <trkpt lat="46.49142" lon="5.3283">
        <ele>236.2</ele>
        <time>2021-12-03T14:55:34Z</time>
      </trkpt>
      <trkpt lat="46.49136" lon="5.32857">
        <ele>235.8</ele>
        <time>2021-12-03T14:55:37Z</time>
      </trkpt>
      <trkpt lat="46.49125" lon="5.32905">
        <ele>235.2</ele>
        <time>2021-12-03T14:55:43Z</time>
      </trkpt>
      <trkpt lat="46.49123" lon="5.32913">
        <ele>235</ele>
        <time>2021-12-03T14:55:44Z</time>
      </trkpt>
      <trkpt lat="46.49123" lon="5.32922">
        <ele>235</ele>
        <time>2021-12-03T14:55:45Z</time>
      </trkpt>
      <trkpt lat="46.49125" lon="5.32957">
        <ele>235</ele>
        <time>2021-12-03T14:55:49Z</time>
      </trkpt>
      <trkpt lat="46.49128" lon="5.32988">
        <ele>235.4</ele>
        <time>2021-12-03T14:55:53Z</time>
      </trkpt>
      <trkpt lat="46.49132" lon="5.33004">
        <ele>235.4</ele>
        <time>2021-12-03T14:55:55Z</time>
      </trkpt>
      <trkpt lat="46.49137" lon="5.33032">
        <ele>235.8</ele>
        <time>2021-12-03T14:55:58Z</time>
      </trkpt>
      <trkpt lat="46.49141" lon="5.33058">
        <ele>236.4</ele>
        <time>2021-12-03T14:56:01Z</time>
      </trkpt>
      <trkpt lat="46.49146" lon="5.33075">
        <ele>236.6</ele>
        <time>2021-12-03T14:56:03Z</time>
      </trkpt>
      <trkpt lat="46.49148" lon="5.33084">
        <ele>236.8</ele>
        <time>2021-12-03T14:56:04Z</time>
      </trkpt>
      <trkpt lat="46.4916" lon="5.33118">
        <ele>237</ele>
        <time>2021-12-03T14:56:08Z</time>
      </trkpt>
      <trkpt lat="46.4917" lon="5.33133">
        <ele>236.8</ele>
        <time>2021-12-03T14:56:10Z</time>
      </trkpt>
      <trkpt lat="46.49181" lon="5.33144">
        <ele>236.8</ele>
        <time>2021-12-03T14:56:12Z</time>
      </trkpt>
      <trkpt lat="46.49226" lon="5.33184">
        <ele>237.2</ele>
        <time>2021-12-03T14:56:21Z</time>
      </trkpt>
      <trkpt lat="46.49241" lon="5.33196">
        <ele>237.6</ele>
        <time>2021-12-03T14:56:24Z</time>
      </trkpt>
      <trkpt lat="46.4925" lon="5.33207">
        <ele>237.6</ele>
        <time>2021-12-03T14:56:26Z</time>
      </trkpt>
      <trkpt lat="46.49257" lon="5.3322">
        <ele>237.8</ele>
        <time>2021-12-03T14:56:28Z</time>
      </trkpt>
      <trkpt lat="46.4926" lon="5.33227">
        <ele>238</ele>
        <time>2021-12-03T14:56:29Z</time>
      </trkpt>
      <trkpt lat="46.49266" lon="5.33241">
        <ele>238.4</ele>
        <time>2021-12-03T14:56:31Z</time>
      </trkpt>
      <trkpt lat="46.49275" lon="5.3328">
        <ele>239</ele>
        <time>2021-12-03T14:56:36Z</time>
      </trkpt>
      <trkpt lat="46.49276" lon="5.33288">
        <ele>239.2</ele>
        <time>2021-12-03T14:56:37Z</time>
      </trkpt>
      <trkpt lat="46.49292" lon="5.33369">
        <ele>240</ele>
        <time>2021-12-03T14:56:47Z</time>
      </trkpt>
      <trkpt lat="46.49295" lon="5.33385">
        <ele>240.2</ele>
        <time>2021-12-03T14:56:49Z</time>
      </trkpt>
      <trkpt lat="46.49305" lon="5.33431">
        <ele>241.2</ele>
        <time>2021-12-03T14:56:55Z</time>
      </trkpt>
      <trkpt lat="46.49306" lon="5.33438">
        <ele>241.2</ele>
        <time>2021-12-03T14:56:56Z</time>
      </trkpt>
      <trkpt lat="46.49316" lon="5.33506">
        <ele>241.8</ele>
        <time>2021-12-03T14:57:04Z</time>
      </trkpt>
      <trkpt lat="46.49318" lon="5.33561">
        <ele>241.8</ele>
        <time>2021-12-03T14:57:10Z</time>
      </trkpt>
      <trkpt lat="46.49317" lon="5.3357">
        <ele>241.8</ele>
        <time>2021-12-03T14:57:11Z</time>
      </trkpt>
      <trkpt lat="46.49306" lon="5.33633">
        <ele>241.8</ele>
        <time>2021-12-03T14:57:18Z</time>
      </trkpt>
      <trkpt lat="46.49303" lon="5.33698">
        <ele>242</ele>
        <time>2021-12-03T14:57:25Z</time>
      </trkpt>
      <trkpt lat="46.49299" lon="5.33751">
        <ele>242.2</ele>
        <time>2021-12-03T14:57:31Z</time>
      </trkpt>
      <trkpt lat="46.49296" lon="5.33769">
        <ele>242.4</ele>
        <time>2021-12-03T14:57:33Z</time>
      </trkpt>
      <trkpt lat="46.49288" lon="5.33808">
        <ele>242.8</ele>
        <time>2021-12-03T14:57:38Z</time>
      </trkpt>
      <trkpt lat="46.49277" lon="5.33866">
        <ele>243.4</ele>
        <time>2021-12-03T14:57:45Z</time>
      </trkpt>
      <trkpt lat="46.49264" lon="5.33928">
        <ele>243.4</ele>
        <time>2021-12-03T14:57:52Z</time>
      </trkpt>
      <trkpt lat="46.49248" lon="5.34013">
        <ele>243.6</ele>
        <time>2021-12-03T14:58:01Z</time>
      </trkpt>
      <trkpt lat="46.49247" lon="5.34023">
        <ele>243.6</ele>
        <time>2021-12-03T14:58:02Z</time>
      </trkpt>
      <trkpt lat="46.49234" lon="5.34088">
        <ele>243.4</ele>
        <time>2021-12-03T14:58:09Z</time>
      </trkpt>
      <trkpt lat="46.49233" lon="5.34099">
        <ele>243.4</ele>
        <time>2021-12-03T14:58:10Z</time>
      </trkpt>
      <trkpt lat="46.49224" lon="5.34144">
        <ele>242.8</ele>
        <time>2021-12-03T14:58:14Z</time>
      </trkpt>
      <trkpt lat="46.49218" lon="5.34179">
        <ele>241.8</ele>
        <time>2021-12-03T14:58:17Z</time>
      </trkpt>
      <trkpt lat="46.49213" lon="5.34201">
        <ele>241</ele>
        <time>2021-12-03T14:58:19Z</time>
      </trkpt>
      <trkpt lat="46.49211" lon="5.34212">
        <ele>240.6</ele>
        <time>2021-12-03T14:58:20Z</time>
      </trkpt>
      <trkpt lat="46.49195" lon="5.34295">
        <ele>240.4</ele>
        <time>2021-12-03T14:58:28Z</time>
      </trkpt>
      <trkpt lat="46.49194" lon="5.34304">
        <ele>240.4</ele>
        <time>2021-12-03T14:58:29Z</time>
      </trkpt>
      <trkpt lat="46.49183" lon="5.34358">
        <ele>241</ele>
        <time>2021-12-03T14:58:35Z</time>
      </trkpt>
      <trkpt lat="46.49171" lon="5.3442">
        <ele>241.4</ele>
        <time>2021-12-03T14:58:41Z</time>
      </trkpt>
      <trkpt lat="46.49156" lon="5.34498">
        <ele>240</ele>
        <time>2021-12-03T14:58:48Z</time>
      </trkpt>
      <trkpt lat="46.49154" lon="5.34509">
        <ele>240</ele>
        <time>2021-12-03T14:58:49Z</time>
      </trkpt>
      <trkpt lat="46.49143" lon="5.34567">
        <ele>240</ele>
        <time>2021-12-03T14:58:55Z</time>
      </trkpt>
      <trkpt lat="46.49139" lon="5.34584">
        <ele>240.4</ele>
        <time>2021-12-03T14:58:57Z</time>
      </trkpt>
      <trkpt lat="46.49133" lon="5.34611">
        <ele>240.8</ele>
        <time>2021-12-03T14:59:00Z</time>
      </trkpt>
      <trkpt lat="46.49121" lon="5.34673">
        <ele>240.8</ele>
        <time>2021-12-03T14:59:06Z</time>
      </trkpt>
      <trkpt lat="46.49108" lon="5.34738">
        <ele>240.2</ele>
        <time>2021-12-03T14:59:12Z</time>
      </trkpt>
      <trkpt lat="46.49098" lon="5.34795">
        <ele>240.4</ele>
        <time>2021-12-03T14:59:18Z</time>
      </trkpt>
      <trkpt lat="46.49088" lon="5.34846">
        <ele>241.2</ele>
        <time>2021-12-03T14:59:24Z</time>
      </trkpt>
      <trkpt lat="46.49084" lon="5.34863">
        <ele>241.6</ele>
        <time>2021-12-03T14:59:26Z</time>
      </trkpt>
      <trkpt lat="46.49073" lon="5.34919">
        <ele>242.8</ele>
        <time>2021-12-03T14:59:33Z</time>
      </trkpt>
      <trkpt lat="46.49068" lon="5.34942">
        <ele>243.2</ele>
        <time>2021-12-03T14:59:36Z</time>
      </trkpt>
      <trkpt lat="46.49062" lon="5.34981">
        <ele>243.8</ele>
        <time>2021-12-03T14:59:41Z</time>
      </trkpt>
      <trkpt lat="46.49056" lon="5.35011">
        <ele>244.2</ele>
        <time>2021-12-03T14:59:45Z</time>
      </trkpt>
      <trkpt lat="46.4905" lon="5.3504">
        <ele>244.8</ele>
        <time>2021-12-03T14:59:49Z</time>
      </trkpt>
      <trkpt lat="46.49042" lon="5.35085">
        <ele>245.6</ele>
        <time>2021-12-03T14:59:55Z</time>
      </trkpt>
      <trkpt lat="46.4904" lon="5.35092">
        <ele>245.8</ele>
        <time>2021-12-03T14:59:56Z</time>
      </trkpt>
      <trkpt lat="46.49029" lon="5.35128">
        <ele>246.4</ele>
        <time>2021-12-03T15:00:01Z</time>
      </trkpt>
      <trkpt lat="46.49024" lon="5.35143">
        <ele>246.6</ele>
        <time>2021-12-03T15:00:03Z</time>
      </trkpt>
      <trkpt lat="46.49019" lon="5.35157">
        <ele>246.8</ele>
        <time>2021-12-03T15:00:05Z</time>
      </trkpt>
      <trkpt lat="46.49001" lon="5.35194">
        <ele>247</ele>
        <time>2021-12-03T15:00:10Z</time>
      </trkpt>
      <trkpt lat="46.48982" lon="5.35236">
        <ele>246.2</ele>
        <time>2021-12-03T15:00:15Z</time>
      </trkpt>
      <trkpt lat="46.4897" lon="5.35262">
        <ele>245.8</ele>
        <time>2021-12-03T15:00:18Z</time>
      </trkpt>
      <trkpt lat="46.48951" lon="5.35307">
        <ele>245.2</ele>
        <time>2021-12-03T15:00:23Z</time>
      </trkpt>
      <trkpt lat="46.48939" lon="5.35333">
        <ele>244.6</ele>
        <time>2021-12-03T15:00:26Z</time>
      </trkpt>
      <trkpt lat="46.48918" lon="5.35384">
        <ele>244.2</ele>
        <time>2021-12-03T15:00:32Z</time>
      </trkpt>
      <trkpt lat="46.48894" lon="5.35436">
        <ele>244.6</ele>
        <time>2021-12-03T15:00:39Z</time>
      </trkpt>
      <trkpt lat="46.48867" lon="5.35497">
        <ele>245.2</ele>
        <time>2021-12-03T15:00:47Z</time>
      </trkpt>
      <trkpt lat="46.48852" lon="5.35531">
        <ele>245.6</ele>
        <time>2021-12-03T15:00:52Z</time>
      </trkpt>
      <trkpt lat="46.48832" lon="5.35574">
        <ele>246</ele>
        <time>2021-12-03T15:00:58Z</time>
      </trkpt>
      <trkpt lat="46.48808" lon="5.35627">
        <ele>245.6</ele>
        <time>2021-12-03T15:01:05Z</time>
      </trkpt>
      <trkpt lat="46.48781" lon="5.35689">
        <ele>245.2</ele>
        <time>2021-12-03T15:01:13Z</time>
      </trkpt>
      <trkpt lat="46.48763" lon="5.35729">
        <ele>245.2</ele>
        <time>2021-12-03T15:01:18Z</time>
      </trkpt>
      <trkpt lat="46.48754" lon="5.35752">
        <ele>245.2</ele>
        <time>2021-12-03T15:01:21Z</time>
      </trkpt>
      <trkpt lat="46.48724" lon="5.35824">
        <ele>245.4</ele>
        <time>2021-12-03T15:01:31Z</time>
      </trkpt>
      <trkpt lat="46.48703" lon="5.35872">
        <ele>246</ele>
        <time>2021-12-03T15:01:38Z</time>
      </trkpt>
      <trkpt lat="46.48695" lon="5.35892">
        <ele>246.4</ele>
        <time>2021-12-03T15:01:41Z</time>
      </trkpt>
      <trkpt lat="46.48692" lon="5.35898">
        <ele>246.4</ele>
        <time>2021-12-03T15:01:42Z</time>
      </trkpt>
      <trkpt lat="46.48689" lon="5.35913">
        <ele>246.8</ele>
        <time>2021-12-03T15:01:44Z</time>
      </trkpt>
      <trkpt lat="46.48684" lon="5.35934">
        <ele>247.4</ele>
        <time>2021-12-03T15:01:47Z</time>
      </trkpt>
      <trkpt lat="46.48679" lon="5.35975">
        <ele>248.2</ele>
        <time>2021-12-03T15:01:52Z</time>
      </trkpt>
      <trkpt lat="46.48669" lon="5.36036">
        <ele>248.4</ele>
        <time>2021-12-03T15:01:59Z</time>
      </trkpt>
      <trkpt lat="46.48659" lon="5.36087">
        <ele>247.4</ele>
        <time>2021-12-03T15:02:04Z</time>
      </trkpt>
      <trkpt lat="46.48649" lon="5.36133">
        <ele>246.2</ele>
        <time>2021-12-03T15:02:08Z</time>
      </trkpt>
      <trkpt lat="46.48644" lon="5.36172">
        <ele>245.8</ele>
        <time>2021-12-03T15:02:12Z</time>
      </trkpt>
      <trkpt lat="46.48639" lon="5.3624">
        <ele>246.4</ele>
        <time>2021-12-03T15:02:19Z</time>
      </trkpt>
      <trkpt lat="46.48629" lon="5.36294">
        <ele>247.2</ele>
        <time>2021-12-03T15:02:26Z</time>
      </trkpt>
      <trkpt lat="46.48622" lon="5.36307">
        <ele>247.6</ele>
        <time>2021-12-03T15:02:28Z</time>
      </trkpt>
      <trkpt lat="46.48619" lon="5.36311">
        <ele>247.6</ele>
        <time>2021-12-03T15:02:29Z</time>
      </trkpt>
      <trkpt lat="46.48615" lon="5.36314">
        <ele>248</ele>
        <time>2021-12-03T15:02:30Z</time>
      </trkpt>
      <trkpt lat="46.48601" lon="5.36319">
        <ele>248.8</ele>
        <time>2021-12-03T15:02:33Z</time>
      </trkpt>
      <trkpt lat="46.48579" lon="5.36322">
        <ele>250</ele>
        <time>2021-12-03T15:02:38Z</time>
      </trkpt>
      <trkpt lat="46.48567" lon="5.36324">
        <ele>250.6</ele>
        <time>2021-12-03T15:02:41Z</time>
      </trkpt>
      <trkpt lat="46.48562" lon="5.36324">
        <ele>251</ele>
        <time>2021-12-03T15:02:42Z</time>
      </trkpt>
      <trkpt lat="46.48539" lon="5.36328">
        <ele>252</ele>
        <time>2021-12-03T15:02:47Z</time>
      </trkpt>
      <trkpt lat="46.48525" lon="5.36331">
        <ele>252.6</ele>
        <time>2021-12-03T15:02:50Z</time>
      </trkpt>
      <trkpt lat="46.48511" lon="5.36334">
        <ele>253.2</ele>
        <time>2021-12-03T15:02:53Z</time>
      </trkpt>
      <trkpt lat="46.48476" lon="5.36341">
        <ele>253.6</ele>
        <time>2021-12-03T15:03:00Z</time>
      </trkpt>
      <trkpt lat="46.4843" lon="5.3635">
        <ele>253.4</ele>
        <time>2021-12-03T15:03:09Z</time>
      </trkpt>
      <trkpt lat="46.48401" lon="5.36367">
        <ele>253.8</ele>
        <time>2021-12-03T15:03:15Z</time>
      </trkpt>
      <trkpt lat="46.48375" lon="5.36394">
        <ele>254.2</ele>
        <time>2021-12-03T15:03:21Z</time>
      </trkpt>
      <trkpt lat="46.48359" lon="5.36413">
        <ele>254.4</ele>
        <time>2021-12-03T15:03:25Z</time>
      </trkpt>
      <trkpt lat="46.48323" lon="5.36452">
        <ele>255.6</ele>
        <time>2021-12-03T15:03:34Z</time>
      </trkpt>
      <trkpt lat="46.48316" lon="5.3646">
        <ele>256</ele>
        <time>2021-12-03T15:03:36Z</time>
      </trkpt>
      <trkpt lat="46.48302" lon="5.36477">
        <ele>256.6</ele>
        <time>2021-12-03T15:03:40Z</time>
      </trkpt>
      <trkpt lat="46.48277" lon="5.36504">
        <ele>257.6</ele>
        <time>2021-12-03T15:03:47Z</time>
      </trkpt>
      <trkpt lat="46.48273" lon="5.36508">
        <ele>257.8</ele>
        <time>2021-12-03T15:03:48Z</time>
      </trkpt>
      <trkpt lat="46.48252" lon="5.36531">
        <ele>258.8</ele>
        <time>2021-12-03T15:03:54Z</time>
      </trkpt>
      <trkpt lat="46.48237" lon="5.36547">
        <ele>259.4</ele>
        <time>2021-12-03T15:03:58Z</time>
      </trkpt>
      <trkpt lat="46.48226" lon="5.36558">
        <ele>259.8</ele>
        <time>2021-12-03T15:04:01Z</time>
      </trkpt>
      <trkpt lat="46.48222" lon="5.36559">
        <ele>259.8</ele>
        <time>2021-12-03T15:04:02Z</time>
      </trkpt>
      <trkpt lat="46.48218" lon="5.36558">
        <ele>259.8</ele>
        <time>2021-12-03T15:04:03Z</time>
      </trkpt>
      <trkpt lat="46.48209" lon="5.36558">
        <ele>260</ele>
        <time>2021-12-03T15:04:05Z</time>
      </trkpt>
      <trkpt lat="46.48201" lon="5.36563">
        <ele>260.2</ele>
        <time>2021-12-03T15:04:07Z</time>
      </trkpt>
      <trkpt lat="46.48195" lon="5.36571">
        <ele>260.4</ele>
        <time>2021-12-03T15:04:09Z</time>
      </trkpt>
      <trkpt lat="46.4819" lon="5.36583">
        <ele>260.6</ele>
        <time>2021-12-03T15:04:11Z</time>
      </trkpt>
      <trkpt lat="46.48186" lon="5.36596">
        <ele>260.8</ele>
        <time>2021-12-03T15:04:13Z</time>
      </trkpt>
      <trkpt lat="46.48179" lon="5.36607">
        <ele>261</ele>
        <time>2021-12-03T15:04:15Z</time>
      </trkpt>
      <trkpt lat="46.48156" lon="5.36634">
        <ele>261.4</ele>
        <time>2021-12-03T15:04:21Z</time>
      </trkpt>
      <trkpt lat="46.48142" lon="5.36652">
        <ele>261.8</ele>
        <time>2021-12-03T15:04:25Z</time>
      </trkpt>
      <trkpt lat="46.48134" lon="5.3666">
        <ele>262</ele>
        <time>2021-12-03T15:04:27Z</time>
      </trkpt>
      <trkpt lat="46.4813" lon="5.36664">
        <ele>262</ele>
        <time>2021-12-03T15:04:28Z</time>
      </trkpt>
      <trkpt lat="46.48113" lon="5.36683">
        <ele>262.6</ele>
        <time>2021-12-03T15:04:34Z</time>
      </trkpt>
      <trkpt lat="46.48112" lon="5.36685">
        <ele>262.8</ele>
        <time>2021-12-03T15:04:35Z</time>
      </trkpt>
      <trkpt lat="46.48109" lon="5.36688">
        <ele>263.2</ele>
        <time>2021-12-03T15:04:37Z</time>
      </trkpt>
      <trkpt lat="46.48106" lon="5.3669">
        <ele>263.6</ele>
        <time>2021-12-03T15:04:39Z</time>
      </trkpt>
      <trkpt lat="46.48103" lon="5.36692">
        <ele>263.8</ele>
        <time>2021-12-03T15:04:41Z</time>
      </trkpt>
      <trkpt lat="46.48102" lon="5.36699">
        <ele>264</ele>
        <time>2021-12-03T15:04:43Z</time>
      </trkpt>
      <trkpt lat="46.48111" lon="5.36708">
        <ele>264.2</ele>
        <time>2021-12-03T15:04:46Z</time>
      </trkpt>
      <trkpt lat="46.48139" lon="5.36729">
        <ele>264.6</ele>
        <time>2021-12-03T15:04:53Z</time>
      </trkpt>
      <trkpt lat="46.48147" lon="5.36735">
        <ele>265</ele>
        <time>2021-12-03T15:04:55Z</time>
      </trkpt>
      <trkpt lat="46.48158" lon="5.36744">
        <ele>266</ele>
        <time>2021-12-03T15:04:58Z</time>
      </trkpt>
      <trkpt lat="46.48179" lon="5.36764">
        <ele>267.2</ele>
        <time>2021-12-03T15:05:04Z</time>
      </trkpt>
      <trkpt lat="46.48197" lon="5.36779">
        <ele>268.4</ele>
        <time>2021-12-03T15:05:09Z</time>
      </trkpt>
      <trkpt lat="46.48208" lon="5.36787">
        <ele>268.8</ele>
        <time>2021-12-03T15:05:12Z</time>
      </trkpt>
      <trkpt lat="46.48215" lon="5.36792">
        <ele>269.4</ele>
        <time>2021-12-03T15:05:14Z</time>
      </trkpt>
      <trkpt lat="46.48229" lon="5.36805">
        <ele>270.6</ele>
        <time>2021-12-03T15:05:18Z</time>
      </trkpt>
      <trkpt lat="46.48236" lon="5.3681">
        <ele>271.2</ele>
        <time>2021-12-03T15:05:20Z</time>
      </trkpt>
      <trkpt lat="46.48242" lon="5.36816">
        <ele>271.6</ele>
        <time>2021-12-03T15:05:22Z</time>
      </trkpt>
      <trkpt lat="46.48264" lon="5.36837">
        <ele>272.8</ele>
        <time>2021-12-03T15:05:29Z</time>
      </trkpt>
    </trkseg>
  </trk>
</gpx>